<?xml version='1.0' encoding='UTF-8'?><gpx version="1.1" creator="JPX - https://github.com/jenetics/jpx" xmlns="http://www.topografix.com/GPX/1/1"><trk><trkseg><trkpt lat="45.3588365" lon="10.5587288"><ele>102.0</ele><time>2026-04-12T06:21:42.541Z</time></trkpt><trkpt lat="45.358721" lon="10.5589796"><ele>102.0</ele><time>2026-04-12T06:21:44.427Z</time></trkpt><trkpt lat="45.3586284" lon="10.559094"><ele>102.0</ele><time>2026-04-12T06:21:45.421Z</time></trkpt><trkpt lat="45.3585277" lon="10.5591993"><ele>102.0</ele><time>2026-04-12T06:21:46.427Z</time></trkpt><trkpt lat="45.3584291" lon="10.5592883"><ele>102.0</ele><time>2026-04-12T06:21:47.425Z</time></trkpt><trkpt lat="45.3583276" lon="10.5593496"><ele>102.0</ele><time>2026-04-12T06:21:48.424Z</time></trkpt><trkpt lat="45.3582255" lon="10.5594174"><ele>102.0</ele><time>2026-04-12T06:21:49.421Z</time></trkpt><trkpt lat="45.3581138" lon="10.5594897"><ele>102.5</ele><time>2026-04-12T06:21:50.429Z</time></trkpt><trkpt lat="45.3579983" lon="10.5595657"><ele>103.0</ele><time>2026-04-12T06:21:51.419Z</time></trkpt><trkpt lat="45.3578832" lon="10.5596412"><ele>103.5</ele><time>2026-04-12T06:21:52.42Z</time></trkpt><trkpt lat="45.3577833" lon="10.55971"><ele>104.0</ele><time>2026-04-12T06:21:53.426Z</time></trkpt><trkpt lat="45.3576927" lon="10.5597696"><ele>103.99999999999999</ele><time>2026-04-12T06:21:54.424Z</time></trkpt><trkpt lat="45.3576065" lon="10.5598183"><ele>104.0</ele><time>2026-04-12T06:21:55.426Z</time></trkpt><trkpt lat="45.357534" lon="10.5598608"><ele>104.0</ele><time>2026-04-12T06:21:56.422Z</time></trkpt><trkpt lat="45.3574686" lon="10.5598946"><ele>104.0</ele><time>2026-04-12T06:21:57.427Z</time></trkpt><trkpt lat="45.3573771" lon="10.559996"><ele>103.99999999999999</ele><time>2026-04-12T06:21:59.419Z</time></trkpt><trkpt lat="45.3573392" lon="10.5600713"><ele>104.0</ele><time>2026-04-12T06:22:00.43Z</time></trkpt><trkpt lat="45.3573065" lon="10.5601699"><ele>104.0</ele><time>2026-04-12T06:22:01.429Z</time></trkpt><trkpt lat="45.3572754" lon="10.5602717"><ele>104.0</ele><time>2026-04-12T06:22:02.415Z</time></trkpt><trkpt lat="45.3572558" lon="10.5604236"><ele>104.0</ele><time>2026-04-12T06:22:03.417Z</time></trkpt><trkpt lat="45.357235" lon="10.5605786"><ele>104.0</ele><time>2026-04-12T06:22:04.416Z</time></trkpt><trkpt lat="45.3572148" lon="10.5607412"><ele>104.0</ele><time>2026-04-12T06:22:05.429Z</time></trkpt><trkpt lat="45.3571823" lon="10.5609364"><ele>103.66666666666666</ele><time>2026-04-12T06:22:06.424Z</time></trkpt><trkpt lat="45.3571471" lon="10.5611483"><ele>103.33333333333334</ele><time>2026-04-12T06:22:07.423Z</time></trkpt><trkpt lat="45.357109" lon="10.561358"><ele>103.0</ele><time>2026-04-12T06:22:08.42Z</time></trkpt><trkpt lat="45.357068" lon="10.5615744"><ele>103.0</ele><time>2026-04-12T06:22:09.417Z</time></trkpt><trkpt lat="45.3570179" lon="10.5617945"><ele>103.0</ele><time>2026-04-12T06:22:10.418Z</time></trkpt><trkpt lat="45.3569607" lon="10.5620157"><ele>103.0</ele><time>2026-04-12T06:22:11.42Z</time></trkpt><trkpt lat="45.3569099" lon="10.5622453"><ele>103.33333333333334</ele><time>2026-04-12T06:22:12.424Z</time></trkpt><trkpt lat="45.356861" lon="10.5624636"><ele>103.66666666666666</ele><time>2026-04-12T06:22:13.411Z</time></trkpt><trkpt lat="45.3568235" lon="10.5626732"><ele>104.0</ele><time>2026-04-12T06:22:14.418Z</time></trkpt><trkpt lat="45.3567986" lon="10.5628865"><ele>103.33333333333333</ele><time>2026-04-12T06:22:15.417Z</time></trkpt><trkpt lat="45.3567731" lon="10.5631144"><ele>102.66666666666666</ele><time>2026-04-12T06:22:16.426Z</time></trkpt><trkpt lat="45.3567361" lon="10.5633469"><ele>102.0</ele><time>2026-04-12T06:22:17.425Z</time></trkpt><trkpt lat="45.3566926" lon="10.5635812"><ele>102.0</ele><time>2026-04-12T06:22:18.435Z</time></trkpt><trkpt lat="45.3566404" lon="10.5637948"><ele>102.0</ele><time>2026-04-12T06:22:19.424Z</time></trkpt><trkpt lat="45.3565804" lon="10.5639814"><ele>102.0</ele><time>2026-04-12T06:22:20.423Z</time></trkpt><trkpt lat="45.3565204" lon="10.5641455"><ele>102.0</ele><time>2026-04-12T06:22:21.417Z</time></trkpt><trkpt lat="45.3564689" lon="10.5642844"><ele>102.0</ele><time>2026-04-12T06:22:22.429Z</time></trkpt><trkpt lat="45.3564263" lon="10.5643943"><ele>102.0</ele><time>2026-04-12T06:22:23.429Z</time></trkpt><trkpt lat="45.3563976" lon="10.5644815"><ele>102.0</ele><time>2026-04-12T06:22:24.426Z</time></trkpt><trkpt lat="45.3563922" lon="10.5646013"><ele>102.0</ele><time>2026-04-12T06:22:26.436Z</time></trkpt><trkpt lat="45.356465" lon="10.5646976"><ele>102.0</ele><time>2026-04-12T06:22:28.426Z</time></trkpt><trkpt lat="45.3565234" lon="10.5647569"><ele>102.0</ele><time>2026-04-12T06:22:29.425Z</time></trkpt><trkpt lat="45.3565739" lon="10.5648463"><ele>102.6</ele><time>2026-04-12T06:22:30.427Z</time></trkpt><trkpt lat="45.3566024" lon="10.5649636"><ele>103.19999999999999</ele><time>2026-04-12T06:22:31.417Z</time></trkpt><trkpt lat="45.3566069" lon="10.5651079"><ele>103.8</ele><time>2026-04-12T06:22:32.425Z</time></trkpt><trkpt lat="45.3565926" lon="10.5652663"><ele>104.4</ele><time>2026-04-12T06:22:33.425Z</time></trkpt><trkpt lat="45.3565714" lon="10.5654416"><ele>105.0</ele><time>2026-04-12T06:22:34.425Z</time></trkpt><trkpt lat="45.3565605" lon="10.5656155"><ele>105.2</ele><time>2026-04-12T06:22:35.432Z</time></trkpt><trkpt lat="45.356565" lon="10.5657658"><ele>105.4</ele><time>2026-04-12T06:22:36.439Z</time></trkpt><trkpt lat="45.3565867" lon="10.565898"><ele>105.6</ele><time>2026-04-12T06:22:37.423Z</time></trkpt><trkpt lat="45.3566244" lon="10.5660104"><ele>105.8</ele><time>2026-04-12T06:22:38.426Z</time></trkpt><trkpt lat="45.3566786" lon="10.5661062"><ele>106.0</ele><time>2026-04-12T06:22:39.432Z</time></trkpt><trkpt lat="45.3567567" lon="10.5662007"><ele>106.0</ele><time>2026-04-12T06:22:40.426Z</time></trkpt><trkpt lat="45.3568591" lon="10.5663026"><ele>106.0</ele><time>2026-04-12T06:22:41.433Z</time></trkpt><trkpt lat="45.3569778" lon="10.5664094"><ele>106.0</ele><time>2026-04-12T06:22:42.433Z</time></trkpt><trkpt lat="45.3571036" lon="10.5665218"><ele>106.0</ele><time>2026-04-12T06:22:43.431Z</time></trkpt><trkpt lat="45.3572377" lon="10.5666478"><ele>106.0</ele><time>2026-04-12T06:22:44.436Z</time></trkpt><trkpt lat="45.3573765" lon="10.5667752"><ele>106.0</ele><time>2026-04-12T06:22:45.425Z</time></trkpt><trkpt lat="45.3575205" lon="10.5668975"><ele>106.0</ele><time>2026-04-12T06:22:46.424Z</time></trkpt><trkpt lat="45.3576683" lon="10.5670327"><ele>105.66666666666667</ele><time>2026-04-12T06:22:47.419Z</time></trkpt><trkpt lat="45.3578126" lon="10.5671556"><ele>105.33333333333334</ele><time>2026-04-12T06:22:48.416Z</time></trkpt><trkpt lat="45.3579426" lon="10.5672743"><ele>105.0</ele><time>2026-04-12T06:22:49.424Z</time></trkpt><trkpt lat="45.3580685" lon="10.567383"><ele>106.25</ele><time>2026-04-12T06:22:50.427Z</time></trkpt><trkpt lat="45.3581833" lon="10.5674851"><ele>107.5</ele><time>2026-04-12T06:22:51.431Z</time></trkpt><trkpt lat="45.358286" lon="10.5675674"><ele>108.75</ele><time>2026-04-12T06:22:52.428Z</time></trkpt><trkpt lat="45.3583812" lon="10.5676397"><ele>110.0</ele><time>2026-04-12T06:22:53.431Z</time></trkpt><trkpt lat="45.3584639" lon="10.5677184"><ele>110.0</ele><time>2026-04-12T06:22:54.426Z</time></trkpt><trkpt lat="45.3585377" lon="10.5677908"><ele>110.0</ele><time>2026-04-12T06:22:55.435Z</time></trkpt><trkpt lat="45.3585926" lon="10.5678639"><ele>110.0</ele><time>2026-04-12T06:22:56.428Z</time></trkpt><trkpt lat="45.3586369" lon="10.5679864"><ele>110.0</ele><time>2026-04-12T06:22:58.434Z</time></trkpt><trkpt lat="45.3586133" lon="10.5681599"><ele>110.0</ele><time>2026-04-12T06:23:00.435Z</time></trkpt><trkpt lat="45.3585859" lon="10.5682861"><ele>110.5</ele><time>2026-04-12T06:23:01.428Z</time></trkpt><trkpt lat="45.3585529" lon="10.5684337"><ele>111.0</ele><time>2026-04-12T06:23:02.429Z</time></trkpt><trkpt lat="45.3585206" lon="10.5685901"><ele>111.5</ele><time>2026-04-12T06:23:03.439Z</time></trkpt><trkpt lat="45.35849" lon="10.5687521"><ele>112.0</ele><time>2026-04-12T06:23:04.424Z</time></trkpt><trkpt lat="45.3584632" lon="10.5689155"><ele>113.0</ele><time>2026-04-12T06:23:05.433Z</time></trkpt><trkpt lat="45.3584392" lon="10.5690814"><ele>114.0</ele><time>2026-04-12T06:23:06.426Z</time></trkpt><trkpt lat="45.3584095" lon="10.569239"><ele>115.0</ele><time>2026-04-12T06:23:07.43Z</time></trkpt><trkpt lat="45.3583659" lon="10.5693857"><ele>116.0</ele><time>2026-04-12T06:23:08.435Z</time></trkpt><trkpt lat="45.3583036" lon="10.5695289"><ele>116.6</ele><time>2026-04-12T06:23:09.415Z</time></trkpt><trkpt lat="45.3582333" lon="10.5696677"><ele>117.19999999999999</ele><time>2026-04-12T06:23:10.436Z</time></trkpt><trkpt lat="45.3581716" lon="10.5698009"><ele>117.80000000000001</ele><time>2026-04-12T06:23:11.423Z</time></trkpt><trkpt lat="45.358115" lon="10.5699201"><ele>118.4</ele><time>2026-04-12T06:23:12.429Z</time></trkpt><trkpt lat="45.3580532" lon="10.5700266"><ele>119.0</ele><time>2026-04-12T06:23:13.43Z</time></trkpt><trkpt lat="45.3579905" lon="10.5701212"><ele>118.49999999999999</ele><time>2026-04-12T06:23:14.424Z</time></trkpt><trkpt lat="45.3579319" lon="10.5702108"><ele>118.0</ele><time>2026-04-12T06:23:15.434Z</time></trkpt><trkpt lat="45.357888" lon="10.5702793"><ele>117.5</ele><time>2026-04-12T06:23:16.422Z</time></trkpt><trkpt lat="45.3578195" lon="10.5703638"><ele>117.0</ele><time>2026-04-12T06:23:22.429Z</time></trkpt><trkpt lat="45.3577597" lon="10.5704271"><ele>116.49999999999999</ele><time>2026-04-12T06:23:23.426Z</time></trkpt><trkpt lat="45.357692" lon="10.5704918"><ele>116.0</ele><time>2026-04-12T06:23:24.424Z</time></trkpt><trkpt lat="45.3576004" lon="10.570581"><ele>116.0</ele><time>2026-04-12T06:23:25.433Z</time></trkpt><trkpt lat="45.3574997" lon="10.5706715"><ele>116.0</ele><time>2026-04-12T06:23:26.421Z</time></trkpt><trkpt lat="45.3573952" lon="10.5707683"><ele>116.0</ele><time>2026-04-12T06:23:27.424Z</time></trkpt><trkpt lat="45.3572797" lon="10.5708716"><ele>116.0</ele><time>2026-04-12T06:23:28.429Z</time></trkpt><trkpt lat="45.3571619" lon="10.5709699"><ele>115.75</ele><time>2026-04-12T06:23:29.427Z</time></trkpt><trkpt lat="45.3570423" lon="10.5710662"><ele>115.5</ele><time>2026-04-12T06:23:30.429Z</time></trkpt><trkpt lat="45.3569241" lon="10.5711699"><ele>115.25</ele><time>2026-04-12T06:23:31.434Z</time></trkpt><trkpt lat="45.3568102" lon="10.5712679"><ele>115.0</ele><time>2026-04-12T06:23:32.431Z</time></trkpt><trkpt lat="45.3567036" lon="10.5713646"><ele>115.0</ele><time>2026-04-12T06:23:33.427Z</time></trkpt><trkpt lat="45.3565973" lon="10.5714605"><ele>115.0</ele><time>2026-04-12T06:23:34.435Z</time></trkpt><trkpt lat="45.3564965" lon="10.5715591"><ele>115.0</ele><time>2026-04-12T06:23:35.433Z</time></trkpt><trkpt lat="45.3563984" lon="10.5716465"><ele>115.0</ele><time>2026-04-12T06:23:36.425Z</time></trkpt><trkpt lat="45.3563066" lon="10.5717193"><ele>115.00000000000001</ele><time>2026-04-12T06:23:37.422Z</time></trkpt><trkpt lat="45.356225" lon="10.5718083"><ele>115.0</ele><time>2026-04-12T06:23:38.427Z</time></trkpt><trkpt lat="45.3561505" lon="10.5718792"><ele>115.0</ele><time>2026-04-12T06:23:39.431Z</time></trkpt><trkpt lat="45.3560884" lon="10.571941"><ele>115.0</ele><time>2026-04-12T06:23:40.426Z</time></trkpt><trkpt lat="45.35603" lon="10.5719956"><ele>115.00000000000001</ele><time>2026-04-12T06:23:41.428Z</time></trkpt><trkpt lat="45.3559445" lon="10.5720662"><ele>115.0</ele><time>2026-04-12T06:23:43.422Z</time></trkpt><trkpt lat="45.3558808" lon="10.5721194"><ele>115.00000000000001</ele><time>2026-04-12T06:23:46.427Z</time></trkpt><trkpt lat="45.3558124" lon="10.5721189"><ele>115.0</ele><time>2026-04-12T06:26:42.429Z</time></trkpt><trkpt lat="45.3558363" lon="10.5720206"><ele>115.0</ele><time>2026-04-12T06:26:48.514Z</time></trkpt><trkpt lat="45.3557887" lon="10.5720796"><ele>115.0</ele><time>2026-04-12T06:26:52.473Z</time></trkpt><trkpt lat="45.3558502" lon="10.5721407"><ele>115.00000000000001</ele><time>2026-04-12T06:30:03.438Z</time></trkpt><trkpt lat="45.3558927" lon="10.5722744"><ele>115.0</ele><time>2026-04-12T06:30:47.431Z</time></trkpt><trkpt lat="45.3558846" lon="10.5723788"><ele>115.00000000000001</ele><time>2026-04-12T06:30:48.43Z</time></trkpt><trkpt lat="45.3558734" lon="10.5725036"><ele>115.0</ele><time>2026-04-12T06:30:49.419Z</time></trkpt><trkpt lat="45.3558567" lon="10.5726321"><ele>115.0</ele><time>2026-04-12T06:30:50.436Z</time></trkpt><trkpt lat="45.3558387" lon="10.5727536"><ele>115.0</ele><time>2026-04-12T06:30:51.433Z</time></trkpt><trkpt lat="45.3558306" lon="10.5728679"><ele>115.00000000000001</ele><time>2026-04-12T06:30:52.426Z</time></trkpt><trkpt lat="45.3558251" lon="10.5729809"><ele>115.0</ele><time>2026-04-12T06:30:53.434Z</time></trkpt><trkpt lat="45.3558182" lon="10.5730831"><ele>115.0</ele><time>2026-04-12T06:30:54.431Z</time></trkpt><trkpt lat="45.3558141" lon="10.5731731"><ele>115.0</ele><time>2026-04-12T06:30:55.425Z</time></trkpt><trkpt lat="45.3558087" lon="10.5733399"><ele>115.0</ele><time>2026-04-12T06:30:57.426Z</time></trkpt><trkpt lat="45.3557755" lon="10.573476"><ele>115.0</ele><time>2026-04-12T06:30:59.429Z</time></trkpt><trkpt lat="45.3557233" lon="10.5735435"><ele>115.0</ele><time>2026-04-12T06:31:01.426Z</time></trkpt><trkpt lat="45.3556265" lon="10.5735128"><ele>115.00000000000001</ele><time>2026-04-12T06:31:03.433Z</time></trkpt><trkpt lat="45.3555526" lon="10.5734819"><ele>115.0</ele><time>2026-04-12T06:31:04.427Z</time></trkpt><trkpt lat="45.3554706" lon="10.5734524"><ele>115.0</ele><time>2026-04-12T06:31:05.424Z</time></trkpt><trkpt lat="45.3553855" lon="10.5734223"><ele>115.0</ele><time>2026-04-12T06:31:06.427Z</time></trkpt><trkpt lat="45.3552968" lon="10.5733764"><ele>115.00000000000001</ele><time>2026-04-12T06:31:07.434Z</time></trkpt><trkpt lat="45.3552068" lon="10.5733321"><ele>115.0</ele><time>2026-04-12T06:31:08.424Z</time></trkpt><trkpt lat="45.3551159" lon="10.5732842"><ele>114.50000000000001</ele><time>2026-04-12T06:31:09.429Z</time></trkpt><trkpt lat="45.3550228" lon="10.5732255"><ele>114.0</ele><time>2026-04-12T06:31:10.428Z</time></trkpt><trkpt lat="45.3549469" lon="10.5731747"><ele>113.5</ele><time>2026-04-12T06:31:11.425Z</time></trkpt><trkpt lat="45.3548849" lon="10.573135"><ele>113.0</ele><time>2026-04-12T06:31:12.43Z</time></trkpt><trkpt lat="45.3548169" lon="10.5730846"><ele>112.50000000000001</ele><time>2026-04-12T06:31:14.428Z</time></trkpt><trkpt lat="45.3547652" lon="10.5730179"><ele>112.0</ele><time>2026-04-12T06:31:20.436Z</time></trkpt><trkpt lat="45.3546888" lon="10.5729376"><ele>111.16666666666667</ele><time>2026-04-12T06:31:22.428Z</time></trkpt><trkpt lat="45.3546328" lon="10.5728902"><ele>110.33333333333334</ele><time>2026-04-12T06:31:23.433Z</time></trkpt><trkpt lat="45.3545592" lon="10.5728237"><ele>109.5</ele><time>2026-04-12T06:31:24.425Z</time></trkpt><trkpt lat="45.354483" lon="10.572749"><ele>108.66666666666666</ele><time>2026-04-12T06:31:25.426Z</time></trkpt><trkpt lat="45.3544054" lon="10.5726722"><ele>107.83333333333333</ele><time>2026-04-12T06:31:26.437Z</time></trkpt><trkpt lat="45.3543156" lon="10.5725937"><ele>107.0</ele><time>2026-04-12T06:31:27.442Z</time></trkpt><trkpt lat="45.3542243" lon="10.5725098"><ele>107.0</ele><time>2026-04-12T06:31:28.432Z</time></trkpt><trkpt lat="45.3541337" lon="10.5724316"><ele>107.0</ele><time>2026-04-12T06:31:29.439Z</time></trkpt><trkpt lat="45.3540379" lon="10.5723452"><ele>107.0</ele><time>2026-04-12T06:31:30.434Z</time></trkpt><trkpt lat="45.3539334" lon="10.5722556"><ele>107.0</ele><time>2026-04-12T06:31:31.436Z</time></trkpt><trkpt lat="45.3538248" lon="10.5721647"><ele>106.25</ele><time>2026-04-12T06:31:32.428Z</time></trkpt><trkpt lat="45.3537201" lon="10.5720798"><ele>105.5</ele><time>2026-04-12T06:31:33.431Z</time></trkpt><trkpt lat="45.3536187" lon="10.5719966"><ele>104.75</ele><time>2026-04-12T06:31:34.446Z</time></trkpt><trkpt lat="45.3535209" lon="10.5719102"><ele>104.0</ele><time>2026-04-12T06:31:35.436Z</time></trkpt><trkpt lat="45.353423" lon="10.5718233"><ele>103.75</ele><time>2026-04-12T06:31:36.429Z</time></trkpt><trkpt lat="45.3533264" lon="10.5717291"><ele>103.5</ele><time>2026-04-12T06:31:37.433Z</time></trkpt><trkpt lat="45.3532305" lon="10.57163"><ele>103.25</ele><time>2026-04-12T06:31:38.441Z</time></trkpt><trkpt lat="45.3531349" lon="10.5715299"><ele>103.0</ele><time>2026-04-12T06:31:39.438Z</time></trkpt><trkpt lat="45.3530377" lon="10.5714298"><ele>102.5</ele><time>2026-04-12T06:31:40.428Z</time></trkpt><trkpt lat="45.3529419" lon="10.5713306"><ele>102.0</ele><time>2026-04-12T06:31:41.444Z</time></trkpt><trkpt lat="45.3528409" lon="10.5712343"><ele>101.5</ele><time>2026-04-12T06:31:42.439Z</time></trkpt><trkpt lat="45.3527333" lon="10.571139"><ele>101.0</ele><time>2026-04-12T06:31:43.429Z</time></trkpt><trkpt lat="45.3526225" lon="10.5710439"><ele>101.25</ele><time>2026-04-12T06:31:44.433Z</time></trkpt><trkpt lat="45.3525092" lon="10.5709543"><ele>101.5</ele><time>2026-04-12T06:31:45.44Z</time></trkpt><trkpt lat="45.352398" lon="10.5708673"><ele>101.75</ele><time>2026-04-12T06:31:46.428Z</time></trkpt><trkpt lat="45.3522879" lon="10.5707799"><ele>102.0</ele><time>2026-04-12T06:31:47.431Z</time></trkpt><trkpt lat="45.3521789" lon="10.5706902"><ele>102.0</ele><time>2026-04-12T06:31:48.439Z</time></trkpt><trkpt lat="45.3520714" lon="10.5705936"><ele>102.0</ele><time>2026-04-12T06:31:49.427Z</time></trkpt><trkpt lat="45.3519682" lon="10.5704984"><ele>102.0</ele><time>2026-04-12T06:31:50.428Z</time></trkpt><trkpt lat="45.3518721" lon="10.5704093"><ele>102.0</ele><time>2026-04-12T06:31:51.425Z</time></trkpt><trkpt lat="45.3517873" lon="10.5703295"><ele>101.83333333333333</ele><time>2026-04-12T06:31:52.429Z</time></trkpt><trkpt lat="45.3517113" lon="10.5702567"><ele>101.66666666666666</ele><time>2026-04-12T06:31:53.437Z</time></trkpt><trkpt lat="45.3516427" lon="10.5701927"><ele>101.5</ele><time>2026-04-12T06:31:54.428Z</time></trkpt><trkpt lat="45.3515841" lon="10.5701381"><ele>101.33333333333333</ele><time>2026-04-12T06:31:55.437Z</time></trkpt><trkpt lat="45.3515117" lon="10.5700755"><ele>101.16666666666666</ele><time>2026-04-12T06:31:57.438Z</time></trkpt><trkpt lat="45.3514351" lon="10.570071"><ele>101.0</ele><time>2026-04-12T06:32:01.437Z</time></trkpt><trkpt lat="45.3513423" lon="10.5701493"><ele>101.0</ele><time>2026-04-12T06:32:03.44Z</time></trkpt><trkpt lat="45.3512737" lon="10.5701987"><ele>101.0</ele><time>2026-04-12T06:32:04.439Z</time></trkpt><trkpt lat="45.3511961" lon="10.5702626"><ele>101.0</ele><time>2026-04-12T06:32:05.439Z</time></trkpt><trkpt lat="45.3511119" lon="10.570335"><ele>101.0</ele><time>2026-04-12T06:32:06.44Z</time></trkpt><trkpt lat="45.3510209" lon="10.5704349"><ele>101.0</ele><time>2026-04-12T06:32:07.441Z</time></trkpt><trkpt lat="45.3509316" lon="10.570535"><ele>101.0</ele><time>2026-04-12T06:32:08.439Z</time></trkpt><trkpt lat="45.3508442" lon="10.5706576"><ele>101.0</ele><time>2026-04-12T06:32:09.438Z</time></trkpt><trkpt lat="45.3507682" lon="10.5707768"><ele>101.0</ele><time>2026-04-12T06:32:10.436Z</time></trkpt><trkpt lat="45.3506947" lon="10.5708957"><ele>101.0</ele><time>2026-04-12T06:32:11.436Z</time></trkpt><trkpt lat="45.3506244" lon="10.5710155"><ele>101.0</ele><time>2026-04-12T06:32:12.442Z</time></trkpt><trkpt lat="45.3505451" lon="10.5711452"><ele>101.0</ele><time>2026-04-12T06:32:13.442Z</time></trkpt><trkpt lat="45.3504612" lon="10.571287"><ele>101.0</ele><time>2026-04-12T06:32:14.443Z</time></trkpt><trkpt lat="45.3503756" lon="10.5714328"><ele>101.0</ele><time>2026-04-12T06:32:15.438Z</time></trkpt><trkpt lat="45.3502915" lon="10.571577"><ele>101.0</ele><time>2026-04-12T06:32:16.43Z</time></trkpt><trkpt lat="45.3502095" lon="10.5717149"><ele>101.0</ele><time>2026-04-12T06:32:17.446Z</time></trkpt><trkpt lat="45.350126" lon="10.571851"><ele>101.0</ele><time>2026-04-12T06:32:18.435Z</time></trkpt><trkpt lat="45.3500428" lon="10.5719888"><ele>101.0</ele><time>2026-04-12T06:32:19.435Z</time></trkpt><trkpt lat="45.3499578" lon="10.5721311"><ele>101.0</ele><time>2026-04-12T06:32:20.437Z</time></trkpt><trkpt lat="45.349869" lon="10.5722761"><ele>101.0</ele><time>2026-04-12T06:32:21.44Z</time></trkpt><trkpt lat="45.349782" lon="10.5724203"><ele>101.0</ele><time>2026-04-12T06:32:22.436Z</time></trkpt><trkpt lat="45.3496963" lon="10.5725623"><ele>101.0</ele><time>2026-04-12T06:32:23.443Z</time></trkpt><trkpt lat="45.3496108" lon="10.5727047"><ele>101.0</ele><time>2026-04-12T06:32:24.438Z</time></trkpt><trkpt lat="45.3495254" lon="10.5728461"><ele>101.0</ele><time>2026-04-12T06:32:25.44Z</time></trkpt><trkpt lat="45.3494387" lon="10.5729902"><ele>101.0</ele><time>2026-04-12T06:32:26.426Z</time></trkpt><trkpt lat="45.3493544" lon="10.5731298"><ele>101.0</ele><time>2026-04-12T06:32:27.436Z</time></trkpt><trkpt lat="45.3492772" lon="10.573259"><ele>101.0</ele><time>2026-04-12T06:32:28.441Z</time></trkpt><trkpt lat="45.3492023" lon="10.5733825"><ele>101.0</ele><time>2026-04-12T06:32:29.434Z</time></trkpt><trkpt lat="45.3491305" lon="10.573501"><ele>101.0</ele><time>2026-04-12T06:32:30.446Z</time></trkpt><trkpt lat="45.3490645" lon="10.5736261"><ele>101.0</ele><time>2026-04-12T06:32:31.434Z</time></trkpt><trkpt lat="45.349003" lon="10.5737579"><ele>101.0</ele><time>2026-04-12T06:32:32.446Z</time></trkpt><trkpt lat="45.3489399" lon="10.5739042"><ele>101.0</ele><time>2026-04-12T06:32:33.433Z</time></trkpt><trkpt lat="45.3488825" lon="10.5740643"><ele>101.0</ele><time>2026-04-12T06:32:34.438Z</time></trkpt><trkpt lat="45.3488306" lon="10.5742366"><ele>101.0</ele><time>2026-04-12T06:32:35.441Z</time></trkpt><trkpt lat="45.3487778" lon="10.5744204"><ele>101.0</ele><time>2026-04-12T06:32:36.437Z</time></trkpt><trkpt lat="45.3487275" lon="10.5746073"><ele>101.75</ele><time>2026-04-12T06:32:37.433Z</time></trkpt><trkpt lat="45.3486783" lon="10.5747888"><ele>102.5</ele><time>2026-04-12T06:32:38.434Z</time></trkpt><trkpt lat="45.3486326" lon="10.57496"><ele>103.25</ele><time>2026-04-12T06:32:39.44Z</time></trkpt><trkpt lat="45.3485879" lon="10.5751266"><ele>104.0</ele><time>2026-04-12T06:32:40.445Z</time></trkpt><trkpt lat="45.3485466" lon="10.5752822"><ele>103.5</ele><time>2026-04-12T06:32:41.438Z</time></trkpt><trkpt lat="45.3485147" lon="10.5754355"><ele>103.0</ele><time>2026-04-12T06:32:42.445Z</time></trkpt><trkpt lat="45.3484965" lon="10.5755934"><ele>102.5</ele><time>2026-04-12T06:32:43.437Z</time></trkpt><trkpt lat="45.3484928" lon="10.5757621"><ele>102.0</ele><time>2026-04-12T06:32:44.434Z</time></trkpt><trkpt lat="45.3485049" lon="10.5759341"><ele>102.0</ele><time>2026-04-12T06:32:45.436Z</time></trkpt><trkpt lat="45.3485346" lon="10.5761112"><ele>102.0</ele><time>2026-04-12T06:32:46.44Z</time></trkpt><trkpt lat="45.3485757" lon="10.5762959"><ele>102.0</ele><time>2026-04-12T06:32:47.437Z</time></trkpt><trkpt lat="45.3486208" lon="10.5764901"><ele>102.0</ele><time>2026-04-12T06:32:48.442Z</time></trkpt><trkpt lat="45.3486665" lon="10.5766855"><ele>101.75</ele><time>2026-04-12T06:32:49.445Z</time></trkpt><trkpt lat="45.3487127" lon="10.5768779"><ele>101.5</ele><time>2026-04-12T06:32:50.44Z</time></trkpt><trkpt lat="45.3487595" lon="10.57707"><ele>101.25</ele><time>2026-04-12T06:32:51.429Z</time></trkpt><trkpt lat="45.3488047" lon="10.5772554"><ele>101.0</ele><time>2026-04-12T06:32:52.436Z</time></trkpt><trkpt lat="45.3488467" lon="10.5774283"><ele>101.0</ele><time>2026-04-12T06:32:53.443Z</time></trkpt><trkpt lat="45.3488854" lon="10.5775917"><ele>101.0</ele><time>2026-04-12T06:32:54.441Z</time></trkpt><trkpt lat="45.3489201" lon="10.5777528"><ele>101.0</ele><time>2026-04-12T06:32:55.441Z</time></trkpt><trkpt lat="45.3489506" lon="10.5779248"><ele>101.0</ele><time>2026-04-12T06:32:56.443Z</time></trkpt><trkpt lat="45.3489735" lon="10.5781019"><ele>100.8</ele><time>2026-04-12T06:32:57.431Z</time></trkpt><trkpt lat="45.3489874" lon="10.5782662"><ele>100.6</ele><time>2026-04-12T06:32:58.437Z</time></trkpt><trkpt lat="45.3489942" lon="10.5784192"><ele>100.4</ele><time>2026-04-12T06:32:59.433Z</time></trkpt><trkpt lat="45.349" lon="10.5785584"><ele>100.2</ele><time>2026-04-12T06:33:00.443Z</time></trkpt><trkpt lat="45.3490002" lon="10.578679"><ele>100.0</ele><time>2026-04-12T06:33:01.441Z</time></trkpt><trkpt lat="45.3490004" lon="10.5787695"><ele>100.50000000000001</ele><time>2026-04-12T06:33:02.437Z</time></trkpt><trkpt lat="45.349" lon="10.5788945"><ele>101.0</ele><time>2026-04-12T06:33:04.433Z</time></trkpt><trkpt lat="45.3490009" lon="10.5790513"><ele>101.5</ele><time>2026-04-12T06:33:06.445Z</time></trkpt><trkpt lat="45.3490092" lon="10.5792009"><ele>102.0</ele><time>2026-04-12T06:33:08.443Z</time></trkpt><trkpt lat="45.3490334" lon="10.5792855"><ele>102.50000000000001</ele><time>2026-04-12T06:33:09.44Z</time></trkpt><trkpt lat="45.3490695" lon="10.5793875"><ele>103.0</ele><time>2026-04-12T06:33:10.434Z</time></trkpt><trkpt lat="45.3491118" lon="10.5794889"><ele>104.2</ele><time>2026-04-12T06:33:11.44Z</time></trkpt><trkpt lat="45.3491565" lon="10.5795776"><ele>105.4</ele><time>2026-04-12T06:33:12.437Z</time></trkpt><trkpt lat="45.3492275" lon="10.5797071"><ele>106.60000000000001</ele><time>2026-04-12T06:33:14.434Z</time></trkpt><trkpt lat="45.3492871" lon="10.5798225"><ele>107.80000000000001</ele><time>2026-04-12T06:33:16.441Z</time></trkpt><trkpt lat="45.3493474" lon="10.5799387"><ele>109.0</ele><time>2026-04-12T06:33:18.448Z</time></trkpt><trkpt lat="45.3493652" lon="10.5800462"><ele>109.00000000000001</ele><time>2026-04-12T06:33:20.437Z</time></trkpt><trkpt lat="45.3493071" lon="10.5801612"><ele>109.0</ele><time>2026-04-12T06:33:22.423Z</time></trkpt><trkpt lat="45.3492515" lon="10.5802118"><ele>109.0</ele><time>2026-04-12T06:33:23.437Z</time></trkpt><trkpt lat="45.3491995" lon="10.5802653"><ele>109.0</ele><time>2026-04-12T06:33:24.437Z</time></trkpt><trkpt lat="45.3491188" lon="10.5803602"><ele>109.00000000000001</ele><time>2026-04-12T06:33:26.444Z</time></trkpt><trkpt lat="45.3490555" lon="10.5804475"><ele>109.0</ele><time>2026-04-12T06:33:28.436Z</time></trkpt><trkpt lat="45.3489951" lon="10.5805001"><ele>107.83333333333334</ele><time>2026-04-12T06:33:30.436Z</time></trkpt><trkpt lat="45.3489289" lon="10.5805767"><ele>106.66666666666667</ele><time>2026-04-12T06:33:32.436Z</time></trkpt><trkpt lat="45.3488309" lon="10.5806925"><ele>105.5</ele><time>2026-04-12T06:33:34.436Z</time></trkpt><trkpt lat="45.3487836" lon="10.580764"><ele>104.33333333333334</ele><time>2026-04-12T06:33:35.428Z</time></trkpt><trkpt lat="45.3487369" lon="10.5808378"><ele>103.16666666666667</ele><time>2026-04-12T06:33:36.443Z</time></trkpt><trkpt lat="45.3486942" lon="10.5809099"><ele>102.0</ele><time>2026-04-12T06:33:37.428Z</time></trkpt><trkpt lat="45.3486415" lon="10.5810079"><ele>102.0</ele><time>2026-04-12T06:33:38.435Z</time></trkpt><trkpt lat="45.3485959" lon="10.581094"><ele>102.0</ele><time>2026-04-12T06:33:39.438Z</time></trkpt><trkpt lat="45.3485101" lon="10.5812447"><ele>102.0</ele><time>2026-04-12T06:33:41.437Z</time></trkpt><trkpt lat="45.3484563" lon="10.5813472"><ele>102.0</ele><time>2026-04-12T06:33:42.434Z</time></trkpt><trkpt lat="45.3484" lon="10.5814561"><ele>102.0</ele><time>2026-04-12T06:33:43.426Z</time></trkpt><trkpt lat="45.3483467" lon="10.5815668"><ele>103.16666666666667</ele><time>2026-04-12T06:33:44.44Z</time></trkpt><trkpt lat="45.3482893" lon="10.5816706"><ele>104.33333333333334</ele><time>2026-04-12T06:33:45.426Z</time></trkpt><trkpt lat="45.3482359" lon="10.5817739"><ele>105.5</ele><time>2026-04-12T06:33:46.432Z</time></trkpt><trkpt lat="45.3481882" lon="10.581864"><ele>106.66666666666667</ele><time>2026-04-12T06:33:47.436Z</time></trkpt><trkpt lat="45.3481411" lon="10.5819446"><ele>107.83333333333334</ele><time>2026-04-12T06:33:48.443Z</time></trkpt><trkpt lat="45.3480972" lon="10.5820291"><ele>109.0</ele><time>2026-04-12T06:33:49.436Z</time></trkpt><trkpt lat="45.348061" lon="10.5821025"><ele>108.66666666666667</ele><time>2026-04-12T06:33:50.439Z</time></trkpt><trkpt lat="45.3480225" lon="10.5822098"><ele>108.33333333333334</ele><time>2026-04-12T06:33:52.437Z</time></trkpt><trkpt lat="45.3479874" lon="10.5822919"><ele>108.0</ele><time>2026-04-12T06:33:55.431Z</time></trkpt><trkpt lat="45.3479436" lon="10.5823884"><ele>107.66666666666666</ele><time>2026-04-12T06:33:57.426Z</time></trkpt><trkpt lat="45.3479147" lon="10.5824753"><ele>107.33333333333333</ele><time>2026-04-12T06:33:58.425Z</time></trkpt><trkpt lat="45.3478691" lon="10.5826068"><ele>107.0</ele><time>2026-04-12T06:34:00.424Z</time></trkpt><trkpt lat="45.3478312" lon="10.5827172"><ele>106.99999999999999</ele><time>2026-04-12T06:34:02.424Z</time></trkpt><trkpt lat="45.3478273" lon="10.5828278"><ele>107.0</ele><time>2026-04-12T06:34:05.43Z</time></trkpt><trkpt lat="45.3478866" lon="10.5829325"><ele>107.0</ele><time>2026-04-12T06:34:07.424Z</time></trkpt><trkpt lat="45.3479066" lon="10.5830455"><ele>107.0</ele><time>2026-04-12T06:34:09.424Z</time></trkpt><trkpt lat="45.3478796" lon="10.5831289"><ele>106.99999999999999</ele><time>2026-04-12T06:34:31.43Z</time></trkpt><trkpt lat="45.3478136" lon="10.5831705"><ele>107.0</ele><time>2026-04-12T06:34:35.422Z</time></trkpt><trkpt lat="45.3477418" lon="10.5831689"><ele>107.0</ele><time>2026-04-12T06:34:37.437Z</time></trkpt><trkpt lat="45.3476526" lon="10.583088"><ele>106.99999999999999</ele><time>2026-04-12T06:34:39.426Z</time></trkpt><trkpt lat="45.3476006" lon="10.5830293"><ele>106.99999999999999</ele><time>2026-04-12T06:34:40.443Z</time></trkpt><trkpt lat="45.3475168" lon="10.5828814"><ele>107.0</ele><time>2026-04-12T06:34:42.438Z</time></trkpt><trkpt lat="45.3474764" lon="10.5827909"><ele>107.0</ele><time>2026-04-12T06:34:43.424Z</time></trkpt><trkpt lat="45.3474331" lon="10.5827023"><ele>106.99999999999999</ele><time>2026-04-12T06:34:44.433Z</time></trkpt><trkpt lat="45.347395" lon="10.5826252"><ele>107.0</ele><time>2026-04-12T06:34:45.427Z</time></trkpt><trkpt lat="45.3473135" lon="10.5825251"><ele>107.0</ele><time>2026-04-12T06:34:47.435Z</time></trkpt><trkpt lat="45.3472014" lon="10.5825049"><ele>107.0</ele><time>2026-04-12T06:34:49.424Z</time></trkpt><trkpt lat="45.3471259" lon="10.5825185"><ele>106.99999999999999</ele><time>2026-04-12T06:34:50.436Z</time></trkpt><trkpt lat="45.3470441" lon="10.5825337"><ele>107.0</ele><time>2026-04-12T06:34:51.43Z</time></trkpt><trkpt lat="45.3469591" lon="10.5825464"><ele>106.28571428571429</ele><time>2026-04-12T06:34:52.425Z</time></trkpt><trkpt lat="45.3468758" lon="10.5825505"><ele>105.57142857142857</ele><time>2026-04-12T06:34:53.442Z</time></trkpt><trkpt lat="45.3467955" lon="10.5825459"><ele>104.85714285714286</ele><time>2026-04-12T06:34:54.43Z</time></trkpt><trkpt lat="45.3467214" lon="10.5825441"><ele>104.14285714285714</ele><time>2026-04-12T06:34:55.425Z</time></trkpt><trkpt lat="45.3466543" lon="10.5825419"><ele>103.42857142857143</ele><time>2026-04-12T06:34:56.429Z</time></trkpt><trkpt lat="45.3465908" lon="10.5825682"><ele>102.71428571428572</ele><time>2026-04-12T06:34:57.427Z</time></trkpt><trkpt lat="45.3465335" lon="10.5826163"><ele>102.0</ele><time>2026-04-12T06:34:58.42Z</time></trkpt><trkpt lat="45.3464843" lon="10.5826774"><ele>102.0</ele><time>2026-04-12T06:34:59.428Z</time></trkpt><trkpt lat="45.3464061" lon="10.5827818"><ele>102.0</ele><time>2026-04-12T06:35:01.43Z</time></trkpt><trkpt lat="45.3463255" lon="10.5828168"><ele>102.0</ele><time>2026-04-12T06:35:03.427Z</time></trkpt><trkpt lat="45.3462609" lon="10.5828858"><ele>102.0</ele><time>2026-04-12T06:35:05.427Z</time></trkpt><trkpt lat="45.3462267" lon="10.5830384"><ele>102.0</ele><time>2026-04-12T06:35:07.442Z</time></trkpt><trkpt lat="45.3462088" lon="10.5831488"><ele>101.6</ele><time>2026-04-12T06:35:08.428Z</time></trkpt><trkpt lat="45.346189" lon="10.5832766"><ele>101.19999999999999</ele><time>2026-04-12T06:35:09.439Z</time></trkpt><trkpt lat="45.3461725" lon="10.5834071"><ele>100.8</ele><time>2026-04-12T06:35:10.425Z</time></trkpt><trkpt lat="45.3461552" lon="10.5835387"><ele>100.4</ele><time>2026-04-12T06:35:11.433Z</time></trkpt><trkpt lat="45.3461371" lon="10.5836742"><ele>100.0</ele><time>2026-04-12T06:35:12.42Z</time></trkpt><trkpt lat="45.3461223" lon="10.583814"><ele>100.0</ele><time>2026-04-12T06:35:13.429Z</time></trkpt><trkpt lat="45.3461079" lon="10.5839587"><ele>100.0</ele><time>2026-04-12T06:35:14.432Z</time></trkpt><trkpt lat="45.3460968" lon="10.5841066"><ele>100.0</ele><time>2026-04-12T06:35:15.432Z</time></trkpt><trkpt lat="45.3460856" lon="10.5842555"><ele>100.0</ele><time>2026-04-12T06:35:16.422Z</time></trkpt><trkpt lat="45.3460747" lon="10.5844034"><ele>100.0</ele><time>2026-04-12T06:35:17.425Z</time></trkpt><trkpt lat="45.3460638" lon="10.5845493"><ele>99.8</ele><time>2026-04-12T06:35:18.439Z</time></trkpt><trkpt lat="45.346056" lon="10.5847019"><ele>99.6</ele><time>2026-04-12T06:35:19.43Z</time></trkpt><trkpt lat="45.3460468" lon="10.5848519"><ele>99.4</ele><time>2026-04-12T06:35:20.436Z</time></trkpt><trkpt lat="45.3460369" lon="10.5850072"><ele>99.2</ele><time>2026-04-12T06:35:21.432Z</time></trkpt><trkpt lat="45.3460259" lon="10.5851562"><ele>99.0</ele><time>2026-04-12T06:35:22.43Z</time></trkpt><trkpt lat="45.3460079" lon="10.5853018"><ele>99.2</ele><time>2026-04-12T06:35:23.437Z</time></trkpt><trkpt lat="45.3459894" lon="10.5854465"><ele>99.4</ele><time>2026-04-12T06:35:24.427Z</time></trkpt><trkpt lat="45.3459491" lon="10.5855841"><ele>99.6</ele><time>2026-04-12T06:35:25.438Z</time></trkpt><trkpt lat="45.3458951" lon="10.5857341"><ele>99.8</ele><time>2026-04-12T06:35:26.428Z</time></trkpt><trkpt lat="45.3458383" lon="10.5858714"><ele>100.0</ele><time>2026-04-12T06:35:27.434Z</time></trkpt><trkpt lat="45.3457865" lon="10.5859911"><ele>100.00000000000001</ele><time>2026-04-12T06:35:28.427Z</time></trkpt><trkpt lat="45.3457462" lon="10.5860941"><ele>100.0</ele><time>2026-04-12T06:35:29.433Z</time></trkpt><trkpt lat="45.3457165" lon="10.5861799"><ele>100.0</ele><time>2026-04-12T06:35:30.437Z</time></trkpt><trkpt lat="45.345692" lon="10.5863188"><ele>100.0</ele><time>2026-04-12T06:35:32.418Z</time></trkpt><trkpt lat="45.3457135" lon="10.5864261"><ele>100.00000000000001</ele><time>2026-04-12T06:35:34.426Z</time></trkpt><trkpt lat="45.3457853" lon="10.5864697"><ele>100.0</ele><time>2026-04-12T06:35:36.432Z</time></trkpt><trkpt lat="45.3458157" lon="10.586559"><ele>99.6</ele><time>2026-04-12T06:35:51.429Z</time></trkpt><trkpt lat="45.3457325" lon="10.5865405"><ele>99.2</ele><time>2026-04-12T06:35:54.43Z</time></trkpt><trkpt lat="45.3456476" lon="10.5865529"><ele>98.80000000000001</ele><time>2026-04-12T06:35:56.433Z</time></trkpt><trkpt lat="45.3455589" lon="10.5866616"><ele>98.4</ele><time>2026-04-12T06:35:58.427Z</time></trkpt><trkpt lat="45.3454956" lon="10.5867908"><ele>98.0</ele><time>2026-04-12T06:36:00.436Z</time></trkpt><trkpt lat="45.3454444" lon="10.5869197"><ele>97.49999999999999</ele><time>2026-04-12T06:36:02.435Z</time></trkpt><trkpt lat="45.3454085" lon="10.5870177"><ele>97.0</ele><time>2026-04-12T06:36:05.428Z</time></trkpt><trkpt lat="45.3453856" lon="10.5871187"><ele>96.5</ele><time>2026-04-12T06:36:08.43Z</time></trkpt><trkpt lat="45.3453629" lon="10.5872164"><ele>96.0</ele><time>2026-04-12T06:36:10.425Z</time></trkpt><trkpt lat="45.3453334" lon="10.5873353"><ele>95.5</ele><time>2026-04-12T06:36:12.417Z</time></trkpt><trkpt lat="45.3453104" lon="10.5874406"><ele>95.0</ele><time>2026-04-12T06:36:15.428Z</time></trkpt><trkpt lat="45.3453061" lon="10.5875381"><ele>95.0</ele><time>2026-04-12T06:36:18.43Z</time></trkpt><trkpt lat="45.3452682" lon="10.5876159"><ele>95.0</ele><time>2026-04-12T06:36:20.421Z</time></trkpt><trkpt lat="45.3452214" lon="10.5877777"><ele>95.0</ele><time>2026-04-12T06:36:22.425Z</time></trkpt><trkpt lat="45.345195" lon="10.5878751"><ele>95.0</ele><time>2026-04-12T06:36:23.439Z</time></trkpt><trkpt lat="45.3451698" lon="10.5879752"><ele>95.0</ele><time>2026-04-12T06:36:24.429Z</time></trkpt><trkpt lat="45.3451426" lon="10.5880864"><ele>95.0</ele><time>2026-04-12T06:36:25.435Z</time></trkpt><trkpt lat="45.3451162" lon="10.5881941"><ele>95.33333333333334</ele><time>2026-04-12T06:36:26.434Z</time></trkpt><trkpt lat="45.3450882" lon="10.5883055"><ele>95.66666666666667</ele><time>2026-04-12T06:36:27.438Z</time></trkpt><trkpt lat="45.3450587" lon="10.5884184"><ele>96.0</ele><time>2026-04-12T06:36:28.439Z</time></trkpt><trkpt lat="45.3450313" lon="10.5885278"><ele>96.33333333333334</ele><time>2026-04-12T06:36:29.435Z</time></trkpt><trkpt lat="45.3450068" lon="10.5886263"><ele>96.66666666666667</ele><time>2026-04-12T06:36:30.426Z</time></trkpt><trkpt lat="45.344969" lon="10.5887841"><ele>97.0</ele><time>2026-04-12T06:36:32.439Z</time></trkpt><trkpt lat="45.3449679" lon="10.5889016"><ele>97.0</ele><time>2026-04-12T06:36:34.437Z</time></trkpt><trkpt lat="45.3449918" lon="10.589022"><ele>97.0</ele><time>2026-04-12T06:36:36.432Z</time></trkpt><trkpt lat="45.3449636" lon="10.5891435"><ele>97.0</ele><time>2026-04-12T06:36:38.427Z</time></trkpt><trkpt lat="45.344906" lon="10.5892707"><ele>97.0</ele><time>2026-04-12T06:36:40.428Z</time></trkpt><trkpt lat="45.3448545" lon="10.5894018"><ele>97.0</ele><time>2026-04-12T06:36:47.426Z</time></trkpt><trkpt lat="45.344812" lon="10.5895533"><ele>97.00000000000001</ele><time>2026-04-12T06:36:49.424Z</time></trkpt><trkpt lat="45.3447903" lon="10.589644"><ele>97.0</ele><time>2026-04-12T06:36:50.427Z</time></trkpt><trkpt lat="45.3447742" lon="10.5897423"><ele>97.0</ele><time>2026-04-12T06:36:51.428Z</time></trkpt><trkpt lat="45.3447557" lon="10.5898442"><ele>97.0</ele><time>2026-04-12T06:36:52.434Z</time></trkpt><trkpt lat="45.3447362" lon="10.5899482"><ele>97.00000000000001</ele><time>2026-04-12T06:36:53.427Z</time></trkpt><trkpt lat="45.3447132" lon="10.5900486"><ele>97.0</ele><time>2026-04-12T06:36:54.428Z</time></trkpt><trkpt lat="45.3446837" lon="10.5902068"><ele>96.19999999999999</ele><time>2026-04-12T06:36:56.425Z</time></trkpt><trkpt lat="45.3446588" lon="10.590359"><ele>95.4</ele><time>2026-04-12T06:36:58.426Z</time></trkpt><trkpt lat="45.3446203" lon="10.5905331"><ele>94.6</ele><time>2026-04-12T06:37:00.421Z</time></trkpt><trkpt lat="45.3445657" lon="10.5906773"><ele>93.80000000000001</ele><time>2026-04-12T06:37:02.431Z</time></trkpt><trkpt lat="45.3445066" lon="10.5907674"><ele>93.0</ele><time>2026-04-12T06:37:04.427Z</time></trkpt><trkpt lat="45.344399" lon="10.5908298"><ele>93.0</ele><time>2026-04-12T06:37:06.426Z</time></trkpt><trkpt lat="45.3442856" lon="10.5908709"><ele>93.0</ele><time>2026-04-12T06:37:08.427Z</time></trkpt><trkpt lat="45.3441872" lon="10.5909099"><ele>93.0</ele><time>2026-04-12T06:37:10.423Z</time></trkpt><trkpt lat="45.3440848" lon="10.5908985"><ele>93.0</ele><time>2026-04-12T06:37:12.431Z</time></trkpt><trkpt lat="45.3440059" lon="10.5908391"><ele>93.0</ele><time>2026-04-12T06:37:14.434Z</time></trkpt><trkpt lat="45.3439623" lon="10.5907285"><ele>92.4</ele><time>2026-04-12T06:37:16.43Z</time></trkpt><trkpt lat="45.3438691" lon="10.5907109"><ele>91.80000000000001</ele><time>2026-04-12T06:37:19.425Z</time></trkpt><trkpt lat="45.3437735" lon="10.5907864"><ele>91.2</ele><time>2026-04-12T06:37:21.426Z</time></trkpt><trkpt lat="45.343707" lon="10.5908341"><ele>90.6</ele><time>2026-04-12T06:37:22.428Z</time></trkpt><trkpt lat="45.343616" lon="10.5908741"><ele>90.0</ele><time>2026-04-12T06:37:23.435Z</time></trkpt><trkpt lat="45.3435064" lon="10.590903"><ele>90.0</ele><time>2026-04-12T06:37:24.431Z</time></trkpt><trkpt lat="45.3433878" lon="10.5909146"><ele>90.0</ele><time>2026-04-12T06:37:25.432Z</time></trkpt><trkpt lat="45.3432625" lon="10.5909194"><ele>90.0</ele><time>2026-04-12T06:37:26.429Z</time></trkpt><trkpt lat="45.3431229" lon="10.5909189"><ele>90.0</ele><time>2026-04-12T06:37:27.431Z</time></trkpt><trkpt lat="45.3429933" lon="10.5909183"><ele>89.4</ele><time>2026-04-12T06:37:28.436Z</time></trkpt><trkpt lat="45.3428777" lon="10.590922"><ele>88.8</ele><time>2026-04-12T06:37:29.444Z</time></trkpt><trkpt lat="45.3427767" lon="10.5909253"><ele>88.19999999999999</ele><time>2026-04-12T06:37:30.434Z</time></trkpt><trkpt lat="45.3426949" lon="10.5909273"><ele>87.6</ele><time>2026-04-12T06:37:31.433Z</time></trkpt><trkpt lat="45.342591" lon="10.5909415"><ele>87.0</ele><time>2026-04-12T06:37:33.427Z</time></trkpt><trkpt lat="45.3425252" lon="10.5910234"><ele>87.19999999999999</ele><time>2026-04-12T06:37:35.427Z</time></trkpt><trkpt lat="45.342495" lon="10.5911953"><ele>87.4</ele><time>2026-04-12T06:37:37.43Z</time></trkpt><trkpt lat="45.3424763" lon="10.5913245"><ele>87.6</ele><time>2026-04-12T06:37:38.436Z</time></trkpt><trkpt lat="45.3424552" lon="10.5914718"><ele>87.80000000000001</ele><time>2026-04-12T06:37:39.429Z</time></trkpt><trkpt lat="45.3424277" lon="10.5916236"><ele>88.0</ele><time>2026-04-12T06:37:40.426Z</time></trkpt><trkpt lat="45.3423917" lon="10.591785"><ele>88.0</ele><time>2026-04-12T06:37:41.432Z</time></trkpt><trkpt lat="45.3423575" lon="10.5919412"><ele>88.0</ele><time>2026-04-12T06:37:42.436Z</time></trkpt><trkpt lat="45.3423243" lon="10.5920938"><ele>88.0</ele><time>2026-04-12T06:37:43.432Z</time></trkpt><trkpt lat="45.3422909" lon="10.5922411"><ele>88.0</ele><time>2026-04-12T06:37:44.432Z</time></trkpt><trkpt lat="45.3422539" lon="10.5923859"><ele>88.0</ele><time>2026-04-12T06:37:45.435Z</time></trkpt><trkpt lat="45.342217" lon="10.5925283"><ele>87.5</ele><time>2026-04-12T06:37:46.433Z</time></trkpt><trkpt lat="45.3421823" lon="10.5926834"><ele>87.0</ele><time>2026-04-12T06:37:47.429Z</time></trkpt><trkpt lat="45.342147" lon="10.5928384"><ele>86.5</ele><time>2026-04-12T06:37:48.429Z</time></trkpt><trkpt lat="45.3421058" lon="10.5930065"><ele>86.0</ele><time>2026-04-12T06:37:49.433Z</time></trkpt><trkpt lat="45.342065" lon="10.5931915"><ele>87.25</ele><time>2026-04-12T06:37:50.436Z</time></trkpt><trkpt lat="45.342029" lon="10.5933912"><ele>88.5</ele><time>2026-04-12T06:37:51.427Z</time></trkpt><trkpt lat="45.3419917" lon="10.5935915"><ele>89.75</ele><time>2026-04-12T06:37:52.434Z</time></trkpt><trkpt lat="45.341954" lon="10.5937791"><ele>91.0</ele><time>2026-04-12T06:37:53.42Z</time></trkpt><trkpt lat="45.341914" lon="10.5939721"><ele>92.0</ele><time>2026-04-12T06:37:54.434Z</time></trkpt><trkpt lat="45.341864" lon="10.5941775"><ele>93.0</ele><time>2026-04-12T06:37:55.431Z</time></trkpt><trkpt lat="45.3418103" lon="10.5943827"><ele>94.0</ele><time>2026-04-12T06:37:56.432Z</time></trkpt><trkpt lat="45.34175" lon="10.5945932"><ele>94.33333333333333</ele><time>2026-04-12T06:37:57.437Z</time></trkpt><trkpt lat="45.3416845" lon="10.5948038"><ele>94.66666666666667</ele><time>2026-04-12T06:37:58.426Z</time></trkpt><trkpt lat="45.3416237" lon="10.5950069"><ele>95.0</ele><time>2026-04-12T06:37:59.425Z</time></trkpt><trkpt lat="45.3415629" lon="10.5952065"><ele>95.25</ele><time>2026-04-12T06:38:00.425Z</time></trkpt><trkpt lat="45.3415024" lon="10.5954034"><ele>95.5</ele><time>2026-04-12T06:38:01.434Z</time></trkpt><trkpt lat="45.3414464" lon="10.595598"><ele>95.75</ele><time>2026-04-12T06:38:02.422Z</time></trkpt><trkpt lat="45.3413891" lon="10.5957809"><ele>96.0</ele><time>2026-04-12T06:38:03.436Z</time></trkpt><trkpt lat="45.3413474" lon="10.595949"><ele>94.5</ele><time>2026-04-12T06:38:04.44Z</time></trkpt><trkpt lat="45.3413003" lon="10.5961076"><ele>93.0</ele><time>2026-04-12T06:38:05.428Z</time></trkpt><trkpt lat="45.3412573" lon="10.5962718"><ele>91.5</ele><time>2026-04-12T06:38:06.436Z</time></trkpt><trkpt lat="45.3412211" lon="10.5964262"><ele>90.0</ele><time>2026-04-12T06:38:07.436Z</time></trkpt><trkpt lat="45.3411914" lon="10.59658"><ele>90.0</ele><time>2026-04-12T06:38:08.428Z</time></trkpt><trkpt lat="45.3411712" lon="10.5967256"><ele>90.0</ele><time>2026-04-12T06:38:09.432Z</time></trkpt><trkpt lat="45.341158" lon="10.5968355"><ele>90.0</ele><time>2026-04-12T06:38:10.428Z</time></trkpt><trkpt lat="45.3411428" lon="10.5969765"><ele>90.0</ele><time>2026-04-12T06:38:12.434Z</time></trkpt><trkpt lat="45.341105" lon="10.5970728"><ele>90.0</ele><time>2026-04-12T06:38:15.432Z</time></trkpt><trkpt lat="45.3410092" lon="10.5970712"><ele>90.0</ele><time>2026-04-12T06:38:17.433Z</time></trkpt><trkpt lat="45.3409448" lon="10.5970479"><ele>90.0</ele><time>2026-04-12T06:38:18.431Z</time></trkpt><trkpt lat="45.3408613" lon="10.597029"><ele>90.0</ele><time>2026-04-12T06:38:19.44Z</time></trkpt><trkpt lat="45.3407767" lon="10.5970135"><ele>90.0</ele><time>2026-04-12T06:38:20.429Z</time></trkpt><trkpt lat="45.3406902" lon="10.5969918"><ele>90.0</ele><time>2026-04-12T06:38:21.435Z</time></trkpt><trkpt lat="45.3406164" lon="10.5969704"><ele>90.0</ele><time>2026-04-12T06:38:22.43Z</time></trkpt><trkpt lat="45.3405444" lon="10.596944"><ele>89.33333333333333</ele><time>2026-04-12T06:38:23.427Z</time></trkpt><trkpt lat="45.3404758" lon="10.5969208"><ele>88.66666666666667</ele><time>2026-04-12T06:38:24.427Z</time></trkpt><trkpt lat="45.3403999" lon="10.5969028"><ele>88.0</ele><time>2026-04-12T06:38:25.428Z</time></trkpt><trkpt lat="45.3403188" lon="10.5968767"><ele>87.33333333333334</ele><time>2026-04-12T06:38:26.436Z</time></trkpt><trkpt lat="45.3402366" lon="10.5968503"><ele>86.66666666666667</ele><time>2026-04-12T06:38:27.436Z</time></trkpt><trkpt lat="45.3401571" lon="10.5968311"><ele>86.0</ele><time>2026-04-12T06:38:28.44Z</time></trkpt><trkpt lat="45.3400785" lon="10.5968214"><ele>86.0</ele><time>2026-04-12T06:38:29.418Z</time></trkpt><trkpt lat="45.340005" lon="10.5968248"><ele>86.0</ele><time>2026-04-12T06:38:30.422Z</time></trkpt><trkpt lat="45.3399353" lon="10.5968529"><ele>86.0</ele><time>2026-04-12T06:38:31.434Z</time></trkpt><trkpt lat="45.339865" lon="10.5968771"><ele>86.0</ele><time>2026-04-12T06:38:32.439Z</time></trkpt><trkpt lat="45.339805" lon="10.5969173"><ele>86.0</ele><time>2026-04-12T06:38:33.438Z</time></trkpt><trkpt lat="45.3397298" lon="10.597001"><ele>86.0</ele><time>2026-04-12T06:38:35.433Z</time></trkpt><trkpt lat="45.339696" lon="10.5970895"><ele>86.16666666666667</ele><time>2026-04-12T06:38:54.43Z</time></trkpt><trkpt lat="45.3397635" lon="10.5971152"><ele>86.33333333333334</ele><time>2026-04-12T06:39:38.429Z</time></trkpt><trkpt lat="45.339718" lon="10.5970175"><ele>86.5</ele><time>2026-04-12T06:57:27.426Z</time></trkpt><trkpt lat="45.3396579" lon="10.5969748"><ele>86.66666666666667</ele><time>2026-04-12T06:57:29.434Z</time></trkpt><trkpt lat="45.3395557" lon="10.5968952"><ele>86.83333333333333</ele><time>2026-04-12T06:57:31.425Z</time></trkpt><trkpt lat="45.3394667" lon="10.5968229"><ele>87.0</ele><time>2026-04-12T06:57:33.431Z</time></trkpt><trkpt lat="45.3393922" lon="10.5967508"><ele>86.33333333333333</ele><time>2026-04-12T06:57:35.432Z</time></trkpt><trkpt lat="45.3393392" lon="10.5966869"><ele>85.66666666666667</ele><time>2026-04-12T06:57:37.427Z</time></trkpt><trkpt lat="45.3392873" lon="10.5966357"><ele>85.0</ele><time>2026-04-12T06:57:39.431Z</time></trkpt><trkpt lat="45.339206" lon="10.5966118"><ele>84.33333333333334</ele><time>2026-04-12T06:57:41.428Z</time></trkpt><trkpt lat="45.3391154" lon="10.5966211"><ele>83.66666666666667</ele><time>2026-04-12T06:57:43.423Z</time></trkpt><trkpt lat="45.3390069" lon="10.5965904"><ele>83.0</ele><time>2026-04-12T06:57:45.417Z</time></trkpt><trkpt lat="45.3389443" lon="10.59656"><ele>82.2</ele><time>2026-04-12T06:57:46.426Z</time></trkpt><trkpt lat="45.3388293" lon="10.5965115"><ele>81.4</ele><time>2026-04-12T06:57:48.446Z</time></trkpt><trkpt lat="45.3387423" lon="10.5964736"><ele>80.60000000000001</ele><time>2026-04-12T06:57:50.438Z</time></trkpt><trkpt lat="45.3386846" lon="10.5965398"><ele>79.80000000000001</ele><time>2026-04-12T06:57:53.43Z</time></trkpt><trkpt lat="45.3386777" lon="10.5967122"><ele>79.0</ele><time>2026-04-12T06:57:55.428Z</time></trkpt><trkpt lat="45.3386723" lon="10.5968163"><ele>79.0</ele><time>2026-04-12T06:57:56.43Z</time></trkpt><trkpt lat="45.3386671" lon="10.5969268"><ele>79.0</ele><time>2026-04-12T06:57:57.436Z</time></trkpt><trkpt lat="45.3386568" lon="10.5970416"><ele>79.0</ele><time>2026-04-12T06:57:58.436Z</time></trkpt><trkpt lat="45.3386368" lon="10.5971557"><ele>79.0</ele><time>2026-04-12T06:57:59.429Z</time></trkpt><trkpt lat="45.3386165" lon="10.5972624"><ele>79.0</ele><time>2026-04-12T06:58:00.43Z</time></trkpt><trkpt lat="45.3385802" lon="10.5973427"><ele>79.0</ele><time>2026-04-12T06:58:01.427Z</time></trkpt><trkpt lat="45.3385245" lon="10.5974016"><ele>78.8</ele><time>2026-04-12T06:58:02.429Z</time></trkpt><trkpt lat="45.3384518" lon="10.5974389"><ele>78.60000000000001</ele><time>2026-04-12T06:58:03.43Z</time></trkpt><trkpt lat="45.3383733" lon="10.5974721"><ele>78.4</ele><time>2026-04-12T06:58:04.431Z</time></trkpt><trkpt lat="45.3382785" lon="10.5974955"><ele>78.2</ele><time>2026-04-12T06:58:05.427Z</time></trkpt><trkpt lat="45.3381832" lon="10.5975156"><ele>78.0</ele><time>2026-04-12T06:58:06.43Z</time></trkpt><trkpt lat="45.3380854" lon="10.5975341"><ele>77.33333333333333</ele><time>2026-04-12T06:58:07.427Z</time></trkpt><trkpt lat="45.3379968" lon="10.5975341"><ele>76.66666666666667</ele><time>2026-04-12T06:58:08.434Z</time></trkpt><trkpt lat="45.3379238" lon="10.5975337"><ele>76.0</ele><time>2026-04-12T06:58:09.434Z</time></trkpt><trkpt lat="45.3378598" lon="10.5975299"><ele>75.33333333333334</ele><time>2026-04-12T06:58:10.433Z</time></trkpt><trkpt lat="45.3377598" lon="10.5975361"><ele>74.66666666666667</ele><time>2026-04-12T06:58:12.432Z</time></trkpt><trkpt lat="45.3377071" lon="10.597643"><ele>74.0</ele><time>2026-04-12T06:58:15.424Z</time></trkpt><trkpt lat="45.3376783" lon="10.597724"><ele>74.0</ele><time>2026-04-12T06:58:17.426Z</time></trkpt><trkpt lat="45.3376013" lon="10.5977874"><ele>74.0</ele><time>2026-04-12T06:58:19.427Z</time></trkpt><trkpt lat="45.3374818" lon="10.5978099"><ele>74.0</ele><time>2026-04-12T06:58:21.435Z</time></trkpt><trkpt lat="45.3373683" lon="10.5978143"><ele>74.0</ele><time>2026-04-12T06:58:23.431Z</time></trkpt><trkpt lat="45.3372861" lon="10.5978172"><ele>74.0</ele><time>2026-04-12T06:58:25.436Z</time></trkpt><trkpt lat="45.3372124" lon="10.5978305"><ele>74.0</ele><time>2026-04-12T06:58:28.426Z</time></trkpt><trkpt lat="45.3371411" lon="10.597865"><ele>74.0</ele><time>2026-04-12T06:58:31.432Z</time></trkpt><trkpt lat="45.3371942" lon="10.5979447"><ele>74.0</ele><time>2026-04-12T06:58:36.431Z</time></trkpt><trkpt lat="45.3372612" lon="10.5979335"><ele>74.0</ele><time>2026-04-12T06:58:40.432Z</time></trkpt><trkpt lat="45.337339" lon="10.5978984"><ele>74.0</ele><time>2026-04-12T06:58:44.431Z</time></trkpt><trkpt lat="45.3373596" lon="10.5978027"><ele>74.0</ele><time>2026-04-12T06:58:48.445Z</time></trkpt><trkpt lat="45.3372674" lon="10.5978102"><ele>74.0</ele><time>2026-04-12T06:58:51.43Z</time></trkpt><trkpt lat="45.33716" lon="10.5978077"><ele>74.0</ele><time>2026-04-12T06:58:53.439Z</time></trkpt><trkpt lat="45.3370529" lon="10.5978104"><ele>74.0</ele><time>2026-04-12T06:58:55.43Z</time></trkpt><trkpt lat="45.3369546" lon="10.5978325"><ele>74.0</ele><time>2026-04-12T06:58:57.439Z</time></trkpt><trkpt lat="45.3368624" lon="10.597875"><ele>74.0</ele><time>2026-04-12T06:58:59.429Z</time></trkpt><trkpt lat="45.3367986" lon="10.5979546"><ele>74.0</ele><time>2026-04-12T06:59:01.43Z</time></trkpt><trkpt lat="45.3367644" lon="10.5980379"><ele>74.0</ele><time>2026-04-12T06:59:03.432Z</time></trkpt><trkpt lat="45.3367612" lon="10.5981581"><ele>74.0</ele><time>2026-04-12T06:59:05.439Z</time></trkpt><trkpt lat="45.3367819" lon="10.5982719"><ele>74.0</ele><time>2026-04-12T06:59:07.429Z</time></trkpt><trkpt lat="45.3368161" lon="10.5983583"><ele>74.0</ele><time>2026-04-12T06:59:09.433Z</time></trkpt><trkpt lat="45.3368246" lon="10.5984511"><ele>74.0</ele><time>2026-04-12T06:59:12.437Z</time></trkpt><trkpt lat="45.3367451" lon="10.598483"><ele>74.0</ele><time>2026-04-12T06:59:17.436Z</time></trkpt><trkpt lat="45.3366982" lon="10.5983943"><ele>74.0</ele><time>2026-04-12T06:59:20.43Z</time></trkpt><trkpt lat="45.3366913" lon="10.5982855"><ele>74.0</ele><time>2026-04-12T06:59:23.433Z</time></trkpt><trkpt lat="45.3366834" lon="10.5981903"><ele>74.0</ele><time>2026-04-12T06:59:27.432Z</time></trkpt><trkpt lat="45.3367315" lon="10.5981021"><ele>74.0</ele><time>2026-04-12T06:59:31.433Z</time></trkpt><trkpt lat="45.3367988" lon="10.5981292"><ele>74.0</ele><time>2026-04-12T06:59:35.434Z</time></trkpt><trkpt lat="45.3367883" lon="10.5982791"><ele>74.0</ele><time>2026-04-12T06:59:38.439Z</time></trkpt><trkpt lat="45.3367812" lon="10.5984531"><ele>74.0</ele><time>2026-04-12T06:59:40.433Z</time></trkpt><trkpt lat="45.3367592" lon="10.598543"><ele>74.0</ele><time>2026-04-12T06:59:41.436Z</time></trkpt><trkpt lat="45.336738" lon="10.5986305"><ele>74.0</ele><time>2026-04-12T06:59:42.431Z</time></trkpt><trkpt lat="45.3366983" lon="10.5987636"><ele>74.0</ele><time>2026-04-12T06:59:44.433Z</time></trkpt><trkpt lat="45.3366439" lon="10.5989322"><ele>74.0</ele><time>2026-04-12T06:59:46.438Z</time></trkpt><trkpt lat="45.3366099" lon="10.5990433"><ele>74.0</ele><time>2026-04-12T06:59:47.44Z</time></trkpt><trkpt lat="45.3365707" lon="10.5991665"><ele>74.0</ele><time>2026-04-12T06:59:48.431Z</time></trkpt><trkpt lat="45.3365361" lon="10.5993004"><ele>74.0</ele><time>2026-04-12T06:59:49.432Z</time></trkpt><trkpt lat="45.3365061" lon="10.5994376"><ele>74.0</ele><time>2026-04-12T06:59:50.437Z</time></trkpt><trkpt lat="45.336472" lon="10.5995804"><ele>74.0</ele><time>2026-04-12T06:59:51.433Z</time></trkpt><trkpt lat="45.3364279" lon="10.5997327"><ele>74.0</ele><time>2026-04-12T06:59:52.437Z</time></trkpt><trkpt lat="45.3363837" lon="10.5998956"><ele>74.0</ele><time>2026-04-12T06:59:53.43Z</time></trkpt><trkpt lat="45.3363396" lon="10.6000588"><ele>74.0</ele><time>2026-04-12T06:59:54.434Z</time></trkpt><trkpt lat="45.3363007" lon="10.600228"><ele>74.25</ele><time>2026-04-12T06:59:55.43Z</time></trkpt><trkpt lat="45.336258" lon="10.6004117"><ele>74.5</ele><time>2026-04-12T06:59:56.436Z</time></trkpt><trkpt lat="45.3362032" lon="10.6006216"><ele>74.75</ele><time>2026-04-12T06:59:57.441Z</time></trkpt><trkpt lat="45.3361435" lon="10.6008251"><ele>75.0</ele><time>2026-04-12T06:59:58.429Z</time></trkpt><trkpt lat="45.336094" lon="10.6010127"><ele>75.0</ele><time>2026-04-12T06:59:59.431Z</time></trkpt><trkpt lat="45.33605" lon="10.6011877"><ele>75.0</ele><time>2026-04-12T07:00:00.43Z</time></trkpt><trkpt lat="45.3360089" lon="10.6013478"><ele>75.0</ele><time>2026-04-12T07:00:01.431Z</time></trkpt><trkpt lat="45.3359697" lon="10.6015001"><ele>75.0</ele><time>2026-04-12T07:00:02.432Z</time></trkpt><trkpt lat="45.3359306" lon="10.6016571"><ele>75.0</ele><time>2026-04-12T07:00:03.415Z</time></trkpt><trkpt lat="45.3358898" lon="10.6018206"><ele>75.0</ele><time>2026-04-12T07:00:04.423Z</time></trkpt><trkpt lat="45.3358532" lon="10.6019763"><ele>75.0</ele><time>2026-04-12T07:00:05.45Z</time></trkpt><trkpt lat="45.3358103" lon="10.6021301"><ele>75.0</ele><time>2026-04-12T07:00:06.435Z</time></trkpt><trkpt lat="45.3357669" lon="10.6022855"><ele>74.5</ele><time>2026-04-12T07:00:07.433Z</time></trkpt><trkpt lat="45.3357287" lon="10.6024403"><ele>74.0</ele><time>2026-04-12T07:00:08.429Z</time></trkpt><trkpt lat="45.3356888" lon="10.602599"><ele>73.5</ele><time>2026-04-12T07:00:09.435Z</time></trkpt><trkpt lat="45.3356473" lon="10.6027525"><ele>73.0</ele><time>2026-04-12T07:00:10.425Z</time></trkpt><trkpt lat="45.3356135" lon="10.6028998"><ele>73.0</ele><time>2026-04-12T07:00:11.422Z</time></trkpt><trkpt lat="45.3355812" lon="10.6030432"><ele>73.0</ele><time>2026-04-12T07:00:12.434Z</time></trkpt><trkpt lat="45.3355496" lon="10.6031826"><ele>73.0</ele><time>2026-04-12T07:00:13.438Z</time></trkpt><trkpt lat="45.3355164" lon="10.6033252"><ele>73.0</ele><time>2026-04-12T07:00:14.435Z</time></trkpt><trkpt lat="45.335481" lon="10.6034626"><ele>73.0</ele><time>2026-04-12T07:00:15.435Z</time></trkpt><trkpt lat="45.3354419" lon="10.603615"><ele>72.6</ele><time>2026-04-12T07:00:16.439Z</time></trkpt><trkpt lat="45.3354029" lon="10.6037617"><ele>72.19999999999999</ele><time>2026-04-12T07:00:17.434Z</time></trkpt><trkpt lat="45.3353654" lon="10.6039086"><ele>71.8</ele><time>2026-04-12T07:00:18.444Z</time></trkpt><trkpt lat="45.3353329" lon="10.6040524"><ele>71.39999999999999</ele><time>2026-04-12T07:00:19.431Z</time></trkpt><trkpt lat="45.3353021" lon="10.6041945"><ele>71.0</ele><time>2026-04-12T07:00:20.433Z</time></trkpt><trkpt lat="45.3352727" lon="10.6043437"><ele>71.0</ele><time>2026-04-12T07:00:21.433Z</time></trkpt><trkpt lat="45.3352506" lon="10.6045071"><ele>71.0</ele><time>2026-04-12T07:00:22.425Z</time></trkpt><trkpt lat="45.3352379" lon="10.6046925"><ele>71.0</ele><time>2026-04-12T07:00:23.436Z</time></trkpt><trkpt lat="45.3352286" lon="10.6048915"><ele>71.0</ele><time>2026-04-12T07:00:24.434Z</time></trkpt><trkpt lat="45.3352277" lon="10.6050976"><ele>71.0</ele><time>2026-04-12T07:00:25.432Z</time></trkpt><trkpt lat="45.3352387" lon="10.6052874"><ele>71.0</ele><time>2026-04-12T07:00:26.438Z</time></trkpt><trkpt lat="45.3352605" lon="10.6054662"><ele>71.0</ele><time>2026-04-12T07:00:27.435Z</time></trkpt><trkpt lat="45.3352967" lon="10.6056393"><ele>71.0</ele><time>2026-04-12T07:00:28.433Z</time></trkpt><trkpt lat="45.335343" lon="10.6057917"><ele>71.16666666666667</ele><time>2026-04-12T07:00:29.436Z</time></trkpt><trkpt lat="45.3353942" lon="10.6059256"><ele>71.33333333333334</ele><time>2026-04-12T07:00:30.434Z</time></trkpt><trkpt lat="45.3354466" lon="10.6060445"><ele>71.5</ele><time>2026-04-12T07:00:31.438Z</time></trkpt><trkpt lat="45.3355004" lon="10.6061432"><ele>71.66666666666667</ele><time>2026-04-12T07:00:32.429Z</time></trkpt><trkpt lat="45.3355526" lon="10.6062246"><ele>71.83333333333333</ele><time>2026-04-12T07:00:33.435Z</time></trkpt><trkpt lat="45.3356024" lon="10.6062937"><ele>72.0</ele><time>2026-04-12T07:00:34.434Z</time></trkpt><trkpt lat="45.3357156" lon="10.6063689"><ele>72.2</ele><time>2026-04-12T07:00:36.432Z</time></trkpt><trkpt lat="45.3357968" lon="10.6063775"><ele>72.4</ele><time>2026-04-12T07:00:37.437Z</time></trkpt><trkpt lat="45.3358979" lon="10.6063659"><ele>72.6</ele><time>2026-04-12T07:00:38.433Z</time></trkpt><trkpt lat="45.3360138" lon="10.6063527"><ele>72.8</ele><time>2026-04-12T07:00:39.431Z</time></trkpt><trkpt lat="45.3361368" lon="10.6063426"><ele>73.0</ele><time>2026-04-12T07:00:40.432Z</time></trkpt><trkpt lat="45.3362643" lon="10.6063363"><ele>74.0</ele><time>2026-04-12T07:00:41.423Z</time></trkpt><trkpt lat="45.336398" lon="10.6063305"><ele>75.0</ele><time>2026-04-12T07:00:42.426Z</time></trkpt><trkpt lat="45.3365357" lon="10.606307"><ele>76.0</ele><time>2026-04-12T07:00:43.432Z</time></trkpt><trkpt lat="45.3366757" lon="10.6062647"><ele>77.0</ele><time>2026-04-12T07:00:44.43Z</time></trkpt><trkpt lat="45.336815" lon="10.6062067"><ele>76.5</ele><time>2026-04-12T07:00:45.436Z</time></trkpt><trkpt lat="45.3369535" lon="10.6061386"><ele>76.0</ele><time>2026-04-12T07:00:46.44Z</time></trkpt><trkpt lat="45.3370848" lon="10.6060777"><ele>75.5</ele><time>2026-04-12T07:00:47.432Z</time></trkpt><trkpt lat="45.3372072" lon="10.6060317"><ele>75.0</ele><time>2026-04-12T07:00:48.428Z</time></trkpt><trkpt lat="45.3373217" lon="10.6059996"><ele>75.0</ele><time>2026-04-12T07:00:49.437Z</time></trkpt><trkpt lat="45.3374273" lon="10.6059793"><ele>75.0</ele><time>2026-04-12T07:00:50.446Z</time></trkpt><trkpt lat="45.3375259" lon="10.6059703"><ele>75.0</ele><time>2026-04-12T07:00:51.43Z</time></trkpt><trkpt lat="45.3376176" lon="10.6059693"><ele>75.0</ele><time>2026-04-12T07:00:52.439Z</time></trkpt><trkpt lat="45.3377073" lon="10.6059715"><ele>75.0</ele><time>2026-04-12T07:00:53.452Z</time></trkpt><trkpt lat="45.3377925" lon="10.6059764"><ele>75.0</ele><time>2026-04-12T07:00:54.441Z</time></trkpt><trkpt lat="45.3378672" lon="10.6059923"><ele>75.0</ele><time>2026-04-12T07:00:55.437Z</time></trkpt><trkpt lat="45.3379326" lon="10.6060129"><ele>75.0</ele><time>2026-04-12T07:00:56.439Z</time></trkpt><trkpt lat="45.3380261" lon="10.606048"><ele>75.0</ele><time>2026-04-12T07:00:58.438Z</time></trkpt><trkpt lat="45.3380971" lon="10.6060509"><ele>75.0</ele><time>2026-04-12T07:01:00.437Z</time></trkpt><trkpt lat="45.3382" lon="10.6059583"><ele>75.0</ele><time>2026-04-12T07:01:02.434Z</time></trkpt><trkpt lat="45.338259" lon="10.6058662"><ele>75.25</ele><time>2026-04-12T07:01:03.429Z</time></trkpt><trkpt lat="45.338324" lon="10.6057533"><ele>75.5</ele><time>2026-04-12T07:01:04.444Z</time></trkpt><trkpt lat="45.3383947" lon="10.605636"><ele>75.75</ele><time>2026-04-12T07:01:05.439Z</time></trkpt><trkpt lat="45.3384771" lon="10.605506"><ele>76.0</ele><time>2026-04-12T07:01:06.435Z</time></trkpt><trkpt lat="45.3385647" lon="10.6053659"><ele>75.75</ele><time>2026-04-12T07:01:07.436Z</time></trkpt><trkpt lat="45.3386584" lon="10.6052224"><ele>75.5</ele><time>2026-04-12T07:01:08.435Z</time></trkpt><trkpt lat="45.3387474" lon="10.605086"><ele>75.25</ele><time>2026-04-12T07:01:09.431Z</time></trkpt><trkpt lat="45.3388291" lon="10.6049597"><ele>75.0</ele><time>2026-04-12T07:01:10.433Z</time></trkpt><trkpt lat="45.3389055" lon="10.6048403"><ele>75.0</ele><time>2026-04-12T07:01:11.437Z</time></trkpt><trkpt lat="45.3389716" lon="10.6047269"><ele>75.0</ele><time>2026-04-12T07:01:12.445Z</time></trkpt><trkpt lat="45.3390266" lon="10.6046259"><ele>75.0</ele><time>2026-04-12T07:01:13.434Z</time></trkpt><trkpt lat="45.3390754" lon="10.6045385"><ele>75.0</ele><time>2026-04-12T07:01:14.443Z</time></trkpt><trkpt lat="45.3391382" lon="10.6044126"><ele>75.0</ele><time>2026-04-12T07:01:16.442Z</time></trkpt><trkpt lat="45.3392118" lon="10.6043832"><ele>75.0</ele><time>2026-04-12T07:01:19.442Z</time></trkpt><trkpt lat="45.3392883" lon="10.6044241"><ele>75.0</ele><time>2026-04-12T07:01:21.438Z</time></trkpt><trkpt lat="45.3393945" lon="10.6044512"><ele>75.0</ele><time>2026-04-12T07:01:23.442Z</time></trkpt><trkpt lat="45.3394998" lon="10.6044743"><ele>75.0</ele><time>2026-04-12T07:01:25.432Z</time></trkpt><trkpt lat="45.3396005" lon="10.6045191"><ele>75.0</ele><time>2026-04-12T07:01:27.436Z</time></trkpt><trkpt lat="45.3396825" lon="10.6045664"><ele>76.0</ele><time>2026-04-12T07:01:29.442Z</time></trkpt><trkpt lat="45.3397613" lon="10.604611"><ele>77.0</ele><time>2026-04-12T07:01:31.445Z</time></trkpt><trkpt lat="45.339845" lon="10.6046591"><ele>78.0</ele><time>2026-04-12T07:01:33.438Z</time></trkpt><trkpt lat="45.3399344" lon="10.6046942"><ele>79.0</ele><time>2026-04-12T07:01:35.439Z</time></trkpt><trkpt lat="45.3400271" lon="10.6047164"><ele>80.0</ele><time>2026-04-12T07:01:37.435Z</time></trkpt><trkpt lat="45.3401277" lon="10.6047335"><ele>80.0</ele><time>2026-04-12T07:01:39.442Z</time></trkpt><trkpt lat="45.3401991" lon="10.6047442"><ele>80.0</ele><time>2026-04-12T07:01:40.43Z</time></trkpt><trkpt lat="45.340276" lon="10.6047566"><ele>80.0</ele><time>2026-04-12T07:01:41.444Z</time></trkpt><trkpt lat="45.3403538" lon="10.6047835"><ele>80.0</ele><time>2026-04-12T07:01:42.436Z</time></trkpt><trkpt lat="45.3404433" lon="10.6048215"><ele>80.0</ele><time>2026-04-12T07:01:43.432Z</time></trkpt><trkpt lat="45.3405399" lon="10.6048584"><ele>80.0</ele><time>2026-04-12T07:01:44.44Z</time></trkpt><trkpt lat="45.3406408" lon="10.6048951"><ele>81.0</ele><time>2026-04-12T07:01:45.441Z</time></trkpt><trkpt lat="45.340726" lon="10.6049241"><ele>82.0</ele><time>2026-04-12T07:01:46.433Z</time></trkpt><trkpt lat="45.340812" lon="10.6049424"><ele>83.0</ele><time>2026-04-12T07:01:47.443Z</time></trkpt><trkpt lat="45.3408915" lon="10.6049659"><ele>84.0</ele><time>2026-04-12T07:01:48.437Z</time></trkpt><trkpt lat="45.34097" lon="10.6049891"><ele>85.0</ele><time>2026-04-12T07:01:49.435Z</time></trkpt><trkpt lat="45.3410553" lon="10.6050142"><ele>86.0</ele><time>2026-04-12T07:01:50.426Z</time></trkpt><trkpt lat="45.3411434" lon="10.6050371"><ele>86.0</ele><time>2026-04-12T07:01:51.437Z</time></trkpt><trkpt lat="45.341245" lon="10.6050665"><ele>86.0</ele><time>2026-04-12T07:01:52.444Z</time></trkpt><trkpt lat="45.3413668" lon="10.6050956"><ele>86.0</ele><time>2026-04-12T07:01:53.438Z</time></trkpt><trkpt lat="45.3414806" lon="10.6051254"><ele>86.0</ele><time>2026-04-12T07:01:54.434Z</time></trkpt><trkpt lat="45.3415872" lon="10.6051484"><ele>87.8</ele><time>2026-04-12T07:01:55.432Z</time></trkpt><trkpt lat="45.341685" lon="10.6051703"><ele>89.6</ele><time>2026-04-12T07:01:56.436Z</time></trkpt><trkpt lat="45.3417749" lon="10.6052058"><ele>91.4</ele><time>2026-04-12T07:01:57.441Z</time></trkpt><trkpt lat="45.3418554" lon="10.6052373"><ele>93.2</ele><time>2026-04-12T07:01:58.44Z</time></trkpt><trkpt lat="45.3419183" lon="10.6052775"><ele>95.0</ele><time>2026-04-12T07:01:59.44Z</time></trkpt><trkpt lat="45.3419999" lon="10.6053805"><ele>95.0</ele><time>2026-04-12T07:02:01.434Z</time></trkpt><trkpt lat="45.3420415" lon="10.6054501"><ele>95.0</ele><time>2026-04-12T07:02:03.433Z</time></trkpt><trkpt lat="45.3421001" lon="10.6055251"><ele>95.0</ele><time>2026-04-12T07:02:05.434Z</time></trkpt><trkpt lat="45.342227" lon="10.6055444"><ele>95.0</ele><time>2026-04-12T07:02:07.441Z</time></trkpt><trkpt lat="45.3423174" lon="10.6055352"><ele>95.0</ele><time>2026-04-12T07:02:08.429Z</time></trkpt><trkpt lat="45.3424397" lon="10.6055175"><ele>97.66666666666667</ele><time>2026-04-12T07:02:09.442Z</time></trkpt><trkpt lat="45.3425854" lon="10.6054973"><ele>100.33333333333334</ele><time>2026-04-12T07:02:10.441Z</time></trkpt><trkpt lat="45.3427499" lon="10.6054701"><ele>103.0</ele><time>2026-04-12T07:02:11.432Z</time></trkpt><trkpt lat="45.3429135" lon="10.6054402"><ele>106.0</ele><time>2026-04-12T07:02:12.44Z</time></trkpt><trkpt lat="45.343066" lon="10.6053906"><ele>109.0</ele><time>2026-04-12T07:02:13.442Z</time></trkpt><trkpt lat="45.3431916" lon="10.6053199"><ele>112.0</ele><time>2026-04-12T07:02:14.441Z</time></trkpt><trkpt lat="45.3433024" lon="10.6052399"><ele>115.0</ele><time>2026-04-12T07:02:15.438Z</time></trkpt><trkpt lat="45.3434145" lon="10.6051602"><ele>115.0</ele><time>2026-04-12T07:02:16.443Z</time></trkpt><trkpt lat="45.3435389" lon="10.6050599"><ele>115.0</ele><time>2026-04-12T07:02:17.436Z</time></trkpt><trkpt lat="45.3436567" lon="10.6049582"><ele>115.0</ele><time>2026-04-12T07:02:18.437Z</time></trkpt><trkpt lat="45.3437749" lon="10.6048681"><ele>115.0</ele><time>2026-04-12T07:02:19.436Z</time></trkpt><trkpt lat="45.3439003" lon="10.6048181"><ele>119.0</ele><time>2026-04-12T07:02:20.441Z</time></trkpt><trkpt lat="45.3440119" lon="10.6047871"><ele>123.0</ele><time>2026-04-12T07:02:21.435Z</time></trkpt><trkpt lat="45.344125" lon="10.604751"><ele>127.0</ele><time>2026-04-12T07:02:22.442Z</time></trkpt><trkpt lat="45.3442408" lon="10.6047165"><ele>131.0</ele><time>2026-04-12T07:02:23.44Z</time></trkpt><trkpt lat="45.3443494" lon="10.6046894"><ele>131.0</ele><time>2026-04-12T07:02:24.443Z</time></trkpt><trkpt lat="45.3444554" lon="10.6046565"><ele>131.0</ele><time>2026-04-12T07:02:25.437Z</time></trkpt><trkpt lat="45.3445707" lon="10.6046353"><ele>131.0</ele><time>2026-04-12T07:02:26.438Z</time></trkpt><trkpt lat="45.3446847" lon="10.604606"><ele>131.0</ele><time>2026-04-12T07:02:27.438Z</time></trkpt><trkpt lat="45.3447998" lon="10.6045737"><ele>134.2</ele><time>2026-04-12T07:02:28.431Z</time></trkpt><trkpt lat="45.3449188" lon="10.6045706"><ele>137.39999999999998</ele><time>2026-04-12T07:02:29.438Z</time></trkpt><trkpt lat="45.345027" lon="10.6045884"><ele>140.6</ele><time>2026-04-12T07:02:30.435Z</time></trkpt><trkpt lat="45.3451369" lon="10.6045807"><ele>143.79999999999998</ele><time>2026-04-12T07:02:31.439Z</time></trkpt><trkpt lat="45.3452291" lon="10.6045647"><ele>147.0</ele><time>2026-04-12T07:02:32.447Z</time></trkpt><trkpt lat="45.3453376" lon="10.6045927"><ele>147.0</ele><time>2026-04-12T07:02:33.44Z</time></trkpt><trkpt lat="45.3454431" lon="10.6045844"><ele>147.0</ele><time>2026-04-12T07:02:34.43Z</time></trkpt><trkpt lat="45.3455411" lon="10.6045688"><ele>147.0</ele><time>2026-04-12T07:02:35.441Z</time></trkpt><trkpt lat="45.3456459" lon="10.6045386"><ele>147.0</ele><time>2026-04-12T07:02:36.44Z</time></trkpt><trkpt lat="45.345736" lon="10.6045159"><ele>147.0</ele><time>2026-04-12T07:02:37.438Z</time></trkpt><trkpt lat="45.3458193" lon="10.604489"><ele>146.83333333333334</ele><time>2026-04-12T07:02:38.431Z</time></trkpt><trkpt lat="45.3458937" lon="10.6044749"><ele>146.66666666666666</ele><time>2026-04-12T07:02:39.441Z</time></trkpt><trkpt lat="45.345967" lon="10.6044635"><ele>146.5</ele><time>2026-04-12T07:02:40.439Z</time></trkpt><trkpt lat="45.3460734" lon="10.6044229"><ele>146.33333333333331</ele><time>2026-04-12T07:02:42.437Z</time></trkpt><trkpt lat="45.3461205" lon="10.6044998"><ele>146.16666666666666</ele><time>2026-04-12T07:02:46.444Z</time></trkpt><trkpt lat="45.3460706" lon="10.6046121"><ele>146.0</ele><time>2026-04-12T07:02:48.433Z</time></trkpt><trkpt lat="45.3460319" lon="10.6047691"><ele>146.0</ele><time>2026-04-12T07:02:50.436Z</time></trkpt><trkpt lat="45.3460163" lon="10.6048592"><ele>146.0</ele><time>2026-04-12T07:02:51.428Z</time></trkpt><trkpt lat="45.3460152" lon="10.6050333"><ele>146.0</ele><time>2026-04-12T07:02:53.427Z</time></trkpt><trkpt lat="45.3460251" lon="10.6051269"><ele>146.0</ele><time>2026-04-12T07:02:54.437Z</time></trkpt><trkpt lat="45.3460391" lon="10.6052275"><ele>146.0</ele><time>2026-04-12T07:02:55.43Z</time></trkpt><trkpt lat="45.3460633" lon="10.6053279"><ele>146.0</ele><time>2026-04-12T07:02:56.431Z</time></trkpt><trkpt lat="45.3460958" lon="10.6054281"><ele>146.0</ele><time>2026-04-12T07:02:57.435Z</time></trkpt><trkpt lat="45.3461259" lon="10.6055331"><ele>146.0</ele><time>2026-04-12T07:02:58.437Z</time></trkpt><trkpt lat="45.3461419" lon="10.6056356"><ele>146.0</ele><time>2026-04-12T07:02:59.424Z</time></trkpt><trkpt lat="45.3461528" lon="10.6057339"><ele>146.0</ele><time>2026-04-12T07:03:00.431Z</time></trkpt><trkpt lat="45.3461669" lon="10.6058246"><ele>146.0</ele><time>2026-04-12T07:03:01.435Z</time></trkpt><trkpt lat="45.3462243" lon="10.6059736"><ele>146.0</ele><time>2026-04-12T07:03:03.438Z</time></trkpt><trkpt lat="45.3462683" lon="10.6060444"><ele>146.0</ele><time>2026-04-12T07:03:04.441Z</time></trkpt><trkpt lat="45.3463173" lon="10.6061224"><ele>146.0</ele><time>2026-04-12T07:03:05.434Z</time></trkpt><trkpt lat="45.3463605" lon="10.6061946"><ele>146.0</ele><time>2026-04-12T07:03:06.433Z</time></trkpt><trkpt lat="45.3464156" lon="10.6063113"><ele>146.0</ele><time>2026-04-12T07:03:08.429Z</time></trkpt><trkpt lat="45.3464252" lon="10.6064032"><ele>146.0</ele><time>2026-04-12T07:03:10.421Z</time></trkpt><trkpt lat="45.3463175" lon="10.6065099"><ele>146.0</ele><time>2026-04-12T07:03:12.437Z</time></trkpt><trkpt lat="45.346285" lon="10.6065879"><ele>146.0</ele><time>2026-04-12T07:03:13.428Z</time></trkpt><trkpt lat="45.3463016" lon="10.6067464"><ele>146.0</ele><time>2026-04-12T07:03:15.427Z</time></trkpt><trkpt lat="45.3464123" lon="10.6069086"><ele>146.0</ele><time>2026-04-12T07:03:17.431Z</time></trkpt><trkpt lat="45.3464975" lon="10.6070014"><ele>146.0</ele><time>2026-04-12T07:03:18.434Z</time></trkpt><trkpt lat="45.3465981" lon="10.607114"><ele>147.66666666666666</ele><time>2026-04-12T07:03:19.434Z</time></trkpt><trkpt lat="45.3467138" lon="10.6072209"><ele>149.33333333333334</ele><time>2026-04-12T07:03:20.444Z</time></trkpt><trkpt lat="45.3468432" lon="10.6073573"><ele>151.0</ele><time>2026-04-12T07:03:21.431Z</time></trkpt><trkpt lat="45.3469743" lon="10.6074947"><ele>151.0</ele><time>2026-04-12T07:03:22.429Z</time></trkpt><trkpt lat="45.3471065" lon="10.6076308"><ele>151.0</ele><time>2026-04-12T07:03:23.424Z</time></trkpt><trkpt lat="45.3472316" lon="10.6077519"><ele>151.0</ele><time>2026-04-12T07:03:24.436Z</time></trkpt><trkpt lat="45.3473561" lon="10.6078715"><ele>151.25</ele><time>2026-04-12T07:03:25.436Z</time></trkpt><trkpt lat="45.3474713" lon="10.6079711"><ele>151.5</ele><time>2026-04-12T07:03:26.431Z</time></trkpt><trkpt lat="45.3476028" lon="10.6080737"><ele>151.75</ele><time>2026-04-12T07:03:27.429Z</time></trkpt><trkpt lat="45.3477267" lon="10.6081645"><ele>152.0</ele><time>2026-04-12T07:03:28.433Z</time></trkpt><trkpt lat="45.3478465" lon="10.6082367"><ele>152.0</ele><time>2026-04-12T07:03:29.432Z</time></trkpt><trkpt lat="45.3479538" lon="10.6082951"><ele>152.0</ele><time>2026-04-12T07:03:30.429Z</time></trkpt><trkpt lat="45.3480489" lon="10.608345"><ele>152.0</ele><time>2026-04-12T07:03:31.446Z</time></trkpt><trkpt lat="45.3481161" lon="10.6083907"><ele>152.0</ele><time>2026-04-12T07:03:32.434Z</time></trkpt><trkpt lat="45.3481881" lon="10.6084555"><ele>152.0</ele><time>2026-04-12T07:03:34.438Z</time></trkpt><trkpt lat="45.3482125" lon="10.6085905"><ele>152.6</ele><time>2026-04-12T07:03:36.436Z</time></trkpt><trkpt lat="45.3482001" lon="10.6087102"><ele>153.2</ele><time>2026-04-12T07:03:37.428Z</time></trkpt><trkpt lat="45.3481767" lon="10.6088529"><ele>153.8</ele><time>2026-04-12T07:03:38.437Z</time></trkpt><trkpt lat="45.3481555" lon="10.6090172"><ele>154.4</ele><time>2026-04-12T07:03:39.441Z</time></trkpt><trkpt lat="45.3481398" lon="10.6091902"><ele>155.0</ele><time>2026-04-12T07:03:40.43Z</time></trkpt><trkpt lat="45.3481177" lon="10.6093608"><ele>155.0</ele><time>2026-04-12T07:03:41.442Z</time></trkpt><trkpt lat="45.3480951" lon="10.6095225"><ele>155.0</ele><time>2026-04-12T07:03:42.437Z</time></trkpt><trkpt lat="45.3480858" lon="10.6096802"><ele>155.0</ele><time>2026-04-12T07:03:43.439Z</time></trkpt><trkpt lat="45.3480717" lon="10.6098266"><ele>155.0</ele><time>2026-04-12T07:03:44.438Z</time></trkpt><trkpt lat="45.348072" lon="10.6099707"><ele>155.0</ele><time>2026-04-12T07:03:45.433Z</time></trkpt><trkpt lat="45.3480853" lon="10.610111"><ele>155.0</ele><time>2026-04-12T07:03:46.425Z</time></trkpt><trkpt lat="45.3481061" lon="10.6102576"><ele>155.0</ele><time>2026-04-12T07:03:47.433Z</time></trkpt><trkpt lat="45.3481366" lon="10.6104004"><ele>155.0</ele><time>2026-04-12T07:03:48.436Z</time></trkpt><trkpt lat="45.3481677" lon="10.6105312"><ele>155.0</ele><time>2026-04-12T07:03:49.427Z</time></trkpt><trkpt lat="45.3481946" lon="10.6106519"><ele>155.0</ele><time>2026-04-12T07:03:50.429Z</time></trkpt><trkpt lat="45.3482226" lon="10.6107798"><ele>155.0</ele><time>2026-04-12T07:03:51.44Z</time></trkpt><trkpt lat="45.3482497" lon="10.6109174"><ele>155.0</ele><time>2026-04-12T07:03:52.429Z</time></trkpt><trkpt lat="45.3482661" lon="10.6110606"><ele>155.0</ele><time>2026-04-12T07:03:53.434Z</time></trkpt><trkpt lat="45.3482712" lon="10.6112089"><ele>155.0</ele><time>2026-04-12T07:03:54.43Z</time></trkpt><trkpt lat="45.3482631" lon="10.6113632"><ele>155.0</ele><time>2026-04-12T07:03:55.431Z</time></trkpt><trkpt lat="45.3482407" lon="10.6114947"><ele>155.0</ele><time>2026-04-12T07:03:56.431Z</time></trkpt><trkpt lat="45.348225" lon="10.6115923"><ele>155.0</ele><time>2026-04-12T07:03:57.436Z</time></trkpt><trkpt lat="45.3481467" lon="10.6117397"><ele>155.0</ele><time>2026-04-12T07:04:17.427Z</time></trkpt><trkpt lat="45.3481037" lon="10.6118532"><ele>155.0</ele><time>2026-04-12T07:04:19.431Z</time></trkpt><trkpt lat="45.348068" lon="10.6119286"><ele>155.0</ele><time>2026-04-12T07:04:20.438Z</time></trkpt><trkpt lat="45.3480181" lon="10.6120443"><ele>152.0</ele><time>2026-04-12T07:04:21.435Z</time></trkpt><trkpt lat="45.3479659" lon="10.6121726"><ele>149.0</ele><time>2026-04-12T07:04:22.429Z</time></trkpt><trkpt lat="45.3479067" lon="10.6123053"><ele>146.0</ele><time>2026-04-12T07:04:23.433Z</time></trkpt><trkpt lat="45.3478492" lon="10.6124431"><ele>143.0</ele><time>2026-04-12T07:04:24.424Z</time></trkpt><trkpt lat="45.3477963" lon="10.612579"><ele>140.0</ele><time>2026-04-12T07:04:25.432Z</time></trkpt><trkpt lat="45.3477435" lon="10.6127035"><ele>140.0</ele><time>2026-04-12T07:04:26.437Z</time></trkpt><trkpt lat="45.3477063" lon="10.6127987"><ele>140.0</ele><time>2026-04-12T07:04:27.426Z</time></trkpt><trkpt lat="45.3476491" lon="10.6129118"><ele>140.0</ele><time>2026-04-12T07:04:29.435Z</time></trkpt><trkpt lat="45.347607" lon="10.6130076"><ele>140.0</ele><time>2026-04-12T07:04:31.43Z</time></trkpt><trkpt lat="45.3475756" lon="10.6131037"><ele>140.0</ele><time>2026-04-12T07:04:33.431Z</time></trkpt><trkpt lat="45.3476338" lon="10.6132814"><ele>140.66666666666666</ele><time>2026-04-12T07:04:42.429Z</time></trkpt><trkpt lat="45.3476741" lon="10.6133551"><ele>141.33333333333331</ele><time>2026-04-12T07:04:44.429Z</time></trkpt><trkpt lat="45.3477366" lon="10.6133858"><ele>142.0</ele><time>2026-04-12T07:04:45.425Z</time></trkpt><trkpt lat="45.347817" lon="10.6134057"><ele>142.66666666666666</ele><time>2026-04-12T07:04:46.433Z</time></trkpt><trkpt lat="45.3479047" lon="10.6134404"><ele>143.33333333333334</ele><time>2026-04-12T07:04:47.429Z</time></trkpt><trkpt lat="45.3479862" lon="10.6134641"><ele>144.0</ele><time>2026-04-12T07:04:48.436Z</time></trkpt><trkpt lat="45.3480628" lon="10.6134573"><ele>144.0</ele><time>2026-04-12T07:04:49.429Z</time></trkpt><trkpt lat="45.3481339" lon="10.613453"><ele>144.0</ele><time>2026-04-12T07:04:50.444Z</time></trkpt><trkpt lat="45.3482132" lon="10.6134652"><ele>144.0</ele><time>2026-04-12T07:04:51.432Z</time></trkpt><trkpt lat="45.3482789" lon="10.6134936"><ele>144.0</ele><time>2026-04-12T07:04:52.432Z</time></trkpt><trkpt lat="45.348376" lon="10.6136157"><ele>144.0</ele><time>2026-04-12T07:04:54.433Z</time></trkpt><trkpt lat="45.3484559" lon="10.6136737"><ele>144.0</ele><time>2026-04-12T07:04:55.426Z</time></trkpt><trkpt lat="45.3485356" lon="10.6137247"><ele>143.16666666666666</ele><time>2026-04-12T07:04:56.434Z</time></trkpt><trkpt lat="45.348576" lon="10.6138088"><ele>142.33333333333334</ele><time>2026-04-12T07:04:57.425Z</time></trkpt><trkpt lat="45.3486217" lon="10.6138921"><ele>141.5</ele><time>2026-04-12T07:04:58.437Z</time></trkpt><trkpt lat="45.3486745" lon="10.6139707"><ele>140.66666666666669</ele><time>2026-04-12T07:04:59.437Z</time></trkpt><trkpt lat="45.3487355" lon="10.6140316"><ele>139.83333333333334</ele><time>2026-04-12T07:05:00.43Z</time></trkpt><trkpt lat="45.3487991" lon="10.6141048"><ele>139.0</ele><time>2026-04-12T07:05:01.429Z</time></trkpt><trkpt lat="45.3488517" lon="10.6141743"><ele>141.0</ele><time>2026-04-12T07:05:02.429Z</time></trkpt><trkpt lat="45.3489032" lon="10.614243"><ele>143.0</ele><time>2026-04-12T07:05:03.438Z</time></trkpt><trkpt lat="45.3489564" lon="10.6142977"><ele>145.0</ele><time>2026-04-12T07:05:04.432Z</time></trkpt><trkpt lat="45.3490246" lon="10.6143478"><ele>147.0</ele><time>2026-04-12T07:05:05.428Z</time></trkpt><trkpt lat="45.3490896" lon="10.6143998"><ele>149.0</ele><time>2026-04-12T07:05:06.43Z</time></trkpt><trkpt lat="45.3491455" lon="10.6144572"><ele>151.0</ele><time>2026-04-12T07:05:07.425Z</time></trkpt><trkpt lat="45.3492054" lon="10.614601"><ele>151.0</ele><time>2026-04-12T07:05:09.426Z</time></trkpt><trkpt lat="45.3491899" lon="10.6147022"><ele>151.0</ele><time>2026-04-12T07:05:10.429Z</time></trkpt><trkpt lat="45.3491779" lon="10.6147947"><ele>151.0</ele><time>2026-04-12T07:05:11.426Z</time></trkpt><trkpt lat="45.3491679" lon="10.6148957"><ele>151.0</ele><time>2026-04-12T07:05:12.432Z</time></trkpt><trkpt lat="45.3491515" lon="10.6149853"><ele>151.0</ele><time>2026-04-12T07:05:13.434Z</time></trkpt><trkpt lat="45.349139" lon="10.6151465"><ele>151.0</ele><time>2026-04-12T07:05:15.433Z</time></trkpt><trkpt lat="45.349128" lon="10.615305"><ele>151.66666666666669</ele><time>2026-04-12T07:05:17.437Z</time></trkpt><trkpt lat="45.3491424" lon="10.6154862"><ele>152.33333333333334</ele><time>2026-04-12T07:05:25.436Z</time></trkpt><trkpt lat="45.3491983" lon="10.6155564"><ele>153.0</ele><time>2026-04-12T07:05:28.434Z</time></trkpt><trkpt lat="45.3492734" lon="10.615604"><ele>153.66666666666666</ele><time>2026-04-12T07:05:32.438Z</time></trkpt><trkpt lat="45.3493452" lon="10.6156312"><ele>154.33333333333331</ele><time>2026-04-12T07:05:37.426Z</time></trkpt><trkpt lat="45.3494189" lon="10.6156004"><ele>155.0</ele><time>2026-04-12T07:05:42.432Z</time></trkpt><trkpt lat="45.3495184" lon="10.6155523"><ele>155.0</ele><time>2026-04-12T07:05:51.422Z</time></trkpt><trkpt lat="45.3496017" lon="10.6155096"><ele>155.0</ele><time>2026-04-12T07:05:54.429Z</time></trkpt><trkpt lat="45.3496905" lon="10.6155362"><ele>155.0</ele><time>2026-04-12T07:05:57.439Z</time></trkpt><trkpt lat="45.3497558" lon="10.6155347"><ele>155.0</ele><time>2026-04-12T07:05:59.432Z</time></trkpt><trkpt lat="45.3498297" lon="10.6155176"><ele>155.0</ele><time>2026-04-12T07:06:02.426Z</time></trkpt><trkpt lat="45.3498922" lon="10.6154504"><ele>155.0</ele><time>2026-04-12T07:06:05.426Z</time></trkpt><trkpt lat="45.3499586" lon="10.6153908"><ele>158.0</ele><time>2026-04-12T07:06:08.429Z</time></trkpt><trkpt lat="45.3500181" lon="10.6153503"><ele>161.0</ele><time>2026-04-12T07:06:10.429Z</time></trkpt><trkpt lat="45.3500968" lon="10.6153439"><ele>164.0</ele><time>2026-04-12T07:06:13.431Z</time></trkpt><trkpt lat="45.3501798" lon="10.6153327"><ele>167.0</ele><time>2026-04-12T07:06:17.419Z</time></trkpt><trkpt lat="45.3502481" lon="10.615232"><ele>170.0</ele><time>2026-04-12T07:06:21.437Z</time></trkpt><trkpt lat="45.3503118" lon="10.6152674"><ele>173.0</ele><time>2026-04-12T07:06:24.431Z</time></trkpt><trkpt lat="45.350426" lon="10.6152664"><ele>173.0</ele><time>2026-04-12T07:06:30.433Z</time></trkpt><trkpt lat="45.3504732" lon="10.6151697"><ele>173.0</ele><time>2026-04-12T07:06:33.429Z</time></trkpt><trkpt lat="45.3505365" lon="10.6151231"><ele>173.0</ele><time>2026-04-12T07:06:37.433Z</time></trkpt><trkpt lat="45.3506004" lon="10.6150485"><ele>173.0</ele><time>2026-04-12T07:06:41.431Z</time></trkpt><trkpt lat="45.350666" lon="10.614986"><ele>173.0</ele><time>2026-04-12T07:06:43.431Z</time></trkpt><trkpt lat="45.350731" lon="10.6149178"><ele>173.0</ele><time>2026-04-12T07:06:45.43Z</time></trkpt><trkpt lat="45.3507826" lon="10.614811"><ele>176.8</ele><time>2026-04-12T07:06:47.427Z</time></trkpt><trkpt lat="45.3508329" lon="10.6147025"><ele>180.60000000000002</ele><time>2026-04-12T07:06:49.432Z</time></trkpt><trkpt lat="45.3508852" lon="10.6145843"><ele>184.39999999999998</ele><time>2026-04-12T07:06:51.432Z</time></trkpt><trkpt lat="45.3509111" lon="10.6145026"><ele>188.2</ele><time>2026-04-12T07:06:52.429Z</time></trkpt><trkpt lat="45.3509561" lon="10.6144034"><ele>192.0</ele><time>2026-04-12T07:06:54.428Z</time></trkpt><trkpt lat="45.3510751" lon="10.6144048"><ele>192.0</ele><time>2026-04-12T07:06:56.426Z</time></trkpt><trkpt lat="45.351162" lon="10.6144221"><ele>192.0</ele><time>2026-04-12T07:06:58.44Z</time></trkpt><trkpt lat="45.3512354" lon="10.6144597"><ele>192.0</ele><time>2026-04-12T07:07:17.428Z</time></trkpt><trkpt lat="45.3513073" lon="10.614461"><ele>192.0</ele><time>2026-04-12T07:07:19.426Z</time></trkpt><trkpt lat="45.3513825" lon="10.6144562"><ele>192.0</ele><time>2026-04-12T07:07:22.424Z</time></trkpt><trkpt lat="45.3514333" lon="10.6143659"><ele>192.0</ele><time>2026-04-12T07:07:24.432Z</time></trkpt><trkpt lat="45.3514383" lon="10.6142611"><ele>191.39999999999998</ele><time>2026-04-12T07:07:25.429Z</time></trkpt><trkpt lat="45.351436" lon="10.6141537"><ele>190.79999999999998</ele><time>2026-04-12T07:07:26.438Z</time></trkpt><trkpt lat="45.3514242" lon="10.6140229"><ele>190.2</ele><time>2026-04-12T07:07:27.43Z</time></trkpt><trkpt lat="45.3514198" lon="10.6138778"><ele>189.6</ele><time>2026-04-12T07:07:28.434Z</time></trkpt><trkpt lat="45.3514156" lon="10.6137186"><ele>189.0</ele><time>2026-04-12T07:07:29.421Z</time></trkpt><trkpt lat="45.3514099" lon="10.6135644"><ele>188.39999999999998</ele><time>2026-04-12T07:07:30.434Z</time></trkpt><trkpt lat="45.3514021" lon="10.6134137"><ele>187.8</ele><time>2026-04-12T07:07:31.43Z</time></trkpt><trkpt lat="45.3513925" lon="10.6132624"><ele>187.2</ele><time>2026-04-12T07:07:32.431Z</time></trkpt><trkpt lat="45.35138" lon="10.613113"><ele>186.60000000000002</ele><time>2026-04-12T07:07:33.436Z</time></trkpt><trkpt lat="45.3513682" lon="10.6129754"><ele>186.0</ele><time>2026-04-12T07:07:34.435Z</time></trkpt><trkpt lat="45.3513562" lon="10.6128311"><ele>185.5</ele><time>2026-04-12T07:07:35.432Z</time></trkpt><trkpt lat="45.3513425" lon="10.6126754"><ele>185.0</ele><time>2026-04-12T07:07:36.443Z</time></trkpt><trkpt lat="45.3513321" lon="10.6125065"><ele>184.5</ele><time>2026-04-12T07:07:37.43Z</time></trkpt><trkpt lat="45.3513206" lon="10.6123394"><ele>184.0</ele><time>2026-04-12T07:07:38.423Z</time></trkpt><trkpt lat="45.3513015" lon="10.6121598"><ele>184.0</ele><time>2026-04-12T07:07:39.437Z</time></trkpt><trkpt lat="45.3512835" lon="10.6119991"><ele>184.0</ele><time>2026-04-12T07:07:40.429Z</time></trkpt><trkpt lat="45.3512649" lon="10.6118445"><ele>184.0</ele><time>2026-04-12T07:07:41.431Z</time></trkpt><trkpt lat="45.3512203" lon="10.6117157"><ele>184.0</ele><time>2026-04-12T07:07:42.43Z</time></trkpt><trkpt lat="45.3511553" lon="10.6115906"><ele>184.0</ele><time>2026-04-12T07:07:43.437Z</time></trkpt><trkpt lat="45.3510735" lon="10.6114831"><ele>184.2</ele><time>2026-04-12T07:07:44.437Z</time></trkpt><trkpt lat="45.3509828" lon="10.6113984"><ele>184.39999999999998</ele><time>2026-04-12T07:07:45.435Z</time></trkpt><trkpt lat="45.3508974" lon="10.6113209"><ele>184.6</ele><time>2026-04-12T07:07:46.438Z</time></trkpt><trkpt lat="45.3508166" lon="10.6112418"><ele>184.8</ele><time>2026-04-12T07:07:47.436Z</time></trkpt><trkpt lat="45.3507536" lon="10.6111503"><ele>185.0</ele><time>2026-04-12T07:07:48.43Z</time></trkpt><trkpt lat="45.3507287" lon="10.6110133"><ele>184.5</ele><time>2026-04-12T07:07:49.426Z</time></trkpt><trkpt lat="45.3507085" lon="10.6108697"><ele>184.0</ele><time>2026-04-12T07:07:50.426Z</time></trkpt><trkpt lat="45.3507303" lon="10.6107105"><ele>183.5</ele><time>2026-04-12T07:07:51.427Z</time></trkpt><trkpt lat="45.3507328" lon="10.6105315"><ele>183.0</ele><time>2026-04-12T07:07:52.421Z</time></trkpt><trkpt lat="45.3507194" lon="10.61034"><ele>181.25</ele><time>2026-04-12T07:07:53.428Z</time></trkpt><trkpt lat="45.3506892" lon="10.6101449"><ele>179.5</ele><time>2026-04-12T07:07:54.437Z</time></trkpt><trkpt lat="45.3506585" lon="10.6099485"><ele>177.75</ele><time>2026-04-12T07:07:55.445Z</time></trkpt><trkpt lat="45.3506282" lon="10.609756"><ele>176.0</ele><time>2026-04-12T07:07:56.435Z</time></trkpt><trkpt lat="45.3505934" lon="10.6095682"><ele>176.25</ele><time>2026-04-12T07:07:57.442Z</time></trkpt><trkpt lat="45.3505545" lon="10.609391"><ele>176.5</ele><time>2026-04-12T07:07:58.427Z</time></trkpt><trkpt lat="45.3505159" lon="10.6092209"><ele>176.75</ele><time>2026-04-12T07:07:59.43Z</time></trkpt><trkpt lat="45.3504831" lon="10.6090632"><ele>177.0</ele><time>2026-04-12T07:08:00.426Z</time></trkpt><trkpt lat="45.3504586" lon="10.6089221"><ele>177.0</ele><time>2026-04-12T07:08:01.431Z</time></trkpt><trkpt lat="45.3504373" lon="10.6088037"><ele>177.0</ele><time>2026-04-12T07:08:02.436Z</time></trkpt><trkpt lat="45.3504176" lon="10.6086512"><ele>177.0</ele><time>2026-04-12T07:08:04.435Z</time></trkpt><trkpt lat="45.3504285" lon="10.6085522"><ele>177.0</ele><time>2026-04-12T07:08:06.434Z</time></trkpt><trkpt lat="45.3505126" lon="10.6086259"><ele>177.0</ele><time>2026-04-12T07:08:10.424Z</time></trkpt><trkpt lat="45.350539" lon="10.608722"><ele>177.0</ele><time>2026-04-12T07:08:11.432Z</time></trkpt><trkpt lat="45.3505778" lon="10.6088343"><ele>175.2</ele><time>2026-04-12T07:08:12.429Z</time></trkpt><trkpt lat="45.3506255" lon="10.6089443"><ele>173.39999999999998</ele><time>2026-04-12T07:08:13.434Z</time></trkpt><trkpt lat="45.3506776" lon="10.6090606"><ele>171.60000000000002</ele><time>2026-04-12T07:08:14.433Z</time></trkpt><trkpt lat="45.3507336" lon="10.6091721"><ele>169.8</ele><time>2026-04-12T07:08:15.436Z</time></trkpt><trkpt lat="45.3507944" lon="10.6092754"><ele>168.0</ele><time>2026-04-12T07:08:16.426Z</time></trkpt><trkpt lat="45.3508652" lon="10.6093697"><ele>168.0</ele><time>2026-04-12T07:08:17.429Z</time></trkpt><trkpt lat="45.3509341" lon="10.6094573"><ele>168.0</ele><time>2026-04-12T07:08:18.432Z</time></trkpt><trkpt lat="45.3510039" lon="10.6095457"><ele>168.0</ele><time>2026-04-12T07:08:19.434Z</time></trkpt><trkpt lat="45.3510738" lon="10.6096498"><ele>168.0</ele><time>2026-04-12T07:08:20.433Z</time></trkpt><trkpt lat="45.3511426" lon="10.6097696"><ele>168.0</ele><time>2026-04-12T07:08:21.431Z</time></trkpt><trkpt lat="45.3512071" lon="10.6098994"><ele>169.60000000000002</ele><time>2026-04-12T07:08:22.427Z</time></trkpt><trkpt lat="45.3512776" lon="10.6100278"><ele>171.20000000000002</ele><time>2026-04-12T07:08:23.44Z</time></trkpt><trkpt lat="45.3513408" lon="10.6101414"><ele>172.8</ele><time>2026-04-12T07:08:24.421Z</time></trkpt><trkpt lat="45.3514122" lon="10.610251"><ele>174.4</ele><time>2026-04-12T07:08:25.432Z</time></trkpt><trkpt lat="45.3514759" lon="10.6103372"><ele>176.0</ele><time>2026-04-12T07:08:26.428Z</time></trkpt><trkpt lat="45.3515467" lon="10.6104102"><ele>172.60000000000002</ele><time>2026-04-12T07:08:27.43Z</time></trkpt><trkpt lat="45.3516168" lon="10.6104648"><ele>169.20000000000002</ele><time>2026-04-12T07:08:28.437Z</time></trkpt><trkpt lat="45.3516798" lon="10.6105056"><ele>165.8</ele><time>2026-04-12T07:08:29.422Z</time></trkpt><trkpt lat="45.3517671" lon="10.6105958"><ele>162.4</ele><time>2026-04-12T07:08:31.432Z</time></trkpt><trkpt lat="45.3518142" lon="10.6107857"><ele>159.0</ele><time>2026-04-12T07:08:33.431Z</time></trkpt><trkpt lat="45.35184" lon="10.6109074"><ele>159.0</ele><time>2026-04-12T07:08:34.425Z</time></trkpt><trkpt lat="45.3518641" lon="10.6110198"><ele>159.0</ele><time>2026-04-12T07:08:35.429Z</time></trkpt><trkpt lat="45.3518877" lon="10.6111209"><ele>159.0</ele><time>2026-04-12T07:08:36.431Z</time></trkpt><trkpt lat="45.3519117" lon="10.6112118"><ele>159.0</ele><time>2026-04-12T07:08:37.431Z</time></trkpt><trkpt lat="45.3519029" lon="10.6114012"><ele>159.0</ele><time>2026-04-12T07:08:39.43Z</time></trkpt><trkpt lat="45.3518907" lon="10.6115036"><ele>159.0</ele><time>2026-04-12T07:08:40.427Z</time></trkpt><trkpt lat="45.3518731" lon="10.6116026"><ele>161.6</ele><time>2026-04-12T07:08:41.429Z</time></trkpt><trkpt lat="45.3518676" lon="10.6117184"><ele>164.2</ele><time>2026-04-12T07:08:42.426Z</time></trkpt><trkpt lat="45.3518641" lon="10.6118281"><ele>166.79999999999998</ele><time>2026-04-12T07:08:43.429Z</time></trkpt><trkpt lat="45.35187" lon="10.6119531"><ele>169.4</ele><time>2026-04-12T07:08:44.429Z</time></trkpt><trkpt lat="45.3518875" lon="10.6121047"><ele>172.0</ele><time>2026-04-12T07:08:45.432Z</time></trkpt><trkpt lat="45.3519116" lon="10.6122659"><ele>173.5</ele><time>2026-04-12T07:08:46.428Z</time></trkpt><trkpt lat="45.3519405" lon="10.61243"><ele>175.0</ele><time>2026-04-12T07:08:47.423Z</time></trkpt><trkpt lat="45.3519735" lon="10.6125963"><ele>176.5</ele><time>2026-04-12T07:08:48.428Z</time></trkpt><trkpt lat="45.3520132" lon="10.612769"><ele>178.0</ele><time>2026-04-12T07:08:49.43Z</time></trkpt><trkpt lat="45.3520538" lon="10.6129289"><ele>178.8</ele><time>2026-04-12T07:08:50.441Z</time></trkpt><trkpt lat="45.3520987" lon="10.6130848"><ele>179.60000000000002</ele><time>2026-04-12T07:08:51.432Z</time></trkpt><trkpt lat="45.3521472" lon="10.613242"><ele>180.39999999999998</ele><time>2026-04-12T07:08:52.423Z</time></trkpt><trkpt lat="45.3521847" lon="10.6133763"><ele>181.2</ele><time>2026-04-12T07:08:53.432Z</time></trkpt><trkpt lat="45.3522152" lon="10.6135013"><ele>182.0</ele><time>2026-04-12T07:08:54.433Z</time></trkpt><trkpt lat="45.3522341" lon="10.6136227"><ele>177.4</ele><time>2026-04-12T07:08:55.426Z</time></trkpt><trkpt lat="45.3522411" lon="10.6137558"><ele>172.79999999999998</ele><time>2026-04-12T07:08:56.426Z</time></trkpt><trkpt lat="45.3522595" lon="10.6139015"><ele>168.2</ele><time>2026-04-12T07:08:57.428Z</time></trkpt><trkpt lat="45.352285" lon="10.6140407"><ele>163.6</ele><time>2026-04-12T07:08:58.427Z</time></trkpt><trkpt lat="45.3523038" lon="10.6141745"><ele>159.0</ele><time>2026-04-12T07:08:59.429Z</time></trkpt><trkpt lat="45.3523121" lon="10.6143215"><ele>159.0</ele><time>2026-04-12T07:09:00.432Z</time></trkpt><trkpt lat="45.3522975" lon="10.6144843"><ele>159.0</ele><time>2026-04-12T07:09:01.426Z</time></trkpt><trkpt lat="45.3522833" lon="10.6146648"><ele>159.0</ele><time>2026-04-12T07:09:02.434Z</time></trkpt><trkpt lat="45.3522702" lon="10.6148163"><ele>159.0</ele><time>2026-04-12T07:09:03.434Z</time></trkpt><trkpt lat="45.3522548" lon="10.6149518"><ele>159.0</ele><time>2026-04-12T07:09:04.431Z</time></trkpt><trkpt lat="45.3522152" lon="10.6150711"><ele>163.5</ele><time>2026-04-12T07:09:05.44Z</time></trkpt><trkpt lat="45.3521637" lon="10.6152044"><ele>168.0</ele><time>2026-04-12T07:09:06.425Z</time></trkpt><trkpt lat="45.3521119" lon="10.6153503"><ele>172.5</ele><time>2026-04-12T07:09:07.433Z</time></trkpt><trkpt lat="45.3520582" lon="10.6155044"><ele>177.0</ele><time>2026-04-12T07:09:08.433Z</time></trkpt><trkpt lat="45.3520019" lon="10.6156455"><ele>177.0</ele><time>2026-04-12T07:09:09.429Z</time></trkpt><trkpt lat="45.3519432" lon="10.6157883"><ele>177.0</ele><time>2026-04-12T07:09:10.423Z</time></trkpt><trkpt lat="45.3518752" lon="10.6159381"><ele>177.0</ele><time>2026-04-12T07:09:11.431Z</time></trkpt><trkpt lat="45.3518058" lon="10.6160923"><ele>177.0</ele><time>2026-04-12T07:09:12.44Z</time></trkpt><trkpt lat="45.3517495" lon="10.6162508"><ele>174.6</ele><time>2026-04-12T07:09:13.43Z</time></trkpt><trkpt lat="45.3517019" lon="10.6163922"><ele>172.2</ele><time>2026-04-12T07:09:14.428Z</time></trkpt><trkpt lat="45.3516579" lon="10.6165125"><ele>169.8</ele><time>2026-04-12T07:09:15.421Z</time></trkpt><trkpt lat="45.351599" lon="10.6166328"><ele>167.4</ele><time>2026-04-12T07:09:16.427Z</time></trkpt><trkpt lat="45.3515268" lon="10.6167765"><ele>165.0</ele><time>2026-04-12T07:09:17.432Z</time></trkpt><trkpt lat="45.3514527" lon="10.6169259"><ele>162.8</ele><time>2026-04-12T07:09:18.429Z</time></trkpt><trkpt lat="45.3513824" lon="10.6170621"><ele>160.6</ele><time>2026-04-12T07:09:19.429Z</time></trkpt><trkpt lat="45.35132" lon="10.6171683"><ele>158.4</ele><time>2026-04-12T07:09:20.437Z</time></trkpt><trkpt lat="45.3512675" lon="10.6172815"><ele>156.2</ele><time>2026-04-12T07:09:21.431Z</time></trkpt><trkpt lat="45.3512279" lon="10.617404"><ele>154.0</ele><time>2026-04-12T07:09:22.427Z</time></trkpt><trkpt lat="45.3511789" lon="10.6175417"><ele>158.4</ele><time>2026-04-12T07:09:23.432Z</time></trkpt><trkpt lat="45.3511349" lon="10.6176706"><ele>162.8</ele><time>2026-04-12T07:09:24.433Z</time></trkpt><trkpt lat="45.3510968" lon="10.6177949"><ele>167.20000000000002</ele><time>2026-04-12T07:09:25.438Z</time></trkpt><trkpt lat="45.351074" lon="10.6179259"><ele>171.60000000000002</ele><time>2026-04-12T07:09:26.438Z</time></trkpt><trkpt lat="45.3510544" lon="10.6180838"><ele>176.0</ele><time>2026-04-12T07:09:27.433Z</time></trkpt><trkpt lat="45.3510355" lon="10.6182388"><ele>176.0</ele><time>2026-04-12T07:09:28.424Z</time></trkpt><trkpt lat="45.3510199" lon="10.6183765"><ele>176.0</ele><time>2026-04-12T07:09:29.427Z</time></trkpt><trkpt lat="45.3510188" lon="10.6185222"><ele>176.0</ele><time>2026-04-12T07:09:30.433Z</time></trkpt><trkpt lat="45.3510155" lon="10.6186672"><ele>176.0</ele><time>2026-04-12T07:09:31.434Z</time></trkpt><trkpt lat="45.3510146" lon="10.6188179"><ele>176.0</ele><time>2026-04-12T07:09:32.442Z</time></trkpt><trkpt lat="45.3510056" lon="10.6189603"><ele>175.8</ele><time>2026-04-12T07:09:33.43Z</time></trkpt><trkpt lat="45.3510089" lon="10.6190946"><ele>175.60000000000002</ele><time>2026-04-12T07:09:34.437Z</time></trkpt><trkpt lat="45.3510141" lon="10.6192314"><ele>175.4</ele><time>2026-04-12T07:09:35.428Z</time></trkpt><trkpt lat="45.3510203" lon="10.619367"><ele>175.2</ele><time>2026-04-12T07:09:36.428Z</time></trkpt><trkpt lat="45.3510258" lon="10.6194971"><ele>175.0</ele><time>2026-04-12T07:09:37.435Z</time></trkpt><trkpt lat="45.3510178" lon="10.6196264"><ele>175.0</ele><time>2026-04-12T07:09:38.425Z</time></trkpt><trkpt lat="45.3510025" lon="10.619756"><ele>175.0</ele><time>2026-04-12T07:09:39.422Z</time></trkpt><trkpt lat="45.350974" lon="10.6198816"><ele>175.0</ele><time>2026-04-12T07:09:40.43Z</time></trkpt><trkpt lat="45.3509497" lon="10.6200152"><ele>175.0</ele><time>2026-04-12T07:09:41.429Z</time></trkpt><trkpt lat="45.3509297" lon="10.6201364"><ele>175.0</ele><time>2026-04-12T07:09:42.424Z</time></trkpt><trkpt lat="45.3509388" lon="10.620254"><ele>174.8</ele><time>2026-04-12T07:09:43.428Z</time></trkpt><trkpt lat="45.3509716" lon="10.6203799"><ele>174.6</ele><time>2026-04-12T07:09:44.43Z</time></trkpt><trkpt lat="45.3510129" lon="10.6204992"><ele>174.39999999999998</ele><time>2026-04-12T07:09:45.436Z</time></trkpt><trkpt lat="45.3510505" lon="10.6206188"><ele>174.2</ele><time>2026-04-12T07:09:46.431Z</time></trkpt><trkpt lat="45.3510675" lon="10.6207505"><ele>174.0</ele><time>2026-04-12T07:09:47.428Z</time></trkpt><trkpt lat="45.3510703" lon="10.6208801"><ele>174.0</ele><time>2026-04-12T07:09:48.433Z</time></trkpt><trkpt lat="45.3510635" lon="10.6210157"><ele>174.0</ele><time>2026-04-12T07:09:49.426Z</time></trkpt><trkpt lat="45.3510816" lon="10.6211343"><ele>174.0</ele><time>2026-04-12T07:09:50.443Z</time></trkpt><trkpt lat="45.3511107" lon="10.6212623"><ele>174.0</ele><time>2026-04-12T07:09:51.435Z</time></trkpt><trkpt lat="45.3511376" lon="10.6213995"><ele>174.0</ele><time>2026-04-12T07:09:52.433Z</time></trkpt><trkpt lat="45.3511634" lon="10.6215246"><ele>173.33333333333334</ele><time>2026-04-12T07:09:53.435Z</time></trkpt><trkpt lat="45.3511944" lon="10.6216472"><ele>172.66666666666666</ele><time>2026-04-12T07:09:54.425Z</time></trkpt><trkpt lat="45.3512352" lon="10.6217517"><ele>172.0</ele><time>2026-04-12T07:09:55.426Z</time></trkpt><trkpt lat="45.3512687" lon="10.6218424"><ele>171.33333333333331</ele><time>2026-04-12T07:09:56.429Z</time></trkpt><trkpt lat="45.3512686" lon="10.6219373"><ele>170.66666666666666</ele><time>2026-04-12T07:09:57.432Z</time></trkpt><trkpt lat="45.351209" lon="10.6220804"><ele>170.0</ele><time>2026-04-12T07:09:59.422Z</time></trkpt><trkpt lat="45.3511258" lon="10.6221792"><ele>169.6</ele><time>2026-04-12T07:10:01.431Z</time></trkpt><trkpt lat="45.3510476" lon="10.6222438"><ele>169.2</ele><time>2026-04-12T07:10:03.434Z</time></trkpt><trkpt lat="45.3509567" lon="10.622313"><ele>168.8</ele><time>2026-04-12T07:10:05.433Z</time></trkpt><trkpt lat="45.350878" lon="10.6223792"><ele>168.4</ele><time>2026-04-12T07:10:07.43Z</time></trkpt><trkpt lat="45.3508107" lon="10.6224267"><ele>168.0</ele><time>2026-04-12T07:10:09.425Z</time></trkpt><trkpt lat="45.3507276" lon="10.6224827"><ele>168.0</ele><time>2026-04-12T07:10:11.432Z</time></trkpt><trkpt lat="45.3506471" lon="10.6225713"><ele>168.0</ele><time>2026-04-12T07:10:13.437Z</time></trkpt><trkpt lat="45.3505698" lon="10.6226597"><ele>168.0</ele><time>2026-04-12T07:10:15.439Z</time></trkpt><trkpt lat="45.3504886" lon="10.6227465"><ele>168.0</ele><time>2026-04-12T07:10:17.43Z</time></trkpt><trkpt lat="45.3504062" lon="10.6228369"><ele>168.0</ele><time>2026-04-12T07:10:19.436Z</time></trkpt><trkpt lat="45.3503122" lon="10.6229417"><ele>168.0</ele><time>2026-04-12T07:10:21.442Z</time></trkpt><trkpt lat="45.3502149" lon="10.6230472"><ele>168.0</ele><time>2026-04-12T07:10:23.434Z</time></trkpt><trkpt lat="45.3501283" lon="10.623144"><ele>168.0</ele><time>2026-04-12T07:10:25.442Z</time></trkpt><trkpt lat="45.3500815" lon="10.6232666"><ele>168.0</ele><time>2026-04-12T07:10:27.425Z</time></trkpt><trkpt lat="45.350063" lon="10.6233992"><ele>168.0</ele><time>2026-04-12T07:10:29.429Z</time></trkpt><trkpt lat="45.3500236" lon="10.6234899"><ele>168.0</ele><time>2026-04-12T07:10:31.425Z</time></trkpt><trkpt lat="45.3499594" lon="10.6235461"><ele>168.0</ele><time>2026-04-12T07:10:33.43Z</time></trkpt><trkpt lat="45.3498752" lon="10.6235593"><ele>168.0</ele><time>2026-04-12T07:10:35.422Z</time></trkpt><trkpt lat="45.3498009" lon="10.6235494"><ele>168.0</ele><time>2026-04-12T07:12:24.436Z</time></trkpt><trkpt lat="45.3498791" lon="10.6235554"><ele>168.0</ele><time>2026-04-12T07:12:41.43Z</time></trkpt><trkpt lat="45.3499545" lon="10.6235331"><ele>168.0</ele><time>2026-04-12T07:12:47.427Z</time></trkpt><trkpt lat="45.3500328" lon="10.623568"><ele>168.0</ele><time>2026-04-12T07:12:49.435Z</time></trkpt><trkpt lat="45.3501063" lon="10.623611"><ele>168.0</ele><time>2026-04-12T07:12:50.437Z</time></trkpt><trkpt lat="45.3501753" lon="10.6236496"><ele>168.0</ele><time>2026-04-12T07:12:51.431Z</time></trkpt><trkpt lat="45.3502483" lon="10.6236721"><ele>168.0</ele><time>2026-04-12T07:12:52.435Z</time></trkpt><trkpt lat="45.3503263" lon="10.6236932"><ele>168.0</ele><time>2026-04-12T07:12:53.429Z</time></trkpt><trkpt lat="45.3504131" lon="10.6237071"><ele>168.0</ele><time>2026-04-12T07:12:54.425Z</time></trkpt><trkpt lat="45.3505095" lon="10.6237239"><ele>166.33333333333334</ele><time>2026-04-12T07:12:55.431Z</time></trkpt><trkpt lat="45.3506013" lon="10.6237428"><ele>164.66666666666666</ele><time>2026-04-12T07:12:56.43Z</time></trkpt><trkpt lat="45.3506873" lon="10.6237526"><ele>163.0</ele><time>2026-04-12T07:12:57.429Z</time></trkpt><trkpt lat="45.3507763" lon="10.623757"><ele>161.33333333333331</ele><time>2026-04-12T07:12:58.43Z</time></trkpt><trkpt lat="45.3508629" lon="10.6237517"><ele>159.66666666666666</ele><time>2026-04-12T07:12:59.429Z</time></trkpt><trkpt lat="45.3509433" lon="10.6237386"><ele>158.0</ele><time>2026-04-12T07:13:00.437Z</time></trkpt><trkpt lat="45.3510115" lon="10.6237281"><ele>158.0</ele><time>2026-04-12T07:13:01.435Z</time></trkpt><trkpt lat="45.3511076" lon="10.6237232"><ele>158.0</ele><time>2026-04-12T07:13:03.433Z</time></trkpt><trkpt lat="45.3511752" lon="10.6237651"><ele>158.0</ele><time>2026-04-12T07:13:05.435Z</time></trkpt><trkpt lat="45.351212" lon="10.6239092"><ele>158.0</ele><time>2026-04-12T07:13:07.427Z</time></trkpt><trkpt lat="45.3512447" lon="10.6240006"><ele>158.0</ele><time>2026-04-12T07:13:08.434Z</time></trkpt><trkpt lat="45.3512852" lon="10.6240918"><ele>158.0</ele><time>2026-04-12T07:13:09.435Z</time></trkpt><trkpt lat="45.3513225" lon="10.6241826"><ele>158.0</ele><time>2026-04-12T07:13:10.434Z</time></trkpt><trkpt lat="45.3513577" lon="10.6242695"><ele>158.0</ele><time>2026-04-12T07:13:11.427Z</time></trkpt><trkpt lat="45.3514023" lon="10.6244285"><ele>158.0</ele><time>2026-04-12T07:13:13.43Z</time></trkpt><trkpt lat="45.3514477" lon="10.6245436"><ele>158.0</ele><time>2026-04-12T07:13:15.433Z</time></trkpt><trkpt lat="45.3515205" lon="10.6246191"><ele>158.0</ele><time>2026-04-12T07:13:17.442Z</time></trkpt><trkpt lat="45.3516272" lon="10.6246328"><ele>156.66666666666666</ele><time>2026-04-12T07:13:19.426Z</time></trkpt><trkpt lat="45.3517454" lon="10.6245698"><ele>155.33333333333331</ele><time>2026-04-12T07:13:21.432Z</time></trkpt><trkpt lat="45.3517974" lon="10.6245152"><ele>154.0</ele><time>2026-04-12T07:13:22.442Z</time></trkpt><trkpt lat="45.3518495" lon="10.6244606"><ele>152.66666666666666</ele><time>2026-04-12T07:13:23.429Z</time></trkpt><trkpt lat="45.3519198" lon="10.624387"><ele>151.33333333333334</ele><time>2026-04-12T07:13:25.431Z</time></trkpt><trkpt lat="45.3519807" lon="10.624336"><ele>150.0</ele><time>2026-04-12T07:13:27.443Z</time></trkpt><trkpt lat="45.3520401" lon="10.6242813"><ele>150.0</ele><time>2026-04-12T07:13:30.423Z</time></trkpt><trkpt lat="45.3521094" lon="10.6241999"><ele>150.0</ele><time>2026-04-12T07:14:00.43Z</time></trkpt><trkpt lat="45.3521774" lon="10.6241225"><ele>150.0</ele><time>2026-04-12T07:14:02.433Z</time></trkpt><trkpt lat="45.3522473" lon="10.6240659"><ele>150.0</ele><time>2026-04-12T07:14:03.43Z</time></trkpt><trkpt lat="45.3523235" lon="10.6240018"><ele>150.0</ele><time>2026-04-12T07:14:04.438Z</time></trkpt><trkpt lat="45.3523966" lon="10.6239339"><ele>150.0</ele><time>2026-04-12T07:14:05.429Z</time></trkpt><trkpt lat="45.3524672" lon="10.6238721"><ele>149.57142857142856</ele><time>2026-04-12T07:14:06.431Z</time></trkpt><trkpt lat="45.3525401" lon="10.6238188"><ele>149.14285714285714</ele><time>2026-04-12T07:14:07.439Z</time></trkpt><trkpt lat="45.3526033" lon="10.6237706"><ele>148.71428571428572</ele><time>2026-04-12T07:14:08.428Z</time></trkpt><trkpt lat="45.3526583" lon="10.6237239"><ele>148.28571428571428</ele><time>2026-04-12T07:14:09.424Z</time></trkpt><trkpt lat="45.3527166" lon="10.6236521"><ele>147.85714285714286</ele><time>2026-04-12T07:14:11.43Z</time></trkpt><trkpt lat="45.352753" lon="10.6235709"><ele>147.42857142857142</ele><time>2026-04-12T07:14:13.43Z</time></trkpt><trkpt lat="45.3528065" lon="10.6235158"><ele>147.0</ele><time>2026-04-12T07:14:15.436Z</time></trkpt><trkpt lat="45.3528862" lon="10.6235661"><ele>146.66666666666666</ele><time>2026-04-12T07:14:31.426Z</time></trkpt><trkpt lat="45.3529537" lon="10.6237072"><ele>146.33333333333334</ele><time>2026-04-12T07:14:33.433Z</time></trkpt><trkpt lat="45.3529856" lon="10.6238046"><ele>146.0</ele><time>2026-04-12T07:14:34.428Z</time></trkpt><trkpt lat="45.3530171" lon="10.6239051"><ele>145.66666666666669</ele><time>2026-04-12T07:14:35.439Z</time></trkpt><trkpt lat="45.3530476" lon="10.6240289"><ele>145.33333333333334</ele><time>2026-04-12T07:14:36.428Z</time></trkpt><trkpt lat="45.3530711" lon="10.6241426"><ele>145.0</ele><time>2026-04-12T07:14:37.427Z</time></trkpt><trkpt lat="45.3530852" lon="10.6242994"><ele>145.4</ele><time>2026-04-12T07:14:39.428Z</time></trkpt><trkpt lat="45.3530735" lon="10.6244368"><ele>145.8</ele><time>2026-04-12T07:14:41.433Z</time></trkpt><trkpt lat="45.3530485" lon="10.6245522"><ele>146.2</ele><time>2026-04-12T07:14:43.434Z</time></trkpt><trkpt lat="45.3530358" lon="10.6246893"><ele>146.6</ele><time>2026-04-12T07:14:45.423Z</time></trkpt><trkpt lat="45.3530312" lon="10.6248063"><ele>147.0</ele><time>2026-04-12T07:14:47.437Z</time></trkpt><trkpt lat="45.3530772" lon="10.6249304"><ele>147.0</ele><time>2026-04-12T07:14:49.432Z</time></trkpt><trkpt lat="45.3530912" lon="10.6250483"><ele>147.0</ele><time>2026-04-12T07:14:52.428Z</time></trkpt><trkpt lat="45.3530113" lon="10.6251186"><ele>147.0</ele><time>2026-04-12T07:14:54.443Z</time></trkpt><trkpt lat="45.3529469" lon="10.6251587"><ele>147.0</ele><time>2026-04-12T07:14:55.434Z</time></trkpt><trkpt lat="45.3528872" lon="10.6252148"><ele>147.0</ele><time>2026-04-12T07:14:56.436Z</time></trkpt><trkpt lat="45.3528323" lon="10.6252658"><ele>147.0</ele><time>2026-04-12T07:14:57.432Z</time></trkpt><trkpt lat="45.3527776" lon="10.625361"><ele>147.66666666666666</ele><time>2026-04-12T07:14:59.429Z</time></trkpt><trkpt lat="45.35276" lon="10.6254796"><ele>148.33333333333334</ele><time>2026-04-12T07:15:01.438Z</time></trkpt><trkpt lat="45.352796" lon="10.6255759"><ele>149.0</ele><time>2026-04-12T07:15:03.431Z</time></trkpt><trkpt lat="45.3528754" lon="10.6256298"><ele>149.66666666666669</ele><time>2026-04-12T07:15:05.435Z</time></trkpt><trkpt lat="45.3529611" lon="10.6256699"><ele>150.33333333333334</ele><time>2026-04-12T07:15:07.432Z</time></trkpt><trkpt lat="45.3530255" lon="10.6257047"><ele>151.0</ele><time>2026-04-12T07:15:09.428Z</time></trkpt><trkpt lat="45.3530963" lon="10.6257127"><ele>153.8</ele><time>2026-04-12T07:15:11.426Z</time></trkpt><trkpt lat="45.3531915" lon="10.6256605"><ele>156.6</ele><time>2026-04-12T07:15:13.427Z</time></trkpt><trkpt lat="45.3532922" lon="10.6255841"><ele>159.4</ele><time>2026-04-12T07:15:15.428Z</time></trkpt><trkpt lat="45.3533722" lon="10.6255285"><ele>162.2</ele><time>2026-04-12T07:15:17.437Z</time></trkpt><trkpt lat="45.3534471" lon="10.6255421"><ele>165.0</ele><time>2026-04-12T07:15:29.433Z</time></trkpt><trkpt lat="45.3535027" lon="10.625602"><ele>165.0</ele><time>2026-04-12T07:15:33.425Z</time></trkpt><trkpt lat="45.3535733" lon="10.6255983"><ele>165.0</ele><time>2026-04-12T07:15:48.442Z</time></trkpt><trkpt lat="45.3536384" lon="10.6256104"><ele>165.0</ele><time>2026-04-12T07:15:52.433Z</time></trkpt><trkpt lat="45.3537258" lon="10.625589"><ele>165.0</ele><time>2026-04-12T07:15:55.43Z</time></trkpt><trkpt lat="45.3537744" lon="10.6254833"><ele>165.0</ele><time>2026-04-12T07:15:57.424Z</time></trkpt><trkpt lat="45.3538032" lon="10.6253944"><ele>165.0</ele><time>2026-04-12T07:15:58.433Z</time></trkpt><trkpt lat="45.3538401" lon="10.6252837"><ele>166.33333333333334</ele><time>2026-04-12T07:15:59.433Z</time></trkpt><trkpt lat="45.3538885" lon="10.6251444"><ele>167.66666666666666</ele><time>2026-04-12T07:16:00.436Z</time></trkpt><trkpt lat="45.3539352" lon="10.625017"><ele>169.0</ele><time>2026-04-12T07:16:01.43Z</time></trkpt><trkpt lat="45.3539762" lon="10.6249187"><ele>170.33333333333331</ele><time>2026-04-12T07:16:02.429Z</time></trkpt><trkpt lat="45.3540071" lon="10.6248363"><ele>171.66666666666666</ele><time>2026-04-12T07:16:03.431Z</time></trkpt><trkpt lat="45.3540764" lon="10.6247872"><ele>173.0</ele><time>2026-04-12T07:16:06.431Z</time></trkpt><trkpt lat="45.354141" lon="10.6247963"><ele>173.0</ele><time>2026-04-12T07:16:10.445Z</time></trkpt><trkpt lat="45.3541989" lon="10.6247402"><ele>173.0</ele><time>2026-04-12T07:16:14.421Z</time></trkpt><trkpt lat="45.3542808" lon="10.6247605"><ele>173.0</ele><time>2026-04-12T07:16:16.428Z</time></trkpt><trkpt lat="45.3543497" lon="10.6247609"><ele>173.0</ele><time>2026-04-12T07:16:20.428Z</time></trkpt><trkpt lat="45.3543463" lon="10.6246536"><ele>173.0</ele><time>2026-04-12T07:16:23.432Z</time></trkpt><trkpt lat="45.3543127" lon="10.6245625"><ele>173.0</ele><time>2026-04-12T07:16:47.425Z</time></trkpt><trkpt lat="45.3542701" lon="10.6244597"><ele>173.0</ele><time>2026-04-12T07:16:49.43Z</time></trkpt><trkpt lat="45.3542528" lon="10.6243041"><ele>173.0</ele><time>2026-04-12T07:16:51.428Z</time></trkpt><trkpt lat="45.3542562" lon="10.6241514"><ele>173.0</ele><time>2026-04-12T07:16:53.429Z</time></trkpt><trkpt lat="45.354268" lon="10.6239826"><ele>173.0</ele><time>2026-04-12T07:16:55.433Z</time></trkpt><trkpt lat="45.354266" lon="10.6238775"><ele>173.0</ele><time>2026-04-12T07:16:57.423Z</time></trkpt><trkpt lat="45.3542719" lon="10.6237761"><ele>173.0</ele><time>2026-04-12T07:16:59.427Z</time></trkpt><trkpt lat="45.354266" lon="10.6236649"><ele>173.0</ele><time>2026-04-12T07:17:02.42Z</time></trkpt><trkpt lat="45.354223" lon="10.6235967"><ele>173.0</ele><time>2026-04-12T07:17:05.429Z</time></trkpt><trkpt lat="45.3541596" lon="10.6235878"><ele>173.0</ele><time>2026-04-12T07:17:07.438Z</time></trkpt><trkpt lat="45.3540676" lon="10.6235882"><ele>173.0</ele><time>2026-04-12T07:17:09.434Z</time></trkpt><trkpt lat="45.353958" lon="10.6235706"><ele>173.0</ele><time>2026-04-12T07:17:11.428Z</time></trkpt><trkpt lat="45.3538516" lon="10.6235257"><ele>168.4</ele><time>2026-04-12T07:17:13.421Z</time></trkpt><trkpt lat="45.3537506" lon="10.6234924"><ele>163.8</ele><time>2026-04-12T07:17:15.426Z</time></trkpt><trkpt lat="45.3536411" lon="10.6234835"><ele>159.2</ele><time>2026-04-12T07:17:17.429Z</time></trkpt><trkpt lat="45.3535219" lon="10.6234928"><ele>154.6</ele><time>2026-04-12T07:17:19.429Z</time></trkpt><trkpt lat="45.3534153" lon="10.6234966"><ele>150.0</ele><time>2026-04-12T07:17:21.44Z</time></trkpt><trkpt lat="45.3533368" lon="10.6235009"><ele>150.0</ele><time>2026-04-12T07:17:23.442Z</time></trkpt><trkpt lat="45.3532705" lon="10.6235025"><ele>150.0</ele><time>2026-04-12T07:17:26.438Z</time></trkpt><trkpt lat="45.3531978" lon="10.6235567"><ele>150.0</ele><time>2026-04-12T07:17:30.42Z</time></trkpt><trkpt lat="45.3532352" lon="10.623691"><ele>150.0</ele><time>2026-04-12T07:17:33.425Z</time></trkpt><trkpt lat="45.3532928" lon="10.6237608"><ele>150.0</ele><time>2026-04-12T07:17:35.441Z</time></trkpt><trkpt lat="45.3533706" lon="10.6237397"><ele>150.0</ele><time>2026-04-12T07:17:37.425Z</time></trkpt><trkpt lat="45.3534446" lon="10.6236978"><ele>150.5</ele><time>2026-04-12T07:17:39.43Z</time></trkpt><trkpt lat="45.3535263" lon="10.6236733"><ele>151.0</ele><time>2026-04-12T07:17:41.428Z</time></trkpt><trkpt lat="45.3536114" lon="10.623669"><ele>151.5</ele><time>2026-04-12T07:17:43.432Z</time></trkpt><trkpt lat="45.3536858" lon="10.6236845"><ele>152.0</ele><time>2026-04-12T07:17:45.428Z</time></trkpt><trkpt lat="45.3537786" lon="10.6237053"><ele>152.5</ele><time>2026-04-12T07:17:51.418Z</time></trkpt><trkpt lat="45.3538604" lon="10.6237419"><ele>153.0</ele><time>2026-04-12T07:17:53.445Z</time></trkpt><trkpt lat="45.3539227" lon="10.6237668"><ele>153.0</ele><time>2026-04-12T07:17:55.429Z</time></trkpt><trkpt lat="45.3539796" lon="10.6238182"><ele>153.0</ele><time>2026-04-12T07:17:58.43Z</time></trkpt><trkpt lat="45.3539178" lon="10.6237752"><ele>153.0</ele><time>2026-04-12T07:18:37.433Z</time></trkpt><trkpt lat="45.3538536" lon="10.623746"><ele>153.0</ele><time>2026-04-12T07:18:38.425Z</time></trkpt><trkpt lat="45.3537835" lon="10.623718"><ele>153.0</ele><time>2026-04-12T07:18:39.415Z</time></trkpt><trkpt lat="45.3537084" lon="10.623695"><ele>153.0</ele><time>2026-04-12T07:18:40.431Z</time></trkpt><trkpt lat="45.3536305" lon="10.6236841"><ele>153.0</ele><time>2026-04-12T07:18:41.427Z</time></trkpt><trkpt lat="45.353553" lon="10.623686"><ele>153.0</ele><time>2026-04-12T07:18:42.43Z</time></trkpt><trkpt lat="45.3534771" lon="10.6237014"><ele>153.0</ele><time>2026-04-12T07:18:43.434Z</time></trkpt><trkpt lat="45.3534019" lon="10.6237347"><ele>153.0</ele><time>2026-04-12T07:18:44.429Z</time></trkpt><trkpt lat="45.353343" lon="10.6237682"><ele>153.0</ele><time>2026-04-12T07:18:45.435Z</time></trkpt><trkpt lat="45.3532699" lon="10.6237887"><ele>153.0</ele><time>2026-04-12T07:18:48.429Z</time></trkpt><trkpt lat="45.3532937" lon="10.6236827"><ele>153.0</ele><time>2026-04-12T07:18:51.428Z</time></trkpt><trkpt lat="45.353403" lon="10.6235956"><ele>152.4</ele><time>2026-04-12T07:18:53.44Z</time></trkpt><trkpt lat="45.3534671" lon="10.6235522"><ele>151.8</ele><time>2026-04-12T07:18:54.433Z</time></trkpt><trkpt lat="45.3535297" lon="10.6235147"><ele>151.2</ele><time>2026-04-12T07:18:55.429Z</time></trkpt><trkpt lat="45.3536302" lon="10.6234976"><ele>150.6</ele><time>2026-04-12T07:18:57.436Z</time></trkpt><trkpt lat="45.35375" lon="10.6235109"><ele>150.0</ele><time>2026-04-12T07:18:59.433Z</time></trkpt><trkpt lat="45.3538662" lon="10.6235387"><ele>152.8</ele><time>2026-04-12T07:19:01.43Z</time></trkpt><trkpt lat="45.3539736" lon="10.6235846"><ele>155.6</ele><time>2026-04-12T07:19:03.431Z</time></trkpt><trkpt lat="45.3540892" lon="10.6235919"><ele>158.39999999999998</ele><time>2026-04-12T07:19:05.435Z</time></trkpt><trkpt lat="45.3541647" lon="10.6236177"><ele>161.2</ele><time>2026-04-12T07:19:07.432Z</time></trkpt><trkpt lat="45.3542359" lon="10.6236306"><ele>164.0</ele><time>2026-04-12T07:21:16.438Z</time></trkpt><trkpt lat="45.3542411" lon="10.6237367"><ele>163.99999999999997</ele><time>2026-04-12T07:21:33.431Z</time></trkpt><trkpt lat="45.354248" lon="10.6238319"><ele>164.0</ele><time>2026-04-12T07:21:39.433Z</time></trkpt><trkpt lat="45.3542604" lon="10.6237438"><ele>164.0</ele><time>2026-04-12T07:27:05.454Z</time></trkpt><trkpt lat="45.3542328" lon="10.6236603"><ele>164.0</ele><time>2026-04-12T07:31:43.434Z</time></trkpt><trkpt lat="45.3541776" lon="10.623594"><ele>164.0</ele><time>2026-04-12T07:31:48.435Z</time></trkpt><trkpt lat="45.3541222" lon="10.6235495"><ele>163.99999999999997</ele><time>2026-04-12T07:31:50.429Z</time></trkpt><trkpt lat="45.3540517" lon="10.6234874"><ele>164.0</ele><time>2026-04-12T07:31:52.427Z</time></trkpt><trkpt lat="45.3539759" lon="10.623425"><ele>164.0</ele><time>2026-04-12T07:31:54.431Z</time></trkpt><trkpt lat="45.3538995" lon="10.6233678"><ele>164.0</ele><time>2026-04-12T07:31:56.441Z</time></trkpt><trkpt lat="45.3538204" lon="10.6233244"><ele>164.0</ele><time>2026-04-12T07:31:58.436Z</time></trkpt><trkpt lat="45.3537519" lon="10.6232764"><ele>164.0</ele><time>2026-04-12T07:32:00.428Z</time></trkpt><trkpt lat="45.3536821" lon="10.623233"><ele>164.0</ele><time>2026-04-12T07:32:02.435Z</time></trkpt><trkpt lat="45.3536166" lon="10.6231989"><ele>164.0</ele><time>2026-04-12T07:32:04.429Z</time></trkpt><trkpt lat="45.3535531" lon="10.6231877"><ele>161.99999999999997</ele><time>2026-04-12T07:32:06.434Z</time></trkpt><trkpt lat="45.3534865" lon="10.6231528"><ele>160.0</ele><time>2026-04-12T07:32:09.43Z</time></trkpt><trkpt lat="45.3534263" lon="10.6230932"><ele>158.0</ele><time>2026-04-12T07:32:12.431Z</time></trkpt><trkpt lat="45.3533736" lon="10.6230133"><ele>156.0</ele><time>2026-04-12T07:32:15.429Z</time></trkpt><trkpt lat="45.3533448" lon="10.6228989"><ele>154.0</ele><time>2026-04-12T07:32:18.428Z</time></trkpt><trkpt lat="45.3533343" lon="10.6228014"><ele>151.99999999999997</ele><time>2026-04-12T07:32:21.431Z</time></trkpt><trkpt lat="45.3533615" lon="10.622719"><ele>150.0</ele><time>2026-04-12T07:32:42.424Z</time></trkpt><trkpt lat="45.3533386" lon="10.6228043"><ele>150.0</ele><time>2026-04-12T07:32:56.422Z</time></trkpt><trkpt lat="45.3534152" lon="10.6228319"><ele>150.0</ele><time>2026-04-12T07:32:59.421Z</time></trkpt><trkpt lat="45.353502" lon="10.6228304"><ele>150.0</ele><time>2026-04-12T07:33:01.429Z</time></trkpt><trkpt lat="45.3535963" lon="10.6228403"><ele>150.0</ele><time>2026-04-12T07:33:03.429Z</time></trkpt><trkpt lat="45.3536874" lon="10.6228587"><ele>150.0</ele><time>2026-04-12T07:33:05.43Z</time></trkpt><trkpt lat="45.3537576" lon="10.6228779"><ele>150.0</ele><time>2026-04-12T07:33:08.429Z</time></trkpt><trkpt lat="45.3538282" lon="10.6228717"><ele>150.0</ele><time>2026-04-12T07:34:15.42Z</time></trkpt><trkpt lat="45.3537092" lon="10.6228614"><ele>150.0</ele><time>2026-04-12T07:34:18.424Z</time></trkpt><trkpt lat="45.3536379" lon="10.6228477"><ele>150.0</ele><time>2026-04-12T07:34:19.426Z</time></trkpt><trkpt lat="45.3535161" lon="10.6228415"><ele>150.0</ele><time>2026-04-12T07:34:21.437Z</time></trkpt><trkpt lat="45.3534155" lon="10.6228363"><ele>150.0</ele><time>2026-04-12T07:34:23.426Z</time></trkpt><trkpt lat="45.3533494" lon="10.6228026"><ele>149.0</ele><time>2026-04-12T07:34:54.429Z</time></trkpt><trkpt lat="45.3533507" lon="10.6226772"><ele>148.0</ele><time>2026-04-12T07:34:57.428Z</time></trkpt><trkpt lat="45.3533644" lon="10.6225672"><ele>147.0</ele><time>2026-04-12T07:34:59.427Z</time></trkpt><trkpt lat="45.3533908" lon="10.6224164"><ele>146.0</ele><time>2026-04-12T07:35:01.439Z</time></trkpt><trkpt lat="45.3534111" lon="10.6223126"><ele>145.0</ele><time>2026-04-12T07:35:02.442Z</time></trkpt><trkpt lat="45.3534277" lon="10.6221941"><ele>144.0</ele><time>2026-04-12T07:35:03.434Z</time></trkpt><trkpt lat="45.3534468" lon="10.6220613"><ele>143.33333333333334</ele><time>2026-04-12T07:35:04.432Z</time></trkpt><trkpt lat="45.3534687" lon="10.6219323"><ele>142.66666666666666</ele><time>2026-04-12T07:35:05.435Z</time></trkpt><trkpt lat="45.3534897" lon="10.6218085"><ele>142.0</ele><time>2026-04-12T07:35:06.418Z</time></trkpt><trkpt lat="45.3535168" lon="10.6216921"><ele>141.33333333333331</ele><time>2026-04-12T07:35:07.436Z</time></trkpt><trkpt lat="45.3535519" lon="10.6215774"><ele>140.66666666666666</ele><time>2026-04-12T07:35:08.432Z</time></trkpt><trkpt lat="45.353595" lon="10.6214642"><ele>140.0</ele><time>2026-04-12T07:35:09.426Z</time></trkpt><trkpt lat="45.3536449" lon="10.6213508"><ele>140.0</ele><time>2026-04-12T07:35:10.429Z</time></trkpt><trkpt lat="45.3536993" lon="10.6212438"><ele>140.0</ele><time>2026-04-12T07:35:11.435Z</time></trkpt><trkpt lat="45.3537507" lon="10.6211468"><ele>140.0</ele><time>2026-04-12T07:35:12.43Z</time></trkpt><trkpt lat="45.3537913" lon="10.6210563"><ele>140.0</ele><time>2026-04-12T07:35:13.434Z</time></trkpt><trkpt lat="45.3538425" lon="10.6209336"><ele>140.0</ele><time>2026-04-12T07:35:15.428Z</time></trkpt><trkpt lat="45.3539016" lon="10.6208655"><ele>140.0</ele><time>2026-04-12T07:35:19.438Z</time></trkpt><trkpt lat="45.3540182" lon="10.6209578"><ele>140.75</ele><time>2026-04-12T07:35:21.431Z</time></trkpt><trkpt lat="45.3541013" lon="10.6210445"><ele>141.5</ele><time>2026-04-12T07:35:22.428Z</time></trkpt><trkpt lat="45.3542101" lon="10.6211426"><ele>142.25</ele><time>2026-04-12T07:35:23.431Z</time></trkpt><trkpt lat="45.3543354" lon="10.621256"><ele>143.0</ele><time>2026-04-12T07:35:24.419Z</time></trkpt><trkpt lat="45.3544779" lon="10.6213821"><ele>143.0</ele><time>2026-04-12T07:35:25.431Z</time></trkpt><trkpt lat="45.3546165" lon="10.621501"><ele>143.0</ele><time>2026-04-12T07:35:26.421Z</time></trkpt><trkpt lat="45.3547536" lon="10.6216179"><ele>143.0</ele><time>2026-04-12T07:35:27.432Z</time></trkpt><trkpt lat="45.3548793" lon="10.6217258"><ele>142.75</ele><time>2026-04-12T07:35:28.426Z</time></trkpt><trkpt lat="45.354993" lon="10.621823"><ele>142.5</ele><time>2026-04-12T07:35:29.43Z</time></trkpt><trkpt lat="45.3550962" lon="10.6219148"><ele>142.25</ele><time>2026-04-12T07:35:30.435Z</time></trkpt><trkpt lat="45.3551996" lon="10.6220102"><ele>142.0</ele><time>2026-04-12T07:35:31.429Z</time></trkpt><trkpt lat="45.3553228" lon="10.6221226"><ele>143.33333333333334</ele><time>2026-04-12T07:35:32.426Z</time></trkpt><trkpt lat="45.3554549" lon="10.6222583"><ele>144.66666666666666</ele><time>2026-04-12T07:35:33.426Z</time></trkpt><trkpt lat="45.3555727" lon="10.6223923"><ele>146.0</ele><time>2026-04-12T07:35:34.438Z</time></trkpt><trkpt lat="45.3556828" lon="10.6225089"><ele>146.0</ele><time>2026-04-12T07:35:35.427Z</time></trkpt><trkpt lat="45.3557833" lon="10.6226144"><ele>146.0</ele><time>2026-04-12T07:35:36.433Z</time></trkpt><trkpt lat="45.3558814" lon="10.6227158"><ele>146.0</ele><time>2026-04-12T07:35:37.433Z</time></trkpt><trkpt lat="45.3559995" lon="10.62283"><ele>146.0</ele><time>2026-04-12T07:35:38.437Z</time></trkpt><trkpt lat="45.3561301" lon="10.6229425"><ele>148.25</ele><time>2026-04-12T07:35:39.429Z</time></trkpt><trkpt lat="45.3562547" lon="10.6230387"><ele>150.5</ele><time>2026-04-12T07:35:40.442Z</time></trkpt><trkpt lat="45.3563718" lon="10.6231229"><ele>152.75</ele><time>2026-04-12T07:35:41.436Z</time></trkpt><trkpt lat="45.3564917" lon="10.6232091"><ele>155.0</ele><time>2026-04-12T07:35:42.431Z</time></trkpt><trkpt lat="45.3566028" lon="10.6232936"><ele>155.0</ele><time>2026-04-12T07:35:43.431Z</time></trkpt><trkpt lat="45.3567039" lon="10.6233719"><ele>155.0</ele><time>2026-04-12T07:35:44.438Z</time></trkpt><trkpt lat="45.3567927" lon="10.6234394"><ele>155.0</ele><time>2026-04-12T07:35:45.429Z</time></trkpt><trkpt lat="45.3568733" lon="10.6235035"><ele>155.0</ele><time>2026-04-12T07:35:46.437Z</time></trkpt><trkpt lat="45.3569486" lon="10.6235696"><ele>155.0</ele><time>2026-04-12T07:35:47.434Z</time></trkpt><trkpt lat="45.3570133" lon="10.6236359"><ele>155.83333333333331</ele><time>2026-04-12T07:35:48.431Z</time></trkpt><trkpt lat="45.3570677" lon="10.6237019"><ele>156.66666666666666</ele><time>2026-04-12T07:35:49.432Z</time></trkpt><trkpt lat="45.3571154" lon="10.6237633"><ele>157.5</ele><time>2026-04-12T07:35:50.434Z</time></trkpt><trkpt lat="45.3571948" lon="10.623869"><ele>158.33333333333334</ele><time>2026-04-12T07:35:52.436Z</time></trkpt><trkpt lat="45.357272" lon="10.623909"><ele>159.16666666666669</ele><time>2026-04-12T07:35:54.428Z</time></trkpt><trkpt lat="45.3573372" lon="10.6239099"><ele>160.0</ele><time>2026-04-12T07:35:56.423Z</time></trkpt><trkpt lat="45.3574034" lon="10.6239079"><ele>160.0</ele><time>2026-04-12T07:35:58.427Z</time></trkpt><trkpt lat="45.3574661" lon="10.6238952"><ele>160.0</ele><time>2026-04-12T07:36:00.436Z</time></trkpt><trkpt lat="45.3575637" lon="10.6238953"><ele>160.0</ele><time>2026-04-12T07:36:03.435Z</time></trkpt><trkpt lat="45.357653" lon="10.623904"><ele>160.0</ele><time>2026-04-12T07:36:05.44Z</time></trkpt><trkpt lat="45.3577336" lon="10.6238508"><ele>160.0</ele><time>2026-04-12T07:37:19.433Z</time></trkpt><trkpt lat="45.3577723" lon="10.6239261"><ele>160.0</ele><time>2026-04-12T07:37:59.422Z</time></trkpt><trkpt lat="45.357772" lon="10.6240159"><ele>160.0</ele><time>2026-04-12T07:38:01.431Z</time></trkpt><trkpt lat="45.3577681" lon="10.6241519"><ele>160.0</ele><time>2026-04-12T07:38:03.428Z</time></trkpt><trkpt lat="45.3577754" lon="10.6243011"><ele>160.0</ele><time>2026-04-12T07:38:05.442Z</time></trkpt><trkpt lat="45.3577843" lon="10.6244449"><ele>160.0</ele><time>2026-04-12T07:38:07.433Z</time></trkpt><trkpt lat="45.3577938" lon="10.6245726"><ele>160.0</ele><time>2026-04-12T07:38:09.431Z</time></trkpt><trkpt lat="45.3577998" lon="10.624682"><ele>160.16666666666669</ele><time>2026-04-12T07:38:11.435Z</time></trkpt><trkpt lat="45.3578074" lon="10.6247896"><ele>160.33333333333334</ele><time>2026-04-12T07:38:13.433Z</time></trkpt><trkpt lat="45.3578363" lon="10.6249002"><ele>160.5</ele><time>2026-04-12T07:38:15.434Z</time></trkpt><trkpt lat="45.357872" lon="10.6250144"><ele>160.66666666666666</ele><time>2026-04-12T07:38:17.433Z</time></trkpt><trkpt lat="45.3578776" lon="10.625119"><ele>160.83333333333331</ele><time>2026-04-12T07:38:19.43Z</time></trkpt><trkpt lat="45.3578643" lon="10.6252117"><ele>161.0</ele><time>2026-04-12T07:38:21.435Z</time></trkpt><trkpt lat="45.3578389" lon="10.625319"><ele>161.0</ele><time>2026-04-12T07:38:24.434Z</time></trkpt><trkpt lat="45.3578329" lon="10.6254116"><ele>161.0</ele><time>2026-04-12T07:38:27.427Z</time></trkpt><trkpt lat="45.3578588" lon="10.6254955"><ele>161.0</ele><time>2026-04-12T07:38:31.433Z</time></trkpt><trkpt lat="45.3579062" lon="10.6254069"><ele>161.0</ele><time>2026-04-12T07:43:18.437Z</time></trkpt><trkpt lat="45.357952" lon="10.6253351"><ele>161.0</ele><time>2026-04-12T07:43:20.437Z</time></trkpt><trkpt lat="45.3579887" lon="10.6252306"><ele>161.0</ele><time>2026-04-12T07:43:22.435Z</time></trkpt><trkpt lat="45.3580275" lon="10.6251349"><ele>161.0</ele><time>2026-04-12T07:43:24.443Z</time></trkpt><trkpt lat="45.3580747" lon="10.6250631"><ele>162.0</ele><time>2026-04-12T07:43:26.444Z</time></trkpt><trkpt lat="45.3581529" lon="10.6250536"><ele>163.0</ele><time>2026-04-12T07:43:29.448Z</time></trkpt><trkpt lat="45.3582176" lon="10.6250943"><ele>164.0</ele><time>2026-04-12T07:43:31.433Z</time></trkpt><trkpt lat="45.3582827" lon="10.6251167"><ele>165.0</ele><time>2026-04-12T07:43:34.449Z</time></trkpt><trkpt lat="45.3582419" lon="10.6252308"><ele>166.0</ele><time>2026-04-12T07:43:44.434Z</time></trkpt><trkpt lat="45.3581682" lon="10.6253731"><ele>167.0</ele><time>2026-04-12T07:43:46.44Z</time></trkpt><trkpt lat="45.3581226" lon="10.6254761"><ele>167.0</ele><time>2026-04-12T07:43:47.444Z</time></trkpt><trkpt lat="45.3580806" lon="10.6255751"><ele>167.0</ele><time>2026-04-12T07:43:48.438Z</time></trkpt><trkpt lat="45.3580405" lon="10.6256672"><ele>167.0</ele><time>2026-04-12T07:43:49.441Z</time></trkpt><trkpt lat="45.3580047" lon="10.6257533"><ele>167.0</ele><time>2026-04-12T07:43:50.441Z</time></trkpt><trkpt lat="45.3579711" lon="10.625835"><ele>167.0</ele><time>2026-04-12T07:43:51.446Z</time></trkpt><trkpt lat="45.3579291" lon="10.6259848"><ele>167.0</ele><time>2026-04-12T07:43:53.438Z</time></trkpt><trkpt lat="45.3579209" lon="10.6261436"><ele>166.0</ele><time>2026-04-12T07:43:55.439Z</time></trkpt><trkpt lat="45.3579342" lon="10.6263078"><ele>165.0</ele><time>2026-04-12T07:43:57.447Z</time></trkpt><trkpt lat="45.3579188" lon="10.626444"><ele>164.0</ele><time>2026-04-12T07:43:59.439Z</time></trkpt><trkpt lat="45.3578827" lon="10.6265893"><ele>163.0</ele><time>2026-04-12T07:44:01.446Z</time></trkpt><trkpt lat="45.3578382" lon="10.6267234"><ele>162.0</ele><time>2026-04-12T07:44:03.445Z</time></trkpt><trkpt lat="45.3577916" lon="10.62684"><ele>162.0</ele><time>2026-04-12T07:44:05.448Z</time></trkpt><trkpt lat="45.357748" lon="10.6269519"><ele>162.0</ele><time>2026-04-12T07:44:07.445Z</time></trkpt><trkpt lat="45.3577028" lon="10.6270466"><ele>162.0</ele><time>2026-04-12T07:44:09.448Z</time></trkpt><trkpt lat="45.3576654" lon="10.6271339"><ele>162.0</ele><time>2026-04-12T07:44:12.443Z</time></trkpt><trkpt lat="45.3577178" lon="10.6271913"><ele>162.0</ele><time>2026-04-12T07:44:25.45Z</time></trkpt><trkpt lat="45.3578081" lon="10.6272028"><ele>162.0</ele><time>2026-04-12T07:44:44.447Z</time></trkpt><trkpt lat="45.3578228" lon="10.6273036"><ele>161.5</ele><time>2026-04-12T07:44:58.438Z</time></trkpt><trkpt lat="45.3577741" lon="10.6273676"><ele>161.0</ele><time>2026-04-12T07:45:07.448Z</time></trkpt><trkpt lat="45.3576918" lon="10.627332"><ele>160.5</ele><time>2026-04-12T07:45:10.438Z</time></trkpt><trkpt lat="45.3576149" lon="10.6272726"><ele>160.0</ele><time>2026-04-12T07:45:21.435Z</time></trkpt><trkpt lat="45.3575559" lon="10.6272359"><ele>159.5</ele><time>2026-04-12T07:45:23.438Z</time></trkpt><trkpt lat="45.3574971" lon="10.6271899"><ele>159.0</ele><time>2026-04-12T07:45:29.432Z</time></trkpt><trkpt lat="45.3574419" lon="10.6273227"><ele>159.0</ele><time>2026-04-12T07:45:38.438Z</time></trkpt><trkpt lat="45.3574009" lon="10.6274049"><ele>159.0</ele><time>2026-04-12T07:45:39.436Z</time></trkpt><trkpt lat="45.3573666" lon="10.6274875"><ele>159.0</ele><time>2026-04-12T07:45:40.448Z</time></trkpt><trkpt lat="45.3573129" lon="10.6276246"><ele>159.0</ele><time>2026-04-12T07:45:42.441Z</time></trkpt><trkpt lat="45.3572481" lon="10.6277217"><ele>159.0</ele><time>2026-04-12T07:45:44.447Z</time></trkpt><trkpt lat="45.3571593" lon="10.627804"><ele>159.0</ele><time>2026-04-12T07:45:46.434Z</time></trkpt><trkpt lat="45.3570606" lon="10.627907"><ele>157.5</ele><time>2026-04-12T07:45:48.443Z</time></trkpt><trkpt lat="45.3570126" lon="10.627969"><ele>156.0</ele><time>2026-04-12T07:45:49.442Z</time></trkpt><trkpt lat="45.3569624" lon="10.6280349"><ele>154.5</ele><time>2026-04-12T07:45:50.441Z</time></trkpt><trkpt lat="45.3569153" lon="10.6281003"><ele>153.0</ele><time>2026-04-12T07:45:51.434Z</time></trkpt><trkpt lat="45.3568218" lon="10.6282068"><ele>151.5</ele><time>2026-04-12T07:45:53.432Z</time></trkpt><trkpt lat="45.3567514" lon="10.6282876"><ele>150.0</ele><time>2026-04-12T07:45:55.432Z</time></trkpt><trkpt lat="45.356687" lon="10.628348"><ele>150.0</ele><time>2026-04-12T07:45:57.434Z</time></trkpt><trkpt lat="45.3566216" lon="10.628317"><ele>150.0</ele><time>2026-04-12T07:46:25.445Z</time></trkpt><trkpt lat="45.3566142" lon="10.6284281"><ele>150.0</ele><time>2026-04-12T07:46:30.444Z</time></trkpt><trkpt lat="45.3565664" lon="10.6285112"><ele>150.0</ele><time>2026-04-12T07:46:31.439Z</time></trkpt><trkpt lat="45.3565122" lon="10.6286047"><ele>150.0</ele><time>2026-04-12T07:46:32.438Z</time></trkpt><trkpt lat="45.3564637" lon="10.6286954"><ele>150.0</ele><time>2026-04-12T07:46:33.442Z</time></trkpt><trkpt lat="45.356418" lon="10.6287925"><ele>149.33333333333334</ele><time>2026-04-12T07:46:34.442Z</time></trkpt><trkpt lat="45.3563792" lon="10.6288976"><ele>148.66666666666666</ele><time>2026-04-12T07:46:35.441Z</time></trkpt><trkpt lat="45.3563407" lon="10.6290028"><ele>148.0</ele><time>2026-04-12T07:46:36.442Z</time></trkpt><trkpt lat="45.3563176" lon="10.6291141"><ele>147.33333333333331</ele><time>2026-04-12T07:46:37.439Z</time></trkpt><trkpt lat="45.3563104" lon="10.6292293"><ele>146.66666666666666</ele><time>2026-04-12T07:46:38.444Z</time></trkpt><trkpt lat="45.3563156" lon="10.6293364"><ele>146.0</ele><time>2026-04-12T07:46:39.445Z</time></trkpt><trkpt lat="45.3563349" lon="10.6294222"><ele>145.5</ele><time>2026-04-12T07:46:40.431Z</time></trkpt><trkpt lat="45.3563481" lon="10.6295525"><ele>145.0</ele><time>2026-04-12T07:46:42.444Z</time></trkpt><trkpt lat="45.3562911" lon="10.6296955"><ele>144.5</ele><time>2026-04-12T07:46:44.431Z</time></trkpt><trkpt lat="45.3562441" lon="10.6297765"><ele>144.0</ele><time>2026-04-12T07:46:45.439Z</time></trkpt><trkpt lat="45.3561931" lon="10.6298533"><ele>143.5</ele><time>2026-04-12T07:46:46.436Z</time></trkpt><trkpt lat="45.3561365" lon="10.6299229"><ele>143.0</ele><time>2026-04-12T07:46:47.436Z</time></trkpt><trkpt lat="45.3560819" lon="10.6299815"><ele>143.0</ele><time>2026-04-12T07:46:48.439Z</time></trkpt><trkpt lat="45.3559873" lon="10.6300692"><ele>143.0</ele><time>2026-04-12T07:46:50.433Z</time></trkpt><trkpt lat="45.355925" lon="10.6301375"><ele>143.0</ele><time>2026-04-12T07:46:52.436Z</time></trkpt><trkpt lat="45.3558729" lon="10.6302274"><ele>143.0</ele><time>2026-04-12T07:46:55.435Z</time></trkpt><trkpt lat="45.355838" lon="10.6303406"><ele>143.0</ele><time>2026-04-12T07:46:58.441Z</time></trkpt><trkpt lat="45.3558089" lon="10.6304227"><ele>143.0</ele><time>2026-04-12T07:47:00.437Z</time></trkpt><trkpt lat="45.3557822" lon="10.6305083"><ele>142.6</ele><time>2026-04-12T07:47:02.449Z</time></trkpt><trkpt lat="45.3557541" lon="10.630638"><ele>142.20000000000002</ele><time>2026-04-12T07:47:04.435Z</time></trkpt><trkpt lat="45.3557191" lon="10.6307935"><ele>141.8</ele><time>2026-04-12T07:47:06.431Z</time></trkpt><trkpt lat="45.3556844" lon="10.6309545"><ele>141.4</ele><time>2026-04-12T07:47:08.431Z</time></trkpt><trkpt lat="45.3556419" lon="10.6310885"><ele>141.0</ele><time>2026-04-12T07:47:10.434Z</time></trkpt><trkpt lat="45.3555878" lon="10.6311731"><ele>139.5</ele><time>2026-04-12T07:47:12.436Z</time></trkpt><trkpt lat="45.3555101" lon="10.6312002"><ele>138.0</ele><time>2026-04-12T07:47:14.433Z</time></trkpt><trkpt lat="45.3554221" lon="10.6311804"><ele>136.5</ele><time>2026-04-12T07:47:16.431Z</time></trkpt><trkpt lat="45.3553526" lon="10.6311238"><ele>135.0</ele><time>2026-04-12T07:47:18.439Z</time></trkpt><trkpt lat="45.3553462" lon="10.6310122"><ele>133.5</ele><time>2026-04-12T07:47:20.435Z</time></trkpt><trkpt lat="45.3553817" lon="10.6308725"><ele>132.0</ele><time>2026-04-12T07:47:22.435Z</time></trkpt><trkpt lat="45.3554421" lon="10.6307118"><ele>132.0</ele><time>2026-04-12T07:47:24.434Z</time></trkpt><trkpt lat="45.3554724" lon="10.6306288"><ele>132.0</ele><time>2026-04-12T07:47:25.44Z</time></trkpt><trkpt lat="45.3555053" lon="10.630543"><ele>132.0</ele><time>2026-04-12T07:47:26.442Z</time></trkpt><trkpt lat="45.3555382" lon="10.6304556"><ele>132.0</ele><time>2026-04-12T07:47:27.442Z</time></trkpt><trkpt lat="45.3555733" lon="10.6303637"><ele>132.0</ele><time>2026-04-12T07:47:28.442Z</time></trkpt><trkpt lat="45.355609" lon="10.630267"><ele>132.0</ele><time>2026-04-12T07:47:29.441Z</time></trkpt><trkpt lat="45.3556419" lon="10.630179"><ele>132.0</ele><time>2026-04-12T07:47:30.434Z</time></trkpt><trkpt lat="45.355689" lon="10.6300405"><ele>133.2</ele><time>2026-04-12T07:47:32.443Z</time></trkpt><trkpt lat="45.3556815" lon="10.6299265"><ele>134.39999999999998</ele><time>2026-04-12T07:47:34.434Z</time></trkpt><trkpt lat="45.3556292" lon="10.6298629"><ele>135.60000000000002</ele><time>2026-04-12T07:47:36.441Z</time></trkpt><trkpt lat="45.355548" lon="10.6298792"><ele>136.8</ele><time>2026-04-12T07:47:39.432Z</time></trkpt><trkpt lat="45.3554652" lon="10.6300223"><ele>138.0</ele><time>2026-04-12T07:47:41.434Z</time></trkpt><trkpt lat="45.3554191" lon="10.6301357"><ele>138.0</ele><time>2026-04-12T07:47:42.441Z</time></trkpt><trkpt lat="45.3553695" lon="10.6302543"><ele>138.0</ele><time>2026-04-12T07:47:43.446Z</time></trkpt><trkpt lat="45.3553243" lon="10.6303693"><ele>138.0</ele><time>2026-04-12T07:47:44.446Z</time></trkpt><trkpt lat="45.3552834" lon="10.6304803"><ele>138.0</ele><time>2026-04-12T07:47:45.453Z</time></trkpt><trkpt lat="45.3552433" lon="10.6305838"><ele>138.0</ele><time>2026-04-12T07:47:46.433Z</time></trkpt><trkpt lat="45.355202" lon="10.630666"><ele>138.0</ele><time>2026-04-12T07:47:47.438Z</time></trkpt><trkpt lat="45.3550963" lon="10.6307334"><ele>136.8</ele><time>2026-04-12T07:47:49.445Z</time></trkpt><trkpt lat="45.3549647" lon="10.6306626"><ele>135.60000000000002</ele><time>2026-04-12T07:47:51.432Z</time></trkpt><trkpt lat="45.3548845" lon="10.6305972"><ele>134.39999999999998</ele><time>2026-04-12T07:47:52.445Z</time></trkpt><trkpt lat="45.3548065" lon="10.6305301"><ele>133.2</ele><time>2026-04-12T07:47:53.443Z</time></trkpt><trkpt lat="45.3547353" lon="10.6304667"><ele>132.0</ele><time>2026-04-12T07:47:54.438Z</time></trkpt><trkpt lat="45.3546664" lon="10.6304294"><ele>131.66666666666666</ele><time>2026-04-12T07:47:55.437Z</time></trkpt><trkpt lat="45.3546003" lon="10.6304246"><ele>131.33333333333334</ele><time>2026-04-12T07:47:56.436Z</time></trkpt><trkpt lat="45.3545361" lon="10.6304565"><ele>131.0</ele><time>2026-04-12T07:47:57.437Z</time></trkpt><trkpt lat="45.3544764" lon="10.6305164"><ele>130.66666666666669</ele><time>2026-04-12T07:47:58.444Z</time></trkpt><trkpt lat="45.3544185" lon="10.6305817"><ele>130.33333333333334</ele><time>2026-04-12T07:47:59.431Z</time></trkpt><trkpt lat="45.3543544" lon="10.630656"><ele>130.0</ele><time>2026-04-12T07:48:00.433Z</time></trkpt><trkpt lat="45.354266" lon="10.6307519"><ele>130.0</ele><time>2026-04-12T07:48:01.444Z</time></trkpt><trkpt lat="45.3541612" lon="10.6308782"><ele>130.0</ele><time>2026-04-12T07:48:02.44Z</time></trkpt><trkpt lat="45.3540442" lon="10.6310184"><ele>130.0</ele><time>2026-04-12T07:48:03.443Z</time></trkpt><trkpt lat="45.3539159" lon="10.631166"><ele>129.0</ele><time>2026-04-12T07:48:04.444Z</time></trkpt><trkpt lat="45.3537854" lon="10.6313117"><ele>128.0</ele><time>2026-04-12T07:48:05.432Z</time></trkpt><trkpt lat="45.3536615" lon="10.6314541"><ele>127.0</ele><time>2026-04-12T07:48:06.437Z</time></trkpt><trkpt lat="45.3535465" lon="10.6315917"><ele>127.0</ele><time>2026-04-12T07:48:07.434Z</time></trkpt><trkpt lat="45.3534358" lon="10.6317206"><ele>127.0</ele><time>2026-04-12T07:48:08.443Z</time></trkpt><trkpt lat="45.353329" lon="10.6318374"><ele>127.0</ele><time>2026-04-12T07:48:09.436Z</time></trkpt><trkpt lat="45.353229" lon="10.6319501"><ele>127.0</ele><time>2026-04-12T07:48:10.442Z</time></trkpt><trkpt lat="45.353129" lon="10.6320537"><ele>126.8</ele><time>2026-04-12T07:48:11.441Z</time></trkpt><trkpt lat="45.3530296" lon="10.6321419"><ele>126.6</ele><time>2026-04-12T07:48:12.437Z</time></trkpt><trkpt lat="45.3529342" lon="10.6322157"><ele>126.39999999999999</ele><time>2026-04-12T07:48:13.435Z</time></trkpt><trkpt lat="45.3528442" lon="10.6322858"><ele>126.19999999999999</ele><time>2026-04-12T07:48:14.436Z</time></trkpt><trkpt lat="45.3527615" lon="10.6323601"><ele>126.0</ele><time>2026-04-12T07:48:15.433Z</time></trkpt><trkpt lat="45.3526859" lon="10.6324451"><ele>126.0</ele><time>2026-04-12T07:48:16.437Z</time></trkpt><trkpt lat="45.3526143" lon="10.6325352"><ele>126.0</ele><time>2026-04-12T07:48:17.438Z</time></trkpt><trkpt lat="45.3525474" lon="10.6326211"><ele>126.0</ele><time>2026-04-12T07:48:18.433Z</time></trkpt><trkpt lat="45.3524814" lon="10.6326847"><ele>126.0</ele><time>2026-04-12T07:48:19.444Z</time></trkpt><trkpt lat="45.3524161" lon="10.632722"><ele>126.0</ele><time>2026-04-12T07:48:20.435Z</time></trkpt><trkpt lat="45.3523576" lon="10.6327624"><ele>126.0</ele><time>2026-04-12T07:48:21.444Z</time></trkpt><trkpt lat="45.3522855" lon="10.6327889"><ele>126.0</ele><time>2026-04-12T07:48:23.443Z</time></trkpt><trkpt lat="45.3522186" lon="10.6326542"><ele>126.0</ele><time>2026-04-12T07:48:25.439Z</time></trkpt><trkpt lat="45.3521655" lon="10.6325984"><ele>126.0</ele><time>2026-04-12T07:48:26.441Z</time></trkpt><trkpt lat="45.3520976" lon="10.6325688"><ele>126.0</ele><time>2026-04-12T07:48:27.438Z</time></trkpt><trkpt lat="45.3520306" lon="10.6325712"><ele>126.0</ele><time>2026-04-12T07:48:28.434Z</time></trkpt><trkpt lat="45.351946" lon="10.6325872"><ele>126.0</ele><time>2026-04-12T07:48:29.431Z</time></trkpt><trkpt lat="45.3518662" lon="10.6326083"><ele>126.5</ele><time>2026-04-12T07:48:30.441Z</time></trkpt><trkpt lat="45.3517807" lon="10.6326241"><ele>127.0</ele><time>2026-04-12T07:48:31.438Z</time></trkpt><trkpt lat="45.3517034" lon="10.6326387"><ele>127.5</ele><time>2026-04-12T07:48:32.435Z</time></trkpt><trkpt lat="45.3516244" lon="10.6326567"><ele>128.0</ele><time>2026-04-12T07:48:33.443Z</time></trkpt><trkpt lat="45.3515523" lon="10.6326685"><ele>128.5</ele><time>2026-04-12T07:48:34.424Z</time></trkpt><trkpt lat="45.3514878" lon="10.6326709"><ele>129.0</ele><time>2026-04-12T07:48:35.436Z</time></trkpt><trkpt lat="45.3513857" lon="10.6326824"><ele>129.16666666666666</ele><time>2026-04-12T07:48:37.439Z</time></trkpt><trkpt lat="45.351297" lon="10.6327204"><ele>129.33333333333334</ele><time>2026-04-12T07:48:39.436Z</time></trkpt><trkpt lat="45.3512412" lon="10.6327673"><ele>129.5</ele><time>2026-04-12T07:48:40.436Z</time></trkpt><trkpt lat="45.3511729" lon="10.6328227"><ele>129.66666666666669</ele><time>2026-04-12T07:48:41.44Z</time></trkpt><trkpt lat="45.3511039" lon="10.6328875"><ele>129.83333333333334</ele><time>2026-04-12T07:48:42.44Z</time></trkpt><trkpt lat="45.351028" lon="10.6329628"><ele>130.0</ele><time>2026-04-12T07:48:43.442Z</time></trkpt><trkpt lat="45.3509522" lon="10.6330373"><ele>129.2</ele><time>2026-04-12T07:48:44.448Z</time></trkpt><trkpt lat="45.3508726" lon="10.6331208"><ele>128.4</ele><time>2026-04-12T07:48:45.446Z</time></trkpt><trkpt lat="45.350794" lon="10.6332045"><ele>127.6</ele><time>2026-04-12T07:48:46.443Z</time></trkpt><trkpt lat="45.3507147" lon="10.6332871"><ele>126.8</ele><time>2026-04-12T07:48:47.437Z</time></trkpt><trkpt lat="45.3506321" lon="10.6333673"><ele>126.0</ele><time>2026-04-12T07:48:48.437Z</time></trkpt><trkpt lat="45.3505508" lon="10.6334426"><ele>125.5</ele><time>2026-04-12T07:48:49.445Z</time></trkpt><trkpt lat="45.3504777" lon="10.633511"><ele>125.0</ele><time>2026-04-12T07:48:50.437Z</time></trkpt><trkpt lat="45.3504101" lon="10.633571"><ele>124.5</ele><time>2026-04-12T07:48:51.437Z</time></trkpt><trkpt lat="45.350353" lon="10.6336236"><ele>124.0</ele><time>2026-04-12T07:48:52.437Z</time></trkpt><trkpt lat="45.3502814" lon="10.633729"><ele>123.5</ele><time>2026-04-12T07:48:54.436Z</time></trkpt><trkpt lat="45.3502713" lon="10.6338704"><ele>123.0</ele><time>2026-04-12T07:48:56.434Z</time></trkpt><trkpt lat="45.3502795" lon="10.6340187"><ele>122.66666666666667</ele><time>2026-04-12T07:48:58.437Z</time></trkpt><trkpt lat="45.35029" lon="10.6341522"><ele>122.33333333333334</ele><time>2026-04-12T07:49:00.442Z</time></trkpt><trkpt lat="45.3502966" lon="10.634313"><ele>122.0</ele><time>2026-04-12T07:49:02.44Z</time></trkpt><trkpt lat="45.3503009" lon="10.6344168"><ele>121.66666666666667</ele><time>2026-04-12T07:49:03.431Z</time></trkpt><trkpt lat="45.3503042" lon="10.634513"><ele>121.33333333333334</ele><time>2026-04-12T07:49:04.436Z</time></trkpt><trkpt lat="45.3503003" lon="10.6346118"><ele>121.0</ele><time>2026-04-12T07:49:05.425Z</time></trkpt><trkpt lat="45.350297" lon="10.6347118"><ele>120.50000000000001</ele><time>2026-04-12T07:49:06.434Z</time></trkpt><trkpt lat="45.3502939" lon="10.6348099"><ele>120.0</ele><time>2026-04-12T07:49:07.435Z</time></trkpt><trkpt lat="45.350289" lon="10.6349081"><ele>119.5</ele><time>2026-04-12T07:49:08.432Z</time></trkpt><trkpt lat="45.3502812" lon="10.6350049"><ele>119.0</ele><time>2026-04-12T07:49:09.442Z</time></trkpt><trkpt lat="45.3502747" lon="10.6350958"><ele>118.50000000000001</ele><time>2026-04-12T07:49:10.435Z</time></trkpt><trkpt lat="45.3502668" lon="10.6352682"><ele>118.0</ele><time>2026-04-12T07:49:12.442Z</time></trkpt><trkpt lat="45.3502623" lon="10.6353994"><ele>117.66666666666667</ele><time>2026-04-12T07:49:14.435Z</time></trkpt><trkpt lat="45.3502845" lon="10.6355118"><ele>117.33333333333334</ele><time>2026-04-12T07:49:17.434Z</time></trkpt><trkpt lat="45.3503749" lon="10.6355442"><ele>117.0</ele><time>2026-04-12T08:12:50.422Z</time></trkpt><trkpt lat="45.3504364" lon="10.635582"><ele>116.66666666666666</ele><time>2026-04-12T08:13:37.431Z</time></trkpt><trkpt lat="45.350354" lon="10.6355224"><ele>116.33333333333333</ele><time>2026-04-12T08:13:41.432Z</time></trkpt><trkpt lat="45.3502736" lon="10.6355304"><ele>116.0</ele><time>2026-04-12T08:13:44.433Z</time></trkpt><trkpt lat="45.3502463" lon="10.6356688"><ele>115.99999999999999</ele><time>2026-04-12T08:13:47.438Z</time></trkpt><trkpt lat="45.3502459" lon="10.6358319"><ele>116.0</ele><time>2026-04-12T08:13:49.435Z</time></trkpt><trkpt lat="45.3502489" lon="10.6359296"><ele>116.0</ele><time>2026-04-12T08:13:50.43Z</time></trkpt><trkpt lat="45.3502536" lon="10.6360301"><ele>116.0</ele><time>2026-04-12T08:13:51.434Z</time></trkpt><trkpt lat="45.3502534" lon="10.6361361"><ele>115.99999999999999</ele><time>2026-04-12T08:13:52.439Z</time></trkpt><trkpt lat="45.3502521" lon="10.6362358"><ele>116.0</ele><time>2026-04-12T08:13:53.436Z</time></trkpt><trkpt lat="45.3502496" lon="10.6363371"><ele>115.49999999999999</ele><time>2026-04-12T08:13:54.443Z</time></trkpt><trkpt lat="45.350245" lon="10.636436"><ele>115.0</ele><time>2026-04-12T08:13:55.437Z</time></trkpt><trkpt lat="45.3502346" lon="10.6365402"><ele>114.5</ele><time>2026-04-12T08:13:56.436Z</time></trkpt><trkpt lat="45.3502245" lon="10.6366581"><ele>114.0</ele><time>2026-04-12T08:13:57.432Z</time></trkpt><trkpt lat="45.3502143" lon="10.6367861"><ele>113.49999999999999</ele><time>2026-04-12T08:13:58.425Z</time></trkpt><trkpt lat="45.3502013" lon="10.6369136"><ele>113.0</ele><time>2026-04-12T08:13:59.425Z</time></trkpt><trkpt lat="45.350188" lon="10.6370481"><ele>113.0</ele><time>2026-04-12T08:14:00.442Z</time></trkpt><trkpt lat="45.3501768" lon="10.6371847"><ele>113.00000000000001</ele><time>2026-04-12T08:14:01.434Z</time></trkpt><trkpt lat="45.3501699" lon="10.6373141"><ele>113.00000000000001</ele><time>2026-04-12T08:14:02.437Z</time></trkpt><trkpt lat="45.3501658" lon="10.6374414"><ele>113.0</ele><time>2026-04-12T08:14:03.438Z</time></trkpt><trkpt lat="45.3501627" lon="10.6375789"><ele>113.0</ele><time>2026-04-12T08:14:04.438Z</time></trkpt><trkpt lat="45.350158" lon="10.6377237"><ele>112.60000000000001</ele><time>2026-04-12T08:14:05.433Z</time></trkpt><trkpt lat="45.3501574" lon="10.6378693"><ele>112.20000000000002</ele><time>2026-04-12T08:14:06.433Z</time></trkpt><trkpt lat="45.3501565" lon="10.6380064"><ele>111.8</ele><time>2026-04-12T08:14:07.44Z</time></trkpt><trkpt lat="45.350155" lon="10.6381484"><ele>111.4</ele><time>2026-04-12T08:14:08.441Z</time></trkpt><trkpt lat="45.3501575" lon="10.6382967"><ele>111.0</ele><time>2026-04-12T08:14:09.429Z</time></trkpt><trkpt lat="45.3501608" lon="10.6384465"><ele>111.0</ele><time>2026-04-12T08:14:10.433Z</time></trkpt><trkpt lat="45.3501659" lon="10.6385946"><ele>111.0</ele><time>2026-04-12T08:14:11.433Z</time></trkpt><trkpt lat="45.3501754" lon="10.6387468"><ele>111.0</ele><time>2026-04-12T08:14:12.43Z</time></trkpt><trkpt lat="45.3501836" lon="10.6388826"><ele>111.0</ele><time>2026-04-12T08:14:13.434Z</time></trkpt><trkpt lat="45.3501924" lon="10.6390034"><ele>111.0</ele><time>2026-04-12T08:14:14.44Z</time></trkpt><trkpt lat="45.3502015" lon="10.6391142"><ele>110.66666666666667</ele><time>2026-04-12T08:14:15.444Z</time></trkpt><trkpt lat="45.3502059" lon="10.6392203"><ele>110.33333333333334</ele><time>2026-04-12T08:14:16.444Z</time></trkpt><trkpt lat="45.3502005" lon="10.6393323"><ele>110.0</ele><time>2026-04-12T08:14:17.432Z</time></trkpt><trkpt lat="45.3501794" lon="10.6394476"><ele>109.66666666666667</ele><time>2026-04-12T08:14:18.434Z</time></trkpt><trkpt lat="45.3501373" lon="10.6395588"><ele>109.33333333333334</ele><time>2026-04-12T08:14:19.437Z</time></trkpt><trkpt lat="45.3500824" lon="10.6396538"><ele>109.0</ele><time>2026-04-12T08:14:20.436Z</time></trkpt><trkpt lat="45.3500196" lon="10.6397329"><ele>109.00000000000001</ele><time>2026-04-12T08:14:21.433Z</time></trkpt><trkpt lat="45.3499581" lon="10.6397988"><ele>109.0</ele><time>2026-04-12T08:14:22.436Z</time></trkpt><trkpt lat="45.3499059" lon="10.639864"><ele>109.0</ele><time>2026-04-12T08:14:23.442Z</time></trkpt><trkpt lat="45.3498595" lon="10.6399256"><ele>109.0</ele><time>2026-04-12T08:14:24.433Z</time></trkpt><trkpt lat="45.3497885" lon="10.6400739"><ele>109.00000000000001</ele><time>2026-04-12T08:14:26.433Z</time></trkpt><trkpt lat="45.3497634" lon="10.6401792"><ele>109.0</ele><time>2026-04-12T08:14:27.441Z</time></trkpt><trkpt lat="45.3497482" lon="10.6402902"><ele>108.6</ele><time>2026-04-12T08:14:28.428Z</time></trkpt><trkpt lat="45.3497396" lon="10.6404148"><ele>108.2</ele><time>2026-04-12T08:14:29.44Z</time></trkpt><trkpt lat="45.3497357" lon="10.6405536"><ele>107.79999999999998</ele><time>2026-04-12T08:14:30.438Z</time></trkpt><trkpt lat="45.34974" lon="10.6407094"><ele>107.39999999999999</ele><time>2026-04-12T08:14:31.445Z</time></trkpt><trkpt lat="45.3497468" lon="10.6408831"><ele>107.0</ele><time>2026-04-12T08:14:32.439Z</time></trkpt><trkpt lat="45.3497538" lon="10.641064"><ele>106.5</ele><time>2026-04-12T08:14:33.431Z</time></trkpt><trkpt lat="45.3497535" lon="10.6412535"><ele>106.0</ele><time>2026-04-12T08:14:34.434Z</time></trkpt><trkpt lat="45.3497543" lon="10.6414457"><ele>105.5</ele><time>2026-04-12T08:14:35.432Z</time></trkpt><trkpt lat="45.3497495" lon="10.6416476"><ele>105.0</ele><time>2026-04-12T08:14:36.425Z</time></trkpt><trkpt lat="45.3497423" lon="10.6418495"><ele>105.0</ele><time>2026-04-12T08:14:37.436Z</time></trkpt><trkpt lat="45.349731" lon="10.6420279"><ele>105.0</ele><time>2026-04-12T08:14:38.438Z</time></trkpt><trkpt lat="45.3497182" lon="10.6421918"><ele>105.0</ele><time>2026-04-12T08:14:39.433Z</time></trkpt><trkpt lat="45.349703" lon="10.6423376"><ele>105.0</ele><time>2026-04-12T08:14:40.43Z</time></trkpt><trkpt lat="45.3496928" lon="10.6424588"><ele>105.0</ele><time>2026-04-12T08:14:41.438Z</time></trkpt><trkpt lat="45.3496842" lon="10.6425555"><ele>105.0</ele><time>2026-04-12T08:14:42.434Z</time></trkpt><trkpt lat="45.3496706" lon="10.6426842"><ele>105.0</ele><time>2026-04-12T08:14:44.442Z</time></trkpt><trkpt lat="45.3497173" lon="10.6427985"><ele>105.0</ele><time>2026-04-12T08:14:47.432Z</time></trkpt><trkpt lat="45.349796" lon="10.64284"><ele>105.0</ele><time>2026-04-12T08:14:49.435Z</time></trkpt><trkpt lat="45.349883" lon="10.6428758"><ele>105.0</ele><time>2026-04-12T08:14:51.436Z</time></trkpt><trkpt lat="45.3500102" lon="10.642944"><ele>105.4</ele><time>2026-04-12T08:14:53.425Z</time></trkpt><trkpt lat="45.3500956" lon="10.6429857"><ele>105.8</ele><time>2026-04-12T08:14:54.437Z</time></trkpt><trkpt lat="45.3501956" lon="10.6430353"><ele>106.19999999999999</ele><time>2026-04-12T08:14:55.442Z</time></trkpt><trkpt lat="45.3503117" lon="10.6430855"><ele>106.6</ele><time>2026-04-12T08:14:56.44Z</time></trkpt><trkpt lat="45.350426" lon="10.6431344"><ele>107.0</ele><time>2026-04-12T08:14:57.438Z</time></trkpt><trkpt lat="45.3505346" lon="10.6431822"><ele>107.19999999999999</ele><time>2026-04-12T08:14:58.435Z</time></trkpt><trkpt lat="45.350637" lon="10.6432358"><ele>107.39999999999999</ele><time>2026-04-12T08:14:59.439Z</time></trkpt><trkpt lat="45.3507396" lon="10.6432982"><ele>107.60000000000001</ele><time>2026-04-12T08:15:00.439Z</time></trkpt><trkpt lat="45.3508398" lon="10.6433599"><ele>107.80000000000001</ele><time>2026-04-12T08:15:01.443Z</time></trkpt><trkpt lat="45.3509436" lon="10.643422"><ele>108.0</ele><time>2026-04-12T08:15:02.44Z</time></trkpt><trkpt lat="45.3510603" lon="10.6434919"><ele>108.0</ele><time>2026-04-12T08:15:03.436Z</time></trkpt><trkpt lat="45.3511887" lon="10.6435679"><ele>108.0</ele><time>2026-04-12T08:15:04.429Z</time></trkpt><trkpt lat="45.3513212" lon="10.6436489"><ele>108.0</ele><time>2026-04-12T08:15:05.43Z</time></trkpt><trkpt lat="45.351444" lon="10.6437341"><ele>108.0</ele><time>2026-04-12T08:15:06.433Z</time></trkpt><trkpt lat="45.35156" lon="10.6438163"><ele>108.75</ele><time>2026-04-12T08:15:07.43Z</time></trkpt><trkpt lat="45.3516614" lon="10.6439119"><ele>109.5</ele><time>2026-04-12T08:15:08.43Z</time></trkpt><trkpt lat="45.3517695" lon="10.6439995"><ele>110.25</ele><time>2026-04-12T08:15:09.437Z</time></trkpt><trkpt lat="45.3518721" lon="10.6440727"><ele>111.0</ele><time>2026-04-12T08:15:10.43Z</time></trkpt><trkpt lat="45.3519679" lon="10.6441362"><ele>111.0</ele><time>2026-04-12T08:15:11.433Z</time></trkpt><trkpt lat="45.3520494" lon="10.644189"><ele>111.0</ele><time>2026-04-12T08:15:12.436Z</time></trkpt><trkpt lat="45.3521155" lon="10.6442193"><ele>111.0</ele><time>2026-04-12T08:15:13.435Z</time></trkpt><trkpt lat="45.3521966" lon="10.6442526"><ele>111.0</ele><time>2026-04-12T08:15:15.428Z</time></trkpt><trkpt lat="45.3522011" lon="10.6443779"><ele>111.0</ele><time>2026-04-12T08:15:19.433Z</time></trkpt><trkpt lat="45.3521546" lon="10.6444425"><ele>111.0</ele><time>2026-04-12T08:15:20.436Z</time></trkpt><trkpt lat="45.3520949" lon="10.644531"><ele>110.8</ele><time>2026-04-12T08:15:21.43Z</time></trkpt><trkpt lat="45.3520259" lon="10.644636"><ele>110.6</ele><time>2026-04-12T08:15:22.437Z</time></trkpt><trkpt lat="45.351957" lon="10.6447471"><ele>110.4</ele><time>2026-04-12T08:15:23.439Z</time></trkpt><trkpt lat="45.3518942" lon="10.644859"><ele>110.2</ele><time>2026-04-12T08:15:24.435Z</time></trkpt><trkpt lat="45.3518305" lon="10.6449728"><ele>110.0</ele><time>2026-04-12T08:15:25.433Z</time></trkpt><trkpt lat="45.3517675" lon="10.6450955"><ele>110.0</ele><time>2026-04-12T08:15:26.429Z</time></trkpt><trkpt lat="45.3517142" lon="10.6452281"><ele>110.0</ele><time>2026-04-12T08:15:27.43Z</time></trkpt><trkpt lat="45.3516738" lon="10.6453603"><ele>110.0</ele><time>2026-04-12T08:15:28.437Z</time></trkpt><trkpt lat="45.3516467" lon="10.6454847"><ele>110.0</ele><time>2026-04-12T08:15:29.43Z</time></trkpt><trkpt lat="45.3516286" lon="10.6455971"><ele>110.0</ele><time>2026-04-12T08:15:30.435Z</time></trkpt><trkpt lat="45.3516145" lon="10.6456953"><ele>109.83333333333333</ele><time>2026-04-12T08:15:31.433Z</time></trkpt><trkpt lat="45.3516009" lon="10.6458458"><ele>109.66666666666666</ele><time>2026-04-12T08:15:33.432Z</time></trkpt><trkpt lat="45.3516399" lon="10.6459293"><ele>109.5</ele><time>2026-04-12T08:15:35.434Z</time></trkpt><trkpt lat="45.3517326" lon="10.6459211"><ele>109.33333333333334</ele><time>2026-04-12T08:15:37.435Z</time></trkpt><trkpt lat="45.351824" lon="10.6458863"><ele>109.16666666666667</ele><time>2026-04-12T08:15:39.43Z</time></trkpt><trkpt lat="45.3518819" lon="10.6459443"><ele>109.0</ele><time>2026-04-12T08:15:41.432Z</time></trkpt><trkpt lat="45.3518788" lon="10.6461029"><ele>109.0</ele><time>2026-04-12T08:15:43.421Z</time></trkpt><trkpt lat="45.3518432" lon="10.6462275"><ele>109.0</ele><time>2026-04-12T08:15:44.431Z</time></trkpt><trkpt lat="45.3518049" lon="10.6463789"><ele>109.0</ele><time>2026-04-12T08:15:45.442Z</time></trkpt><trkpt lat="45.3517711" lon="10.6465292"><ele>109.0</ele><time>2026-04-12T08:15:46.429Z</time></trkpt><trkpt lat="45.351738" lon="10.6466767"><ele>109.0</ele><time>2026-04-12T08:15:47.433Z</time></trkpt><trkpt lat="45.3517186" lon="10.6468346"><ele>108.5</ele><time>2026-04-12T08:15:48.432Z</time></trkpt><trkpt lat="45.3517006" lon="10.6469906"><ele>108.0</ele><time>2026-04-12T08:15:49.432Z</time></trkpt><trkpt lat="45.3516799" lon="10.647163"><ele>107.5</ele><time>2026-04-12T08:15:50.432Z</time></trkpt><trkpt lat="45.3516578" lon="10.647346"><ele>107.0</ele><time>2026-04-12T08:15:51.44Z</time></trkpt><trkpt lat="45.3516249" lon="10.6475397"><ele>107.0</ele><time>2026-04-12T08:15:52.43Z</time></trkpt><trkpt lat="45.3515881" lon="10.6477247"><ele>107.0</ele><time>2026-04-12T08:15:53.443Z</time></trkpt><trkpt lat="45.3515446" lon="10.6479091"><ele>107.0</ele><time>2026-04-12T08:15:54.43Z</time></trkpt><trkpt lat="45.3515047" lon="10.648091"><ele>107.0</ele><time>2026-04-12T08:15:55.442Z</time></trkpt><trkpt lat="45.3514658" lon="10.648268"><ele>106.75</ele><time>2026-04-12T08:15:56.436Z</time></trkpt><trkpt lat="45.3514235" lon="10.6484472"><ele>106.5</ele><time>2026-04-12T08:15:57.435Z</time></trkpt><trkpt lat="45.3513767" lon="10.6486225"><ele>106.25</ele><time>2026-04-12T08:15:58.44Z</time></trkpt><trkpt lat="45.3513354" lon="10.6487861"><ele>106.0</ele><time>2026-04-12T08:15:59.436Z</time></trkpt><trkpt lat="45.3512987" lon="10.6489427"><ele>105.8</ele><time>2026-04-12T08:16:00.435Z</time></trkpt><trkpt lat="45.3512622" lon="10.6490861"><ele>105.6</ele><time>2026-04-12T08:16:01.431Z</time></trkpt><trkpt lat="45.3512181" lon="10.6492112"><ele>105.4</ele><time>2026-04-12T08:16:02.43Z</time></trkpt><trkpt lat="45.3511625" lon="10.6493179"><ele>105.2</ele><time>2026-04-12T08:16:03.44Z</time></trkpt><trkpt lat="45.3511039" lon="10.6494134"><ele>105.0</ele><time>2026-04-12T08:16:04.433Z</time></trkpt><trkpt lat="45.3510546" lon="10.6495131"><ele>104.66666666666667</ele><time>2026-04-12T08:16:05.443Z</time></trkpt><trkpt lat="45.3510138" lon="10.6496187"><ele>104.33333333333334</ele><time>2026-04-12T08:16:06.437Z</time></trkpt><trkpt lat="45.3509776" lon="10.6497224"><ele>104.0</ele><time>2026-04-12T08:16:07.439Z</time></trkpt><trkpt lat="45.3509408" lon="10.6498275"><ele>103.66666666666667</ele><time>2026-04-12T08:16:08.441Z</time></trkpt><trkpt lat="45.3509057" lon="10.6499362"><ele>103.33333333333334</ele><time>2026-04-12T08:16:09.436Z</time></trkpt><trkpt lat="45.3508712" lon="10.6500576"><ele>103.0</ele><time>2026-04-12T08:16:10.443Z</time></trkpt><trkpt lat="45.3508397" lon="10.650185"><ele>102.83333333333334</ele><time>2026-04-12T08:16:11.429Z</time></trkpt><trkpt lat="45.3508156" lon="10.6503057"><ele>102.66666666666667</ele><time>2026-04-12T08:16:12.431Z</time></trkpt><trkpt lat="45.3508057" lon="10.6504228"><ele>102.5</ele><time>2026-04-12T08:16:13.443Z</time></trkpt><trkpt lat="45.3508116" lon="10.65054"><ele>102.33333333333334</ele><time>2026-04-12T08:16:14.439Z</time></trkpt><trkpt lat="45.350828" lon="10.6506549"><ele>102.16666666666667</ele><time>2026-04-12T08:16:15.438Z</time></trkpt><trkpt lat="45.3508524" lon="10.6507798"><ele>102.0</ele><time>2026-04-12T08:16:16.448Z</time></trkpt><trkpt lat="45.3508731" lon="10.6509232"><ele>102.0</ele><time>2026-04-12T08:16:17.436Z</time></trkpt><trkpt lat="45.3508772" lon="10.6510899"><ele>102.0</ele><time>2026-04-12T08:16:18.435Z</time></trkpt><trkpt lat="45.3508699" lon="10.6512737"><ele>102.0</ele><time>2026-04-12T08:16:19.444Z</time></trkpt><trkpt lat="45.3508622" lon="10.6514617"><ele>102.0</ele><time>2026-04-12T08:16:20.44Z</time></trkpt><trkpt lat="45.3508527" lon="10.6516437"><ele>102.0</ele><time>2026-04-12T08:16:21.434Z</time></trkpt><trkpt lat="45.3508429" lon="10.6518139"><ele>102.0</ele><time>2026-04-12T08:16:22.436Z</time></trkpt><trkpt lat="45.3508326" lon="10.6519843"><ele>102.0</ele><time>2026-04-12T08:16:23.433Z</time></trkpt><trkpt lat="45.3508263" lon="10.6521499"><ele>102.0</ele><time>2026-04-12T08:16:24.44Z</time></trkpt><trkpt lat="45.3508243" lon="10.6523233"><ele>101.8</ele><time>2026-04-12T08:16:25.435Z</time></trkpt><trkpt lat="45.3508233" lon="10.6524949"><ele>101.6</ele><time>2026-04-12T08:16:26.436Z</time></trkpt><trkpt lat="45.3508243" lon="10.6526476"><ele>101.39999999999999</ele><time>2026-04-12T08:16:27.437Z</time></trkpt><trkpt lat="45.3508267" lon="10.652796"><ele>101.19999999999999</ele><time>2026-04-12T08:16:28.445Z</time></trkpt><trkpt lat="45.3508389" lon="10.6529323"><ele>101.0</ele><time>2026-04-12T08:16:29.435Z</time></trkpt><trkpt lat="45.3508597" lon="10.6530657"><ele>100.8</ele><time>2026-04-12T08:16:30.439Z</time></trkpt><trkpt lat="45.3508935" lon="10.6531908"><ele>100.6</ele><time>2026-04-12T08:16:31.445Z</time></trkpt><trkpt lat="45.3509406" lon="10.6533106"><ele>100.4</ele><time>2026-04-12T08:16:32.427Z</time></trkpt><trkpt lat="45.3509984" lon="10.6534345"><ele>100.2</ele><time>2026-04-12T08:16:33.436Z</time></trkpt><trkpt lat="45.3510626" lon="10.6535615"><ele>100.0</ele><time>2026-04-12T08:16:34.445Z</time></trkpt><trkpt lat="45.3511262" lon="10.6536944"><ele>99.50000000000001</ele><time>2026-04-12T08:16:35.435Z</time></trkpt><trkpt lat="45.3511794" lon="10.6538149"><ele>99.0</ele><time>2026-04-12T08:16:36.433Z</time></trkpt><trkpt lat="45.351222" lon="10.653933"><ele>98.5</ele><time>2026-04-12T08:16:37.432Z</time></trkpt><trkpt lat="45.3512593" lon="10.6540424"><ele>98.0</ele><time>2026-04-12T08:16:38.438Z</time></trkpt><trkpt lat="45.3512955" lon="10.6541428"><ele>97.50000000000001</ele><time>2026-04-12T08:16:39.441Z</time></trkpt><trkpt lat="45.351334" lon="10.654235"><ele>97.0</ele><time>2026-04-12T08:16:40.439Z</time></trkpt><trkpt lat="45.3513656" lon="10.6543243"><ele>97.16666666666667</ele><time>2026-04-12T08:16:41.428Z</time></trkpt><trkpt lat="45.3513955" lon="10.6544112"><ele>97.33333333333334</ele><time>2026-04-12T08:16:42.438Z</time></trkpt><trkpt lat="45.3514023" lon="10.6545042"><ele>97.5</ele><time>2026-04-12T08:16:43.425Z</time></trkpt><trkpt lat="45.3513921" lon="10.6546159"><ele>97.66666666666666</ele><time>2026-04-12T08:16:44.445Z</time></trkpt><trkpt lat="45.3513724" lon="10.6547271"><ele>97.83333333333333</ele><time>2026-04-12T08:16:45.433Z</time></trkpt><trkpt lat="45.3513502" lon="10.6548413"><ele>98.0</ele><time>2026-04-12T08:16:46.439Z</time></trkpt><trkpt lat="45.3513322" lon="10.6549636"><ele>98.0</ele><time>2026-04-12T08:16:47.436Z</time></trkpt><trkpt lat="45.3513067" lon="10.6551048"><ele>98.0</ele><time>2026-04-12T08:16:48.425Z</time></trkpt><trkpt lat="45.3512678" lon="10.6552543"><ele>98.0</ele><time>2026-04-12T08:16:49.431Z</time></trkpt><trkpt lat="45.3512251" lon="10.6554066"><ele>98.0</ele><time>2026-04-12T08:16:50.438Z</time></trkpt><trkpt lat="45.3511904" lon="10.6555744"><ele>98.25</ele><time>2026-04-12T08:16:51.433Z</time></trkpt><trkpt lat="45.3511675" lon="10.6557458"><ele>98.5</ele><time>2026-04-12T08:16:52.432Z</time></trkpt><trkpt lat="45.351153" lon="10.6559247"><ele>98.75</ele><time>2026-04-12T08:16:53.439Z</time></trkpt><trkpt lat="45.3511426" lon="10.6561146"><ele>99.0</ele><time>2026-04-12T08:16:54.441Z</time></trkpt><trkpt lat="45.3511358" lon="10.6563049"><ele>99.0</ele><time>2026-04-12T08:16:55.434Z</time></trkpt><trkpt lat="45.3511298" lon="10.656492"><ele>99.0</ele><time>2026-04-12T08:16:56.43Z</time></trkpt><trkpt lat="45.3511172" lon="10.6566762"><ele>99.0</ele><time>2026-04-12T08:16:57.439Z</time></trkpt><trkpt lat="45.3510978" lon="10.6568544"><ele>99.0</ele><time>2026-04-12T08:16:58.436Z</time></trkpt><trkpt lat="45.3510703" lon="10.6570237"><ele>99.4</ele><time>2026-04-12T08:16:59.433Z</time></trkpt><trkpt lat="45.3510329" lon="10.657178"><ele>99.80000000000001</ele><time>2026-04-12T08:17:00.43Z</time></trkpt><trkpt lat="45.3509895" lon="10.6573164"><ele>100.19999999999999</ele><time>2026-04-12T08:17:01.437Z</time></trkpt><trkpt lat="45.3509453" lon="10.6574456"><ele>100.6</ele><time>2026-04-12T08:17:02.441Z</time></trkpt><trkpt lat="45.3508977" lon="10.6575707"><ele>101.0</ele><time>2026-04-12T08:17:03.436Z</time></trkpt><trkpt lat="45.3508398" lon="10.6577057"><ele>101.19999999999999</ele><time>2026-04-12T08:17:04.442Z</time></trkpt><trkpt lat="45.3507705" lon="10.6578434"><ele>101.39999999999999</ele><time>2026-04-12T08:17:05.432Z</time></trkpt><trkpt lat="45.3507047" lon="10.6579749"><ele>101.6</ele><time>2026-04-12T08:17:06.44Z</time></trkpt><trkpt lat="45.3506454" lon="10.6580945"><ele>101.8</ele><time>2026-04-12T08:17:07.441Z</time></trkpt><trkpt lat="45.3505912" lon="10.6582177"><ele>102.0</ele><time>2026-04-12T08:17:08.433Z</time></trkpt><trkpt lat="45.3505339" lon="10.6583409"><ele>101.6</ele><time>2026-04-12T08:17:09.438Z</time></trkpt><trkpt lat="45.3504674" lon="10.6584586"><ele>101.19999999999999</ele><time>2026-04-12T08:17:10.442Z</time></trkpt><trkpt lat="45.3503966" lon="10.6585707"><ele>100.8</ele><time>2026-04-12T08:17:11.439Z</time></trkpt><trkpt lat="45.350326" lon="10.6586788"><ele>100.4</ele><time>2026-04-12T08:17:12.44Z</time></trkpt><trkpt lat="45.3502548" lon="10.658777"><ele>100.0</ele><time>2026-04-12T08:17:13.43Z</time></trkpt><trkpt lat="45.3501796" lon="10.6588698"><ele>100.0</ele><time>2026-04-12T08:17:14.438Z</time></trkpt><trkpt lat="45.3500965" lon="10.6589595"><ele>100.0</ele><time>2026-04-12T08:17:15.441Z</time></trkpt><trkpt lat="45.3500011" lon="10.6590428"><ele>100.0</ele><time>2026-04-12T08:17:16.427Z</time></trkpt><trkpt lat="45.3499011" lon="10.6591129"><ele>100.0</ele><time>2026-04-12T08:17:17.434Z</time></trkpt><trkpt lat="45.3498065" lon="10.6591763"><ele>100.0</ele><time>2026-04-12T08:17:18.445Z</time></trkpt><trkpt lat="45.349717" lon="10.6592288"><ele>100.00000000000001</ele><time>2026-04-12T08:17:19.43Z</time></trkpt><trkpt lat="45.3496333" lon="10.6592778"><ele>100.0</ele><time>2026-04-12T08:17:20.437Z</time></trkpt><trkpt lat="45.3495543" lon="10.6593255"><ele>100.0</ele><time>2026-04-12T08:17:21.441Z</time></trkpt><trkpt lat="45.3494851" lon="10.6593728"><ele>100.0</ele><time>2026-04-12T08:17:22.438Z</time></trkpt><trkpt lat="45.3494167" lon="10.6594109"><ele>100.00000000000001</ele><time>2026-04-12T08:17:23.437Z</time></trkpt><trkpt lat="45.3493467" lon="10.6594423"><ele>100.0</ele><time>2026-04-12T08:17:24.433Z</time></trkpt><trkpt lat="45.3492806" lon="10.6594738"><ele>100.00000000000001</ele><time>2026-04-12T08:17:25.435Z</time></trkpt><trkpt lat="45.3492163" lon="10.6595023"><ele>100.0</ele><time>2026-04-12T08:17:26.439Z</time></trkpt><trkpt lat="45.3491527" lon="10.6595298"><ele>100.0</ele><time>2026-04-12T08:17:27.435Z</time></trkpt><trkpt lat="45.3490871" lon="10.6595557"><ele>100.0</ele><time>2026-04-12T08:17:28.423Z</time></trkpt><trkpt lat="45.3490193" lon="10.659584"><ele>100.0</ele><time>2026-04-12T08:17:29.445Z</time></trkpt><trkpt lat="45.348935" lon="10.6596444"><ele>100.00000000000001</ele><time>2026-04-12T08:17:30.441Z</time></trkpt><trkpt lat="45.3488628" lon="10.6597003"><ele>100.0</ele><time>2026-04-12T08:17:31.426Z</time></trkpt><trkpt lat="45.3488031" lon="10.6597529"><ele>99.4</ele><time>2026-04-12T08:17:32.432Z</time></trkpt><trkpt lat="45.3487486" lon="10.6598212"><ele>98.8</ele><time>2026-04-12T08:17:33.424Z</time></trkpt><trkpt lat="45.3486942" lon="10.6598902"><ele>98.19999999999999</ele><time>2026-04-12T08:17:34.441Z</time></trkpt><trkpt lat="45.348641" lon="10.6600065"><ele>97.6</ele><time>2026-04-12T08:17:35.434Z</time></trkpt><trkpt lat="45.3485902" lon="10.6601548"><ele>97.0</ele><time>2026-04-12T08:17:36.434Z</time></trkpt><trkpt lat="45.3485523" lon="10.6603114"><ele>97.0</ele><time>2026-04-12T08:17:37.429Z</time></trkpt><trkpt lat="45.3485085" lon="10.6604727"><ele>97.0</ele><time>2026-04-12T08:17:38.434Z</time></trkpt><trkpt lat="45.3484447" lon="10.6606229"><ele>97.0</ele><time>2026-04-12T08:17:39.43Z</time></trkpt><trkpt lat="45.3483753" lon="10.6607649"><ele>97.0</ele><time>2026-04-12T08:17:40.436Z</time></trkpt><trkpt lat="45.3483015" lon="10.6609068"><ele>97.0</ele><time>2026-04-12T08:17:41.427Z</time></trkpt><trkpt lat="45.3482312" lon="10.6610431"><ele>97.0</ele><time>2026-04-12T08:17:42.438Z</time></trkpt><trkpt lat="45.3481792" lon="10.6611603"><ele>97.0</ele><time>2026-04-12T08:17:43.432Z</time></trkpt><trkpt lat="45.3481416" lon="10.6612983"><ele>97.0</ele><time>2026-04-12T08:17:44.432Z</time></trkpt><trkpt lat="45.3481096" lon="10.6614462"><ele>97.0</ele><time>2026-04-12T08:17:45.428Z</time></trkpt><trkpt lat="45.3480639" lon="10.6616297"><ele>95.66666666666667</ele><time>2026-04-12T08:17:46.432Z</time></trkpt><trkpt lat="45.3479992" lon="10.6618205"><ele>94.33333333333334</ele><time>2026-04-12T08:17:47.427Z</time></trkpt><trkpt lat="45.3479329" lon="10.6620204"><ele>93.0</ele><time>2026-04-12T08:17:48.437Z</time></trkpt><trkpt lat="45.3478591" lon="10.6622043"><ele>93.0</ele><time>2026-04-12T08:17:49.431Z</time></trkpt><trkpt lat="45.3477891" lon="10.6623819"><ele>93.0</ele><time>2026-04-12T08:17:50.434Z</time></trkpt><trkpt lat="45.347721" lon="10.6625441"><ele>93.0</ele><time>2026-04-12T08:17:51.44Z</time></trkpt><trkpt lat="45.3476509" lon="10.6626934"><ele>93.0</ele><time>2026-04-12T08:17:52.428Z</time></trkpt><trkpt lat="45.3475807" lon="10.6628341"><ele>93.0</ele><time>2026-04-12T08:17:53.426Z</time></trkpt><trkpt lat="45.3474943" lon="10.6629764"><ele>93.0</ele><time>2026-04-12T08:17:54.434Z</time></trkpt><trkpt lat="45.3474095" lon="10.6631156"><ele>93.0</ele><time>2026-04-12T08:17:55.422Z</time></trkpt><trkpt lat="45.3473352" lon="10.6632357"><ele>93.0</ele><time>2026-04-12T08:17:56.426Z</time></trkpt><trkpt lat="45.3472717" lon="10.6633363"><ele>93.0</ele><time>2026-04-12T08:17:57.434Z</time></trkpt><trkpt lat="45.3472025" lon="10.6634274"><ele>93.0</ele><time>2026-04-12T08:17:58.431Z</time></trkpt><trkpt lat="45.3471227" lon="10.6634926"><ele>93.0</ele><time>2026-04-12T08:17:59.426Z</time></trkpt><trkpt lat="45.3470592" lon="10.6635371"><ele>93.0</ele><time>2026-04-12T08:18:00.431Z</time></trkpt><trkpt lat="45.3469947" lon="10.6635895"><ele>93.0</ele><time>2026-04-12T08:18:02.437Z</time></trkpt><trkpt lat="45.3469251" lon="10.6636327"><ele>93.0</ele><time>2026-04-12T08:18:06.437Z</time></trkpt><trkpt lat="45.3468601" lon="10.6636827"><ele>93.5</ele><time>2026-04-12T08:18:10.431Z</time></trkpt><trkpt lat="45.346797" lon="10.6637706"><ele>94.0</ele><time>2026-04-12T08:18:13.437Z</time></trkpt><trkpt lat="45.3467372" lon="10.6638269"><ele>94.5</ele><time>2026-04-12T08:18:17.437Z</time></trkpt><trkpt lat="45.3466736" lon="10.6638733"><ele>95.0</ele><time>2026-04-12T08:18:19.435Z</time></trkpt><trkpt lat="45.3466239" lon="10.6639383"><ele>95.5</ele><time>2026-04-12T08:18:21.433Z</time></trkpt><trkpt lat="45.3465942" lon="10.6640235"><ele>96.0</ele><time>2026-04-12T08:18:23.437Z</time></trkpt><trkpt lat="45.3465448" lon="10.6641778"><ele>96.0</ele><time>2026-04-12T08:18:25.44Z</time></trkpt><trkpt lat="45.346514" lon="10.6642733"><ele>96.0</ele><time>2026-04-12T08:18:26.431Z</time></trkpt><trkpt lat="45.3464784" lon="10.6643794"><ele>96.0</ele><time>2026-04-12T08:18:27.433Z</time></trkpt><trkpt lat="45.3464303" lon="10.664485"><ele>96.0</ele><time>2026-04-12T08:18:28.434Z</time></trkpt><trkpt lat="45.346373" lon="10.6645685"><ele>96.0</ele><time>2026-04-12T08:18:29.443Z</time></trkpt><trkpt lat="45.3462976" lon="10.6646525"><ele>96.0</ele><time>2026-04-12T08:18:30.44Z</time></trkpt><trkpt lat="45.3462012" lon="10.6647325"><ele>95.6</ele><time>2026-04-12T08:18:31.432Z</time></trkpt><trkpt lat="45.3460986" lon="10.6648072"><ele>95.19999999999999</ele><time>2026-04-12T08:18:32.438Z</time></trkpt><trkpt lat="45.3460041" lon="10.6648782"><ele>94.80000000000001</ele><time>2026-04-12T08:18:33.435Z</time></trkpt><trkpt lat="45.3459084" lon="10.6649401"><ele>94.4</ele><time>2026-04-12T08:18:34.43Z</time></trkpt><trkpt lat="45.3458082" lon="10.6649881"><ele>94.0</ele><time>2026-04-12T08:18:35.435Z</time></trkpt><trkpt lat="45.3457034" lon="10.6650326"><ele>94.0</ele><time>2026-04-12T08:18:36.431Z</time></trkpt><trkpt lat="45.3456056" lon="10.6650692"><ele>94.0</ele><time>2026-04-12T08:18:37.427Z</time></trkpt><trkpt lat="45.3455155" lon="10.6650986"><ele>94.0</ele><time>2026-04-12T08:18:38.44Z</time></trkpt><trkpt lat="45.3454307" lon="10.6651308"><ele>94.0</ele><time>2026-04-12T08:18:39.434Z</time></trkpt><trkpt lat="45.3453524" lon="10.6651657"><ele>94.0</ele><time>2026-04-12T08:18:40.432Z</time></trkpt><trkpt lat="45.3452758" lon="10.6651999"><ele>94.0</ele><time>2026-04-12T08:18:41.441Z</time></trkpt><trkpt lat="45.3452017" lon="10.6652278"><ele>93.83333333333333</ele><time>2026-04-12T08:18:42.435Z</time></trkpt><trkpt lat="45.3451378" lon="10.6652399"><ele>93.66666666666666</ele><time>2026-04-12T08:18:43.44Z</time></trkpt><trkpt lat="45.3450716" lon="10.6652542"><ele>93.5</ele><time>2026-04-12T08:18:44.443Z</time></trkpt><trkpt lat="45.3449872" lon="10.6652582"><ele>93.33333333333333</ele><time>2026-04-12T08:18:45.436Z</time></trkpt><trkpt lat="45.3449005" lon="10.6652628"><ele>93.16666666666667</ele><time>2026-04-12T08:18:46.436Z</time></trkpt><trkpt lat="45.3447956" lon="10.6652653"><ele>93.0</ele><time>2026-04-12T08:18:47.429Z</time></trkpt><trkpt lat="45.3446945" lon="10.6652724"><ele>93.0</ele><time>2026-04-12T08:18:48.427Z</time></trkpt><trkpt lat="45.3445944" lon="10.6653033"><ele>93.0</ele><time>2026-04-12T08:18:49.442Z</time></trkpt><trkpt lat="45.3444979" lon="10.6653468"><ele>93.0</ele><time>2026-04-12T08:18:50.433Z</time></trkpt><trkpt lat="45.3444086" lon="10.6654045"><ele>93.0</ele><time>2026-04-12T08:18:51.435Z</time></trkpt><trkpt lat="45.3443235" lon="10.6654748"><ele>93.0</ele><time>2026-04-12T08:18:52.433Z</time></trkpt><trkpt lat="45.3442392" lon="10.6655511"><ele>93.0</ele><time>2026-04-12T08:18:53.436Z</time></trkpt><trkpt lat="45.344153" lon="10.6656393"><ele>93.0</ele><time>2026-04-12T08:18:54.429Z</time></trkpt><trkpt lat="45.3440737" lon="10.6657272"><ele>93.0</ele><time>2026-04-12T08:18:55.436Z</time></trkpt><trkpt lat="45.3440021" lon="10.6658101"><ele>93.0</ele><time>2026-04-12T08:18:56.439Z</time></trkpt><trkpt lat="45.3439297" lon="10.6658864"><ele>93.0</ele><time>2026-04-12T08:18:57.434Z</time></trkpt><trkpt lat="45.343852" lon="10.6659325"><ele>93.0</ele><time>2026-04-12T08:18:58.438Z</time></trkpt><trkpt lat="45.3437752" lon="10.6659576"><ele>93.0</ele><time>2026-04-12T08:18:59.436Z</time></trkpt><trkpt lat="45.3437041" lon="10.6659955"><ele>93.0</ele><time>2026-04-12T08:19:00.433Z</time></trkpt><trkpt lat="45.3436466" lon="10.6660731"><ele>93.0</ele><time>2026-04-12T08:19:01.439Z</time></trkpt><trkpt lat="45.3436028" lon="10.666186"><ele>93.0</ele><time>2026-04-12T08:19:02.431Z</time></trkpt><trkpt lat="45.3435606" lon="10.6663276"><ele>93.0</ele><time>2026-04-12T08:19:03.439Z</time></trkpt><trkpt lat="45.3435192" lon="10.6664861"><ele>92.75</ele><time>2026-04-12T08:19:04.437Z</time></trkpt><trkpt lat="45.3434757" lon="10.6666563"><ele>92.5</ele><time>2026-04-12T08:19:05.43Z</time></trkpt><trkpt lat="45.3434342" lon="10.6668349"><ele>92.25</ele><time>2026-04-12T08:19:06.436Z</time></trkpt><trkpt lat="45.3433886" lon="10.6670072"><ele>92.0</ele><time>2026-04-12T08:19:07.434Z</time></trkpt><trkpt lat="45.3433424" lon="10.6671698"><ele>92.0</ele><time>2026-04-12T08:19:08.426Z</time></trkpt><trkpt lat="45.3432998" lon="10.6673204"><ele>92.0</ele><time>2026-04-12T08:19:09.431Z</time></trkpt><trkpt lat="45.3432593" lon="10.6674603"><ele>92.0</ele><time>2026-04-12T08:19:10.436Z</time></trkpt><trkpt lat="45.3432217" lon="10.6675873"><ele>92.0</ele><time>2026-04-12T08:19:11.436Z</time></trkpt><trkpt lat="45.3431902" lon="10.6676967"><ele>92.0</ele><time>2026-04-12T08:19:12.433Z</time></trkpt><trkpt lat="45.3431633" lon="10.6677871"><ele>92.19999999999999</ele><time>2026-04-12T08:19:13.438Z</time></trkpt><trkpt lat="45.3431278" lon="10.6679043"><ele>92.4</ele><time>2026-04-12T08:19:15.44Z</time></trkpt><trkpt lat="45.3431059" lon="10.6680323"><ele>92.6</ele><time>2026-04-12T08:19:26.433Z</time></trkpt><trkpt lat="45.3431426" lon="10.6681912"><ele>92.80000000000001</ele><time>2026-04-12T08:19:28.439Z</time></trkpt><trkpt lat="45.3431609" lon="10.6682809"><ele>93.0</ele><time>2026-04-12T08:19:29.431Z</time></trkpt><trkpt lat="45.3431905" lon="10.6684456"><ele>93.0</ele><time>2026-04-12T08:19:31.446Z</time></trkpt><trkpt lat="45.3432031" lon="10.6685698"><ele>93.0</ele><time>2026-04-12T08:19:33.426Z</time></trkpt><trkpt lat="45.343227" lon="10.6686928"><ele>93.0</ele><time>2026-04-12T08:19:36.436Z</time></trkpt><trkpt lat="45.3432573" lon="10.6688764"><ele>93.0</ele><time>2026-04-12T08:19:38.445Z</time></trkpt><trkpt lat="45.3432806" lon="10.6689837"><ele>93.0</ele><time>2026-04-12T08:19:39.443Z</time></trkpt><trkpt lat="45.3433025" lon="10.6690993"><ele>93.0</ele><time>2026-04-12T08:19:40.437Z</time></trkpt><trkpt lat="45.3433235" lon="10.6692381"><ele>93.0</ele><time>2026-04-12T08:19:41.426Z</time></trkpt><trkpt lat="45.3433471" lon="10.669391"><ele>93.0</ele><time>2026-04-12T08:19:42.436Z</time></trkpt><trkpt lat="45.3433659" lon="10.6695386"><ele>93.0</ele><time>2026-04-12T08:19:43.437Z</time></trkpt><trkpt lat="45.343381" lon="10.6696753"><ele>93.0</ele><time>2026-04-12T08:19:44.438Z</time></trkpt><trkpt lat="45.3433952" lon="10.669811"><ele>93.16666666666667</ele><time>2026-04-12T08:19:45.433Z</time></trkpt><trkpt lat="45.3434099" lon="10.6699456"><ele>93.33333333333333</ele><time>2026-04-12T08:19:46.425Z</time></trkpt><trkpt lat="45.3434243" lon="10.6700801"><ele>93.5</ele><time>2026-04-12T08:19:47.437Z</time></trkpt><trkpt lat="45.3434415" lon="10.6702116"><ele>93.66666666666666</ele><time>2026-04-12T08:19:48.438Z</time></trkpt><trkpt lat="45.3434594" lon="10.6703292"><ele>93.83333333333333</ele><time>2026-04-12T08:19:49.436Z</time></trkpt><trkpt lat="45.3434761" lon="10.6704347"><ele>94.0</ele><time>2026-04-12T08:19:50.438Z</time></trkpt><trkpt lat="45.3434921" lon="10.6705285"><ele>94.33333333333333</ele><time>2026-04-12T08:19:51.438Z</time></trkpt><trkpt lat="45.3435078" lon="10.6706168"><ele>94.66666666666666</ele><time>2026-04-12T08:19:52.436Z</time></trkpt><trkpt lat="45.3435352" lon="10.6707681"><ele>95.0</ele><time>2026-04-12T08:19:54.431Z</time></trkpt><trkpt lat="45.3435151" lon="10.6708679"><ele>95.33333333333333</ele><time>2026-04-12T08:19:56.434Z</time></trkpt><trkpt lat="45.3434233" lon="10.6709168"><ele>95.66666666666667</ele><time>2026-04-12T08:19:58.441Z</time></trkpt><trkpt lat="45.3433513" lon="10.6709429"><ele>96.0</ele><time>2026-04-12T08:19:59.423Z</time></trkpt><trkpt lat="45.3432729" lon="10.6709718"><ele>96.0</ele><time>2026-04-12T08:20:00.435Z</time></trkpt><trkpt lat="45.3431874" lon="10.6709928"><ele>96.0</ele><time>2026-04-12T08:20:01.435Z</time></trkpt><trkpt lat="45.3430975" lon="10.6710153"><ele>96.0</ele><time>2026-04-12T08:20:02.443Z</time></trkpt><trkpt lat="45.3430067" lon="10.671016"><ele>96.0</ele><time>2026-04-12T08:20:03.419Z</time></trkpt><trkpt lat="45.3429212" lon="10.6710209"><ele>96.0</ele><time>2026-04-12T08:20:04.428Z</time></trkpt><trkpt lat="45.3428339" lon="10.6710308"><ele>96.0</ele><time>2026-04-12T08:20:05.441Z</time></trkpt><trkpt lat="45.3427425" lon="10.6710559"><ele>96.19999999999999</ele><time>2026-04-12T08:20:06.436Z</time></trkpt><trkpt lat="45.34265" lon="10.6710881"><ele>96.39999999999999</ele><time>2026-04-12T08:20:07.436Z</time></trkpt><trkpt lat="45.3425502" lon="10.6711495"><ele>96.6</ele><time>2026-04-12T08:20:08.436Z</time></trkpt><trkpt lat="45.3424409" lon="10.6712147"><ele>96.8</ele><time>2026-04-12T08:20:09.434Z</time></trkpt><trkpt lat="45.3423508" lon="10.6712663"><ele>97.0</ele><time>2026-04-12T08:20:10.437Z</time></trkpt><trkpt lat="45.3422775" lon="10.6713101"><ele>97.50000000000001</ele><time>2026-04-12T08:20:11.435Z</time></trkpt><trkpt lat="45.3422048" lon="10.6713572"><ele>98.0</ele><time>2026-04-12T08:20:12.433Z</time></trkpt><trkpt lat="45.34215" lon="10.6714173"><ele>98.5</ele><time>2026-04-12T08:20:13.433Z</time></trkpt><trkpt lat="45.3420986" lon="10.6714912"><ele>99.0</ele><time>2026-04-12T08:20:14.429Z</time></trkpt><trkpt lat="45.3420307" lon="10.6715727"><ele>99.50000000000001</ele><time>2026-04-12T08:20:15.437Z</time></trkpt><trkpt lat="45.3419617" lon="10.6716467"><ele>100.0</ele><time>2026-04-12T08:20:16.43Z</time></trkpt><trkpt lat="45.3418975" lon="10.671708"><ele>100.00000000000001</ele><time>2026-04-12T08:20:17.435Z</time></trkpt><trkpt lat="45.3418396" lon="10.6717651"><ele>100.0</ele><time>2026-04-12T08:20:18.446Z</time></trkpt><trkpt lat="45.3417847" lon="10.6718258"><ele>100.0</ele><time>2026-04-12T08:20:19.435Z</time></trkpt><trkpt lat="45.3417346" lon="10.671928"><ele>100.0</ele><time>2026-04-12T08:20:21.438Z</time></trkpt><trkpt lat="45.3417161" lon="10.6720893"><ele>100.00000000000001</ele><time>2026-04-12T08:20:23.44Z</time></trkpt><trkpt lat="45.341703" lon="10.6721823"><ele>100.0</ele><time>2026-04-12T08:20:24.436Z</time></trkpt><trkpt lat="45.3416654" lon="10.6723031"><ele>100.00000000000001</ele><time>2026-04-12T08:20:26.436Z</time></trkpt><trkpt lat="45.3415767" lon="10.6723694"><ele>100.0</ele><time>2026-04-12T08:20:29.441Z</time></trkpt><trkpt lat="45.3415162" lon="10.6724145"><ele>100.0</ele><time>2026-04-12T08:20:31.432Z</time></trkpt><trkpt lat="45.3414467" lon="10.6724918"><ele>100.0</ele><time>2026-04-12T08:20:34.439Z</time></trkpt><trkpt lat="45.3413891" lon="10.6725493"><ele>100.00000000000001</ele><time>2026-04-12T08:20:37.427Z</time></trkpt><trkpt lat="45.3413224" lon="10.6725811"><ele>100.0</ele><time>2026-04-12T08:20:45.43Z</time></trkpt><trkpt lat="45.3412546" lon="10.67255"><ele>100.00000000000001</ele><time>2026-04-12T08:20:50.429Z</time></trkpt><trkpt lat="45.3411887" lon="10.6726038"><ele>100.0</ele><time>2026-04-12T08:20:54.434Z</time></trkpt><trkpt lat="45.3411144" lon="10.6726236"><ele>100.0</ele><time>2026-04-12T08:20:57.432Z</time></trkpt><trkpt lat="45.3410256" lon="10.6726655"><ele>100.0</ele><time>2026-04-12T08:20:59.434Z</time></trkpt><trkpt lat="45.3409438" lon="10.6727423"><ele>100.00000000000001</ele><time>2026-04-12T08:21:01.426Z</time></trkpt><trkpt lat="45.3408599" lon="10.672826"><ele>100.0</ele><time>2026-04-12T08:21:03.434Z</time></trkpt><trkpt lat="45.3407719" lon="10.6729326"><ele>100.0</ele><time>2026-04-12T08:21:05.439Z</time></trkpt><trkpt lat="45.3406815" lon="10.6730491"><ele>100.0</ele><time>2026-04-12T08:21:07.435Z</time></trkpt><trkpt lat="45.3405933" lon="10.6731572"><ele>100.0</ele><time>2026-04-12T08:21:09.439Z</time></trkpt><trkpt lat="45.3405014" lon="10.6732557"><ele>100.0</ele><time>2026-04-12T08:21:11.429Z</time></trkpt><trkpt lat="45.340427" lon="10.6733662"><ele>99.14285714285715</ele><time>2026-04-12T08:21:13.431Z</time></trkpt><trkpt lat="45.3403954" lon="10.6734465"><ele>98.28571428571429</ele><time>2026-04-12T08:21:14.437Z</time></trkpt><trkpt lat="45.3403631" lon="10.673545"><ele>97.42857142857143</ele><time>2026-04-12T08:21:15.435Z</time></trkpt><trkpt lat="45.3403302" lon="10.6736377"><ele>96.57142857142858</ele><time>2026-04-12T08:21:16.43Z</time></trkpt><trkpt lat="45.340295" lon="10.6737234"><ele>95.71428571428571</ele><time>2026-04-12T08:21:17.432Z</time></trkpt><trkpt lat="45.3402556" lon="10.6738065"><ele>94.85714285714286</ele><time>2026-04-12T08:21:18.433Z</time></trkpt><trkpt lat="45.3402171" lon="10.6738831"><ele>94.0</ele><time>2026-04-12T08:21:19.433Z</time></trkpt><trkpt lat="45.3401695" lon="10.6739581"><ele>94.0</ele><time>2026-04-12T08:21:20.435Z</time></trkpt><trkpt lat="45.3401185" lon="10.6740273"><ele>94.0</ele><time>2026-04-12T08:21:21.435Z</time></trkpt><trkpt lat="45.3400682" lon="10.6740927"><ele>94.0</ele><time>2026-04-12T08:21:22.433Z</time></trkpt><trkpt lat="45.3399905" lon="10.6742032"><ele>94.0</ele><time>2026-04-12T08:21:24.434Z</time></trkpt><trkpt lat="45.3399368" lon="10.6742898"><ele>94.0</ele><time>2026-04-12T08:21:26.43Z</time></trkpt><trkpt lat="45.3398942" lon="10.674389"><ele>94.0</ele><time>2026-04-12T08:21:36.44Z</time></trkpt><trkpt lat="45.3398194" lon="10.6743904"><ele>94.0</ele><time>2026-04-12T08:21:38.439Z</time></trkpt><trkpt lat="45.3397537" lon="10.6743537"><ele>94.0</ele><time>2026-04-12T08:21:39.434Z</time></trkpt><trkpt lat="45.3396698" lon="10.6743021"><ele>94.0</ele><time>2026-04-12T08:21:40.434Z</time></trkpt><trkpt lat="45.3395677" lon="10.6742596"><ele>94.0</ele><time>2026-04-12T08:21:41.429Z</time></trkpt><trkpt lat="45.3394458" lon="10.6742127"><ele>94.0</ele><time>2026-04-12T08:21:42.438Z</time></trkpt><trkpt lat="45.3393188" lon="10.6741513"><ele>93.0</ele><time>2026-04-12T08:21:43.437Z</time></trkpt><trkpt lat="45.3391797" lon="10.6740875"><ele>92.0</ele><time>2026-04-12T08:21:44.436Z</time></trkpt><trkpt lat="45.3390333" lon="10.6740238"><ele>91.0</ele><time>2026-04-12T08:21:45.431Z</time></trkpt><trkpt lat="45.3388867" lon="10.6739595"><ele>90.5</ele><time>2026-04-12T08:21:46.433Z</time></trkpt><trkpt lat="45.338743" lon="10.6738992"><ele>90.0</ele><time>2026-04-12T08:21:47.445Z</time></trkpt><trkpt lat="45.338599" lon="10.6738442"><ele>89.5</ele><time>2026-04-12T08:21:48.433Z</time></trkpt><trkpt lat="45.3384545" lon="10.6737884"><ele>89.0</ele><time>2026-04-12T08:21:49.432Z</time></trkpt><trkpt lat="45.3383051" lon="10.6737243"><ele>89.0</ele><time>2026-04-12T08:21:50.434Z</time></trkpt><trkpt lat="45.3381446" lon="10.6736567"><ele>89.0</ele><time>2026-04-12T08:21:51.442Z</time></trkpt><trkpt lat="45.3379734" lon="10.6735891"><ele>89.0</ele><time>2026-04-12T08:21:52.432Z</time></trkpt><trkpt lat="45.3378" lon="10.6735193"><ele>88.33333333333334</ele><time>2026-04-12T08:21:53.44Z</time></trkpt><trkpt lat="45.3376327" lon="10.67345"><ele>87.66666666666667</ele><time>2026-04-12T08:21:54.433Z</time></trkpt><trkpt lat="45.3374744" lon="10.6733821"><ele>87.0</ele><time>2026-04-12T08:21:55.432Z</time></trkpt><trkpt lat="45.3373185" lon="10.6733197"><ele>86.5</ele><time>2026-04-12T08:21:56.433Z</time></trkpt><trkpt lat="45.3371699" lon="10.6732579"><ele>86.0</ele><time>2026-04-12T08:21:57.431Z</time></trkpt><trkpt lat="45.337032" lon="10.6732022"><ele>85.5</ele><time>2026-04-12T08:21:58.425Z</time></trkpt><trkpt lat="45.3368975" lon="10.6731433"><ele>85.0</ele><time>2026-04-12T08:21:59.426Z</time></trkpt><trkpt lat="45.3367638" lon="10.6730863"><ele>85.0</ele><time>2026-04-12T08:22:00.438Z</time></trkpt><trkpt lat="45.3366224" lon="10.6730237"><ele>85.0</ele><time>2026-04-12T08:22:01.436Z</time></trkpt><trkpt lat="45.3364761" lon="10.672949"><ele>85.0</ele><time>2026-04-12T08:22:02.437Z</time></trkpt><trkpt lat="45.3363259" lon="10.6728523"><ele>84.66666666666666</ele><time>2026-04-12T08:22:03.435Z</time></trkpt><trkpt lat="45.3361829" lon="10.6727394"><ele>84.33333333333333</ele><time>2026-04-12T08:22:04.438Z</time></trkpt><trkpt lat="45.3360506" lon="10.6726203"><ele>84.0</ele><time>2026-04-12T08:22:05.433Z</time></trkpt><trkpt lat="45.335928" lon="10.6725038"><ele>84.0</ele><time>2026-04-12T08:22:06.426Z</time></trkpt><trkpt lat="45.335813" lon="10.6723945"><ele>84.0</ele><time>2026-04-12T08:22:07.436Z</time></trkpt><trkpt lat="45.3357043" lon="10.6722896"><ele>84.0</ele><time>2026-04-12T08:22:08.433Z</time></trkpt><trkpt lat="45.3355993" lon="10.6721902"><ele>84.0</ele><time>2026-04-12T08:22:09.432Z</time></trkpt><trkpt lat="45.3354964" lon="10.6720964"><ele>84.0</ele><time>2026-04-12T08:22:10.434Z</time></trkpt><trkpt lat="45.3353955" lon="10.672007"><ele>84.0</ele><time>2026-04-12T08:22:11.436Z</time></trkpt><trkpt lat="45.3353" lon="10.6719236"><ele>84.0</ele><time>2026-04-12T08:22:12.437Z</time></trkpt><trkpt lat="45.3352102" lon="10.6718468"><ele>84.0</ele><time>2026-04-12T08:22:13.434Z</time></trkpt><trkpt lat="45.3351241" lon="10.6717751"><ele>84.0</ele><time>2026-04-12T08:22:14.442Z</time></trkpt><trkpt lat="45.3350395" lon="10.6717153"><ele>84.0</ele><time>2026-04-12T08:22:15.439Z</time></trkpt><trkpt lat="45.334961" lon="10.6716709"><ele>84.0</ele><time>2026-04-12T08:22:16.441Z</time></trkpt><trkpt lat="45.334898" lon="10.671647"><ele>84.0</ele><time>2026-04-12T08:22:17.438Z</time></trkpt><trkpt lat="45.3348048" lon="10.6716811"><ele>84.0</ele><time>2026-04-12T08:22:19.437Z</time></trkpt><trkpt lat="45.3347365" lon="10.671866"><ele>84.0</ele><time>2026-04-12T08:22:21.427Z</time></trkpt><trkpt lat="45.3347012" lon="10.6720114"><ele>83.75</ele><time>2026-04-12T08:22:22.435Z</time></trkpt><trkpt lat="45.3346582" lon="10.6721792"><ele>83.5</ele><time>2026-04-12T08:22:23.43Z</time></trkpt><trkpt lat="45.3346024" lon="10.6723475"><ele>83.25</ele><time>2026-04-12T08:22:24.439Z</time></trkpt><trkpt lat="45.3345328" lon="10.6725105"><ele>83.0</ele><time>2026-04-12T08:22:25.438Z</time></trkpt><trkpt lat="45.3344622" lon="10.6726739"><ele>83.25</ele><time>2026-04-12T08:22:26.436Z</time></trkpt><trkpt lat="45.3343789" lon="10.6728237"><ele>83.5</ele><time>2026-04-12T08:22:27.434Z</time></trkpt><trkpt lat="45.3342789" lon="10.6729572"><ele>83.75</ele><time>2026-04-12T08:22:28.435Z</time></trkpt><trkpt lat="45.3341802" lon="10.6730885"><ele>84.0</ele><time>2026-04-12T08:22:29.429Z</time></trkpt><trkpt lat="45.3340775" lon="10.6732068"><ele>84.0</ele><time>2026-04-12T08:22:30.433Z</time></trkpt><trkpt lat="45.3339745" lon="10.6733237"><ele>84.0</ele><time>2026-04-12T08:22:31.43Z</time></trkpt><trkpt lat="45.3338875" lon="10.6734394"><ele>84.0</ele><time>2026-04-12T08:22:32.427Z</time></trkpt><trkpt lat="45.3338122" lon="10.6735438"><ele>84.0</ele><time>2026-04-12T08:22:33.434Z</time></trkpt><trkpt lat="45.3337479" lon="10.6736365"><ele>84.0</ele><time>2026-04-12T08:22:34.423Z</time></trkpt><trkpt lat="45.3336923" lon="10.673722"><ele>83.66666666666667</ele><time>2026-04-12T08:22:35.437Z</time></trkpt><trkpt lat="45.3336414" lon="10.6737942"><ele>83.33333333333333</ele><time>2026-04-12T08:22:36.434Z</time></trkpt><trkpt lat="45.3335562" lon="10.6738385"><ele>83.0</ele><time>2026-04-12T08:22:38.434Z</time></trkpt><trkpt lat="45.3334965" lon="10.6737533"><ele>82.66666666666666</ele><time>2026-04-12T08:22:40.428Z</time></trkpt><trkpt lat="45.3334724" lon="10.6736668"><ele>82.33333333333333</ele><time>2026-04-12T08:22:41.43Z</time></trkpt><trkpt lat="45.333441" lon="10.6735545"><ele>82.0</ele><time>2026-04-12T08:22:42.443Z</time></trkpt><trkpt lat="45.3334034" lon="10.6734342"><ele>82.0</ele><time>2026-04-12T08:22:43.434Z</time></trkpt><trkpt lat="45.3333666" lon="10.673317"><ele>82.0</ele><time>2026-04-12T08:22:44.436Z</time></trkpt><trkpt lat="45.3333306" lon="10.673218"><ele>82.0</ele><time>2026-04-12T08:22:45.431Z</time></trkpt><trkpt lat="45.3332618" lon="10.6731165"><ele>82.0</ele><time>2026-04-12T08:22:47.437Z</time></trkpt><trkpt lat="45.3331692" lon="10.6731274"><ele>82.0</ele><time>2026-04-12T08:22:49.431Z</time></trkpt><trkpt lat="45.3331078" lon="10.6731991"><ele>82.0</ele><time>2026-04-12T08:22:50.427Z</time></trkpt><trkpt lat="45.3330396" lon="10.673285"><ele>82.0</ele><time>2026-04-12T08:22:51.433Z</time></trkpt><trkpt lat="45.3329673" lon="10.6734025"><ele>82.0</ele><time>2026-04-12T08:22:52.433Z</time></trkpt><trkpt lat="45.3328681" lon="10.6735408"><ele>82.0</ele><time>2026-04-12T08:22:53.432Z</time></trkpt><trkpt lat="45.3327953" lon="10.6736725"><ele>82.0</ele><time>2026-04-12T08:22:54.437Z</time></trkpt><trkpt lat="45.3327156" lon="10.6738026"><ele>81.8</ele><time>2026-04-12T08:22:55.429Z</time></trkpt><trkpt lat="45.3326356" lon="10.6739412"><ele>81.6</ele><time>2026-04-12T08:22:56.425Z</time></trkpt><trkpt lat="45.3325602" lon="10.6740584"><ele>81.39999999999999</ele><time>2026-04-12T08:22:57.444Z</time></trkpt><trkpt lat="45.3324889" lon="10.6741612"><ele>81.19999999999999</ele><time>2026-04-12T08:22:58.431Z</time></trkpt><trkpt lat="45.3324202" lon="10.6742705"><ele>81.0</ele><time>2026-04-12T08:22:59.457Z</time></trkpt><trkpt lat="45.3323484" lon="10.6743837"><ele>81.8</ele><time>2026-04-12T08:23:00.438Z</time></trkpt><trkpt lat="45.3322845" lon="10.6745087"><ele>82.6</ele><time>2026-04-12T08:23:01.429Z</time></trkpt><trkpt lat="45.3322187" lon="10.6746087"><ele>83.4</ele><time>2026-04-12T08:23:02.433Z</time></trkpt><trkpt lat="45.3321731" lon="10.6747098"><ele>84.2</ele><time>2026-04-12T08:23:03.44Z</time></trkpt><trkpt lat="45.3321316" lon="10.6747992"><ele>85.0</ele><time>2026-04-12T08:23:04.437Z</time></trkpt><trkpt lat="45.3321019" lon="10.6749346"><ele>87.75</ele><time>2026-04-12T08:23:06.433Z</time></trkpt><trkpt lat="45.332126" lon="10.6751405"><ele>90.5</ele><time>2026-04-12T08:23:08.431Z</time></trkpt><trkpt lat="45.3321395" lon="10.6752618"><ele>93.25</ele><time>2026-04-12T08:23:09.433Z</time></trkpt><trkpt lat="45.3321539" lon="10.67541"><ele>96.0</ele><time>2026-04-12T08:23:10.431Z</time></trkpt><trkpt lat="45.3321867" lon="10.6755624"><ele>96.0</ele><time>2026-04-12T08:23:11.432Z</time></trkpt><trkpt lat="45.3322176" lon="10.6757191"><ele>96.0</ele><time>2026-04-12T08:23:12.429Z</time></trkpt><trkpt lat="45.3322606" lon="10.6758654"><ele>96.0</ele><time>2026-04-12T08:23:13.428Z</time></trkpt><trkpt lat="45.3323221" lon="10.6760147"><ele>96.0</ele><time>2026-04-12T08:23:14.423Z</time></trkpt><trkpt lat="45.3323848" lon="10.6761664"><ele>93.6</ele><time>2026-04-12T08:23:15.436Z</time></trkpt><trkpt lat="45.3324456" lon="10.6763163"><ele>91.19999999999999</ele><time>2026-04-12T08:23:16.434Z</time></trkpt><trkpt lat="45.3324894" lon="10.676463"><ele>88.80000000000001</ele><time>2026-04-12T08:23:17.437Z</time></trkpt><trkpt lat="45.3325261" lon="10.6765622"><ele>86.4</ele><time>2026-04-12T08:23:18.432Z</time></trkpt><trkpt lat="45.3325433" lon="10.6766799"><ele>84.0</ele><time>2026-04-12T08:23:19.423Z</time></trkpt><trkpt lat="45.3325379" lon="10.6768068"><ele>83.25</ele><time>2026-04-12T08:23:20.429Z</time></trkpt><trkpt lat="45.3325205" lon="10.6769512"><ele>82.5</ele><time>2026-04-12T08:23:21.434Z</time></trkpt><trkpt lat="45.3324991" lon="10.6771153"><ele>81.75</ele><time>2026-04-12T08:23:22.44Z</time></trkpt><trkpt lat="45.3324667" lon="10.6772896"><ele>81.0</ele><time>2026-04-12T08:23:23.423Z</time></trkpt><trkpt lat="45.3324286" lon="10.6774607"><ele>81.0</ele><time>2026-04-12T08:23:24.432Z</time></trkpt><trkpt lat="45.3323862" lon="10.677641"><ele>81.0</ele><time>2026-04-12T08:23:25.431Z</time></trkpt><trkpt lat="45.3323344" lon="10.6778282"><ele>81.0</ele><time>2026-04-12T08:23:26.437Z</time></trkpt><trkpt lat="45.3322811" lon="10.6780167"><ele>81.0</ele><time>2026-04-12T08:23:27.431Z</time></trkpt><trkpt lat="45.3322266" lon="10.6782059"><ele>81.0</ele><time>2026-04-12T08:23:28.433Z</time></trkpt><trkpt lat="45.3321788" lon="10.6783833"><ele>81.0</ele><time>2026-04-12T08:23:29.436Z</time></trkpt><trkpt lat="45.3321375" lon="10.6785514"><ele>81.0</ele><time>2026-04-12T08:23:30.448Z</time></trkpt><trkpt lat="45.3320864" lon="10.678719"><ele>81.0</ele><time>2026-04-12T08:23:31.425Z</time></trkpt><trkpt lat="45.3320327" lon="10.6789003"><ele>80.75</ele><time>2026-04-12T08:23:32.433Z</time></trkpt><trkpt lat="45.3319845" lon="10.6790851"><ele>80.5</ele><time>2026-04-12T08:23:33.436Z</time></trkpt><trkpt lat="45.3319362" lon="10.679278"><ele>80.25</ele><time>2026-04-12T08:23:34.435Z</time></trkpt><trkpt lat="45.3318881" lon="10.679465"><ele>80.0</ele><time>2026-04-12T08:23:35.44Z</time></trkpt><trkpt lat="45.3318447" lon="10.6796399"><ele>80.0</ele><time>2026-04-12T08:23:36.438Z</time></trkpt><trkpt lat="45.3317948" lon="10.6798131"><ele>80.0</ele><time>2026-04-12T08:23:37.435Z</time></trkpt><trkpt lat="45.3317389" lon="10.6799814"><ele>80.0</ele><time>2026-04-12T08:23:38.429Z</time></trkpt><trkpt lat="45.3316808" lon="10.6801512"><ele>80.0</ele><time>2026-04-12T08:23:39.438Z</time></trkpt><trkpt lat="45.3316265" lon="10.6803104"><ele>79.6</ele><time>2026-04-12T08:23:40.43Z</time></trkpt><trkpt lat="45.3315746" lon="10.6804654"><ele>79.2</ele><time>2026-04-12T08:23:41.434Z</time></trkpt><trkpt lat="45.3315297" lon="10.6806122"><ele>78.8</ele><time>2026-04-12T08:23:42.434Z</time></trkpt><trkpt lat="45.3314937" lon="10.6807519"><ele>78.4</ele><time>2026-04-12T08:23:43.437Z</time></trkpt><trkpt lat="45.3314639" lon="10.6808924"><ele>78.0</ele><time>2026-04-12T08:23:44.435Z</time></trkpt><trkpt lat="45.3314426" lon="10.6810346"><ele>77.6</ele><time>2026-04-12T08:23:45.426Z</time></trkpt><trkpt lat="45.3314266" lon="10.681175"><ele>77.19999999999999</ele><time>2026-04-12T08:23:46.446Z</time></trkpt><trkpt lat="45.3314178" lon="10.6813102"><ele>76.8</ele><time>2026-04-12T08:23:47.436Z</time></trkpt><trkpt lat="45.3314101" lon="10.681436"><ele>76.39999999999999</ele><time>2026-04-12T08:23:48.446Z</time></trkpt><trkpt lat="45.3313852" lon="10.6815488"><ele>76.0</ele><time>2026-04-12T08:23:49.441Z</time></trkpt><trkpt lat="45.3313384" lon="10.681665"><ele>76.0</ele><time>2026-04-12T08:23:50.432Z</time></trkpt><trkpt lat="45.3312818" lon="10.6817967"><ele>76.0</ele><time>2026-04-12T08:23:51.435Z</time></trkpt><trkpt lat="45.3312199" lon="10.6819432"><ele>76.0</ele><time>2026-04-12T08:23:52.435Z</time></trkpt><trkpt lat="45.3311591" lon="10.6820964"><ele>76.0</ele><time>2026-04-12T08:23:53.437Z</time></trkpt><trkpt lat="45.3311019" lon="10.6822469"><ele>75.75</ele><time>2026-04-12T08:23:54.428Z</time></trkpt><trkpt lat="45.3310458" lon="10.6823851"><ele>75.5</ele><time>2026-04-12T08:23:55.439Z</time></trkpt><trkpt lat="45.3309823" lon="10.6825335"><ele>75.25</ele><time>2026-04-12T08:23:56.44Z</time></trkpt><trkpt lat="45.3309267" lon="10.6826993"><ele>75.0</ele><time>2026-04-12T08:23:57.434Z</time></trkpt><trkpt lat="45.3308714" lon="10.6828582"><ele>75.0</ele><time>2026-04-12T08:23:58.44Z</time></trkpt><trkpt lat="45.330829" lon="10.6830231"><ele>75.0</ele><time>2026-04-12T08:23:59.442Z</time></trkpt><trkpt lat="45.3307913" lon="10.6831765"><ele>75.0</ele><time>2026-04-12T08:24:00.431Z</time></trkpt><trkpt lat="45.3307572" lon="10.6833292"><ele>75.0</ele><time>2026-04-12T08:24:01.436Z</time></trkpt><trkpt lat="45.3307215" lon="10.6834958"><ele>75.0</ele><time>2026-04-12T08:24:02.433Z</time></trkpt><trkpt lat="45.3306837" lon="10.6836524"><ele>75.0</ele><time>2026-04-12T08:24:03.432Z</time></trkpt><trkpt lat="45.3306431" lon="10.6837835"><ele>75.0</ele><time>2026-04-12T08:24:04.435Z</time></trkpt><trkpt lat="45.3306086" lon="10.6838981"><ele>75.0</ele><time>2026-04-12T08:24:05.428Z</time></trkpt><trkpt lat="45.330572" lon="10.6840328"><ele>75.0</ele><time>2026-04-12T08:24:07.439Z</time></trkpt><trkpt lat="45.3305271" lon="10.6841214"><ele>75.0</ele><time>2026-04-12T08:25:33.436Z</time></trkpt><trkpt lat="45.3304576" lon="10.6842646"><ele>75.0</ele><time>2026-04-12T08:25:35.441Z</time></trkpt><trkpt lat="45.3304163" lon="10.6843669"><ele>75.0</ele><time>2026-04-12T08:25:36.428Z</time></trkpt><trkpt lat="45.3303728" lon="10.6844846"><ele>75.0</ele><time>2026-04-12T08:25:37.43Z</time></trkpt><trkpt lat="45.3303221" lon="10.6846175"><ele>75.0</ele><time>2026-04-12T08:25:38.436Z</time></trkpt><trkpt lat="45.3302676" lon="10.6847517"><ele>74.8</ele><time>2026-04-12T08:25:39.44Z</time></trkpt><trkpt lat="45.3302074" lon="10.6848834"><ele>74.6</ele><time>2026-04-12T08:25:40.43Z</time></trkpt><trkpt lat="45.3301403" lon="10.685003"><ele>74.4</ele><time>2026-04-12T08:25:41.434Z</time></trkpt><trkpt lat="45.3300649" lon="10.6851147"><ele>74.2</ele><time>2026-04-12T08:25:42.442Z</time></trkpt><trkpt lat="45.3299832" lon="10.6852307"><ele>74.0</ele><time>2026-04-12T08:25:43.435Z</time></trkpt><trkpt lat="45.3299017" lon="10.685344"><ele>74.0</ele><time>2026-04-12T08:25:44.438Z</time></trkpt><trkpt lat="45.329819" lon="10.6854551"><ele>74.0</ele><time>2026-04-12T08:25:45.436Z</time></trkpt><trkpt lat="45.3297413" lon="10.6855622"><ele>74.0</ele><time>2026-04-12T08:25:46.437Z</time></trkpt><trkpt lat="45.329671" lon="10.6856604"><ele>74.0</ele><time>2026-04-12T08:25:47.437Z</time></trkpt><trkpt lat="45.3296069" lon="10.6857492"><ele>74.0</ele><time>2026-04-12T08:25:48.436Z</time></trkpt><trkpt lat="45.3295474" lon="10.6858273"><ele>74.0</ele><time>2026-04-12T08:25:49.43Z</time></trkpt><trkpt lat="45.329494" lon="10.6858979"><ele>74.0</ele><time>2026-04-12T08:25:50.445Z</time></trkpt><trkpt lat="45.3294439" lon="10.6859626"><ele>74.0</ele><time>2026-04-12T08:25:51.438Z</time></trkpt><trkpt lat="45.329361" lon="10.6860651"><ele>74.0</ele><time>2026-04-12T08:25:53.435Z</time></trkpt><trkpt lat="45.3293054" lon="10.6861502"><ele>74.0</ele><time>2026-04-12T08:25:55.441Z</time></trkpt><trkpt lat="45.3292898" lon="10.6862994"><ele>74.0</ele><time>2026-04-12T08:25:57.436Z</time></trkpt><trkpt lat="45.3293128" lon="10.6863974"><ele>74.0</ele><time>2026-04-12T08:25:58.441Z</time></trkpt><trkpt lat="45.3293464" lon="10.6865144"><ele>74.0</ele><time>2026-04-12T08:25:59.442Z</time></trkpt><trkpt lat="45.3293833" lon="10.6866413"><ele>74.0</ele><time>2026-04-12T08:26:00.43Z</time></trkpt><trkpt lat="45.3294208" lon="10.6867719"><ele>74.0</ele><time>2026-04-12T08:26:01.444Z</time></trkpt><trkpt lat="45.3294596" lon="10.6869015"><ele>74.0</ele><time>2026-04-12T08:26:02.436Z</time></trkpt><trkpt lat="45.3294999" lon="10.687028"><ele>73.5</ele><time>2026-04-12T08:26:03.436Z</time></trkpt><trkpt lat="45.3295365" lon="10.6871465"><ele>73.0</ele><time>2026-04-12T08:26:04.439Z</time></trkpt><trkpt lat="45.3295698" lon="10.6872585"><ele>72.5</ele><time>2026-04-12T08:26:05.434Z</time></trkpt><trkpt lat="45.3296019" lon="10.6873689"><ele>72.0</ele><time>2026-04-12T08:26:06.439Z</time></trkpt><trkpt lat="45.3296324" lon="10.6874747"><ele>71.5</ele><time>2026-04-12T08:26:07.441Z</time></trkpt><trkpt lat="45.3296591" lon="10.6875805"><ele>71.0</ele><time>2026-04-12T08:26:08.436Z</time></trkpt><trkpt lat="45.3296741" lon="10.6876877"><ele>71.39999999999999</ele><time>2026-04-12T08:26:09.44Z</time></trkpt><trkpt lat="45.3296655" lon="10.6877913"><ele>71.8</ele><time>2026-04-12T08:26:10.425Z</time></trkpt><trkpt lat="45.329628" lon="10.6878853"><ele>72.19999999999999</ele><time>2026-04-12T08:26:11.437Z</time></trkpt><trkpt lat="45.3295633" lon="10.6879638"><ele>72.6</ele><time>2026-04-12T08:26:12.445Z</time></trkpt><trkpt lat="45.3294703" lon="10.6880314"><ele>73.0</ele><time>2026-04-12T08:26:13.444Z</time></trkpt><trkpt lat="45.3293643" lon="10.6880976"><ele>73.0</ele><time>2026-04-12T08:26:14.435Z</time></trkpt><trkpt lat="45.3292494" lon="10.6881697"><ele>73.0</ele><time>2026-04-12T08:26:15.433Z</time></trkpt><trkpt lat="45.3291246" lon="10.6882513"><ele>73.0</ele><time>2026-04-12T08:26:16.441Z</time></trkpt><trkpt lat="45.3290067" lon="10.68833"><ele>73.0</ele><time>2026-04-12T08:26:17.436Z</time></trkpt><trkpt lat="45.3288993" lon="10.6883989"><ele>72.8</ele><time>2026-04-12T08:26:18.438Z</time></trkpt><trkpt lat="45.3288005" lon="10.6884635"><ele>72.6</ele><time>2026-04-12T08:26:19.439Z</time></trkpt><trkpt lat="45.3287107" lon="10.6885254"><ele>72.4</ele><time>2026-04-12T08:26:20.437Z</time></trkpt><trkpt lat="45.3286269" lon="10.6885811"><ele>72.2</ele><time>2026-04-12T08:26:21.433Z</time></trkpt><trkpt lat="45.3285444" lon="10.6886359"><ele>72.0</ele><time>2026-04-12T08:26:22.441Z</time></trkpt><trkpt lat="45.3284576" lon="10.6886917"><ele>72.25</ele><time>2026-04-12T08:26:23.437Z</time></trkpt><trkpt lat="45.3283628" lon="10.6887505"><ele>72.5</ele><time>2026-04-12T08:26:24.435Z</time></trkpt><trkpt lat="45.3282538" lon="10.6888039"><ele>72.75</ele><time>2026-04-12T08:26:25.44Z</time></trkpt><trkpt lat="45.3281345" lon="10.688837"><ele>73.0</ele><time>2026-04-12T08:26:26.434Z</time></trkpt><trkpt lat="45.3280072" lon="10.6888582"><ele>73.0</ele><time>2026-04-12T08:26:27.44Z</time></trkpt><trkpt lat="45.3278806" lon="10.6888698"><ele>73.0</ele><time>2026-04-12T08:26:28.438Z</time></trkpt><trkpt lat="45.3277521" lon="10.6888712"><ele>73.0</ele><time>2026-04-12T08:26:29.427Z</time></trkpt><trkpt lat="45.327624" lon="10.6888585"><ele>73.0</ele><time>2026-04-12T08:26:30.437Z</time></trkpt><trkpt lat="45.3274945" lon="10.6888262"><ele>73.0</ele><time>2026-04-12T08:26:31.435Z</time></trkpt><trkpt lat="45.3273618" lon="10.6887748"><ele>73.0</ele><time>2026-04-12T08:26:32.439Z</time></trkpt><trkpt lat="45.3272224" lon="10.6887119"><ele>73.0</ele><time>2026-04-12T08:26:33.436Z</time></trkpt><trkpt lat="45.3270766" lon="10.6886447"><ele>73.0</ele><time>2026-04-12T08:26:34.434Z</time></trkpt><trkpt lat="45.3269241" lon="10.6885792"><ele>75.66666666666666</ele><time>2026-04-12T08:26:35.439Z</time></trkpt><trkpt lat="45.3267718" lon="10.6885155"><ele>78.33333333333333</ele><time>2026-04-12T08:26:36.438Z</time></trkpt><trkpt lat="45.326624" lon="10.6884521"><ele>81.0</ele><time>2026-04-12T08:26:37.434Z</time></trkpt><trkpt lat="45.3264732" lon="10.6884061"><ele>80.0</ele><time>2026-04-12T08:26:38.426Z</time></trkpt><trkpt lat="45.3263308" lon="10.6883823"><ele>79.0</ele><time>2026-04-12T08:26:39.444Z</time></trkpt><trkpt lat="45.3261905" lon="10.6883584"><ele>78.0</ele><time>2026-04-12T08:26:40.431Z</time></trkpt><trkpt lat="45.3260568" lon="10.6883383"><ele>77.0</ele><time>2026-04-12T08:26:41.444Z</time></trkpt><trkpt lat="45.3259267" lon="10.688316"><ele>77.0</ele><time>2026-04-12T08:26:42.428Z</time></trkpt><trkpt lat="45.3257996" lon="10.6882893"><ele>77.0</ele><time>2026-04-12T08:26:43.436Z</time></trkpt><trkpt lat="45.3256697" lon="10.6882541"><ele>77.0</ele><time>2026-04-12T08:26:44.429Z</time></trkpt><trkpt lat="45.3255377" lon="10.6882172"><ele>77.0</ele><time>2026-04-12T08:26:45.435Z</time></trkpt><trkpt lat="45.3254106" lon="10.6881797"><ele>76.4</ele><time>2026-04-12T08:26:46.433Z</time></trkpt><trkpt lat="45.325291" lon="10.6881402"><ele>75.80000000000001</ele><time>2026-04-12T08:26:47.436Z</time></trkpt><trkpt lat="45.3251802" lon="10.6880971"><ele>75.2</ele><time>2026-04-12T08:26:48.44Z</time></trkpt><trkpt lat="45.3250811" lon="10.688057"><ele>74.60000000000001</ele><time>2026-04-12T08:26:49.431Z</time></trkpt><trkpt lat="45.3249943" lon="10.6880283"><ele>74.0</ele><time>2026-04-12T08:26:50.44Z</time></trkpt><trkpt lat="45.3249205" lon="10.6880234"><ele>74.0</ele><time>2026-04-12T08:26:51.441Z</time></trkpt><trkpt lat="45.3248539" lon="10.6880568"><ele>74.0</ele><time>2026-04-12T08:26:52.432Z</time></trkpt><trkpt lat="45.324805" lon="10.6881264"><ele>74.0</ele><time>2026-04-12T08:26:53.437Z</time></trkpt><trkpt lat="45.3247791" lon="10.6882232"><ele>74.0</ele><time>2026-04-12T08:26:54.442Z</time></trkpt><trkpt lat="45.3247754" lon="10.6883384"><ele>74.0</ele><time>2026-04-12T08:26:55.436Z</time></trkpt><trkpt lat="45.3247758" lon="10.6884552"><ele>74.0</ele><time>2026-04-12T08:26:56.431Z</time></trkpt><trkpt lat="45.3247806" lon="10.6885818"><ele>73.33333333333334</ele><time>2026-04-12T08:26:57.437Z</time></trkpt><trkpt lat="45.3247815" lon="10.6886992"><ele>72.66666666666667</ele><time>2026-04-12T08:26:58.43Z</time></trkpt><trkpt lat="45.3247672" lon="10.6888034"><ele>72.0</ele><time>2026-04-12T08:26:59.432Z</time></trkpt><trkpt lat="45.3246847" lon="10.6889237"><ele>71.33333333333333</ele><time>2026-04-12T08:27:01.438Z</time></trkpt><trkpt lat="45.3246273" lon="10.6889612"><ele>70.66666666666666</ele><time>2026-04-12T08:27:02.439Z</time></trkpt><trkpt lat="45.3245285" lon="10.6889307"><ele>70.0</ele><time>2026-04-12T08:27:03.437Z</time></trkpt><trkpt lat="45.3244196" lon="10.6889003"><ele>69.75</ele><time>2026-04-12T08:27:04.436Z</time></trkpt><trkpt lat="45.3243083" lon="10.6888795"><ele>69.5</ele><time>2026-04-12T08:27:05.437Z</time></trkpt><trkpt lat="45.3241933" lon="10.6888555"><ele>69.25</ele><time>2026-04-12T08:27:06.432Z</time></trkpt><trkpt lat="45.324067" lon="10.6888303"><ele>69.0</ele><time>2026-04-12T08:27:07.432Z</time></trkpt><trkpt lat="45.323939" lon="10.6888103"><ele>68.5</ele><time>2026-04-12T08:27:08.429Z</time></trkpt><trkpt lat="45.323812" lon="10.6887844"><ele>68.0</ele><time>2026-04-12T08:27:09.441Z</time></trkpt><trkpt lat="45.3236965" lon="10.6887614"><ele>67.5</ele><time>2026-04-12T08:27:10.437Z</time></trkpt><trkpt lat="45.3235808" lon="10.6887409"><ele>67.0</ele><time>2026-04-12T08:27:11.44Z</time></trkpt><trkpt lat="45.3234711" lon="10.6887203"><ele>67.0</ele><time>2026-04-12T08:27:12.437Z</time></trkpt><trkpt lat="45.3233633" lon="10.6886961"><ele>67.0</ele><time>2026-04-12T08:27:13.428Z</time></trkpt><trkpt lat="45.3232606" lon="10.6886731"><ele>67.0</ele><time>2026-04-12T08:27:14.441Z</time></trkpt><trkpt lat="45.3231553" lon="10.6886579"><ele>67.0</ele><time>2026-04-12T08:27:15.44Z</time></trkpt><trkpt lat="45.3230425" lon="10.6886458"><ele>67.0</ele><time>2026-04-12T08:27:16.439Z</time></trkpt><trkpt lat="45.3229243" lon="10.6886345"><ele>67.0</ele><time>2026-04-12T08:27:17.431Z</time></trkpt><trkpt lat="45.3228028" lon="10.6886221"><ele>67.0</ele><time>2026-04-12T08:27:18.432Z</time></trkpt><trkpt lat="45.3226823" lon="10.6886057"><ele>67.0</ele><time>2026-04-12T08:27:19.439Z</time></trkpt><trkpt lat="45.3225678" lon="10.6885879"><ele>67.0</ele><time>2026-04-12T08:27:20.442Z</time></trkpt><trkpt lat="45.3224619" lon="10.6885676"><ele>67.2</ele><time>2026-04-12T08:27:21.437Z</time></trkpt><trkpt lat="45.3223576" lon="10.6885468"><ele>67.4</ele><time>2026-04-12T08:27:22.441Z</time></trkpt><trkpt lat="45.3222495" lon="10.6885271"><ele>67.6</ele><time>2026-04-12T08:27:23.436Z</time></trkpt><trkpt lat="45.3221392" lon="10.6885113"><ele>67.8</ele><time>2026-04-12T08:27:24.447Z</time></trkpt><trkpt lat="45.3220208" lon="10.6885065"><ele>68.0</ele><time>2026-04-12T08:27:25.446Z</time></trkpt><trkpt lat="45.3219116" lon="10.6884815"><ele>67.66666666666667</ele><time>2026-04-12T08:27:26.44Z</time></trkpt><trkpt lat="45.3218113" lon="10.6884582"><ele>67.33333333333334</ele><time>2026-04-12T08:27:27.43Z</time></trkpt><trkpt lat="45.3217163" lon="10.6884355"><ele>67.0</ele><time>2026-04-12T08:27:28.445Z</time></trkpt><trkpt lat="45.3216311" lon="10.6884205"><ele>66.66666666666667</ele><time>2026-04-12T08:27:29.433Z</time></trkpt><trkpt lat="45.3215526" lon="10.6884099"><ele>66.33333333333333</ele><time>2026-04-12T08:27:30.439Z</time></trkpt><trkpt lat="45.3214795" lon="10.6884252"><ele>66.0</ele><time>2026-04-12T08:27:31.433Z</time></trkpt><trkpt lat="45.321415" lon="10.6884676"><ele>66.0</ele><time>2026-04-12T08:27:32.436Z</time></trkpt><trkpt lat="45.3213627" lon="10.6885364"><ele>66.0</ele><time>2026-04-12T08:27:33.442Z</time></trkpt><trkpt lat="45.32133" lon="10.6886177"><ele>66.0</ele><time>2026-04-12T08:27:34.433Z</time></trkpt><trkpt lat="45.3213075" lon="10.6887034"><ele>66.0</ele><time>2026-04-12T08:27:35.436Z</time></trkpt><trkpt lat="45.3212917" lon="10.6887978"><ele>66.0</ele><time>2026-04-12T08:27:36.441Z</time></trkpt><trkpt lat="45.3212762" lon="10.6888883"><ele>66.0</ele><time>2026-04-12T08:27:37.431Z</time></trkpt><trkpt lat="45.321214" lon="10.6890267"><ele>65.8</ele><time>2026-04-12T08:27:39.431Z</time></trkpt><trkpt lat="45.3211073" lon="10.6890482"><ele>65.6</ele><time>2026-04-12T08:27:41.429Z</time></trkpt><trkpt lat="45.3210368" lon="10.6890335"><ele>65.4</ele><time>2026-04-12T08:27:42.436Z</time></trkpt><trkpt lat="45.3209523" lon="10.6890127"><ele>65.2</ele><time>2026-04-12T08:27:43.443Z</time></trkpt><trkpt lat="45.3208575" lon="10.6889854"><ele>65.0</ele><time>2026-04-12T08:27:44.437Z</time></trkpt><trkpt lat="45.3207566" lon="10.6889549"><ele>65.0</ele><time>2026-04-12T08:27:45.441Z</time></trkpt><trkpt lat="45.3206542" lon="10.6889214"><ele>65.0</ele><time>2026-04-12T08:27:46.428Z</time></trkpt><trkpt lat="45.3205543" lon="10.6888848"><ele>65.0</ele><time>2026-04-12T08:27:47.428Z</time></trkpt><trkpt lat="45.320456" lon="10.6888359"><ele>65.0</ele><time>2026-04-12T08:27:48.437Z</time></trkpt><trkpt lat="45.3203585" lon="10.6887704"><ele>65.0</ele><time>2026-04-12T08:27:49.429Z</time></trkpt><trkpt lat="45.3202628" lon="10.6886863"><ele>65.5</ele><time>2026-04-12T08:27:50.44Z</time></trkpt><trkpt lat="45.3201697" lon="10.6885877"><ele>66.0</ele><time>2026-04-12T08:27:51.442Z</time></trkpt><trkpt lat="45.3200786" lon="10.688481"><ele>66.5</ele><time>2026-04-12T08:27:52.436Z</time></trkpt><trkpt lat="45.3199927" lon="10.68837"><ele>67.0</ele><time>2026-04-12T08:27:53.436Z</time></trkpt><trkpt lat="45.3199133" lon="10.6882531"><ele>67.0</ele><time>2026-04-12T08:27:54.443Z</time></trkpt><trkpt lat="45.3198457" lon="10.688132"><ele>67.0</ele><time>2026-04-12T08:27:55.435Z</time></trkpt><trkpt lat="45.3197865" lon="10.6880175"><ele>67.0</ele><time>2026-04-12T08:27:56.439Z</time></trkpt><trkpt lat="45.3197252" lon="10.687915"><ele>67.0</ele><time>2026-04-12T08:27:57.43Z</time></trkpt><trkpt lat="45.3196557" lon="10.6878247"><ele>67.0</ele><time>2026-04-12T08:27:58.434Z</time></trkpt><trkpt lat="45.3195777" lon="10.6877404"><ele>67.2</ele><time>2026-04-12T08:27:59.44Z</time></trkpt><trkpt lat="45.3194936" lon="10.6876575"><ele>67.4</ele><time>2026-04-12T08:28:00.439Z</time></trkpt><trkpt lat="45.319404" lon="10.6875805"><ele>67.6</ele><time>2026-04-12T08:28:01.437Z</time></trkpt><trkpt lat="45.319325" lon="10.6874804"><ele>67.8</ele><time>2026-04-12T08:28:02.431Z</time></trkpt><trkpt lat="45.3192424" lon="10.6873799"><ele>68.0</ele><time>2026-04-12T08:28:03.443Z</time></trkpt><trkpt lat="45.319161" lon="10.687289"><ele>68.0</ele><time>2026-04-12T08:28:04.448Z</time></trkpt><trkpt lat="45.3190884" lon="10.687191"><ele>68.0</ele><time>2026-04-12T08:28:05.434Z</time></trkpt><trkpt lat="45.3190044" lon="10.6871168"><ele>68.0</ele><time>2026-04-12T08:28:06.439Z</time></trkpt><trkpt lat="45.3189072" lon="10.6870342"><ele>68.0</ele><time>2026-04-12T08:28:07.441Z</time></trkpt><trkpt lat="45.318799" lon="10.6869593"><ele>68.0</ele><time>2026-04-12T08:28:08.437Z</time></trkpt><trkpt lat="45.3186899" lon="10.6868869"><ele>67.8</ele><time>2026-04-12T08:28:09.437Z</time></trkpt><trkpt lat="45.3185868" lon="10.6868173"><ele>67.6</ele><time>2026-04-12T08:28:10.442Z</time></trkpt><trkpt lat="45.3184948" lon="10.6867543"><ele>67.4</ele><time>2026-04-12T08:28:11.436Z</time></trkpt><trkpt lat="45.3184096" lon="10.6866987"><ele>67.2</ele><time>2026-04-12T08:28:12.436Z</time></trkpt><trkpt lat="45.3183202" lon="10.6866377"><ele>67.0</ele><time>2026-04-12T08:28:13.432Z</time></trkpt><trkpt lat="45.3182287" lon="10.6865826"><ele>67.0</ele><time>2026-04-12T08:28:14.438Z</time></trkpt><trkpt lat="45.3181429" lon="10.6865341"><ele>67.0</ele><time>2026-04-12T08:28:15.446Z</time></trkpt><trkpt lat="45.3180664" lon="10.6864923"><ele>67.0</ele><time>2026-04-12T08:28:16.44Z</time></trkpt><trkpt lat="45.3179936" lon="10.6864497"><ele>67.0</ele><time>2026-04-12T08:28:17.445Z</time></trkpt><trkpt lat="45.3179323" lon="10.686415"><ele>67.0</ele><time>2026-04-12T08:28:18.442Z</time></trkpt><trkpt lat="45.317846" lon="10.6863627"><ele>67.0</ele><time>2026-04-12T08:28:20.437Z</time></trkpt><trkpt lat="45.3177885" lon="10.6863248"><ele>67.0</ele><time>2026-04-12T08:28:22.433Z</time></trkpt><trkpt lat="45.3177318" lon="10.686183"><ele>67.0</ele><time>2026-04-12T08:28:30.44Z</time></trkpt><trkpt lat="45.3177632" lon="10.6860909"><ele>67.0</ele><time>2026-04-12T08:28:32.433Z</time></trkpt><trkpt lat="45.3177982" lon="10.6859783"><ele>67.0</ele><time>2026-04-12T08:28:34.443Z</time></trkpt><trkpt lat="45.3178419" lon="10.6858572"><ele>67.0</ele><time>2026-04-12T08:28:36.444Z</time></trkpt><trkpt lat="45.3178893" lon="10.6857287"><ele>66.8</ele><time>2026-04-12T08:28:38.452Z</time></trkpt><trkpt lat="45.3179268" lon="10.6856051"><ele>66.6</ele><time>2026-04-12T08:28:40.442Z</time></trkpt><trkpt lat="45.3179624" lon="10.6854855"><ele>66.39999999999999</ele><time>2026-04-12T08:28:42.433Z</time></trkpt><trkpt lat="45.3180062" lon="10.6853522"><ele>66.2</ele><time>2026-04-12T08:28:44.443Z</time></trkpt><trkpt lat="45.3180477" lon="10.6852271"><ele>66.0</ele><time>2026-04-12T08:28:46.438Z</time></trkpt><trkpt lat="45.3180895" lon="10.6851112"><ele>66.0</ele><time>2026-04-12T08:28:48.442Z</time></trkpt><trkpt lat="45.3181346" lon="10.6849933"><ele>66.0</ele><time>2026-04-12T08:28:50.439Z</time></trkpt><trkpt lat="45.3181749" lon="10.684889"><ele>66.0</ele><time>2026-04-12T08:28:52.434Z</time></trkpt><trkpt lat="45.3182069" lon="10.6847989"><ele>66.0</ele><time>2026-04-12T08:28:54.439Z</time></trkpt><trkpt lat="45.3182387" lon="10.6847012"><ele>66.0</ele><time>2026-04-12T08:28:56.436Z</time></trkpt><trkpt lat="45.3182678" lon="10.6845974"><ele>66.0</ele><time>2026-04-12T08:28:58.438Z</time></trkpt><trkpt lat="45.3183094" lon="10.6844702"><ele>66.16666666666667</ele><time>2026-04-12T08:29:00.439Z</time></trkpt><trkpt lat="45.3183536" lon="10.6843476"><ele>66.33333333333333</ele><time>2026-04-12T08:29:02.438Z</time></trkpt><trkpt lat="45.318395" lon="10.6842299"><ele>66.5</ele><time>2026-04-12T08:29:04.431Z</time></trkpt><trkpt lat="45.3184373" lon="10.6841172"><ele>66.66666666666666</ele><time>2026-04-12T08:29:06.443Z</time></trkpt><trkpt lat="45.3184683" lon="10.6840121"><ele>66.83333333333333</ele><time>2026-04-12T08:29:08.433Z</time></trkpt><trkpt lat="45.3185059" lon="10.6839033"><ele>67.0</ele><time>2026-04-12T08:29:11.437Z</time></trkpt><trkpt lat="45.3185412" lon="10.6837964"><ele>67.0</ele><time>2026-04-12T08:29:13.443Z</time></trkpt><trkpt lat="45.3185839" lon="10.6836855"><ele>67.0</ele><time>2026-04-12T08:29:16.431Z</time></trkpt><trkpt lat="45.3186192" lon="10.6836012"><ele>67.0</ele><time>2026-04-12T08:29:18.436Z</time></trkpt><trkpt lat="45.3186581" lon="10.6834995"><ele>67.0</ele><time>2026-04-12T08:29:20.434Z</time></trkpt><trkpt lat="45.3187051" lon="10.683351"><ele>67.0</ele><time>2026-04-12T08:29:22.434Z</time></trkpt><trkpt lat="45.3187465" lon="10.6832344"><ele>67.0</ele><time>2026-04-12T08:29:24.432Z</time></trkpt><trkpt lat="45.3187982" lon="10.6830882"><ele>67.2</ele><time>2026-04-12T08:29:26.432Z</time></trkpt><trkpt lat="45.3188393" lon="10.6829431"><ele>67.4</ele><time>2026-04-12T08:29:28.435Z</time></trkpt><trkpt lat="45.3188879" lon="10.6827939"><ele>67.6</ele><time>2026-04-12T08:29:30.439Z</time></trkpt><trkpt lat="45.318936" lon="10.682655"><ele>67.8</ele><time>2026-04-12T08:29:32.439Z</time></trkpt><trkpt lat="45.3189764" lon="10.6825238"><ele>68.0</ele><time>2026-04-12T08:29:34.433Z</time></trkpt><trkpt lat="45.3190328" lon="10.6823699"><ele>68.83333333333334</ele><time>2026-04-12T08:29:36.445Z</time></trkpt><trkpt lat="45.319063" lon="10.6822909"><ele>69.66666666666667</ele><time>2026-04-12T08:29:37.441Z</time></trkpt><trkpt lat="45.3191232" lon="10.6821449"><ele>70.5</ele><time>2026-04-12T08:29:39.438Z</time></trkpt><trkpt lat="45.3191811" lon="10.6819996"><ele>71.33333333333333</ele><time>2026-04-12T08:29:41.451Z</time></trkpt><trkpt lat="45.3192181" lon="10.6818942"><ele>72.16666666666666</ele><time>2026-04-12T08:29:43.431Z</time></trkpt><trkpt lat="45.3192403" lon="10.681805"><ele>73.0</ele><time>2026-04-12T08:29:46.447Z</time></trkpt><trkpt lat="45.3192677" lon="10.6816889"><ele>73.16666666666666</ele><time>2026-04-12T08:29:50.43Z</time></trkpt><trkpt lat="45.3192944" lon="10.6815634"><ele>73.33333333333333</ele><time>2026-04-12T08:29:52.441Z</time></trkpt><trkpt lat="45.3193124" lon="10.6814739"><ele>73.5</ele><time>2026-04-12T08:29:54.434Z</time></trkpt><trkpt lat="45.3193377" lon="10.681375"><ele>73.66666666666667</ele><time>2026-04-12T08:29:56.439Z</time></trkpt><trkpt lat="45.3193667" lon="10.6812488"><ele>73.83333333333334</ele><time>2026-04-12T08:29:59.427Z</time></trkpt><trkpt lat="45.3194055" lon="10.6811352"><ele>74.0</ele><time>2026-04-12T08:30:02.433Z</time></trkpt><trkpt lat="45.3194554" lon="10.6810224"><ele>74.16666666666667</ele><time>2026-04-12T08:30:05.427Z</time></trkpt><trkpt lat="45.3194988" lon="10.6809418"><ele>74.33333333333334</ele><time>2026-04-12T08:30:07.434Z</time></trkpt><trkpt lat="45.3195619" lon="10.6808392"><ele>74.5</ele><time>2026-04-12T08:30:09.439Z</time></trkpt><trkpt lat="45.319613" lon="10.6807536"><ele>74.66666666666667</ele><time>2026-04-12T08:30:11.441Z</time></trkpt><trkpt lat="45.3196564" lon="10.6806672"><ele>74.83333333333333</ele><time>2026-04-12T08:30:13.432Z</time></trkpt><trkpt lat="45.3196913" lon="10.6805767"><ele>75.0</ele><time>2026-04-12T08:30:15.44Z</time></trkpt><trkpt lat="45.3197208" lon="10.6804901"><ele>76.71428571428571</ele><time>2026-04-12T08:30:17.436Z</time></trkpt><trkpt lat="45.3197406" lon="10.6804041"><ele>78.42857142857143</ele><time>2026-04-12T08:30:18.43Z</time></trkpt><trkpt lat="45.3197636" lon="10.6802875"><ele>80.14285714285714</ele><time>2026-04-12T08:30:20.432Z</time></trkpt><trkpt lat="45.319785" lon="10.6801851"><ele>81.85714285714286</ele><time>2026-04-12T08:30:22.433Z</time></trkpt><trkpt lat="45.3198097" lon="10.6800797"><ele>83.57142857142857</ele><time>2026-04-12T08:30:24.442Z</time></trkpt><trkpt lat="45.319836" lon="10.6799781"><ele>85.28571428571428</ele><time>2026-04-12T08:30:26.435Z</time></trkpt><trkpt lat="45.3198554" lon="10.6798891"><ele>87.0</ele><time>2026-04-12T08:30:29.434Z</time></trkpt><trkpt lat="45.3198727" lon="10.6797445"><ele>87.0</ele><time>2026-04-12T08:30:32.436Z</time></trkpt><trkpt lat="45.31989" lon="10.6796265"><ele>87.0</ele><time>2026-04-12T08:30:34.434Z</time></trkpt><trkpt lat="45.3199026" lon="10.6795063"><ele>87.0</ele><time>2026-04-12T08:30:36.428Z</time></trkpt><trkpt lat="45.319913" lon="10.6793983"><ele>87.0</ele><time>2026-04-12T08:30:38.44Z</time></trkpt><trkpt lat="45.3199405" lon="10.6793064"><ele>87.0</ele><time>2026-04-12T08:30:40.432Z</time></trkpt><trkpt lat="45.3200116" lon="10.6791796"><ele>87.0</ele><time>2026-04-12T08:30:51.433Z</time></trkpt><trkpt lat="45.3200536" lon="10.6792883"><ele>87.0</ele><time>2026-04-12T08:30:55.424Z</time></trkpt><trkpt lat="45.3200657" lon="10.6794052"><ele>87.0</ele><time>2026-04-12T08:30:58.424Z</time></trkpt><trkpt lat="45.3201067" lon="10.6795307"><ele>87.0</ele><time>2026-04-12T08:31:00.435Z</time></trkpt><trkpt lat="45.3201655" lon="10.6796603"><ele>87.0</ele><time>2026-04-12T08:31:02.432Z</time></trkpt><trkpt lat="45.3202163" lon="10.679777"><ele>87.0</ele><time>2026-04-12T08:31:04.433Z</time></trkpt><trkpt lat="45.3202508" lon="10.6798636"><ele>87.0</ele><time>2026-04-12T08:31:07.433Z</time></trkpt><trkpt lat="45.3202874" lon="10.6799735"><ele>87.0</ele><time>2026-04-12T08:31:16.438Z</time></trkpt><trkpt lat="45.3202905" lon="10.6800678"><ele>87.0</ele><time>2026-04-12T08:31:21.438Z</time></trkpt><trkpt lat="45.3202477" lon="10.680152"><ele>87.0</ele><time>2026-04-12T08:31:25.432Z</time></trkpt><trkpt lat="45.3202163" lon="10.6802461"><ele>87.0</ele><time>2026-04-12T08:31:30.433Z</time></trkpt><trkpt lat="45.3201827" lon="10.6803443"><ele>87.0</ele><time>2026-04-12T08:31:33.435Z</time></trkpt><trkpt lat="45.3201357" lon="10.6804437"><ele>87.0</ele><time>2026-04-12T08:31:36.441Z</time></trkpt><trkpt lat="45.3200974" lon="10.6805406"><ele>87.0</ele><time>2026-04-12T08:31:39.448Z</time></trkpt><trkpt lat="45.3200503" lon="10.6806294"><ele>87.0</ele><time>2026-04-12T08:31:42.444Z</time></trkpt><trkpt lat="45.3200192" lon="10.6807153"><ele>87.0</ele><time>2026-04-12T08:31:45.428Z</time></trkpt><trkpt lat="45.3200169" lon="10.6808332"><ele>87.0</ele><time>2026-04-12T08:31:48.433Z</time></trkpt><trkpt lat="45.3200052" lon="10.6809556"><ele>87.0</ele><time>2026-04-12T08:31:52.43Z</time></trkpt><trkpt lat="45.3200161" lon="10.6810558"><ele>86.66666666666667</ele><time>2026-04-12T08:31:57.434Z</time></trkpt><trkpt lat="45.3200051" lon="10.681184"><ele>86.33333333333333</ele><time>2026-04-12T08:32:00.435Z</time></trkpt><trkpt lat="45.3200232" lon="10.6812853"><ele>86.0</ele><time>2026-04-12T08:32:02.44Z</time></trkpt><trkpt lat="45.3200367" lon="10.6814045"><ele>85.66666666666666</ele><time>2026-04-12T08:32:05.438Z</time></trkpt><trkpt lat="45.3200565" lon="10.6815073"><ele>85.33333333333333</ele><time>2026-04-12T08:32:08.44Z</time></trkpt><trkpt lat="45.3200533" lon="10.6816042"><ele>85.0</ele><time>2026-04-12T08:32:10.437Z</time></trkpt><trkpt lat="45.3200142" lon="10.6817117"><ele>85.0</ele><time>2026-04-12T08:32:13.437Z</time></trkpt><trkpt lat="45.3199449" lon="10.6817217"><ele>85.0</ele><time>2026-04-12T08:32:39.429Z</time></trkpt><trkpt lat="45.3198749" lon="10.6817119"><ele>85.0</ele><time>2026-04-12T08:32:41.438Z</time></trkpt><trkpt lat="45.3197826" lon="10.6817298"><ele>85.0</ele><time>2026-04-12T08:32:43.429Z</time></trkpt><trkpt lat="45.319727" lon="10.6817771"><ele>85.0</ele><time>2026-04-12T08:32:46.428Z</time></trkpt><trkpt lat="45.3198083" lon="10.6818169"><ele>85.0</ele><time>2026-04-12T08:32:51.437Z</time></trkpt><trkpt lat="45.3198664" lon="10.6818618"><ele>85.0</ele><time>2026-04-12T08:32:55.428Z</time></trkpt><trkpt lat="45.3199288" lon="10.681887"><ele>85.0</ele><time>2026-04-12T08:32:57.437Z</time></trkpt><trkpt lat="45.3200161" lon="10.6818831"><ele>85.0</ele><time>2026-04-12T08:32:59.437Z</time></trkpt><trkpt lat="45.320081" lon="10.6818806"><ele>85.0</ele><time>2026-04-12T08:33:00.421Z</time></trkpt><trkpt lat="45.3201448" lon="10.6818844"><ele>85.0</ele><time>2026-04-12T08:33:01.432Z</time></trkpt><trkpt lat="45.3202388" lon="10.6819105"><ele>85.0</ele><time>2026-04-12T08:33:03.425Z</time></trkpt><trkpt lat="45.3203058" lon="10.6819781"><ele>84.6</ele><time>2026-04-12T08:33:05.432Z</time></trkpt><trkpt lat="45.3203537" lon="10.6820872"><ele>84.2</ele><time>2026-04-12T08:33:07.433Z</time></trkpt><trkpt lat="45.3204182" lon="10.682196"><ele>83.80000000000001</ele><time>2026-04-12T08:33:09.436Z</time></trkpt><trkpt lat="45.32048" lon="10.6823259"><ele>83.4</ele><time>2026-04-12T08:33:11.442Z</time></trkpt><trkpt lat="45.3205375" lon="10.6824385"><ele>83.0</ele><time>2026-04-12T08:33:13.439Z</time></trkpt><trkpt lat="45.3205906" lon="10.6825107"><ele>84.33333333333334</ele><time>2026-04-12T08:33:15.44Z</time></trkpt><trkpt lat="45.3206367" lon="10.6826231"><ele>85.66666666666667</ele><time>2026-04-12T08:33:17.435Z</time></trkpt><trkpt lat="45.3206702" lon="10.6827138"><ele>87.0</ele><time>2026-04-12T08:33:19.439Z</time></trkpt><trkpt lat="45.3207068" lon="10.682844"><ele>88.33333333333333</ele><time>2026-04-12T08:33:22.438Z</time></trkpt><trkpt lat="45.3207267" lon="10.6829385"><ele>89.66666666666666</ele><time>2026-04-12T08:33:25.427Z</time></trkpt><trkpt lat="45.3207702" lon="10.6830329"><ele>91.0</ele><time>2026-04-12T08:33:45.441Z</time></trkpt><trkpt lat="45.3208005" lon="10.683124"><ele>91.0</ele><time>2026-04-12T08:33:49.432Z</time></trkpt><trkpt lat="45.3207398" lon="10.6832011"><ele>91.0</ele><time>2026-04-12T08:33:52.445Z</time></trkpt><trkpt lat="45.3206716" lon="10.6832289"><ele>91.0</ele><time>2026-04-12T08:33:55.448Z</time></trkpt><trkpt lat="45.3205909" lon="10.6832781"><ele>91.0</ele><time>2026-04-12T08:33:57.433Z</time></trkpt><trkpt lat="45.3205273" lon="10.6833058"><ele>91.0</ele><time>2026-04-12T08:33:58.441Z</time></trkpt><trkpt lat="45.3204512" lon="10.6833748"><ele>91.0</ele><time>2026-04-12T08:34:00.433Z</time></trkpt><trkpt lat="45.3203971" lon="10.6834935"><ele>89.33333333333333</ele><time>2026-04-12T08:34:03.431Z</time></trkpt><trkpt lat="45.3203437" lon="10.6835492"><ele>87.66666666666666</ele><time>2026-04-12T08:34:04.437Z</time></trkpt><trkpt lat="45.3202895" lon="10.6836082"><ele>86.0</ele><time>2026-04-12T08:34:05.44Z</time></trkpt><trkpt lat="45.3202314" lon="10.6836581"><ele>84.33333333333333</ele><time>2026-04-12T08:34:06.44Z</time></trkpt><trkpt lat="45.3201231" lon="10.6837324"><ele>82.66666666666667</ele><time>2026-04-12T08:34:08.434Z</time></trkpt><trkpt lat="45.3200294" lon="10.6837865"><ele>81.0</ele><time>2026-04-12T08:34:10.444Z</time></trkpt><trkpt lat="45.3199617" lon="10.6838472"><ele>80.5</ele><time>2026-04-12T08:34:12.445Z</time></trkpt><trkpt lat="45.3199434" lon="10.6839552"><ele>80.0</ele><time>2026-04-12T08:34:15.436Z</time></trkpt><trkpt lat="45.3199986" lon="10.6840645"><ele>79.5</ele><time>2026-04-12T08:34:17.436Z</time></trkpt><trkpt lat="45.3200383" lon="10.6841388"><ele>79.0</ele><time>2026-04-12T08:34:18.434Z</time></trkpt><trkpt lat="45.3200816" lon="10.6842247"><ele>78.5</ele><time>2026-04-12T08:34:19.435Z</time></trkpt><trkpt lat="45.3201245" lon="10.6843177"><ele>78.0</ele><time>2026-04-12T08:34:20.433Z</time></trkpt><trkpt lat="45.320162" lon="10.6844167"><ele>77.33333333333333</ele><time>2026-04-12T08:34:21.434Z</time></trkpt><trkpt lat="45.320198" lon="10.6845108"><ele>76.66666666666667</ele><time>2026-04-12T08:34:22.445Z</time></trkpt><trkpt lat="45.3202334" lon="10.6845999"><ele>76.0</ele><time>2026-04-12T08:34:23.43Z</time></trkpt><trkpt lat="45.3202776" lon="10.68469"><ele>75.33333333333334</ele><time>2026-04-12T08:34:24.435Z</time></trkpt><trkpt lat="45.3203224" lon="10.6847811"><ele>74.66666666666667</ele><time>2026-04-12T08:34:25.435Z</time></trkpt><trkpt lat="45.3203665" lon="10.6848717"><ele>74.0</ele><time>2026-04-12T08:34:26.44Z</time></trkpt><trkpt lat="45.3204037" lon="10.6849583"><ele>74.0</ele><time>2026-04-12T08:34:27.442Z</time></trkpt><trkpt lat="45.3204491" lon="10.6850512"><ele>74.0</ele><time>2026-04-12T08:34:29.44Z</time></trkpt><trkpt lat="45.3204818" lon="10.6851552"><ele>74.0</ele><time>2026-04-12T08:34:44.439Z</time></trkpt><trkpt lat="45.3205181" lon="10.6852636"><ele>74.0</ele><time>2026-04-12T08:34:46.43Z</time></trkpt><trkpt lat="45.320549" lon="10.6853476"><ele>74.0</ele><time>2026-04-12T08:34:47.434Z</time></trkpt><trkpt lat="45.3205962" lon="10.6854885"><ele>74.0</ele><time>2026-04-12T08:34:49.425Z</time></trkpt><trkpt lat="45.3206253" lon="10.6855686"><ele>75.0</ele><time>2026-04-12T08:34:51.438Z</time></trkpt><trkpt lat="45.3206724" lon="10.6856514"><ele>76.0</ele><time>2026-04-12T08:34:58.428Z</time></trkpt><trkpt lat="45.3207048" lon="10.6857332"><ele>77.0</ele><time>2026-04-12T08:35:00.434Z</time></trkpt><trkpt lat="45.3207579" lon="10.6858155"><ele>78.0</ele><time>2026-04-12T08:35:02.433Z</time></trkpt><trkpt lat="45.3207971" lon="10.6859042"><ele>79.0</ele><time>2026-04-12T08:35:04.434Z</time></trkpt><trkpt lat="45.3208476" lon="10.6859856"><ele>80.0</ele><time>2026-04-12T08:35:06.434Z</time></trkpt><trkpt lat="45.3209041" lon="10.6860685"><ele>79.16666666666667</ele><time>2026-04-12T08:35:09.441Z</time></trkpt><trkpt lat="45.3209572" lon="10.686151"><ele>78.33333333333334</ele><time>2026-04-12T08:35:13.432Z</time></trkpt><trkpt lat="45.321021" lon="10.6862296"><ele>77.5</ele><time>2026-04-12T08:35:17.434Z</time></trkpt><trkpt lat="45.32109" lon="10.6863091"><ele>76.66666666666667</ele><time>2026-04-12T08:35:20.435Z</time></trkpt><trkpt lat="45.3211419" lon="10.6863828"><ele>75.83333333333333</ele><time>2026-04-12T08:35:22.429Z</time></trkpt><trkpt lat="45.3211884" lon="10.6864576"><ele>75.0</ele><time>2026-04-12T08:35:24.431Z</time></trkpt><trkpt lat="45.3212449" lon="10.6865192"><ele>75.0</ele><time>2026-04-12T08:35:28.436Z</time></trkpt><trkpt lat="45.321309" lon="10.6865873"><ele>75.0</ele><time>2026-04-12T08:35:32.435Z</time></trkpt><trkpt lat="45.3213815" lon="10.6866043"><ele>75.0</ele><time>2026-04-12T08:35:37.446Z</time></trkpt><trkpt lat="45.3214581" lon="10.6866346"><ele>75.0</ele><time>2026-04-12T08:35:41.436Z</time></trkpt><trkpt lat="45.3215538" lon="10.686629"><ele>75.0</ele><time>2026-04-12T08:35:44.438Z</time></trkpt><trkpt lat="45.3216197" lon="10.6866296"><ele>75.0</ele><time>2026-04-12T08:35:46.441Z</time></trkpt><trkpt lat="45.3216887" lon="10.6866345"><ele>76.83333333333333</ele><time>2026-04-12T08:35:48.437Z</time></trkpt><trkpt lat="45.3217409" lon="10.6865632"><ele>78.66666666666667</ele><time>2026-04-12T08:35:53.444Z</time></trkpt><trkpt lat="45.3218184" lon="10.6865155"><ele>80.5</ele><time>2026-04-12T08:35:57.429Z</time></trkpt><trkpt lat="45.3218825" lon="10.6864927"><ele>82.33333333333334</ele><time>2026-04-12T08:36:01.433Z</time></trkpt><trkpt lat="45.3219474" lon="10.6864773"><ele>84.16666666666667</ele><time>2026-04-12T08:36:04.45Z</time></trkpt><trkpt lat="45.3220205" lon="10.6864729"><ele>86.0</ele><time>2026-04-12T08:36:07.432Z</time></trkpt><trkpt lat="45.3221073" lon="10.6865152"><ele>86.00000000000001</ele><time>2026-04-12T08:36:22.442Z</time></trkpt><trkpt lat="45.3221687" lon="10.6865622"><ele>86.0</ele><time>2026-04-12T08:36:28.43Z</time></trkpt><trkpt lat="45.3222207" lon="10.6866287"><ele>86.0</ele><time>2026-04-12T08:36:33.44Z</time></trkpt><trkpt lat="45.3222821" lon="10.6866646"><ele>86.0</ele><time>2026-04-12T08:36:39.441Z</time></trkpt><trkpt lat="45.322347" lon="10.6866962"><ele>86.0</ele><time>2026-04-12T08:36:44.441Z</time></trkpt><trkpt lat="45.3224055" lon="10.6867478"><ele>86.00000000000001</ele><time>2026-04-12T08:36:47.432Z</time></trkpt><trkpt lat="45.322499" lon="10.6868035"><ele>86.0</ele><time>2026-04-12T08:36:55.431Z</time></trkpt><trkpt lat="45.3225672" lon="10.6867867"><ele>85.16666666666667</ele><time>2026-04-12T08:37:01.434Z</time></trkpt><trkpt lat="45.3226401" lon="10.686809"><ele>84.33333333333334</ele><time>2026-04-12T08:37:07.429Z</time></trkpt><trkpt lat="45.3226856" lon="10.6868717"><ele>83.5</ele><time>2026-04-12T08:37:12.437Z</time></trkpt><trkpt lat="45.3226836" lon="10.6869761"><ele>82.66666666666667</ele><time>2026-04-12T08:37:18.428Z</time></trkpt><trkpt lat="45.3226585" lon="10.6871061"><ele>81.83333333333333</ele><time>2026-04-12T08:37:21.433Z</time></trkpt><trkpt lat="45.3226665" lon="10.6872617"><ele>81.0</ele><time>2026-04-12T08:37:34.435Z</time></trkpt><trkpt lat="45.3227282" lon="10.6872972"><ele>81.0</ele><time>2026-04-12T08:37:36.436Z</time></trkpt><trkpt lat="45.3228051" lon="10.6873281"><ele>81.0</ele><time>2026-04-12T08:37:40.434Z</time></trkpt><trkpt lat="45.3228802" lon="10.6873743"><ele>81.0</ele><time>2026-04-12T08:37:45.428Z</time></trkpt><trkpt lat="45.3229531" lon="10.6873994"><ele>81.0</ele><time>2026-04-12T08:37:48.431Z</time></trkpt><trkpt lat="45.3230246" lon="10.6873801"><ele>81.0</ele><time>2026-04-12T08:37:51.427Z</time></trkpt><trkpt lat="45.3230926" lon="10.6873443"><ele>81.0</ele><time>2026-04-12T08:37:54.433Z</time></trkpt><trkpt lat="45.3231768" lon="10.6873485"><ele>81.33333333333333</ele><time>2026-04-12T08:37:59.435Z</time></trkpt><trkpt lat="45.3232535" lon="10.6873532"><ele>81.66666666666667</ele><time>2026-04-12T08:38:03.44Z</time></trkpt><trkpt lat="45.3233191" lon="10.6873422"><ele>82.0</ele><time>2026-04-12T08:38:06.428Z</time></trkpt><trkpt lat="45.3233855" lon="10.6873447"><ele>82.33333333333334</ele><time>2026-04-12T08:38:08.436Z</time></trkpt><trkpt lat="45.3234895" lon="10.6873499"><ele>82.66666666666667</ele><time>2026-04-12T08:38:42.443Z</time></trkpt><trkpt lat="45.3235847" lon="10.6873352"><ele>83.0</ele><time>2026-04-12T08:42:32.427Z</time></trkpt><trkpt lat="45.3236432" lon="10.6873737"><ele>83.0</ele><time>2026-04-12T08:42:37.438Z</time></trkpt><trkpt lat="45.3237046" lon="10.687438"><ele>83.0</ele><time>2026-04-12T08:42:45.44Z</time></trkpt><trkpt lat="45.3237925" lon="10.6874534"><ele>83.0</ele><time>2026-04-12T08:42:49.433Z</time></trkpt><trkpt lat="45.3238631" lon="10.6874776"><ele>83.0</ele><time>2026-04-12T08:42:53.442Z</time></trkpt><trkpt lat="45.3239632" lon="10.6875165"><ele>83.0</ele><time>2026-04-12T08:43:04.433Z</time></trkpt><trkpt lat="45.3240384" lon="10.6875119"><ele>83.0</ele><time>2026-04-12T08:43:11.428Z</time></trkpt><trkpt lat="45.324102" lon="10.6874643"><ele>82.66666666666667</ele><time>2026-04-12T08:43:18.439Z</time></trkpt><trkpt lat="45.3241529" lon="10.6874036"><ele>82.33333333333334</ele><time>2026-04-12T08:43:22.432Z</time></trkpt><trkpt lat="45.324199" lon="10.6873409"><ele>82.0</ele><time>2026-04-12T08:43:27.431Z</time></trkpt><trkpt lat="45.3242733" lon="10.6873245"><ele>81.66666666666667</ele><time>2026-04-12T08:43:51.434Z</time></trkpt><trkpt lat="45.3243478" lon="10.6874079"><ele>81.33333333333333</ele><time>2026-04-12T08:43:53.441Z</time></trkpt><trkpt lat="45.324422" lon="10.6874994"><ele>81.0</ele><time>2026-04-12T08:43:55.43Z</time></trkpt><trkpt lat="45.3245019" lon="10.6876069"><ele>81.0</ele><time>2026-04-12T08:43:57.43Z</time></trkpt><trkpt lat="45.3245763" lon="10.687713"><ele>81.0</ele><time>2026-04-12T08:43:59.425Z</time></trkpt><trkpt lat="45.3246394" lon="10.6877839"><ele>81.0</ele><time>2026-04-12T08:44:01.436Z</time></trkpt><trkpt lat="45.3247176" lon="10.6878182"><ele>81.0</ele><time>2026-04-12T08:44:03.431Z</time></trkpt><trkpt lat="45.3247861" lon="10.6878202"><ele>81.0</ele><time>2026-04-12T08:44:04.434Z</time></trkpt><trkpt lat="45.3248571" lon="10.6878234"><ele>81.0</ele><time>2026-04-12T08:44:05.431Z</time></trkpt><trkpt lat="45.3249354" lon="10.6878165"><ele>79.6</ele><time>2026-04-12T08:44:06.431Z</time></trkpt><trkpt lat="45.3250273" lon="10.6878357"><ele>78.19999999999999</ele><time>2026-04-12T08:44:07.433Z</time></trkpt><trkpt lat="45.3251176" lon="10.6878469"><ele>76.80000000000001</ele><time>2026-04-12T08:44:08.432Z</time></trkpt><trkpt lat="45.3252212" lon="10.6878495"><ele>75.4</ele><time>2026-04-12T08:44:09.433Z</time></trkpt><trkpt lat="45.3253101" lon="10.6878522"><ele>74.0</ele><time>2026-04-12T08:44:10.439Z</time></trkpt><trkpt lat="45.3253946" lon="10.6878601"><ele>74.0</ele><time>2026-04-12T08:44:11.441Z</time></trkpt><trkpt lat="45.3254762" lon="10.6878749"><ele>74.0</ele><time>2026-04-12T08:44:12.435Z</time></trkpt><trkpt lat="45.3255622" lon="10.687894"><ele>74.0</ele><time>2026-04-12T08:44:13.439Z</time></trkpt><trkpt lat="45.3256502" lon="10.6879094"><ele>74.0</ele><time>2026-04-12T08:44:14.437Z</time></trkpt><trkpt lat="45.3257406" lon="10.6879097"><ele>74.0</ele><time>2026-04-12T08:44:15.435Z</time></trkpt><trkpt lat="45.3258106" lon="10.6879094"><ele>74.0</ele><time>2026-04-12T08:44:16.437Z</time></trkpt><trkpt lat="45.3258973" lon="10.6879139"><ele>74.42857142857143</ele><time>2026-04-12T08:44:18.432Z</time></trkpt><trkpt lat="45.3259735" lon="10.6879209"><ele>74.85714285714286</ele><time>2026-04-12T08:44:21.422Z</time></trkpt><trkpt lat="45.326044" lon="10.687931"><ele>75.28571428571428</ele><time>2026-04-12T08:44:24.435Z</time></trkpt><trkpt lat="45.3261057" lon="10.6879769"><ele>75.71428571428572</ele><time>2026-04-12T08:44:48.436Z</time></trkpt><trkpt lat="45.3261615" lon="10.6880276"><ele>76.14285714285714</ele><time>2026-04-12T08:45:01.436Z</time></trkpt><trkpt lat="45.3262213" lon="10.6879979"><ele>76.57142857142857</ele><time>2026-04-12T08:45:06.435Z</time></trkpt><trkpt lat="45.3262886" lon="10.6879308"><ele>77.0</ele><time>2026-04-12T08:45:10.428Z</time></trkpt><trkpt lat="45.3263774" lon="10.6878957"><ele>77.0</ele><time>2026-04-12T08:45:37.444Z</time></trkpt><trkpt lat="45.3263164" lon="10.6878732"><ele>77.0</ele><time>2026-04-12T08:45:42.441Z</time></trkpt><trkpt lat="45.3262424" lon="10.6878559"><ele>77.0</ele><time>2026-04-12T08:46:29.439Z</time></trkpt><trkpt lat="45.3263125" lon="10.6879066"><ele>77.0</ele><time>2026-04-12T08:47:17.436Z</time></trkpt><trkpt lat="45.3263756" lon="10.68793"><ele>77.0</ele><time>2026-04-12T08:48:45.441Z</time></trkpt><trkpt lat="45.3264725" lon="10.687944"><ele>77.0</ele><time>2026-04-12T08:49:42.427Z</time></trkpt><trkpt lat="45.326548" lon="10.6879821"><ele>78.0</ele><time>2026-04-12T08:49:44.433Z</time></trkpt><trkpt lat="45.3266446" lon="10.6880277"><ele>79.0</ele><time>2026-04-12T08:49:46.432Z</time></trkpt><trkpt lat="45.326754" lon="10.6880856"><ele>80.0</ele><time>2026-04-12T08:49:48.437Z</time></trkpt><trkpt lat="45.3268646" lon="10.6881461"><ele>81.0</ele><time>2026-04-12T08:49:50.441Z</time></trkpt><trkpt lat="45.3269733" lon="10.6882127"><ele>81.0</ele><time>2026-04-12T08:49:52.428Z</time></trkpt><trkpt lat="45.3270309" lon="10.6882517"><ele>81.0</ele><time>2026-04-12T08:49:53.438Z</time></trkpt><trkpt lat="45.3270971" lon="10.6882933"><ele>81.0</ele><time>2026-04-12T08:49:54.438Z</time></trkpt><trkpt lat="45.327166" lon="10.688338"><ele>81.0</ele><time>2026-04-12T08:49:55.449Z</time></trkpt><trkpt lat="45.3272361" lon="10.6883867"><ele>81.0</ele><time>2026-04-12T08:49:56.441Z</time></trkpt><trkpt lat="45.3273091" lon="10.6884452"><ele>81.0</ele><time>2026-04-12T08:49:57.442Z</time></trkpt><trkpt lat="45.327378" lon="10.6885087"><ele>80.66666666666667</ele><time>2026-04-12T08:49:58.448Z</time></trkpt><trkpt lat="45.3274492" lon="10.6885801"><ele>80.33333333333333</ele><time>2026-04-12T08:49:59.432Z</time></trkpt><trkpt lat="45.3275215" lon="10.6886468"><ele>80.0</ele><time>2026-04-12T08:50:00.441Z</time></trkpt><trkpt lat="45.3275917" lon="10.6886988"><ele>79.66666666666666</ele><time>2026-04-12T08:50:01.443Z</time></trkpt><trkpt lat="45.3276549" lon="10.688733"><ele>79.33333333333333</ele><time>2026-04-12T08:50:02.429Z</time></trkpt><trkpt lat="45.3277581" lon="10.6887616"><ele>79.0</ele><time>2026-04-12T08:50:04.435Z</time></trkpt><trkpt lat="45.3278461" lon="10.6887671"><ele>78.0</ele><time>2026-04-12T08:50:06.434Z</time></trkpt><trkpt lat="45.327919" lon="10.6887929"><ele>77.0</ele><time>2026-04-12T08:50:08.435Z</time></trkpt><trkpt lat="45.3280113" lon="10.6888461"><ele>76.0</ele><time>2026-04-12T08:50:10.437Z</time></trkpt><trkpt lat="45.3280788" lon="10.6888527"><ele>75.0</ele><time>2026-04-12T08:50:11.444Z</time></trkpt><trkpt lat="45.3281504" lon="10.6888358"><ele>74.0</ele><time>2026-04-12T08:50:12.436Z</time></trkpt><trkpt lat="45.3282191" lon="10.6888156"><ele>73.0</ele><time>2026-04-12T08:50:13.434Z</time></trkpt><trkpt lat="45.3283284" lon="10.6888205"><ele>72.83333333333333</ele><time>2026-04-12T08:50:15.439Z</time></trkpt><trkpt lat="45.3283742" lon="10.6889354"><ele>72.66666666666666</ele><time>2026-04-12T08:50:17.434Z</time></trkpt><trkpt lat="45.3283684" lon="10.689025"><ele>72.5</ele><time>2026-04-12T08:50:18.44Z</time></trkpt><trkpt lat="45.3283539" lon="10.6891358"><ele>72.33333333333333</ele><time>2026-04-12T08:50:19.434Z</time></trkpt><trkpt lat="45.3283424" lon="10.6892632"><ele>72.16666666666667</ele><time>2026-04-12T08:50:20.436Z</time></trkpt><trkpt lat="45.3283287" lon="10.6893968"><ele>72.0</ele><time>2026-04-12T08:50:21.44Z</time></trkpt><trkpt lat="45.3283128" lon="10.689537"><ele>72.0</ele><time>2026-04-12T08:50:22.439Z</time></trkpt><trkpt lat="45.3282974" lon="10.689679"><ele>72.0</ele><time>2026-04-12T08:50:23.441Z</time></trkpt><trkpt lat="45.3282792" lon="10.6898176"><ele>72.0</ele><time>2026-04-12T08:50:24.441Z</time></trkpt><trkpt lat="45.3282593" lon="10.6899476"><ele>72.0</ele><time>2026-04-12T08:50:25.437Z</time></trkpt><trkpt lat="45.3282395" lon="10.6900715"><ele>72.0</ele><time>2026-04-12T08:50:26.441Z</time></trkpt><trkpt lat="45.3282185" lon="10.6901932"><ele>71.8</ele><time>2026-04-12T08:50:27.448Z</time></trkpt><trkpt lat="45.3281972" lon="10.6903201"><ele>71.6</ele><time>2026-04-12T08:50:28.437Z</time></trkpt><trkpt lat="45.3281736" lon="10.6904565"><ele>71.39999999999999</ele><time>2026-04-12T08:50:29.44Z</time></trkpt><trkpt lat="45.3281487" lon="10.6905986"><ele>71.2</ele><time>2026-04-12T08:50:30.435Z</time></trkpt><trkpt lat="45.3281235" lon="10.690745"><ele>71.0</ele><time>2026-04-12T08:50:31.435Z</time></trkpt><trkpt lat="45.3280975" lon="10.690894"><ele>71.0</ele><time>2026-04-12T08:50:32.434Z</time></trkpt><trkpt lat="45.3280677" lon="10.6910416"><ele>71.0</ele><time>2026-04-12T08:50:33.437Z</time></trkpt><trkpt lat="45.3280374" lon="10.6911885"><ele>71.0</ele><time>2026-04-12T08:50:34.445Z</time></trkpt><trkpt lat="45.3280104" lon="10.6913338"><ele>71.0</ele><time>2026-04-12T08:50:35.445Z</time></trkpt><trkpt lat="45.3279873" lon="10.6914795"><ele>71.0</ele><time>2026-04-12T08:50:36.428Z</time></trkpt><trkpt lat="45.3279751" lon="10.6916298"><ele>71.0</ele><time>2026-04-12T08:50:37.436Z</time></trkpt><trkpt lat="45.327975" lon="10.6917882"><ele>71.0</ele><time>2026-04-12T08:50:38.445Z</time></trkpt><trkpt lat="45.327982" lon="10.6919506"><ele>71.0</ele><time>2026-04-12T08:50:39.437Z</time></trkpt><trkpt lat="45.3279892" lon="10.6921132"><ele>71.0</ele><time>2026-04-12T08:50:40.447Z</time></trkpt><trkpt lat="45.3279958" lon="10.6922661"><ele>71.0</ele><time>2026-04-12T08:50:41.432Z</time></trkpt><trkpt lat="45.3280041" lon="10.6924134"><ele>71.8</ele><time>2026-04-12T08:50:42.438Z</time></trkpt><trkpt lat="45.3280071" lon="10.6925585"><ele>72.6</ele><time>2026-04-12T08:50:43.439Z</time></trkpt><trkpt lat="45.3279977" lon="10.6927015"><ele>73.4</ele><time>2026-04-12T08:50:44.435Z</time></trkpt><trkpt lat="45.3279728" lon="10.6928375"><ele>74.2</ele><time>2026-04-12T08:50:45.431Z</time></trkpt><trkpt lat="45.3279273" lon="10.6929694"><ele>75.0</ele><time>2026-04-12T08:50:46.437Z</time></trkpt><trkpt lat="45.3278676" lon="10.6930971"><ele>75.0</ele><time>2026-04-12T08:50:47.434Z</time></trkpt><trkpt lat="45.3278044" lon="10.693224"><ele>75.0</ele><time>2026-04-12T08:50:48.431Z</time></trkpt><trkpt lat="45.3277424" lon="10.6933568"><ele>75.0</ele><time>2026-04-12T08:50:49.437Z</time></trkpt><trkpt lat="45.3276801" lon="10.6934907"><ele>75.0</ele><time>2026-04-12T08:50:50.437Z</time></trkpt><trkpt lat="45.3276189" lon="10.6936397"><ele>74.8</ele><time>2026-04-12T08:50:51.439Z</time></trkpt><trkpt lat="45.3275651" lon="10.693792"><ele>74.6</ele><time>2026-04-12T08:50:52.443Z</time></trkpt><trkpt lat="45.3275212" lon="10.6939346"><ele>74.4</ele><time>2026-04-12T08:50:53.439Z</time></trkpt><trkpt lat="45.3274816" lon="10.6940687"><ele>74.2</ele><time>2026-04-12T08:50:54.442Z</time></trkpt><trkpt lat="45.3274499" lon="10.694199"><ele>74.0</ele><time>2026-04-12T08:50:55.442Z</time></trkpt><trkpt lat="45.3274215" lon="10.6943315"><ele>74.16666666666667</ele><time>2026-04-12T08:50:56.436Z</time></trkpt><trkpt lat="45.3273863" lon="10.6944577"><ele>74.33333333333334</ele><time>2026-04-12T08:50:57.437Z</time></trkpt><trkpt lat="45.3273537" lon="10.6945734"><ele>74.5</ele><time>2026-04-12T08:50:58.441Z</time></trkpt><trkpt lat="45.3273255" lon="10.6946813"><ele>74.66666666666667</ele><time>2026-04-12T08:50:59.441Z</time></trkpt><trkpt lat="45.3273011" lon="10.6947775"><ele>74.83333333333333</ele><time>2026-04-12T08:51:00.433Z</time></trkpt><trkpt lat="45.3272959" lon="10.6949284"><ele>75.0</ele><time>2026-04-12T08:51:02.436Z</time></trkpt><trkpt lat="45.3273631" lon="10.6950179"><ele>75.0</ele><time>2026-04-12T08:51:04.44Z</time></trkpt><trkpt lat="45.327423" lon="10.6950511"><ele>75.0</ele><time>2026-04-12T08:51:05.436Z</time></trkpt><trkpt lat="45.3274936" lon="10.6951011"><ele>75.0</ele><time>2026-04-12T08:51:06.434Z</time></trkpt><trkpt lat="45.3275804" lon="10.6951711"><ele>75.0</ele><time>2026-04-12T08:51:07.445Z</time></trkpt><trkpt lat="45.3276763" lon="10.6952519"><ele>75.0</ele><time>2026-04-12T08:51:08.443Z</time></trkpt><trkpt lat="45.3277749" lon="10.6953327"><ele>75.0</ele><time>2026-04-12T08:51:09.427Z</time></trkpt><trkpt lat="45.3278798" lon="10.6954193"><ele>75.0</ele><time>2026-04-12T08:51:10.427Z</time></trkpt><trkpt lat="45.3279884" lon="10.6955151"><ele>75.0</ele><time>2026-04-12T08:51:11.441Z</time></trkpt><trkpt lat="45.328099" lon="10.6956153"><ele>75.0</ele><time>2026-04-12T08:51:12.434Z</time></trkpt><trkpt lat="45.3282166" lon="10.6957154"><ele>75.25</ele><time>2026-04-12T08:51:13.426Z</time></trkpt><trkpt lat="45.3283388" lon="10.6958072"><ele>75.5</ele><time>2026-04-12T08:51:14.431Z</time></trkpt><trkpt lat="45.3284611" lon="10.6958916"><ele>75.75</ele><time>2026-04-12T08:51:15.438Z</time></trkpt><trkpt lat="45.3285785" lon="10.6959748"><ele>76.0</ele><time>2026-04-12T08:51:16.437Z</time></trkpt><trkpt lat="45.3286919" lon="10.696055"><ele>76.0</ele><time>2026-04-12T08:51:17.439Z</time></trkpt><trkpt lat="45.3288006" lon="10.6961341"><ele>76.0</ele><time>2026-04-12T08:51:18.437Z</time></trkpt><trkpt lat="45.3289068" lon="10.6962106"><ele>76.0</ele><time>2026-04-12T08:51:19.435Z</time></trkpt><trkpt lat="45.3290119" lon="10.6962843"><ele>76.0</ele><time>2026-04-12T08:51:20.434Z</time></trkpt><trkpt lat="45.3291111" lon="10.696364"><ele>76.0</ele><time>2026-04-12T08:51:21.439Z</time></trkpt><trkpt lat="45.3292069" lon="10.6964565"><ele>76.0</ele><time>2026-04-12T08:51:22.44Z</time></trkpt><trkpt lat="45.329304" lon="10.6965664"><ele>76.0</ele><time>2026-04-12T08:51:23.436Z</time></trkpt><trkpt lat="45.3294011" lon="10.696689"><ele>76.0</ele><time>2026-04-12T08:51:24.438Z</time></trkpt><trkpt lat="45.3294927" lon="10.696811"><ele>76.0</ele><time>2026-04-12T08:51:25.436Z</time></trkpt><trkpt lat="45.3295771" lon="10.6969178"><ele>76.0</ele><time>2026-04-12T08:51:26.441Z</time></trkpt><trkpt lat="45.3296654" lon="10.6970032"><ele>76.0</ele><time>2026-04-12T08:51:27.436Z</time></trkpt><trkpt lat="45.3297727" lon="10.697078"><ele>76.0</ele><time>2026-04-12T08:51:28.434Z</time></trkpt><trkpt lat="45.3298903" lon="10.6971498"><ele>76.39999999999999</ele><time>2026-04-12T08:51:29.445Z</time></trkpt><trkpt lat="45.3300066" lon="10.6972198"><ele>76.8</ele><time>2026-04-12T08:51:30.437Z</time></trkpt><trkpt lat="45.330107" lon="10.6972996"><ele>77.19999999999999</ele><time>2026-04-12T08:51:31.438Z</time></trkpt><trkpt lat="45.3302009" lon="10.6973733"><ele>77.6</ele><time>2026-04-12T08:51:32.435Z</time></trkpt><trkpt lat="45.3302707" lon="10.6974651"><ele>78.0</ele><time>2026-04-12T08:51:33.43Z</time></trkpt><trkpt lat="45.3303334" lon="10.6975824"><ele>78.0</ele><time>2026-04-12T08:51:34.429Z</time></trkpt><trkpt lat="45.3304002" lon="10.697732"><ele>78.0</ele><time>2026-04-12T08:51:35.441Z</time></trkpt><trkpt lat="45.3304748" lon="10.6978926"><ele>78.0</ele><time>2026-04-12T08:51:36.443Z</time></trkpt><trkpt lat="45.3305545" lon="10.6980548"><ele>78.0</ele><time>2026-04-12T08:51:37.433Z</time></trkpt><trkpt lat="45.3306393" lon="10.6982226"><ele>78.5</ele><time>2026-04-12T08:51:38.44Z</time></trkpt><trkpt lat="45.330716" lon="10.69838"><ele>79.0</ele><time>2026-04-12T08:51:39.436Z</time></trkpt><trkpt lat="45.3307858" lon="10.6985295"><ele>79.5</ele><time>2026-04-12T08:51:40.436Z</time></trkpt><trkpt lat="45.3308478" lon="10.6986806"><ele>80.0</ele><time>2026-04-12T08:51:41.44Z</time></trkpt><trkpt lat="45.330901" lon="10.6988452"><ele>80.0</ele><time>2026-04-12T08:51:42.44Z</time></trkpt><trkpt lat="45.330949" lon="10.699012"><ele>80.0</ele><time>2026-04-12T08:51:43.437Z</time></trkpt><trkpt lat="45.3309919" lon="10.6991638"><ele>80.0</ele><time>2026-04-12T08:51:44.44Z</time></trkpt><trkpt lat="45.3310346" lon="10.6993007"><ele>80.0</ele><time>2026-04-12T08:51:45.433Z</time></trkpt><trkpt lat="45.3310844" lon="10.699424"><ele>80.0</ele><time>2026-04-12T08:51:46.444Z</time></trkpt><trkpt lat="45.3311388" lon="10.6995408"><ele>80.0</ele><time>2026-04-12T08:51:47.439Z</time></trkpt><trkpt lat="45.3311915" lon="10.6996457"><ele>80.0</ele><time>2026-04-12T08:51:48.431Z</time></trkpt><trkpt lat="45.331242" lon="10.6997344"><ele>80.0</ele><time>2026-04-12T08:51:49.436Z</time></trkpt><trkpt lat="45.3312885" lon="10.6998083"><ele>80.0</ele><time>2026-04-12T08:51:50.437Z</time></trkpt><trkpt lat="45.3313401" lon="10.6999181"><ele>80.0</ele><time>2026-04-12T08:51:52.444Z</time></trkpt><trkpt lat="45.3313261" lon="10.7000158"><ele>80.0</ele><time>2026-04-12T08:51:54.436Z</time></trkpt><trkpt lat="45.3312505" lon="10.7001133"><ele>80.0</ele><time>2026-04-12T08:51:56.439Z</time></trkpt><trkpt lat="45.331168" lon="10.7002084"><ele>80.0</ele><time>2026-04-12T08:51:58.446Z</time></trkpt><trkpt lat="45.3310568" lon="10.7002764"><ele>80.0</ele><time>2026-04-12T08:52:00.441Z</time></trkpt><trkpt lat="45.3309399" lon="10.7003148"><ele>80.0</ele><time>2026-04-12T08:52:02.427Z</time></trkpt><trkpt lat="45.3308358" lon="10.7003406"><ele>79.66666666666667</ele><time>2026-04-12T08:52:04.437Z</time></trkpt><trkpt lat="45.3307363" lon="10.7003618"><ele>79.33333333333334</ele><time>2026-04-12T08:52:06.438Z</time></trkpt><trkpt lat="45.3306435" lon="10.7004059"><ele>79.0</ele><time>2026-04-12T08:52:08.434Z</time></trkpt><trkpt lat="45.3305565" lon="10.7004642"><ele>78.66666666666667</ele><time>2026-04-12T08:52:10.434Z</time></trkpt><trkpt lat="45.3304844" lon="10.7005214"><ele>78.33333333333333</ele><time>2026-04-12T08:52:12.434Z</time></trkpt><trkpt lat="45.3304233" lon="10.7005511"><ele>78.0</ele><time>2026-04-12T08:52:15.43Z</time></trkpt><trkpt lat="45.3303451" lon="10.7005868"><ele>77.16666666666667</ele><time>2026-04-12T08:52:20.431Z</time></trkpt><trkpt lat="45.3302864" lon="10.7006308"><ele>76.33333333333333</ele><time>2026-04-12T08:52:24.441Z</time></trkpt><trkpt lat="45.3302064" lon="10.7006858"><ele>75.5</ele><time>2026-04-12T08:52:27.43Z</time></trkpt><trkpt lat="45.3301208" lon="10.7007155"><ele>74.66666666666666</ele><time>2026-04-12T08:52:30.431Z</time></trkpt><trkpt lat="45.330188" lon="10.7007262"><ele>73.83333333333333</ele><time>2026-04-12T08:53:40.439Z</time></trkpt><trkpt lat="45.3302689" lon="10.7006466"><ele>73.0</ele><time>2026-04-12T08:53:42.447Z</time></trkpt><trkpt lat="45.3303264" lon="10.7005969"><ele>73.0</ele><time>2026-04-12T08:57:35.436Z</time></trkpt><trkpt lat="45.3302954" lon="10.7006949"><ele>73.0</ele><time>2026-04-12T08:57:41.437Z</time></trkpt><trkpt lat="45.3302207" lon="10.700746"><ele>73.0</ele><time>2026-04-12T08:57:43.429Z</time></trkpt><trkpt lat="45.3301548" lon="10.7008175"><ele>73.0</ele><time>2026-04-12T08:57:45.443Z</time></trkpt><trkpt lat="45.3300915" lon="10.7008949"><ele>73.0</ele><time>2026-04-12T08:57:47.436Z</time></trkpt><trkpt lat="45.3300312" lon="10.7009766"><ele>73.0</ele><time>2026-04-12T08:57:49.433Z</time></trkpt><trkpt lat="45.3299737" lon="10.7010555"><ele>71.83333333333333</ele><time>2026-04-12T08:57:51.434Z</time></trkpt><trkpt lat="45.3299406" lon="10.7011676"><ele>70.66666666666666</ele><time>2026-04-12T08:57:54.435Z</time></trkpt><trkpt lat="45.3299661" lon="10.7012621"><ele>69.5</ele><time>2026-04-12T08:57:56.445Z</time></trkpt><trkpt lat="45.3300098" lon="10.7013714"><ele>68.33333333333333</ele><time>2026-04-12T08:57:58.427Z</time></trkpt><trkpt lat="45.3300538" lon="10.7014962"><ele>67.16666666666667</ele><time>2026-04-12T08:58:00.444Z</time></trkpt><trkpt lat="45.3300999" lon="10.7016248"><ele>66.0</ele><time>2026-04-12T08:58:02.431Z</time></trkpt><trkpt lat="45.3301376" lon="10.7017514"><ele>66.0</ele><time>2026-04-12T08:58:04.443Z</time></trkpt><trkpt lat="45.3301758" lon="10.7018752"><ele>66.0</ele><time>2026-04-12T08:58:06.431Z</time></trkpt><trkpt lat="45.3302205" lon="10.7019995"><ele>66.0</ele><time>2026-04-12T08:58:08.436Z</time></trkpt><trkpt lat="45.3302709" lon="10.70213"><ele>66.0</ele><time>2026-04-12T08:58:10.433Z</time></trkpt><trkpt lat="45.330322" lon="10.7022612"><ele>66.0</ele><time>2026-04-12T08:58:12.435Z</time></trkpt><trkpt lat="45.3303541" lon="10.7023894"><ele>65.33333333333333</ele><time>2026-04-12T08:58:14.44Z</time></trkpt><trkpt lat="45.3303918" lon="10.7024798"><ele>64.66666666666667</ele><time>2026-04-12T08:58:16.434Z</time></trkpt><trkpt lat="45.3304575" lon="10.7025461"><ele>64.0</ele><time>2026-04-12T08:58:19.437Z</time></trkpt><trkpt lat="45.3305472" lon="10.702549"><ele>63.333333333333336</ele><time>2026-04-12T08:58:22.421Z</time></trkpt><trkpt lat="45.3306271" lon="10.7025318"><ele>62.66666666666667</ele><time>2026-04-12T08:58:24.436Z</time></trkpt><trkpt lat="45.3307092" lon="10.7025145"><ele>62.0</ele><time>2026-04-12T08:58:26.44Z</time></trkpt><trkpt lat="45.3307908" lon="10.7024954"><ele>63.8</ele><time>2026-04-12T08:58:28.433Z</time></trkpt><trkpt lat="45.330877" lon="10.7024793"><ele>65.6</ele><time>2026-04-12T08:58:30.444Z</time></trkpt><trkpt lat="45.3309614" lon="10.7024702"><ele>67.39999999999999</ele><time>2026-04-12T08:58:32.434Z</time></trkpt><trkpt lat="45.3310552" lon="10.7024742"><ele>69.2</ele><time>2026-04-12T08:58:34.435Z</time></trkpt><trkpt lat="45.3311581" lon="10.7024861"><ele>71.0</ele><time>2026-04-12T08:58:36.444Z</time></trkpt><trkpt lat="45.331265" lon="10.7024928"><ele>71.0</ele><time>2026-04-12T08:58:38.438Z</time></trkpt><trkpt lat="45.3313773" lon="10.7025068"><ele>71.0</ele><time>2026-04-12T08:58:40.44Z</time></trkpt><trkpt lat="45.3314435" lon="10.7025239"><ele>71.0</ele><time>2026-04-12T08:58:41.443Z</time></trkpt><trkpt lat="45.3315122" lon="10.7025446"><ele>71.0</ele><time>2026-04-12T08:58:42.446Z</time></trkpt><trkpt lat="45.3315843" lon="10.7025702"><ele>71.0</ele><time>2026-04-12T08:58:43.443Z</time></trkpt><trkpt lat="45.3316633" lon="10.7026035"><ele>71.0</ele><time>2026-04-12T08:58:44.437Z</time></trkpt><trkpt lat="45.3317398" lon="10.702644"><ele>72.0</ele><time>2026-04-12T08:58:45.446Z</time></trkpt><trkpt lat="45.3318079" lon="10.7026792"><ele>73.0</ele><time>2026-04-12T08:58:46.435Z</time></trkpt><trkpt lat="45.3318705" lon="10.7027135"><ele>74.0</ele><time>2026-04-12T08:58:47.431Z</time></trkpt><trkpt lat="45.331974" lon="10.7027867"><ele>75.0</ele><time>2026-04-12T08:58:49.437Z</time></trkpt><trkpt lat="45.3320594" lon="10.7028666"><ele>76.0</ele><time>2026-04-12T08:58:51.437Z</time></trkpt><trkpt lat="45.3321448" lon="10.7029687"><ele>76.16666666666666</ele><time>2026-04-12T08:58:53.441Z</time></trkpt><trkpt lat="45.3321947" lon="10.7030495"><ele>76.33333333333333</ele><time>2026-04-12T08:58:55.431Z</time></trkpt><trkpt lat="45.3322764" lon="10.7031214"><ele>76.5</ele><time>2026-04-12T08:58:58.441Z</time></trkpt><trkpt lat="45.3323424" lon="10.7031759"><ele>76.66666666666667</ele><time>2026-04-12T08:59:00.434Z</time></trkpt><trkpt lat="45.3324049" lon="10.703231"><ele>76.83333333333334</ele><time>2026-04-12T08:59:02.438Z</time></trkpt><trkpt lat="45.3324868" lon="10.7033005"><ele>77.0</ele><time>2026-04-12T08:59:04.435Z</time></trkpt><trkpt lat="45.332584" lon="10.7033696"><ele>77.6</ele><time>2026-04-12T08:59:06.426Z</time></trkpt><trkpt lat="45.332691" lon="10.7034427"><ele>78.2</ele><time>2026-04-12T08:59:08.437Z</time></trkpt><trkpt lat="45.3327628" lon="10.7034915"><ele>78.8</ele><time>2026-04-12T08:59:09.439Z</time></trkpt><trkpt lat="45.3328219" lon="10.7035303"><ele>79.4</ele><time>2026-04-12T08:59:10.434Z</time></trkpt><trkpt lat="45.3329371" lon="10.7036073"><ele>80.0</ele><time>2026-04-12T08:59:12.433Z</time></trkpt><trkpt lat="45.3329921" lon="10.7036651"><ele>80.16666666666667</ele><time>2026-04-12T08:59:13.438Z</time></trkpt><trkpt lat="45.3330447" lon="10.7037316"><ele>80.33333333333334</ele><time>2026-04-12T08:59:14.434Z</time></trkpt><trkpt lat="45.3331097" lon="10.7038034"><ele>80.5</ele><time>2026-04-12T08:59:15.437Z</time></trkpt><trkpt lat="45.3331631" lon="10.7038698"><ele>80.66666666666667</ele><time>2026-04-12T08:59:16.432Z</time></trkpt><trkpt lat="45.3332246" lon="10.703935"><ele>80.83333333333333</ele><time>2026-04-12T08:59:17.435Z</time></trkpt><trkpt lat="45.3332904" lon="10.7039944"><ele>81.0</ele><time>2026-04-12T08:59:18.429Z</time></trkpt><trkpt lat="45.3333605" lon="10.7040573"><ele>81.16666666666667</ele><time>2026-04-12T08:59:19.435Z</time></trkpt><trkpt lat="45.3334344" lon="10.7041218"><ele>81.33333333333333</ele><time>2026-04-12T08:59:20.432Z</time></trkpt><trkpt lat="45.3335057" lon="10.7041837"><ele>81.5</ele><time>2026-04-12T08:59:21.44Z</time></trkpt><trkpt lat="45.3335865" lon="10.7042448"><ele>81.66666666666666</ele><time>2026-04-12T08:59:22.44Z</time></trkpt><trkpt lat="45.3336694" lon="10.7043076"><ele>81.83333333333333</ele><time>2026-04-12T08:59:23.431Z</time></trkpt><trkpt lat="45.333749" lon="10.7043655"><ele>82.0</ele><time>2026-04-12T08:59:24.421Z</time></trkpt><trkpt lat="45.3338231" lon="10.7044154"><ele>82.16666666666666</ele><time>2026-04-12T08:59:25.442Z</time></trkpt><trkpt lat="45.3338896" lon="10.7044573"><ele>82.33333333333333</ele><time>2026-04-12T08:59:26.435Z</time></trkpt><trkpt lat="45.3339851" lon="10.704507"><ele>82.5</ele><time>2026-04-12T08:59:28.435Z</time></trkpt><trkpt lat="45.3340758" lon="10.7045543"><ele>82.66666666666667</ele><time>2026-04-12T08:59:30.428Z</time></trkpt><trkpt lat="45.3341191" lon="10.7046194"><ele>82.83333333333334</ele><time>2026-04-12T08:59:32.436Z</time></trkpt><trkpt lat="45.334092" lon="10.7047409"><ele>83.0</ele><time>2026-04-12T08:59:34.438Z</time></trkpt><trkpt lat="45.3340537" lon="10.7048318"><ele>83.0</ele><time>2026-04-12T08:59:35.432Z</time></trkpt><trkpt lat="45.334025" lon="10.7049494"><ele>83.0</ele><time>2026-04-12T08:59:36.43Z</time></trkpt><trkpt lat="45.334004" lon="10.7050915"><ele>83.0</ele><time>2026-04-12T08:59:37.434Z</time></trkpt><trkpt lat="45.3339869" lon="10.7052212"><ele>83.0</ele><time>2026-04-12T08:59:38.429Z</time></trkpt><trkpt lat="45.3339761" lon="10.7053358"><ele>83.0</ele><time>2026-04-12T08:59:39.436Z</time></trkpt><trkpt lat="45.3339759" lon="10.7054355"><ele>83.0</ele><time>2026-04-12T08:59:40.435Z</time></trkpt><trkpt lat="45.3340152" lon="10.7055741"><ele>82.4</ele><time>2026-04-12T08:59:42.445Z</time></trkpt><trkpt lat="45.3341326" lon="10.7056459"><ele>81.80000000000001</ele><time>2026-04-12T08:59:44.434Z</time></trkpt><trkpt lat="45.3342208" lon="10.7056783"><ele>81.2</ele><time>2026-04-12T08:59:45.436Z</time></trkpt><trkpt lat="45.334324" lon="10.7057078"><ele>80.6</ele><time>2026-04-12T08:59:46.44Z</time></trkpt><trkpt lat="45.334428" lon="10.7057356"><ele>80.0</ele><time>2026-04-12T08:59:47.437Z</time></trkpt><trkpt lat="45.3345242" lon="10.7057586"><ele>80.0</ele><time>2026-04-12T08:59:48.433Z</time></trkpt><trkpt lat="45.3346058" lon="10.7057834"><ele>80.0</ele><time>2026-04-12T08:59:49.43Z</time></trkpt><trkpt lat="45.3346685" lon="10.7058168"><ele>80.0</ele><time>2026-04-12T08:59:50.441Z</time></trkpt><trkpt lat="45.3347272" lon="10.7059377"><ele>80.0</ele><time>2026-04-12T08:59:52.438Z</time></trkpt><trkpt lat="45.3347284" lon="10.7060368"><ele>80.0</ele><time>2026-04-12T08:59:53.44Z</time></trkpt><trkpt lat="45.3347144" lon="10.7061666"><ele>80.0</ele><time>2026-04-12T08:59:54.437Z</time></trkpt><trkpt lat="45.3346894" lon="10.7063135"><ele>80.0</ele><time>2026-04-12T08:59:55.444Z</time></trkpt><trkpt lat="45.3346564" lon="10.7064636"><ele>80.0</ele><time>2026-04-12T08:59:56.436Z</time></trkpt><trkpt lat="45.334618" lon="10.7066149"><ele>80.0</ele><time>2026-04-12T08:59:57.435Z</time></trkpt><trkpt lat="45.3345785" lon="10.7067608"><ele>80.0</ele><time>2026-04-12T08:59:58.44Z</time></trkpt><trkpt lat="45.3345417" lon="10.7068956"><ele>80.0</ele><time>2026-04-12T08:59:59.433Z</time></trkpt><trkpt lat="45.3345064" lon="10.7070122"><ele>79.33333333333334</ele><time>2026-04-12T09:00:00.431Z</time></trkpt><trkpt lat="45.3344762" lon="10.7071121"><ele>78.66666666666667</ele><time>2026-04-12T09:00:01.44Z</time></trkpt><trkpt lat="45.3344693" lon="10.7072551"><ele>78.0</ele><time>2026-04-12T09:00:03.435Z</time></trkpt><trkpt lat="45.3345426" lon="10.7073744"><ele>77.33333333333333</ele><time>2026-04-12T09:00:05.429Z</time></trkpt><trkpt lat="45.3346073" lon="10.7074304"><ele>76.66666666666666</ele><time>2026-04-12T09:00:06.436Z</time></trkpt><trkpt lat="45.3346786" lon="10.7074904"><ele>76.0</ele><time>2026-04-12T09:00:07.434Z</time></trkpt><trkpt lat="45.3347714" lon="10.7075616"><ele>76.0</ele><time>2026-04-12T09:00:08.435Z</time></trkpt><trkpt lat="45.3348654" lon="10.7076282"><ele>76.0</ele><time>2026-04-12T09:00:09.43Z</time></trkpt><trkpt lat="45.3349591" lon="10.7076956"><ele>76.0</ele><time>2026-04-12T09:00:10.429Z</time></trkpt><trkpt lat="45.3350521" lon="10.7077721"><ele>76.0</ele><time>2026-04-12T09:00:11.433Z</time></trkpt><trkpt lat="45.3351448" lon="10.707847"><ele>76.0</ele><time>2026-04-12T09:00:12.429Z</time></trkpt><trkpt lat="45.3352339" lon="10.7079247"><ele>75.39999999999999</ele><time>2026-04-12T09:00:13.436Z</time></trkpt><trkpt lat="45.3353187" lon="10.7080021"><ele>74.8</ele><time>2026-04-12T09:00:14.434Z</time></trkpt><trkpt lat="45.3353996" lon="10.708083"><ele>74.19999999999999</ele><time>2026-04-12T09:00:15.435Z</time></trkpt><trkpt lat="45.3354841" lon="10.7081567"><ele>73.6</ele><time>2026-04-12T09:00:16.433Z</time></trkpt><trkpt lat="45.3355728" lon="10.7082255"><ele>73.0</ele><time>2026-04-12T09:00:17.427Z</time></trkpt><trkpt lat="45.3356703" lon="10.7082837"><ele>73.0</ele><time>2026-04-12T09:00:18.438Z</time></trkpt><trkpt lat="45.3357598" lon="10.7083427"><ele>73.0</ele><time>2026-04-12T09:00:19.437Z</time></trkpt><trkpt lat="45.3358422" lon="10.7083874"><ele>73.0</ele><time>2026-04-12T09:00:20.439Z</time></trkpt><trkpt lat="45.3359142" lon="10.7084224"><ele>73.0</ele><time>2026-04-12T09:00:21.44Z</time></trkpt><trkpt lat="45.3360204" lon="10.708486"><ele>73.0</ele><time>2026-04-12T09:00:23.428Z</time></trkpt><trkpt lat="45.3360876" lon="10.7085251"><ele>73.0</ele><time>2026-04-12T09:00:25.437Z</time></trkpt><trkpt lat="45.336156" lon="10.7085295"><ele>73.0</ele><time>2026-04-12T09:00:27.437Z</time></trkpt><trkpt lat="45.3362333" lon="10.7085083"><ele>73.0</ele><time>2026-04-12T09:00:29.434Z</time></trkpt><trkpt lat="45.3363274" lon="10.7085369"><ele>73.0</ele><time>2026-04-12T09:00:31.42Z</time></trkpt><trkpt lat="45.3364192" lon="10.7086084"><ele>73.0</ele><time>2026-04-12T09:00:33.434Z</time></trkpt><trkpt lat="45.3364749" lon="10.7086505"><ele>73.0</ele><time>2026-04-12T09:00:34.43Z</time></trkpt><trkpt lat="45.3365435" lon="10.7086962"><ele>71.66666666666666</ele><time>2026-04-12T09:00:35.428Z</time></trkpt><trkpt lat="45.3366165" lon="10.7087253"><ele>70.33333333333333</ele><time>2026-04-12T09:00:36.456Z</time></trkpt><trkpt lat="45.3366846" lon="10.7087499"><ele>69.0</ele><time>2026-04-12T09:00:37.437Z</time></trkpt><trkpt lat="45.3367571" lon="10.708754"><ele>67.66666666666667</ele><time>2026-04-12T09:00:38.429Z</time></trkpt><trkpt lat="45.3368322" lon="10.708759"><ele>66.33333333333334</ele><time>2026-04-12T09:00:39.435Z</time></trkpt><trkpt lat="45.3369156" lon="10.7087739"><ele>65.0</ele><time>2026-04-12T09:00:40.431Z</time></trkpt><trkpt lat="45.3369883" lon="10.7087981"><ele>65.0</ele><time>2026-04-12T09:00:41.428Z</time></trkpt><trkpt lat="45.3370728" lon="10.7088367"><ele>65.0</ele><time>2026-04-12T09:00:42.445Z</time></trkpt><trkpt lat="45.3371591" lon="10.7088689"><ele>65.0</ele><time>2026-04-12T09:00:43.433Z</time></trkpt><trkpt lat="45.337245" lon="10.7088884"><ele>65.0</ele><time>2026-04-12T09:00:44.432Z</time></trkpt><trkpt lat="45.3373419" lon="10.7088975"><ele>65.0</ele><time>2026-04-12T09:00:45.439Z</time></trkpt><trkpt lat="45.3374374" lon="10.7089133"><ele>66.6</ele><time>2026-04-12T09:00:46.43Z</time></trkpt><trkpt lat="45.3375341" lon="10.7089317"><ele>68.2</ele><time>2026-04-12T09:00:47.436Z</time></trkpt><trkpt lat="45.337632" lon="10.7089603"><ele>69.8</ele><time>2026-04-12T09:00:48.428Z</time></trkpt><trkpt lat="45.3377279" lon="10.7090016"><ele>71.4</ele><time>2026-04-12T09:00:49.433Z</time></trkpt><trkpt lat="45.3378144" lon="10.7090381"><ele>73.0</ele><time>2026-04-12T09:00:50.43Z</time></trkpt><trkpt lat="45.3379218" lon="10.709078"><ele>73.0</ele><time>2026-04-12T09:00:51.437Z</time></trkpt><trkpt lat="45.3380292" lon="10.7091091"><ele>73.0</ele><time>2026-04-12T09:00:52.42Z</time></trkpt><trkpt lat="45.3381346" lon="10.7091369"><ele>73.0</ele><time>2026-04-12T09:00:53.439Z</time></trkpt><trkpt lat="45.3382312" lon="10.7091783"><ele>73.0</ele><time>2026-04-12T09:00:54.433Z</time></trkpt><trkpt lat="45.3383164" lon="10.7092349"><ele>73.0</ele><time>2026-04-12T09:00:55.426Z</time></trkpt><trkpt lat="45.3383931" lon="10.7092916"><ele>73.83333333333333</ele><time>2026-04-12T09:00:56.433Z</time></trkpt><trkpt lat="45.3384763" lon="10.709342"><ele>74.66666666666666</ele><time>2026-04-12T09:00:57.438Z</time></trkpt><trkpt lat="45.3385688" lon="10.7093782"><ele>75.5</ele><time>2026-04-12T09:00:58.43Z</time></trkpt><trkpt lat="45.3386615" lon="10.7093983"><ele>76.33333333333333</ele><time>2026-04-12T09:00:59.432Z</time></trkpt><trkpt lat="45.3387533" lon="10.7094256"><ele>77.16666666666667</ele><time>2026-04-12T09:01:00.422Z</time></trkpt><trkpt lat="45.3388257" lon="10.709445"><ele>78.0</ele><time>2026-04-12T09:01:01.436Z</time></trkpt><trkpt lat="45.3389001" lon="10.7094657"><ele>76.16666666666667</ele><time>2026-04-12T09:01:02.435Z</time></trkpt><trkpt lat="45.3389767" lon="10.7094799"><ele>74.33333333333333</ele><time>2026-04-12T09:01:03.435Z</time></trkpt><trkpt lat="45.3390585" lon="10.7094987"><ele>72.5</ele><time>2026-04-12T09:01:04.444Z</time></trkpt><trkpt lat="45.3391529" lon="10.709497"><ele>70.66666666666666</ele><time>2026-04-12T09:01:05.431Z</time></trkpt><trkpt lat="45.3392489" lon="10.709493"><ele>68.83333333333333</ele><time>2026-04-12T09:01:06.429Z</time></trkpt><trkpt lat="45.3393472" lon="10.7094842"><ele>67.0</ele><time>2026-04-12T09:01:07.436Z</time></trkpt><trkpt lat="45.3394428" lon="10.7094683"><ele>67.0</ele><time>2026-04-12T09:01:08.44Z</time></trkpt><trkpt lat="45.3395337" lon="10.7094549"><ele>67.0</ele><time>2026-04-12T09:01:09.433Z</time></trkpt><trkpt lat="45.339629" lon="10.7094385"><ele>67.0</ele><time>2026-04-12T09:01:10.432Z</time></trkpt><trkpt lat="45.3397216" lon="10.7094176"><ele>67.0</ele><time>2026-04-12T09:01:11.435Z</time></trkpt><trkpt lat="45.3398092" lon="10.7093949"><ele>67.0</ele><time>2026-04-12T09:01:12.438Z</time></trkpt><trkpt lat="45.3398888" lon="10.7093727"><ele>69.6</ele><time>2026-04-12T09:01:13.432Z</time></trkpt><trkpt lat="45.3399659" lon="10.7093402"><ele>72.2</ele><time>2026-04-12T09:01:14.427Z</time></trkpt><trkpt lat="45.3400551" lon="10.7092926"><ele>74.8</ele><time>2026-04-12T09:01:15.433Z</time></trkpt><trkpt lat="45.3401511" lon="10.7092404"><ele>77.4</ele><time>2026-04-12T09:01:16.431Z</time></trkpt><trkpt lat="45.340261" lon="10.7091743"><ele>80.0</ele><time>2026-04-12T09:01:17.436Z</time></trkpt><trkpt lat="45.3403683" lon="10.7091128"><ele>80.0</ele><time>2026-04-12T09:01:18.433Z</time></trkpt><trkpt lat="45.340469" lon="10.7090719"><ele>80.0</ele><time>2026-04-12T09:01:19.436Z</time></trkpt><trkpt lat="45.3405433" lon="10.7090406"><ele>80.0</ele><time>2026-04-12T09:01:20.441Z</time></trkpt><trkpt lat="45.3406056" lon="10.7090018"><ele>80.0</ele><time>2026-04-12T09:01:21.444Z</time></trkpt><trkpt lat="45.3406728" lon="10.7089587"><ele>80.0</ele><time>2026-04-12T09:01:22.44Z</time></trkpt><trkpt lat="45.3407662" lon="10.7089149"><ele>80.0</ele><time>2026-04-12T09:01:23.436Z</time></trkpt><trkpt lat="45.3408719" lon="10.7088508"><ele>78.75</ele><time>2026-04-12T09:01:24.436Z</time></trkpt><trkpt lat="45.3409831" lon="10.7087838"><ele>77.5</ele><time>2026-04-12T09:01:25.434Z</time></trkpt><trkpt lat="45.3410997" lon="10.7086999"><ele>76.25</ele><time>2026-04-12T09:01:26.436Z</time></trkpt><trkpt lat="45.3412379" lon="10.7086366"><ele>75.0</ele><time>2026-04-12T09:01:27.438Z</time></trkpt><trkpt lat="45.3413685" lon="10.7085832"><ele>76.75</ele><time>2026-04-12T09:01:28.434Z</time></trkpt><trkpt lat="45.3414973" lon="10.7085216"><ele>78.5</ele><time>2026-04-12T09:01:29.433Z</time></trkpt><trkpt lat="45.3416266" lon="10.7084585"><ele>80.25</ele><time>2026-04-12T09:01:30.435Z</time></trkpt><trkpt lat="45.3417542" lon="10.7084011"><ele>82.0</ele><time>2026-04-12T09:01:31.438Z</time></trkpt><trkpt lat="45.3418715" lon="10.7083579"><ele>82.0</ele><time>2026-04-12T09:01:32.436Z</time></trkpt><trkpt lat="45.3419794" lon="10.7083202"><ele>82.0</ele><time>2026-04-12T09:01:33.436Z</time></trkpt><trkpt lat="45.3420795" lon="10.7082883"><ele>82.0</ele><time>2026-04-12T09:01:34.424Z</time></trkpt><trkpt lat="45.3421732" lon="10.7082632"><ele>82.0</ele><time>2026-04-12T09:01:35.425Z</time></trkpt><trkpt lat="45.3422619" lon="10.7082439"><ele>82.0</ele><time>2026-04-12T09:01:36.432Z</time></trkpt><trkpt lat="45.3423512" lon="10.7082288"><ele>81.5</ele><time>2026-04-12T09:01:37.445Z</time></trkpt><trkpt lat="45.3424521" lon="10.7082138"><ele>81.0</ele><time>2026-04-12T09:01:38.436Z</time></trkpt><trkpt lat="45.3425796" lon="10.7082202"><ele>80.5</ele><time>2026-04-12T09:01:39.434Z</time></trkpt><trkpt lat="45.3427203" lon="10.7082223"><ele>80.0</ele><time>2026-04-12T09:01:40.436Z</time></trkpt><trkpt lat="45.342863" lon="10.7082207"><ele>80.0</ele><time>2026-04-12T09:01:41.441Z</time></trkpt><trkpt lat="45.3430022" lon="10.70822"><ele>80.0</ele><time>2026-04-12T09:01:42.444Z</time></trkpt><trkpt lat="45.343131" lon="10.7082087"><ele>80.0</ele><time>2026-04-12T09:01:43.436Z</time></trkpt><trkpt lat="45.3432628" lon="10.7082006"><ele>80.0</ele><time>2026-04-12T09:01:44.43Z</time></trkpt><trkpt lat="45.3433956" lon="10.7081867"><ele>79.25</ele><time>2026-04-12T09:01:45.435Z</time></trkpt><trkpt lat="45.3435222" lon="10.7081749"><ele>78.5</ele><time>2026-04-12T09:01:46.432Z</time></trkpt><trkpt lat="45.343644" lon="10.7081628"><ele>77.75</ele><time>2026-04-12T09:01:47.429Z</time></trkpt><trkpt lat="45.3437628" lon="10.7081506"><ele>77.0</ele><time>2026-04-12T09:01:48.429Z</time></trkpt><trkpt lat="45.3438737" lon="10.7081411"><ele>76.25</ele><time>2026-04-12T09:01:49.429Z</time></trkpt><trkpt lat="45.3439754" lon="10.7081362"><ele>75.5</ele><time>2026-04-12T09:01:50.437Z</time></trkpt><trkpt lat="45.3440882" lon="10.7081451"><ele>74.75</ele><time>2026-04-12T09:01:51.433Z</time></trkpt><trkpt lat="45.3442125" lon="10.7081602"><ele>74.0</ele><time>2026-04-12T09:01:52.437Z</time></trkpt><trkpt lat="45.3443386" lon="10.7081747"><ele>74.0</ele><time>2026-04-12T09:01:53.435Z</time></trkpt><trkpt lat="45.3444605" lon="10.7081922"><ele>74.0</ele><time>2026-04-12T09:01:54.437Z</time></trkpt><trkpt lat="45.3445869" lon="10.7082137"><ele>74.0</ele><time>2026-04-12T09:01:55.435Z</time></trkpt><trkpt lat="45.3447148" lon="10.7082389"><ele>74.0</ele><time>2026-04-12T09:01:56.431Z</time></trkpt><trkpt lat="45.3448458" lon="10.7082729"><ele>75.5</ele><time>2026-04-12T09:01:57.433Z</time></trkpt><trkpt lat="45.3449826" lon="10.7083114"><ele>77.0</ele><time>2026-04-12T09:01:58.434Z</time></trkpt><trkpt lat="45.3451203" lon="10.7083519"><ele>78.5</ele><time>2026-04-12T09:01:59.433Z</time></trkpt><trkpt lat="45.3452588" lon="10.7083925"><ele>80.0</ele><time>2026-04-12T09:02:00.429Z</time></trkpt><trkpt lat="45.345389" lon="10.7084364"><ele>80.0</ele><time>2026-04-12T09:02:01.432Z</time></trkpt><trkpt lat="45.3455112" lon="10.7084825"><ele>80.0</ele><time>2026-04-12T09:02:02.442Z</time></trkpt><trkpt lat="45.3456278" lon="10.7085227"><ele>80.0</ele><time>2026-04-12T09:02:03.434Z</time></trkpt><trkpt lat="45.3457383" lon="10.7085574"><ele>80.0</ele><time>2026-04-12T09:02:04.44Z</time></trkpt><trkpt lat="45.3458424" lon="10.7085912"><ele>75.5</ele><time>2026-04-12T09:02:05.439Z</time></trkpt><trkpt lat="45.3459491" lon="10.7086251"><ele>71.0</ele><time>2026-04-12T09:02:06.441Z</time></trkpt><trkpt lat="45.3460606" lon="10.7086589"><ele>66.5</ele><time>2026-04-12T09:02:07.437Z</time></trkpt><trkpt lat="45.346176" lon="10.708693"><ele>62.0</ele><time>2026-04-12T09:02:08.435Z</time></trkpt><trkpt lat="45.3462926" lon="10.7087365"><ele>62.75</ele><time>2026-04-12T09:02:09.435Z</time></trkpt><trkpt lat="45.3464077" lon="10.7087982"><ele>63.5</ele><time>2026-04-12T09:02:10.437Z</time></trkpt><trkpt lat="45.3465244" lon="10.7088712"><ele>64.25</ele><time>2026-04-12T09:02:11.431Z</time></trkpt><trkpt lat="45.3466502" lon="10.7089442"><ele>65.0</ele><time>2026-04-12T09:02:12.444Z</time></trkpt><trkpt lat="45.3467839" lon="10.709013"><ele>65.0</ele><time>2026-04-12T09:02:13.429Z</time></trkpt><trkpt lat="45.3469274" lon="10.709072"><ele>65.0</ele><time>2026-04-12T09:02:14.443Z</time></trkpt><trkpt lat="45.3470704" lon="10.7091227"><ele>65.0</ele><time>2026-04-12T09:02:15.443Z</time></trkpt><trkpt lat="45.3472079" lon="10.7091661"><ele>65.0</ele><time>2026-04-12T09:02:16.44Z</time></trkpt><trkpt lat="45.3473279" lon="10.7092008"><ele>66.0</ele><time>2026-04-12T09:02:17.435Z</time></trkpt><trkpt lat="45.3474346" lon="10.7092323"><ele>67.0</ele><time>2026-04-12T09:02:18.442Z</time></trkpt><trkpt lat="45.3475267" lon="10.7092555"><ele>68.0</ele><time>2026-04-12T09:02:19.438Z</time></trkpt><trkpt lat="45.3476154" lon="10.7092763"><ele>69.0</ele><time>2026-04-12T09:02:20.437Z</time></trkpt><trkpt lat="45.3477075" lon="10.7093046"><ele>70.0</ele><time>2026-04-12T09:02:21.441Z</time></trkpt><trkpt lat="45.3477958" lon="10.7093307"><ele>70.0</ele><time>2026-04-12T09:02:22.44Z</time></trkpt><trkpt lat="45.3478694" lon="10.709353"><ele>70.0</ele><time>2026-04-12T09:02:23.432Z</time></trkpt><trkpt lat="45.3479706" lon="10.7093741"><ele>70.0</ele><time>2026-04-12T09:02:25.432Z</time></trkpt><trkpt lat="45.3480445" lon="10.7093392"><ele>70.0</ele><time>2026-04-12T09:02:27.439Z</time></trkpt><trkpt lat="45.3481179" lon="10.7092985"><ele>70.0</ele><time>2026-04-12T09:02:29.442Z</time></trkpt><trkpt lat="45.3481963" lon="10.7092943"><ele>70.0</ele><time>2026-04-12T09:02:31.432Z</time></trkpt><trkpt lat="45.3482674" lon="10.709309"><ele>70.16666666666666</ele><time>2026-04-12T09:02:33.441Z</time></trkpt><trkpt lat="45.3483336" lon="10.7093242"><ele>70.33333333333333</ele><time>2026-04-12T09:02:35.434Z</time></trkpt><trkpt lat="45.3484042" lon="10.7092946"><ele>70.5</ele><time>2026-04-12T09:02:38.44Z</time></trkpt><trkpt lat="45.3484559" lon="10.7092176"><ele>70.66666666666667</ele><time>2026-04-12T09:02:41.436Z</time></trkpt><trkpt lat="45.3484926" lon="10.7091393"><ele>70.83333333333334</ele><time>2026-04-12T09:02:45.439Z</time></trkpt><trkpt lat="45.3484964" lon="10.7090238"><ele>71.0</ele><time>2026-04-12T09:09:07.432Z</time></trkpt><trkpt lat="45.3484608" lon="10.7088942"><ele>71.0</ele><time>2026-04-12T09:09:09.437Z</time></trkpt><trkpt lat="45.3484227" lon="10.7087994"><ele>71.0</ele><time>2026-04-12T09:09:12.425Z</time></trkpt><trkpt lat="45.3484495" lon="10.7088968"><ele>71.0</ele><time>2026-04-12T09:12:58.426Z</time></trkpt><trkpt lat="45.3484957" lon="10.7089901"><ele>71.0</ele><time>2026-04-12T09:13:05.444Z</time></trkpt><trkpt lat="45.3485007" lon="10.7090869"><ele>71.0</ele><time>2026-04-12T09:13:48.424Z</time></trkpt><trkpt lat="45.3485702" lon="10.709027"><ele>71.0</ele><time>2026-04-12T09:29:55.433Z</time></trkpt><trkpt lat="45.3486154" lon="10.7089613"><ele>71.0</ele><time>2026-04-12T09:29:58.439Z</time></trkpt><trkpt lat="45.3486312" lon="10.7088487"><ele>71.0</ele><time>2026-04-12T09:30:02.442Z</time></trkpt><trkpt lat="45.3486647" lon="10.7087606"><ele>71.0</ele><time>2026-04-12T09:30:05.441Z</time></trkpt><trkpt lat="45.3486991" lon="10.7086846"><ele>71.0</ele><time>2026-04-12T09:30:10.438Z</time></trkpt><trkpt lat="45.3487293" lon="10.7086034"><ele>71.0</ele><time>2026-04-12T09:30:21.434Z</time></trkpt><trkpt lat="45.3487797" lon="10.7084856"><ele>71.0</ele><time>2026-04-12T09:30:24.431Z</time></trkpt><trkpt lat="45.3488169" lon="10.708386"><ele>71.0</ele><time>2026-04-12T09:30:26.435Z</time></trkpt><trkpt lat="45.3488698" lon="10.708265"><ele>70.33333333333334</ele><time>2026-04-12T09:30:28.44Z</time></trkpt><trkpt lat="45.3489186" lon="10.7081128"><ele>69.66666666666667</ele><time>2026-04-12T09:30:30.431Z</time></trkpt><trkpt lat="45.3489527" lon="10.7080065"><ele>69.0</ele><time>2026-04-12T09:30:31.444Z</time></trkpt><trkpt lat="45.3489824" lon="10.7078954"><ele>68.33333333333333</ele><time>2026-04-12T09:30:32.44Z</time></trkpt><trkpt lat="45.3490099" lon="10.7077984"><ele>67.66666666666666</ele><time>2026-04-12T09:30:33.434Z</time></trkpt><trkpt lat="45.3490375" lon="10.7076977"><ele>67.0</ele><time>2026-04-12T09:30:34.433Z</time></trkpt><trkpt lat="45.3490804" lon="10.7075363"><ele>68.83333333333333</ele><time>2026-04-12T09:30:36.438Z</time></trkpt><trkpt lat="45.3491015" lon="10.7074514"><ele>70.66666666666666</ele><time>2026-04-12T09:30:37.433Z</time></trkpt><trkpt lat="45.3491278" lon="10.7073236"><ele>72.5</ele><time>2026-04-12T09:30:39.436Z</time></trkpt><trkpt lat="45.3491513" lon="10.7072369"><ele>74.33333333333333</ele><time>2026-04-12T09:30:41.43Z</time></trkpt><trkpt lat="45.3491869" lon="10.707139"><ele>76.16666666666667</ele><time>2026-04-12T09:30:44.435Z</time></trkpt><trkpt lat="45.3492253" lon="10.7070241"><ele>78.0</ele><time>2026-04-12T09:30:47.434Z</time></trkpt><trkpt lat="45.3492505" lon="10.7069241"><ele>79.33333333333333</ele><time>2026-04-12T09:30:49.436Z</time></trkpt><trkpt lat="45.3492764" lon="10.7068003"><ele>80.66666666666667</ele><time>2026-04-12T09:30:52.439Z</time></trkpt><trkpt lat="45.3492903" lon="10.7066878"><ele>82.0</ele><time>2026-04-12T09:30:54.443Z</time></trkpt><trkpt lat="45.3493042" lon="10.706572"><ele>83.33333333333334</ele><time>2026-04-12T09:30:56.446Z</time></trkpt><trkpt lat="45.3493197" lon="10.7064584"><ele>84.66666666666667</ele><time>2026-04-12T09:30:58.43Z</time></trkpt><trkpt lat="45.3493392" lon="10.706344"><ele>86.0</ele><time>2026-04-12T09:31:00.442Z</time></trkpt><trkpt lat="45.3493296" lon="10.7062448"><ele>86.0</ele><time>2026-04-12T09:31:02.433Z</time></trkpt><trkpt lat="45.3492651" lon="10.7061705"><ele>86.0</ele><time>2026-04-12T09:31:04.434Z</time></trkpt><trkpt lat="45.3491442" lon="10.7060925"><ele>86.0</ele><time>2026-04-12T09:31:06.431Z</time></trkpt><trkpt lat="45.3490748" lon="10.7060519"><ele>86.0</ele><time>2026-04-12T09:31:07.445Z</time></trkpt><trkpt lat="45.349012" lon="10.706014"><ele>86.0</ele><time>2026-04-12T09:31:08.442Z</time></trkpt><trkpt lat="45.3489023" lon="10.7059638"><ele>89.5</ele><time>2026-04-12T09:31:10.433Z</time></trkpt><trkpt lat="45.3488094" lon="10.7059388"><ele>93.0</ele><time>2026-04-12T09:31:12.439Z</time></trkpt><trkpt lat="45.3487459" lon="10.705913"><ele>96.5</ele><time>2026-04-12T09:31:15.44Z</time></trkpt><trkpt lat="45.348716" lon="10.7058192"><ele>100.0</ele><time>2026-04-12T09:31:19.432Z</time></trkpt><trkpt lat="45.3487253" lon="10.7057203"><ele>103.49999999999999</ele><time>2026-04-12T09:31:21.437Z</time></trkpt><trkpt lat="45.3487095" lon="10.7055633"><ele>107.0</ele><time>2026-04-12T09:31:24.438Z</time></trkpt><trkpt lat="45.3487026" lon="10.7054192"><ele>106.99999999999999</ele><time>2026-04-12T09:31:26.429Z</time></trkpt><trkpt lat="45.3486924" lon="10.705288"><ele>107.0</ele><time>2026-04-12T09:31:28.432Z</time></trkpt><trkpt lat="45.3486824" lon="10.7051952"><ele>107.0</ele><time>2026-04-12T09:31:30.433Z</time></trkpt><trkpt lat="45.3486688" lon="10.7051016"><ele>107.0</ele><time>2026-04-12T09:31:33.436Z</time></trkpt><trkpt lat="45.3486443" lon="10.7049667"><ele>106.99999999999999</ele><time>2026-04-12T09:31:40.44Z</time></trkpt><trkpt lat="45.3486317" lon="10.7048426"><ele>107.0</ele><time>2026-04-12T09:31:42.432Z</time></trkpt><trkpt lat="45.3486223" lon="10.7047024"><ele>107.0</ele><time>2026-04-12T09:31:44.438Z</time></trkpt><trkpt lat="45.3486104" lon="10.7045687"><ele>106.99999999999999</ele><time>2026-04-12T09:31:46.436Z</time></trkpt><trkpt lat="45.3485949" lon="10.7044686"><ele>106.99999999999999</ele><time>2026-04-12T09:31:48.439Z</time></trkpt><trkpt lat="45.3485892" lon="10.7043359"><ele>107.0</ele><time>2026-04-12T09:31:50.426Z</time></trkpt><trkpt lat="45.3485781" lon="10.7041938"><ele>107.0</ele><time>2026-04-12T09:31:52.432Z</time></trkpt><trkpt lat="45.3485802" lon="10.7040235"><ele>107.0</ele><time>2026-04-12T09:31:54.439Z</time></trkpt><trkpt lat="45.3485893" lon="10.703898"><ele>106.99999999999999</ele><time>2026-04-12T09:31:56.432Z</time></trkpt><trkpt lat="45.3485982" lon="10.7037541"><ele>106.99999999999999</ele><time>2026-04-12T09:31:58.448Z</time></trkpt><trkpt lat="45.3486342" lon="10.7036162"><ele>107.0</ele><time>2026-04-12T09:32:00.432Z</time></trkpt><trkpt lat="45.3486513" lon="10.7034929"><ele>107.0</ele><time>2026-04-12T09:32:03.442Z</time></trkpt><trkpt lat="45.3486568" lon="10.7033846"><ele>106.8</ele><time>2026-04-12T09:32:05.433Z</time></trkpt><trkpt lat="45.3486376" lon="10.703298"><ele>106.6</ele><time>2026-04-12T09:32:06.44Z</time></trkpt><trkpt lat="45.348617" lon="10.7031996"><ele>106.39999999999999</ele><time>2026-04-12T09:32:07.429Z</time></trkpt><trkpt lat="45.3485832" lon="10.703035"><ele>106.19999999999999</ele><time>2026-04-12T09:32:09.444Z</time></trkpt><trkpt lat="45.3485489" lon="10.702871"><ele>106.0</ele><time>2026-04-12T09:32:11.435Z</time></trkpt><trkpt lat="45.348541" lon="10.7027675"><ele>105.50000000000001</ele><time>2026-04-12T09:32:13.44Z</time></trkpt><trkpt lat="45.3485197" lon="10.7026764"><ele>105.0</ele><time>2026-04-12T09:32:15.435Z</time></trkpt><trkpt lat="45.3485059" lon="10.7025884"><ele>104.5</ele><time>2026-04-12T09:32:22.44Z</time></trkpt><trkpt lat="45.3485059" lon="10.7024617"><ele>104.0</ele><time>2026-04-12T09:32:25.444Z</time></trkpt><trkpt lat="45.348496" lon="10.7023084"><ele>103.50000000000001</ele><time>2026-04-12T09:32:27.434Z</time></trkpt><trkpt lat="45.3484935" lon="10.7022043"><ele>103.0</ele><time>2026-04-12T09:32:28.437Z</time></trkpt><trkpt lat="45.3484898" lon="10.7020899"><ele>103.0</ele><time>2026-04-12T09:32:29.432Z</time></trkpt><trkpt lat="45.3484885" lon="10.7019466"><ele>103.0</ele><time>2026-04-12T09:32:30.443Z</time></trkpt><trkpt lat="45.3484916" lon="10.701797"><ele>103.0</ele><time>2026-04-12T09:32:31.43Z</time></trkpt><trkpt lat="45.3484965" lon="10.701651"><ele>103.0</ele><time>2026-04-12T09:32:32.431Z</time></trkpt><trkpt lat="45.3485116" lon="10.7015102"><ele>103.0</ele><time>2026-04-12T09:32:33.441Z</time></trkpt><trkpt lat="45.3485324" lon="10.7013766"><ele>103.2</ele><time>2026-04-12T09:32:34.433Z</time></trkpt><trkpt lat="45.3485567" lon="10.7012288"><ele>103.4</ele><time>2026-04-12T09:32:35.443Z</time></trkpt><trkpt lat="45.3485793" lon="10.7011017"><ele>103.60000000000001</ele><time>2026-04-12T09:32:36.444Z</time></trkpt><trkpt lat="45.3485986" lon="10.7009899"><ele>103.80000000000001</ele><time>2026-04-12T09:32:37.445Z</time></trkpt><trkpt lat="45.3486248" lon="10.7008355"><ele>104.0</ele><time>2026-04-12T09:32:39.438Z</time></trkpt><trkpt lat="45.3486252" lon="10.7007018"><ele>103.6</ele><time>2026-04-12T09:32:41.437Z</time></trkpt><trkpt lat="45.3485398" lon="10.700565"><ele>103.2</ele><time>2026-04-12T09:32:43.439Z</time></trkpt><trkpt lat="45.3484648" lon="10.7004915"><ele>102.8</ele><time>2026-04-12T09:32:44.437Z</time></trkpt><trkpt lat="45.3483897" lon="10.7004132"><ele>102.39999999999999</ele><time>2026-04-12T09:32:45.43Z</time></trkpt><trkpt lat="45.3483326" lon="10.7003382"><ele>102.0</ele><time>2026-04-12T09:32:46.432Z</time></trkpt><trkpt lat="45.3482872" lon="10.7002639"><ele>102.5</ele><time>2026-04-12T09:32:47.429Z</time></trkpt><trkpt lat="45.3482415" lon="10.7001912"><ele>103.0</ele><time>2026-04-12T09:32:48.445Z</time></trkpt><trkpt lat="45.3481444" lon="10.700057"><ele>103.5</ele><time>2026-04-12T09:32:50.437Z</time></trkpt><trkpt lat="45.348087" lon="10.6999812"><ele>104.0</ele><time>2026-04-12T09:32:51.433Z</time></trkpt><trkpt lat="45.3480307" lon="10.699898"><ele>104.5</ele><time>2026-04-12T09:32:52.438Z</time></trkpt><trkpt lat="45.3479795" lon="10.6998239"><ele>105.0</ele><time>2026-04-12T09:32:53.429Z</time></trkpt><trkpt lat="45.3479261" lon="10.6997621"><ele>105.6</ele><time>2026-04-12T09:32:54.434Z</time></trkpt><trkpt lat="45.3478347" lon="10.6996877"><ele>106.2</ele><time>2026-04-12T09:32:56.436Z</time></trkpt><trkpt lat="45.3477469" lon="10.6996773"><ele>106.80000000000001</ele><time>2026-04-12T09:32:58.439Z</time></trkpt><trkpt lat="45.3476935" lon="10.6997824"><ele>107.4</ele><time>2026-04-12T09:33:00.432Z</time></trkpt><trkpt lat="45.3476448" lon="10.699913"><ele>108.0</ele><time>2026-04-12T09:33:02.43Z</time></trkpt><trkpt lat="45.3476064" lon="10.6999863"><ele>108.0</ele><time>2026-04-12T09:33:04.427Z</time></trkpt><trkpt lat="45.3475102" lon="10.6998992"><ele>108.00000000000001</ele><time>2026-04-12T09:33:06.433Z</time></trkpt><trkpt lat="45.3474473" lon="10.699835"><ele>108.00000000000001</ele><time>2026-04-12T09:33:07.426Z</time></trkpt><trkpt lat="45.3473496" lon="10.6997705"><ele>108.0</ele><time>2026-04-12T09:33:08.428Z</time></trkpt><trkpt lat="45.3472518" lon="10.699704"><ele>108.0</ele><time>2026-04-12T09:33:09.437Z</time></trkpt><trkpt lat="45.3471488" lon="10.6996425"><ele>108.2</ele><time>2026-04-12T09:33:10.436Z</time></trkpt><trkpt lat="45.3470442" lon="10.6995772"><ele>108.4</ele><time>2026-04-12T09:33:11.432Z</time></trkpt><trkpt lat="45.3469487" lon="10.6995056"><ele>108.60000000000001</ele><time>2026-04-12T09:33:12.438Z</time></trkpt><trkpt lat="45.3468602" lon="10.6994246"><ele>108.80000000000001</ele><time>2026-04-12T09:33:13.435Z</time></trkpt><trkpt lat="45.3467819" lon="10.6993434"><ele>109.0</ele><time>2026-04-12T09:33:14.429Z</time></trkpt><trkpt lat="45.3467125" lon="10.699272"><ele>109.0</ele><time>2026-04-12T09:33:15.437Z</time></trkpt><trkpt lat="45.3466268" lon="10.6991712"><ele>109.0</ele><time>2026-04-12T09:33:17.434Z</time></trkpt><trkpt lat="45.3465936" lon="10.6990052"><ele>109.0</ele><time>2026-04-12T09:33:19.436Z</time></trkpt><trkpt lat="45.3465676" lon="10.698913"><ele>109.0</ele><time>2026-04-12T09:33:20.433Z</time></trkpt><trkpt lat="45.3465425" lon="10.6988191"><ele>109.0</ele><time>2026-04-12T09:33:21.436Z</time></trkpt><trkpt lat="45.3464955" lon="10.6987304"><ele>109.00000000000001</ele><time>2026-04-12T09:33:22.435Z</time></trkpt><trkpt lat="45.3464579" lon="10.6986211"><ele>109.0</ele><time>2026-04-12T09:33:23.428Z</time></trkpt><trkpt lat="45.3464245" lon="10.6985252"><ele>109.0</ele><time>2026-04-12T09:33:24.436Z</time></trkpt><trkpt lat="45.3463725" lon="10.6984157"><ele>109.0</ele><time>2026-04-12T09:33:26.436Z</time></trkpt><trkpt lat="45.3463441" lon="10.6982654"><ele>109.00000000000001</ele><time>2026-04-12T09:33:29.426Z</time></trkpt><trkpt lat="45.3463848" lon="10.6981656"><ele>109.0</ele><time>2026-04-12T09:33:30.432Z</time></trkpt><trkpt lat="45.3464358" lon="10.698055"><ele>107.75</ele><time>2026-04-12T09:33:31.438Z</time></trkpt><trkpt lat="45.3464916" lon="10.6979224"><ele>106.5</ele><time>2026-04-12T09:33:32.436Z</time></trkpt><trkpt lat="45.3465565" lon="10.6977899"><ele>105.25</ele><time>2026-04-12T09:33:33.445Z</time></trkpt><trkpt lat="45.3466299" lon="10.6976512"><ele>104.0</ele><time>2026-04-12T09:33:34.443Z</time></trkpt><trkpt lat="45.3467153" lon="10.6975051"><ele>103.25</ele><time>2026-04-12T09:33:35.432Z</time></trkpt><trkpt lat="45.3467956" lon="10.6973662"><ele>102.5</ele><time>2026-04-12T09:33:36.426Z</time></trkpt><trkpt lat="45.3468707" lon="10.697235"><ele>101.75</ele><time>2026-04-12T09:33:37.435Z</time></trkpt><trkpt lat="45.3469621" lon="10.6970964"><ele>101.0</ele><time>2026-04-12T09:33:38.437Z</time></trkpt><trkpt lat="45.3470693" lon="10.6969571"><ele>100.75</ele><time>2026-04-12T09:33:39.442Z</time></trkpt><trkpt lat="45.3471907" lon="10.6968315"><ele>100.5</ele><time>2026-04-12T09:33:40.433Z</time></trkpt><trkpt lat="45.3473136" lon="10.6967087"><ele>100.25</ele><time>2026-04-12T09:33:41.436Z</time></trkpt><trkpt lat="45.3474458" lon="10.6966337"><ele>100.0</ele><time>2026-04-12T09:33:42.442Z</time></trkpt><trkpt lat="45.3475673" lon="10.6965653"><ele>99.8</ele><time>2026-04-12T09:33:43.443Z</time></trkpt><trkpt lat="45.3476711" lon="10.6965005"><ele>99.6</ele><time>2026-04-12T09:33:44.445Z</time></trkpt><trkpt lat="45.347768" lon="10.6964383"><ele>99.4</ele><time>2026-04-12T09:33:45.439Z</time></trkpt><trkpt lat="45.3478538" lon="10.6963755"><ele>99.2</ele><time>2026-04-12T09:33:46.433Z</time></trkpt><trkpt lat="45.3479293" lon="10.6963195"><ele>99.0</ele><time>2026-04-12T09:33:47.44Z</time></trkpt><trkpt lat="45.348021" lon="10.696225"><ele>99.0</ele><time>2026-04-12T09:33:49.441Z</time></trkpt><trkpt lat="45.348032" lon="10.6960999"><ele>99.0</ele><time>2026-04-12T09:33:51.431Z</time></trkpt><trkpt lat="45.3479418" lon="10.6959488"><ele>99.0</ele><time>2026-04-12T09:33:53.436Z</time></trkpt><trkpt lat="45.3478718" lon="10.6958417"><ele>99.0</ele><time>2026-04-12T09:33:54.443Z</time></trkpt><trkpt lat="45.3478027" lon="10.6957134"><ele>99.0</ele><time>2026-04-12T09:33:55.44Z</time></trkpt><trkpt lat="45.3477294" lon="10.6955629"><ele>98.66666666666666</ele><time>2026-04-12T09:33:56.436Z</time></trkpt><trkpt lat="45.3476474" lon="10.6953919"><ele>98.33333333333333</ele><time>2026-04-12T09:33:57.443Z</time></trkpt><trkpt lat="45.3475602" lon="10.6952081"><ele>98.0</ele><time>2026-04-12T09:33:58.444Z</time></trkpt><trkpt lat="45.3474646" lon="10.6950181"><ele>97.66666666666666</ele><time>2026-04-12T09:33:59.44Z</time></trkpt><trkpt lat="45.347361" lon="10.6948135"><ele>97.33333333333334</ele><time>2026-04-12T09:34:00.447Z</time></trkpt><trkpt lat="45.3472547" lon="10.6946071"><ele>97.0</ele><time>2026-04-12T09:34:01.438Z</time></trkpt><trkpt lat="45.3471464" lon="10.6943907"><ele>96.66666666666667</ele><time>2026-04-12T09:34:02.433Z</time></trkpt><trkpt lat="45.3470333" lon="10.6941708"><ele>96.33333333333334</ele><time>2026-04-12T09:34:03.432Z</time></trkpt><trkpt lat="45.3469199" lon="10.6939454"><ele>96.0</ele><time>2026-04-12T09:34:04.436Z</time></trkpt><trkpt lat="45.3468088" lon="10.6937343"><ele>95.66666666666667</ele><time>2026-04-12T09:34:05.444Z</time></trkpt><trkpt lat="45.3467028" lon="10.6935382"><ele>95.33333333333334</ele><time>2026-04-12T09:34:06.434Z</time></trkpt><trkpt lat="45.3466075" lon="10.6933462"><ele>95.0</ele><time>2026-04-12T09:34:07.438Z</time></trkpt><trkpt lat="45.3465243" lon="10.6931399"><ele>95.0</ele><time>2026-04-12T09:34:08.449Z</time></trkpt><trkpt lat="45.3464471" lon="10.6929196"><ele>95.0</ele><time>2026-04-12T09:34:09.439Z</time></trkpt><trkpt lat="45.3463698" lon="10.6927101"><ele>95.0</ele><time>2026-04-12T09:34:10.446Z</time></trkpt><trkpt lat="45.3462903" lon="10.6925216"><ele>95.0</ele><time>2026-04-12T09:34:11.44Z</time></trkpt><trkpt lat="45.3462169" lon="10.6923626"><ele>95.0</ele><time>2026-04-12T09:34:12.449Z</time></trkpt><trkpt lat="45.3461512" lon="10.6922327"><ele>95.0</ele><time>2026-04-12T09:34:13.445Z</time></trkpt><trkpt lat="45.3460908" lon="10.6921263"><ele>95.0</ele><time>2026-04-12T09:34:14.438Z</time></trkpt><trkpt lat="45.3460303" lon="10.6920438"><ele>95.0</ele><time>2026-04-12T09:34:15.438Z</time></trkpt><trkpt lat="45.3459718" lon="10.6919938"><ele>95.0</ele><time>2026-04-12T09:34:16.439Z</time></trkpt><trkpt lat="45.3458435" lon="10.6920037"><ele>95.0</ele><time>2026-04-12T09:34:18.439Z</time></trkpt><trkpt lat="45.3457635" lon="10.692045"><ele>95.0</ele><time>2026-04-12T09:34:19.442Z</time></trkpt><trkpt lat="45.3456693" lon="10.6920629"><ele>95.0</ele><time>2026-04-12T09:34:20.436Z</time></trkpt><trkpt lat="45.3455723" lon="10.6920525"><ele>95.0</ele><time>2026-04-12T09:34:21.445Z</time></trkpt><trkpt lat="45.3454666" lon="10.6920194"><ele>95.0</ele><time>2026-04-12T09:34:22.44Z</time></trkpt><trkpt lat="45.3453601" lon="10.6919811"><ele>95.0</ele><time>2026-04-12T09:34:23.441Z</time></trkpt><trkpt lat="45.3452635" lon="10.6919351"><ele>95.0</ele><time>2026-04-12T09:34:24.44Z</time></trkpt><trkpt lat="45.3451767" lon="10.6918973"><ele>95.0</ele><time>2026-04-12T09:34:25.44Z</time></trkpt><trkpt lat="45.3451121" lon="10.6918574"><ele>95.0</ele><time>2026-04-12T09:34:26.439Z</time></trkpt><trkpt lat="45.3450393" lon="10.6917053"><ele>95.2</ele><time>2026-04-12T09:34:28.439Z</time></trkpt><trkpt lat="45.3450167" lon="10.6915788"><ele>95.4</ele><time>2026-04-12T09:34:29.438Z</time></trkpt><trkpt lat="45.3449801" lon="10.6914307"><ele>95.6</ele><time>2026-04-12T09:34:30.44Z</time></trkpt><trkpt lat="45.3449233" lon="10.6912776"><ele>95.8</ele><time>2026-04-12T09:34:31.437Z</time></trkpt><trkpt lat="45.3448683" lon="10.6911285"><ele>96.0</ele><time>2026-04-12T09:34:32.441Z</time></trkpt><trkpt lat="45.3448211" lon="10.6910042"><ele>96.0</ele><time>2026-04-12T09:34:33.448Z</time></trkpt><trkpt lat="45.344787" lon="10.690908"><ele>96.0</ele><time>2026-04-12T09:34:34.438Z</time></trkpt><trkpt lat="45.3447622" lon="10.690817"><ele>96.0</ele><time>2026-04-12T09:34:35.438Z</time></trkpt><trkpt lat="45.3447471" lon="10.6907229"><ele>96.0</ele><time>2026-04-12T09:34:36.44Z</time></trkpt><trkpt lat="45.3447337" lon="10.6906281"><ele>96.0</ele><time>2026-04-12T09:34:37.438Z</time></trkpt><trkpt lat="45.344724" lon="10.6905384"><ele>96.0</ele><time>2026-04-12T09:34:38.436Z</time></trkpt><trkpt lat="45.3446827" lon="10.6903828"><ele>96.6</ele><time>2026-04-12T09:34:40.439Z</time></trkpt><trkpt lat="45.3445787" lon="10.6902515"><ele>97.19999999999999</ele><time>2026-04-12T09:34:42.44Z</time></trkpt><trkpt lat="45.34451" lon="10.6901887"><ele>97.80000000000001</ele><time>2026-04-12T09:34:43.44Z</time></trkpt><trkpt lat="45.3444466" lon="10.6901264"><ele>98.4</ele><time>2026-04-12T09:34:44.447Z</time></trkpt><trkpt lat="45.3443881" lon="10.6900718"><ele>99.0</ele><time>2026-04-12T09:34:45.437Z</time></trkpt><trkpt lat="45.344292" lon="10.6899845"><ele>99.0</ele><time>2026-04-12T09:34:47.442Z</time></trkpt><trkpt lat="45.344219" lon="10.6897963"><ele>99.0</ele><time>2026-04-12T09:34:54.438Z</time></trkpt><trkpt lat="45.3442153" lon="10.6896973"><ele>99.0</ele><time>2026-04-12T09:34:57.439Z</time></trkpt><trkpt lat="45.3442095" lon="10.6895542"><ele>99.0</ele><time>2026-04-12T09:34:59.434Z</time></trkpt><trkpt lat="45.3442277" lon="10.6894519"><ele>99.0</ele><time>2026-04-12T09:35:01.439Z</time></trkpt><trkpt lat="45.3442767" lon="10.6893764"><ele>100.0</ele><time>2026-04-12T09:35:03.442Z</time></trkpt><trkpt lat="45.344338" lon="10.689264"><ele>101.0</ele><time>2026-04-12T09:35:07.432Z</time></trkpt><trkpt lat="45.3443736" lon="10.6891039"><ele>102.0</ele><time>2026-04-12T09:35:09.435Z</time></trkpt><trkpt lat="45.3443898" lon="10.6889909"><ele>103.0</ele><time>2026-04-12T09:35:32.439Z</time></trkpt><trkpt lat="45.3443735" lon="10.6887683"><ele>103.00000000000001</ele><time>2026-04-12T09:37:28.445Z</time></trkpt><trkpt lat="45.3443872" lon="10.6886534"><ele>103.0</ele><time>2026-04-12T09:37:30.449Z</time></trkpt><trkpt lat="45.3443478" lon="10.6885752"><ele>103.0</ele><time>2026-04-12T09:37:32.437Z</time></trkpt><trkpt lat="45.3442534" lon="10.6885189"><ele>103.0</ele><time>2026-04-12T09:37:34.444Z</time></trkpt><trkpt lat="45.3441887" lon="10.6885011"><ele>103.00000000000001</ele><time>2026-04-12T09:37:35.439Z</time></trkpt><trkpt lat="45.3441224" lon="10.6884772"><ele>103.0</ele><time>2026-04-12T09:37:36.437Z</time></trkpt><trkpt lat="45.3440047" lon="10.6884331"><ele>103.4</ele><time>2026-04-12T09:37:38.44Z</time></trkpt><trkpt lat="45.3439461" lon="10.6883999"><ele>103.80000000000001</ele><time>2026-04-12T09:37:39.442Z</time></trkpt><trkpt lat="45.3438849" lon="10.6883617"><ele>104.2</ele><time>2026-04-12T09:37:40.441Z</time></trkpt><trkpt lat="45.3437788" lon="10.6882934"><ele>104.6</ele><time>2026-04-12T09:37:42.445Z</time></trkpt><trkpt lat="45.3436686" lon="10.6882281"><ele>105.0</ele><time>2026-04-12T09:37:44.438Z</time></trkpt><trkpt lat="45.3435682" lon="10.6881742"><ele>105.5</ele><time>2026-04-12T09:37:46.435Z</time></trkpt><trkpt lat="45.34347" lon="10.6881162"><ele>106.0</ele><time>2026-04-12T09:37:48.443Z</time></trkpt><trkpt lat="45.3433917" lon="10.6880635"><ele>106.5</ele><time>2026-04-12T09:37:50.441Z</time></trkpt><trkpt lat="45.3433255" lon="10.6880781"><ele>107.0</ele><time>2026-04-12T09:37:55.444Z</time></trkpt><trkpt lat="45.3432833" lon="10.6880038"><ele>107.5</ele><time>2026-04-12T09:38:00.442Z</time></trkpt><trkpt lat="45.3432628" lon="10.6879042"><ele>108.0</ele><time>2026-04-12T09:38:03.441Z</time></trkpt><trkpt lat="45.3432418" lon="10.6878136"><ele>108.33333333333333</ele><time>2026-04-12T09:38:05.436Z</time></trkpt><trkpt lat="45.3432164" lon="10.6876958"><ele>108.66666666666666</ele><time>2026-04-12T09:38:08.437Z</time></trkpt><trkpt lat="45.3431887" lon="10.6875909"><ele>109.0</ele><time>2026-04-12T09:38:11.445Z</time></trkpt><trkpt lat="45.3431626" lon="10.6874857"><ele>109.33333333333333</ele><time>2026-04-12T09:38:14.44Z</time></trkpt><trkpt lat="45.3431443" lon="10.6873948"><ele>109.66666666666666</ele><time>2026-04-12T09:38:18.436Z</time></trkpt><trkpt lat="45.343107" lon="10.6873067"><ele>110.0</ele><time>2026-04-12T09:38:41.439Z</time></trkpt><trkpt lat="45.3430977" lon="10.6872119"><ele>109.99999999999999</ele><time>2026-04-12T09:42:01.443Z</time></trkpt><trkpt lat="45.3430663" lon="10.6871122"><ele>110.0</ele><time>2026-04-12T09:42:07.446Z</time></trkpt><trkpt lat="45.3430555" lon="10.6870178"><ele>110.0</ele><time>2026-04-12T09:42:34.442Z</time></trkpt><trkpt lat="45.3430713" lon="10.686926"><ele>110.0</ele><time>2026-04-12T09:42:40.441Z</time></trkpt><trkpt lat="45.3430259" lon="10.6868598"><ele>109.99999999999999</ele><time>2026-04-12T09:42:46.442Z</time></trkpt><trkpt lat="45.3429706" lon="10.6869555"><ele>110.0</ele><time>2026-04-12T09:42:50.437Z</time></trkpt><trkpt lat="45.3429374" lon="10.6871192"><ele>109.99999999999999</ele><time>2026-04-12T09:42:52.452Z</time></trkpt><trkpt lat="45.342932" lon="10.6872588"><ele>110.0</ele><time>2026-04-12T09:42:54.448Z</time></trkpt><trkpt lat="45.3429897" lon="10.6873124"><ele>110.0</ele><time>2026-04-12T09:42:57.45Z</time></trkpt><trkpt lat="45.3430543" lon="10.6873085"><ele>110.0</ele><time>2026-04-12T09:43:45.432Z</time></trkpt><trkpt lat="45.3429677" lon="10.6872701"><ele>109.99999999999999</ele><time>2026-04-12T09:44:36.444Z</time></trkpt><trkpt lat="45.3429217" lon="10.6871917"><ele>110.0</ele><time>2026-04-12T09:44:38.442Z</time></trkpt><trkpt lat="45.3429177" lon="10.6870534"><ele>109.4</ele><time>2026-04-12T09:44:40.436Z</time></trkpt><trkpt lat="45.3429426" lon="10.6869081"><ele>108.8</ele><time>2026-04-12T09:44:42.44Z</time></trkpt><trkpt lat="45.3429329" lon="10.6867983"><ele>108.19999999999999</ele><time>2026-04-12T09:44:44.442Z</time></trkpt><trkpt lat="45.3428344" lon="10.6867464"><ele>107.6</ele><time>2026-04-12T09:44:46.44Z</time></trkpt><trkpt lat="45.3427568" lon="10.6867287"><ele>107.0</ele><time>2026-04-12T09:44:47.441Z</time></trkpt><trkpt lat="45.3426719" lon="10.6867128"><ele>107.0</ele><time>2026-04-12T09:44:48.442Z</time></trkpt><trkpt lat="45.342588" lon="10.6867049"><ele>106.99999999999999</ele><time>2026-04-12T09:44:49.453Z</time></trkpt><trkpt lat="45.3425136" lon="10.6867016"><ele>106.99999999999999</ele><time>2026-04-12T09:44:50.445Z</time></trkpt><trkpt lat="45.3424069" lon="10.686663"><ele>107.0</ele><time>2026-04-12T09:44:52.436Z</time></trkpt><trkpt lat="45.3423162" lon="10.6865563"><ele>107.0</ele><time>2026-04-12T09:44:54.436Z</time></trkpt><trkpt lat="45.3422795" lon="10.6864648"><ele>107.0</ele><time>2026-04-12T09:44:55.439Z</time></trkpt><trkpt lat="45.3422458" lon="10.6863345"><ele>107.0</ele><time>2026-04-12T09:44:56.446Z</time></trkpt><trkpt lat="45.3422316" lon="10.6861569"><ele>107.0</ele><time>2026-04-12T09:44:57.451Z</time></trkpt><trkpt lat="45.3422291" lon="10.6859876"><ele>107.0</ele><time>2026-04-12T09:44:58.435Z</time></trkpt><trkpt lat="45.3422327" lon="10.6858244"><ele>106.66666666666666</ele><time>2026-04-12T09:44:59.437Z</time></trkpt><trkpt lat="45.3422279" lon="10.685677"><ele>106.33333333333333</ele><time>2026-04-12T09:45:00.453Z</time></trkpt><trkpt lat="45.3422179" lon="10.6855543"><ele>106.0</ele><time>2026-04-12T09:45:01.444Z</time></trkpt><trkpt lat="45.3422039" lon="10.6854481"><ele>105.66666666666666</ele><time>2026-04-12T09:45:02.44Z</time></trkpt><trkpt lat="45.3421698" lon="10.6853168"><ele>105.33333333333333</ele><time>2026-04-12T09:45:04.446Z</time></trkpt><trkpt lat="45.3420895" lon="10.6852828"><ele>105.0</ele><time>2026-04-12T09:45:07.445Z</time></trkpt><trkpt lat="45.3421134" lon="10.6851988"><ele>105.0</ele><time>2026-04-12T09:45:57.437Z</time></trkpt><trkpt lat="45.3421074" lon="10.6850988"><ele>105.0</ele><time>2026-04-12T09:45:59.44Z</time></trkpt><trkpt lat="45.3420609" lon="10.6849615"><ele>105.0</ele><time>2026-04-12T09:46:01.434Z</time></trkpt><trkpt lat="45.3420123" lon="10.68485"><ele>105.0</ele><time>2026-04-12T09:46:03.445Z</time></trkpt><trkpt lat="45.3419928" lon="10.6847311"><ele>105.0</ele><time>2026-04-12T09:46:05.441Z</time></trkpt><trkpt lat="45.3419757" lon="10.6846139"><ele>105.0</ele><time>2026-04-12T09:46:07.446Z</time></trkpt><trkpt lat="45.3419649" lon="10.6845089"><ele>105.16666666666667</ele><time>2026-04-12T09:46:11.432Z</time></trkpt><trkpt lat="45.341977" lon="10.6843492"><ele>105.33333333333334</ele><time>2026-04-12T09:46:14.436Z</time></trkpt><trkpt lat="45.3419748" lon="10.6842461"><ele>105.5</ele><time>2026-04-12T09:46:15.451Z</time></trkpt><trkpt lat="45.3419656" lon="10.6841413"><ele>105.66666666666667</ele><time>2026-04-12T09:46:16.44Z</time></trkpt><trkpt lat="45.3419582" lon="10.6840462"><ele>105.83333333333334</ele><time>2026-04-12T09:46:17.44Z</time></trkpt><trkpt lat="45.3419546" lon="10.6838852"><ele>106.0</ele><time>2026-04-12T09:46:19.454Z</time></trkpt><trkpt lat="45.3419581" lon="10.6837539"><ele>106.0</ele><time>2026-04-12T09:46:21.443Z</time></trkpt><trkpt lat="45.3419419" lon="10.6836635"><ele>106.0</ele><time>2026-04-12T09:46:23.435Z</time></trkpt><trkpt lat="45.3418848" lon="10.6836157"><ele>106.0</ele><time>2026-04-12T09:46:25.435Z</time></trkpt><trkpt lat="45.3418166" lon="10.6835823"><ele>106.0</ele><time>2026-04-12T09:46:29.437Z</time></trkpt><trkpt lat="45.34189" lon="10.6835414"><ele>106.0</ele><time>2026-04-12T09:47:05.438Z</time></trkpt><trkpt lat="45.3419625" lon="10.6835532"><ele>106.0</ele><time>2026-04-12T09:47:07.447Z</time></trkpt><trkpt lat="45.3420444" lon="10.6835675"><ele>106.0</ele><time>2026-04-12T09:47:09.444Z</time></trkpt><trkpt lat="45.3421091" lon="10.6835654"><ele>105.8</ele><time>2026-04-12T09:47:11.446Z</time></trkpt><trkpt lat="45.3421692" lon="10.6834558"><ele>105.6</ele><time>2026-04-12T09:47:13.445Z</time></trkpt><trkpt lat="45.3421963" lon="10.683351"><ele>105.4</ele><time>2026-04-12T09:47:14.443Z</time></trkpt><trkpt lat="45.3422164" lon="10.6832197"><ele>105.2</ele><time>2026-04-12T09:47:15.444Z</time></trkpt><trkpt lat="45.3422539" lon="10.6830836"><ele>105.0</ele><time>2026-04-12T09:47:16.446Z</time></trkpt><trkpt lat="45.3423041" lon="10.68292"><ele>104.6</ele><time>2026-04-12T09:47:17.439Z</time></trkpt><trkpt lat="45.3423455" lon="10.6827617"><ele>104.2</ele><time>2026-04-12T09:47:18.442Z</time></trkpt><trkpt lat="45.3423835" lon="10.682613"><ele>103.80000000000001</ele><time>2026-04-12T09:47:19.434Z</time></trkpt><trkpt lat="45.342433" lon="10.6824857"><ele>103.4</ele><time>2026-04-12T09:47:20.442Z</time></trkpt><trkpt lat="45.3424877" lon="10.6823792"><ele>103.0</ele><time>2026-04-12T09:47:21.441Z</time></trkpt><trkpt lat="45.3425315" lon="10.6822424"><ele>103.0</ele><time>2026-04-12T09:47:22.441Z</time></trkpt><trkpt lat="45.3425601" lon="10.6821046"><ele>103.0</ele><time>2026-04-12T09:47:23.439Z</time></trkpt><trkpt lat="45.3426047" lon="10.6819415"><ele>103.0</ele><time>2026-04-12T09:47:24.44Z</time></trkpt><trkpt lat="45.342647" lon="10.6817766"><ele>103.0</ele><time>2026-04-12T09:47:25.452Z</time></trkpt><trkpt lat="45.3426969" lon="10.6816307"><ele>103.16666666666667</ele><time>2026-04-12T09:47:26.446Z</time></trkpt><trkpt lat="45.3427486" lon="10.6814884"><ele>103.33333333333334</ele><time>2026-04-12T09:47:27.434Z</time></trkpt><trkpt lat="45.3428035" lon="10.6813745"><ele>103.5</ele><time>2026-04-12T09:47:28.439Z</time></trkpt><trkpt lat="45.3428527" lon="10.681273"><ele>103.66666666666666</ele><time>2026-04-12T09:47:29.434Z</time></trkpt><trkpt lat="45.3428931" lon="10.6811959"><ele>103.83333333333333</ele><time>2026-04-12T09:47:30.442Z</time></trkpt><trkpt lat="45.342933" lon="10.6811145"><ele>104.0</ele><time>2026-04-12T09:47:31.447Z</time></trkpt><trkpt lat="45.3429769" lon="10.6809884"><ele>104.0</ele><time>2026-04-12T09:47:32.45Z</time></trkpt><trkpt lat="45.3430294" lon="10.6808312"><ele>104.0</ele><time>2026-04-12T09:47:33.446Z</time></trkpt><trkpt lat="45.3430843" lon="10.6806776"><ele>104.0</ele><time>2026-04-12T09:47:34.438Z</time></trkpt><trkpt lat="45.3431436" lon="10.6805414"><ele>104.0</ele><time>2026-04-12T09:47:35.439Z</time></trkpt><trkpt lat="45.3432014" lon="10.6804091"><ele>104.0</ele><time>2026-04-12T09:47:36.44Z</time></trkpt><trkpt lat="45.3432608" lon="10.6802874"><ele>104.0</ele><time>2026-04-12T09:47:37.443Z</time></trkpt><trkpt lat="45.3433085" lon="10.680183"><ele>104.0</ele><time>2026-04-12T09:47:38.439Z</time></trkpt><trkpt lat="45.3433493" lon="10.6800883"><ele>104.0</ele><time>2026-04-12T09:47:39.436Z</time></trkpt><trkpt lat="45.3434102" lon="10.6799761"><ele>104.0</ele><time>2026-04-12T09:47:41.44Z</time></trkpt><trkpt lat="45.3434916" lon="10.6799114"><ele>103.5</ele><time>2026-04-12T09:47:43.44Z</time></trkpt><trkpt lat="45.3436324" lon="10.6799483"><ele>103.0</ele><time>2026-04-12T09:47:45.437Z</time></trkpt><trkpt lat="45.3437254" lon="10.6800368"><ele>102.5</ele><time>2026-04-12T09:47:46.438Z</time></trkpt><trkpt lat="45.3438222" lon="10.6801329"><ele>102.0</ele><time>2026-04-12T09:47:47.44Z</time></trkpt><trkpt lat="45.3439294" lon="10.6802316"><ele>101.0</ele><time>2026-04-12T09:47:48.446Z</time></trkpt><trkpt lat="45.3440363" lon="10.6803268"><ele>100.0</ele><time>2026-04-12T09:47:49.442Z</time></trkpt><trkpt lat="45.3441323" lon="10.6804216"><ele>99.0</ele><time>2026-04-12T09:47:50.443Z</time></trkpt><trkpt lat="45.3442344" lon="10.6805081"><ele>98.0</ele><time>2026-04-12T09:47:51.442Z</time></trkpt><trkpt lat="45.3443471" lon="10.6805837"><ele>98.0</ele><time>2026-04-12T09:47:52.444Z</time></trkpt><trkpt lat="45.3444603" lon="10.6806661"><ele>98.0</ele><time>2026-04-12T09:47:53.441Z</time></trkpt><trkpt lat="45.3445693" lon="10.6807644"><ele>98.0</ele><time>2026-04-12T09:47:54.449Z</time></trkpt><trkpt lat="45.3446781" lon="10.6808649"><ele>98.0</ele><time>2026-04-12T09:47:55.442Z</time></trkpt><trkpt lat="45.3447807" lon="10.6809713"><ele>97.66666666666666</ele><time>2026-04-12T09:47:56.439Z</time></trkpt><trkpt lat="45.3448671" lon="10.681072"><ele>97.33333333333333</ele><time>2026-04-12T09:47:57.447Z</time></trkpt><trkpt lat="45.3449383" lon="10.6811573"><ele>97.0</ele><time>2026-04-12T09:47:58.436Z</time></trkpt><trkpt lat="45.3449911" lon="10.6812168"><ele>96.66666666666666</ele><time>2026-04-12T09:47:59.434Z</time></trkpt><trkpt lat="45.3450497" lon="10.6812677"><ele>96.33333333333333</ele><time>2026-04-12T09:48:01.442Z</time></trkpt><trkpt lat="45.345122" lon="10.6812024"><ele>96.0</ele><time>2026-04-12T09:48:04.437Z</time></trkpt><trkpt lat="45.3452078" lon="10.6811371"><ele>96.0</ele><time>2026-04-12T09:48:06.441Z</time></trkpt><trkpt lat="45.3452702" lon="10.6810821"><ele>96.0</ele><time>2026-04-12T09:48:07.441Z</time></trkpt><trkpt lat="45.3453472" lon="10.6810105"><ele>96.0</ele><time>2026-04-12T09:48:08.438Z</time></trkpt><trkpt lat="45.3454398" lon="10.6809234"><ele>96.0</ele><time>2026-04-12T09:48:09.444Z</time></trkpt><trkpt lat="45.3455362" lon="10.6808328"><ele>96.0</ele><time>2026-04-12T09:48:10.436Z</time></trkpt><trkpt lat="45.3456379" lon="10.6807281"><ele>95.75</ele><time>2026-04-12T09:48:11.442Z</time></trkpt><trkpt lat="45.3457411" lon="10.6806277"><ele>95.5</ele><time>2026-04-12T09:48:12.44Z</time></trkpt><trkpt lat="45.345841" lon="10.6805307"><ele>95.25</ele><time>2026-04-12T09:48:13.446Z</time></trkpt><trkpt lat="45.3459381" lon="10.6804367"><ele>95.0</ele><time>2026-04-12T09:48:14.444Z</time></trkpt><trkpt lat="45.3460318" lon="10.6803435"><ele>95.0</ele><time>2026-04-12T09:48:15.44Z</time></trkpt><trkpt lat="45.3461271" lon="10.6802464"><ele>95.0</ele><time>2026-04-12T09:48:16.429Z</time></trkpt><trkpt lat="45.3462237" lon="10.6801489"><ele>95.0</ele><time>2026-04-12T09:48:17.434Z</time></trkpt><trkpt lat="45.3463207" lon="10.6800505"><ele>95.0</ele><time>2026-04-12T09:48:18.443Z</time></trkpt><trkpt lat="45.3464191" lon="10.6799537"><ele>94.5</ele><time>2026-04-12T09:48:19.44Z</time></trkpt><trkpt lat="45.3465192" lon="10.6798498"><ele>94.0</ele><time>2026-04-12T09:48:20.445Z</time></trkpt><trkpt lat="45.3466215" lon="10.679749"><ele>93.5</ele><time>2026-04-12T09:48:21.447Z</time></trkpt><trkpt lat="45.3467259" lon="10.6796522"><ele>93.0</ele><time>2026-04-12T09:48:22.441Z</time></trkpt><trkpt lat="45.3468259" lon="10.6795642"><ele>93.0</ele><time>2026-04-12T09:48:23.443Z</time></trkpt><trkpt lat="45.346917" lon="10.6794829"><ele>93.0</ele><time>2026-04-12T09:48:24.443Z</time></trkpt><trkpt lat="45.3470026" lon="10.6794073"><ele>93.0</ele><time>2026-04-12T09:48:25.443Z</time></trkpt><trkpt lat="45.3470869" lon="10.679333"><ele>93.0</ele><time>2026-04-12T09:48:26.451Z</time></trkpt><trkpt lat="45.3471744" lon="10.6792553"><ele>93.0</ele><time>2026-04-12T09:48:27.433Z</time></trkpt><trkpt lat="45.3472674" lon="10.6791698"><ele>94.4</ele><time>2026-04-12T09:48:28.44Z</time></trkpt><trkpt lat="45.347363" lon="10.6790782"><ele>95.80000000000001</ele><time>2026-04-12T09:48:29.438Z</time></trkpt><trkpt lat="45.3474506" lon="10.6789972"><ele>97.2</ele><time>2026-04-12T09:48:30.45Z</time></trkpt><trkpt lat="45.347526" lon="10.6789272"><ele>98.6</ele><time>2026-04-12T09:48:31.448Z</time></trkpt><trkpt lat="45.3475926" lon="10.678866"><ele>100.0</ele><time>2026-04-12T09:48:32.434Z</time></trkpt><trkpt lat="45.3476521" lon="10.6788099"><ele>100.00000000000001</ele><time>2026-04-12T09:48:33.451Z</time></trkpt><trkpt lat="45.3477048" lon="10.6787562"><ele>100.0</ele><time>2026-04-12T09:48:34.436Z</time></trkpt><trkpt lat="45.3477775" lon="10.6786656"><ele>100.0</ele><time>2026-04-12T09:48:36.444Z</time></trkpt><trkpt lat="45.3478519" lon="10.6786042"><ele>100.0</ele><time>2026-04-12T09:48:39.439Z</time></trkpt><trkpt lat="45.347941" lon="10.6786406"><ele>100.00000000000001</ele><time>2026-04-12T09:48:41.433Z</time></trkpt><trkpt lat="45.3479997" lon="10.6787086"><ele>100.0</ele><time>2026-04-12T09:48:42.436Z</time></trkpt><trkpt lat="45.3480715" lon="10.6787935"><ele>99.2</ele><time>2026-04-12T09:48:43.442Z</time></trkpt><trkpt lat="45.3481563" lon="10.6788818"><ele>98.4</ele><time>2026-04-12T09:48:44.445Z</time></trkpt><trkpt lat="45.3482445" lon="10.6789829"><ele>97.6</ele><time>2026-04-12T09:48:45.443Z</time></trkpt><trkpt lat="45.3483329" lon="10.6790834"><ele>96.8</ele><time>2026-04-12T09:48:46.452Z</time></trkpt><trkpt lat="45.3484216" lon="10.6791773"><ele>96.0</ele><time>2026-04-12T09:48:47.449Z</time></trkpt><trkpt lat="45.3485081" lon="10.67927"><ele>96.0</ele><time>2026-04-12T09:48:48.444Z</time></trkpt><trkpt lat="45.3485922" lon="10.6793534"><ele>96.0</ele><time>2026-04-12T09:48:49.444Z</time></trkpt><trkpt lat="45.3486622" lon="10.6794271"><ele>96.0</ele><time>2026-04-12T09:48:50.44Z</time></trkpt><trkpt lat="45.3487147" lon="10.6794852"><ele>96.0</ele><time>2026-04-12T09:48:51.446Z</time></trkpt><trkpt lat="45.3487679" lon="10.6795507"><ele>96.0</ele><time>2026-04-12T09:48:53.445Z</time></trkpt><trkpt lat="45.3488298" lon="10.6795872"><ele>96.0</ele><time>2026-04-12T09:48:57.437Z</time></trkpt><trkpt lat="45.3488718" lon="10.6795065"><ele>95.8</ele><time>2026-04-12T09:49:00.438Z</time></trkpt><trkpt lat="45.3489587" lon="10.6795687"><ele>95.6</ele><time>2026-04-12T09:49:02.433Z</time></trkpt><trkpt lat="45.3490264" lon="10.6796529"><ele>95.4</ele><time>2026-04-12T09:49:03.431Z</time></trkpt><trkpt lat="45.3491079" lon="10.6797547"><ele>95.2</ele><time>2026-04-12T09:49:04.437Z</time></trkpt><trkpt lat="45.3492049" lon="10.6798648"><ele>95.0</ele><time>2026-04-12T09:49:05.433Z</time></trkpt><trkpt lat="45.3493123" lon="10.6799852"><ele>95.0</ele><time>2026-04-12T09:49:06.444Z</time></trkpt><trkpt lat="45.3494273" lon="10.680117"><ele>95.0</ele><time>2026-04-12T09:49:07.439Z</time></trkpt><trkpt lat="45.349547" lon="10.6802548"><ele>95.0</ele><time>2026-04-12T09:49:08.437Z</time></trkpt><trkpt lat="45.3496646" lon="10.6803855"><ele>95.25</ele><time>2026-04-12T09:49:09.442Z</time></trkpt><trkpt lat="45.349773" lon="10.6805064"><ele>95.5</ele><time>2026-04-12T09:49:10.435Z</time></trkpt><trkpt lat="45.3498755" lon="10.6806242"><ele>95.75</ele><time>2026-04-12T09:49:11.438Z</time></trkpt><trkpt lat="45.3499757" lon="10.6807417"><ele>96.0</ele><time>2026-04-12T09:49:12.436Z</time></trkpt><trkpt lat="45.3500795" lon="10.680863"><ele>96.0</ele><time>2026-04-12T09:49:13.438Z</time></trkpt><trkpt lat="45.350181" lon="10.6809861"><ele>96.0</ele><time>2026-04-12T09:49:14.438Z</time></trkpt><trkpt lat="45.3502812" lon="10.681103"><ele>96.0</ele><time>2026-04-12T09:49:15.444Z</time></trkpt><trkpt lat="45.35038" lon="10.6812114"><ele>96.0</ele><time>2026-04-12T09:49:16.44Z</time></trkpt><trkpt lat="45.3504789" lon="10.6813108"><ele>96.5</ele><time>2026-04-12T09:49:17.434Z</time></trkpt><trkpt lat="45.3505769" lon="10.6814017"><ele>97.0</ele><time>2026-04-12T09:49:18.446Z</time></trkpt><trkpt lat="45.3506779" lon="10.6814879"><ele>97.5</ele><time>2026-04-12T09:49:19.443Z</time></trkpt><trkpt lat="45.3507825" lon="10.6815633"><ele>98.0</ele><time>2026-04-12T09:49:20.442Z</time></trkpt><trkpt lat="45.3508907" lon="10.6816281"><ele>98.0</ele><time>2026-04-12T09:49:21.438Z</time></trkpt><trkpt lat="45.3509984" lon="10.6816815"><ele>98.0</ele><time>2026-04-12T09:49:22.445Z</time></trkpt><trkpt lat="45.3511054" lon="10.6817206"><ele>98.0</ele><time>2026-04-12T09:49:23.441Z</time></trkpt><trkpt lat="45.3512068" lon="10.6817471"><ele>98.0</ele><time>2026-04-12T09:49:24.453Z</time></trkpt><trkpt lat="45.3513046" lon="10.6817651"><ele>98.0</ele><time>2026-04-12T09:49:25.447Z</time></trkpt><trkpt lat="45.3513938" lon="10.6817766"><ele>97.66666666666666</ele><time>2026-04-12T09:49:26.435Z</time></trkpt><trkpt lat="45.3514673" lon="10.6817811"><ele>97.33333333333333</ele><time>2026-04-12T09:49:27.437Z</time></trkpt><trkpt lat="45.3515666" lon="10.6817789"><ele>97.0</ele><time>2026-04-12T09:49:29.441Z</time></trkpt><trkpt lat="45.3516398" lon="10.6817638"><ele>96.66666666666666</ele><time>2026-04-12T09:49:32.441Z</time></trkpt><trkpt lat="45.3517061" lon="10.6817787"><ele>96.33333333333333</ele><time>2026-04-12T09:49:48.44Z</time></trkpt><trkpt lat="45.351768" lon="10.6817559"><ele>96.0</ele><time>2026-04-12T09:49:57.444Z</time></trkpt><trkpt lat="45.3518706" lon="10.6817328"><ele>96.0</ele><time>2026-04-12T09:49:59.443Z</time></trkpt><trkpt lat="45.3519431" lon="10.6817267"><ele>96.0</ele><time>2026-04-12T09:50:00.44Z</time></trkpt><trkpt lat="45.3520361" lon="10.6817157"><ele>96.0</ele><time>2026-04-12T09:50:01.438Z</time></trkpt><trkpt lat="45.3521421" lon="10.6817007"><ele>96.0</ele><time>2026-04-12T09:50:02.446Z</time></trkpt><trkpt lat="45.3522489" lon="10.681685"><ele>96.0</ele><time>2026-04-12T09:50:03.442Z</time></trkpt><trkpt lat="45.3523443" lon="10.6816682"><ele>96.0</ele><time>2026-04-12T09:50:04.44Z</time></trkpt><trkpt lat="45.3524336" lon="10.6816503"><ele>96.0</ele><time>2026-04-12T09:50:05.445Z</time></trkpt><trkpt lat="45.3525132" lon="10.6816397"><ele>96.0</ele><time>2026-04-12T09:50:06.446Z</time></trkpt><trkpt lat="45.3525876" lon="10.6816302"><ele>96.0</ele><time>2026-04-12T09:50:07.444Z</time></trkpt><trkpt lat="45.3526763" lon="10.681619"><ele>96.0</ele><time>2026-04-12T09:50:08.438Z</time></trkpt><trkpt lat="45.3527727" lon="10.6816136"><ele>96.0</ele><time>2026-04-12T09:50:09.441Z</time></trkpt><trkpt lat="45.3528638" lon="10.6816094"><ele>96.0</ele><time>2026-04-12T09:50:10.441Z</time></trkpt><trkpt lat="45.352944" lon="10.6816056"><ele>96.0</ele><time>2026-04-12T09:50:11.44Z</time></trkpt><trkpt lat="45.3530174" lon="10.6815952"><ele>96.0</ele><time>2026-04-12T09:50:12.441Z</time></trkpt><trkpt lat="45.3531237" lon="10.6815822"><ele>96.0</ele><time>2026-04-12T09:50:14.441Z</time></trkpt><trkpt lat="45.3532108" lon="10.6815787"><ele>96.0</ele><time>2026-04-12T09:50:16.436Z</time></trkpt><trkpt lat="45.3532807" lon="10.6815645"><ele>96.0</ele><time>2026-04-12T09:50:18.445Z</time></trkpt><trkpt lat="45.3533346" lon="10.6815167"><ele>96.33333333333333</ele><time>2026-04-12T09:50:51.436Z</time></trkpt><trkpt lat="45.3533798" lon="10.6814328"><ele>96.66666666666666</ele><time>2026-04-12T09:51:00.471Z</time></trkpt><trkpt lat="45.3533444" lon="10.6815095"><ele>97.0</ele><time>2026-04-12T10:10:28.443Z</time></trkpt><trkpt lat="45.3532856" lon="10.6814515"><ele>97.33333333333333</ele><time>2026-04-12T10:10:36.44Z</time></trkpt><trkpt lat="45.3533713" lon="10.6814793"><ele>97.66666666666666</ele><time>2026-04-12T10:11:03.444Z</time></trkpt><trkpt lat="45.3534521" lon="10.6814243"><ele>98.0</ele><time>2026-04-12T10:11:06.448Z</time></trkpt><trkpt lat="45.3534745" lon="10.6812853"><ele>97.99999999999999</ele><time>2026-04-12T10:11:09.438Z</time></trkpt><trkpt lat="45.3534723" lon="10.6811886"><ele>98.0</ele><time>2026-04-12T10:11:11.445Z</time></trkpt><trkpt lat="45.3535338" lon="10.6811303"><ele>98.0</ele><time>2026-04-12T10:11:15.434Z</time></trkpt><trkpt lat="45.3535862" lon="10.6810279"><ele>98.0</ele><time>2026-04-12T10:11:17.44Z</time></trkpt><trkpt lat="45.3535975" lon="10.6809226"><ele>97.99999999999999</ele><time>2026-04-12T10:11:18.436Z</time></trkpt><trkpt lat="45.3535987" lon="10.6807958"><ele>98.0</ele><time>2026-04-12T10:11:19.438Z</time></trkpt><trkpt lat="45.3536007" lon="10.6806587"><ele>98.0</ele><time>2026-04-12T10:11:20.446Z</time></trkpt><trkpt lat="45.3535999" lon="10.6805324"><ele>98.0</ele><time>2026-04-12T10:11:21.446Z</time></trkpt><trkpt lat="45.3535987" lon="10.6803967"><ele>98.0</ele><time>2026-04-12T10:11:22.445Z</time></trkpt><trkpt lat="45.3535976" lon="10.6802484"><ele>98.0</ele><time>2026-04-12T10:11:23.443Z</time></trkpt><trkpt lat="45.3535984" lon="10.6800909"><ele>98.0</ele><time>2026-04-12T10:11:24.445Z</time></trkpt><trkpt lat="45.3535981" lon="10.6799375"><ele>98.25</ele><time>2026-04-12T10:11:25.445Z</time></trkpt><trkpt lat="45.3535961" lon="10.6797791"><ele>98.5</ele><time>2026-04-12T10:11:26.449Z</time></trkpt><trkpt lat="45.3535941" lon="10.6796155"><ele>98.75</ele><time>2026-04-12T10:11:27.438Z</time></trkpt><trkpt lat="45.3535939" lon="10.6794481"><ele>99.0</ele><time>2026-04-12T10:11:28.439Z</time></trkpt><trkpt lat="45.3535943" lon="10.6792787"><ele>99.0</ele><time>2026-04-12T10:11:29.448Z</time></trkpt><trkpt lat="45.3535986" lon="10.6791053"><ele>99.0</ele><time>2026-04-12T10:11:30.443Z</time></trkpt><trkpt lat="45.3536057" lon="10.6789286"><ele>99.0</ele><time>2026-04-12T10:11:31.449Z</time></trkpt><trkpt lat="45.3536178" lon="10.6787531"><ele>99.0</ele><time>2026-04-12T10:11:32.441Z</time></trkpt><trkpt lat="45.3536349" lon="10.6785812"><ele>98.5</ele><time>2026-04-12T10:11:33.443Z</time></trkpt><trkpt lat="45.3536558" lon="10.6784144"><ele>98.0</ele><time>2026-04-12T10:11:34.445Z</time></trkpt><trkpt lat="45.353679" lon="10.6782482"><ele>97.5</ele><time>2026-04-12T10:11:35.45Z</time></trkpt><trkpt lat="45.3537022" lon="10.6780828"><ele>97.0</ele><time>2026-04-12T10:11:36.437Z</time></trkpt><trkpt lat="45.3537309" lon="10.6779185"><ele>96.75</ele><time>2026-04-12T10:11:37.447Z</time></trkpt><trkpt lat="45.3537618" lon="10.6777503"><ele>96.5</ele><time>2026-04-12T10:11:38.442Z</time></trkpt><trkpt lat="45.3537891" lon="10.6775748"><ele>96.25</ele><time>2026-04-12T10:11:39.447Z</time></trkpt><trkpt lat="45.3538175" lon="10.6774015"><ele>96.0</ele><time>2026-04-12T10:11:40.441Z</time></trkpt><trkpt lat="45.3538484" lon="10.6772315"><ele>96.0</ele><time>2026-04-12T10:11:41.453Z</time></trkpt><trkpt lat="45.3538774" lon="10.6770583"><ele>96.0</ele><time>2026-04-12T10:11:42.438Z</time></trkpt><trkpt lat="45.3539064" lon="10.6768839"><ele>96.0</ele><time>2026-04-12T10:11:43.441Z</time></trkpt><trkpt lat="45.3539354" lon="10.676711"><ele>96.0</ele><time>2026-04-12T10:11:44.441Z</time></trkpt><trkpt lat="45.3539629" lon="10.6765421"><ele>95.5</ele><time>2026-04-12T10:11:45.44Z</time></trkpt><trkpt lat="45.3539915" lon="10.6763744"><ele>95.0</ele><time>2026-04-12T10:11:46.438Z</time></trkpt><trkpt lat="45.3540229" lon="10.6762062"><ele>94.5</ele><time>2026-04-12T10:11:47.437Z</time></trkpt><trkpt lat="45.3540524" lon="10.6760369"><ele>94.0</ele><time>2026-04-12T10:11:48.459Z</time></trkpt><trkpt lat="45.3540822" lon="10.675864"><ele>94.75</ele><time>2026-04-12T10:11:49.443Z</time></trkpt><trkpt lat="45.3541129" lon="10.6756874"><ele>95.5</ele><time>2026-04-12T10:11:50.444Z</time></trkpt><trkpt lat="45.3541432" lon="10.6755087"><ele>96.25</ele><time>2026-04-12T10:11:51.447Z</time></trkpt><trkpt lat="45.3541719" lon="10.6753276"><ele>97.0</ele><time>2026-04-12T10:11:52.437Z</time></trkpt><trkpt lat="45.3542015" lon="10.675147"><ele>97.0</ele><time>2026-04-12T10:11:53.45Z</time></trkpt><trkpt lat="45.354233" lon="10.674967"><ele>97.0</ele><time>2026-04-12T10:11:54.435Z</time></trkpt><trkpt lat="45.354265" lon="10.6747864"><ele>97.0</ele><time>2026-04-12T10:11:55.446Z</time></trkpt><trkpt lat="45.3542963" lon="10.6746031"><ele>97.0</ele><time>2026-04-12T10:11:56.444Z</time></trkpt><trkpt lat="45.3543272" lon="10.6744173"><ele>96.75</ele><time>2026-04-12T10:11:57.451Z</time></trkpt><trkpt lat="45.3543587" lon="10.6742282"><ele>96.5</ele><time>2026-04-12T10:11:58.439Z</time></trkpt><trkpt lat="45.3543914" lon="10.674038"><ele>96.25</ele><time>2026-04-12T10:11:59.445Z</time></trkpt><trkpt lat="45.3544253" lon="10.6738465"><ele>96.0</ele><time>2026-04-12T10:12:00.445Z</time></trkpt><trkpt lat="45.3544564" lon="10.6736635"><ele>96.5</ele><time>2026-04-12T10:12:01.454Z</time></trkpt><trkpt lat="45.3544862" lon="10.6734886"><ele>97.0</ele><time>2026-04-12T10:12:02.44Z</time></trkpt><trkpt lat="45.3545157" lon="10.6733152"><ele>97.5</ele><time>2026-04-12T10:12:03.445Z</time></trkpt><trkpt lat="45.3545458" lon="10.6731346"><ele>98.0</ele><time>2026-04-12T10:12:04.435Z</time></trkpt><trkpt lat="45.3545762" lon="10.6729495"><ele>98.75</ele><time>2026-04-12T10:12:05.439Z</time></trkpt><trkpt lat="45.3546039" lon="10.6727688"><ele>99.5</ele><time>2026-04-12T10:12:06.448Z</time></trkpt><trkpt lat="45.3546292" lon="10.6725973"><ele>100.25</ele><time>2026-04-12T10:12:07.447Z</time></trkpt><trkpt lat="45.3546533" lon="10.672436"><ele>101.0</ele><time>2026-04-12T10:12:08.454Z</time></trkpt><trkpt lat="45.3546747" lon="10.6722729"><ele>101.0</ele><time>2026-04-12T10:12:09.45Z</time></trkpt><trkpt lat="45.3546937" lon="10.6721022"><ele>101.0</ele><time>2026-04-12T10:12:10.445Z</time></trkpt><trkpt lat="45.3547102" lon="10.6719266"><ele>101.0</ele><time>2026-04-12T10:12:11.443Z</time></trkpt><trkpt lat="45.3547209" lon="10.6717568"><ele>101.0</ele><time>2026-04-12T10:12:12.442Z</time></trkpt><trkpt lat="45.3547351" lon="10.6715817"><ele>102.0</ele><time>2026-04-12T10:12:13.446Z</time></trkpt><trkpt lat="45.3547489" lon="10.6713969"><ele>103.0</ele><time>2026-04-12T10:12:14.449Z</time></trkpt><trkpt lat="45.3547606" lon="10.6712022"><ele>104.0</ele><time>2026-04-12T10:12:15.448Z</time></trkpt><trkpt lat="45.3547741" lon="10.6710023"><ele>105.0</ele><time>2026-04-12T10:12:16.438Z</time></trkpt><trkpt lat="45.3547866" lon="10.6707989"><ele>106.0</ele><time>2026-04-12T10:12:17.442Z</time></trkpt><trkpt lat="45.354799" lon="10.6706038"><ele>107.0</ele><time>2026-04-12T10:12:18.443Z</time></trkpt><trkpt lat="45.3548123" lon="10.6704228"><ele>108.0</ele><time>2026-04-12T10:12:19.449Z</time></trkpt><trkpt lat="45.3548238" lon="10.6702477"><ele>109.0</ele><time>2026-04-12T10:12:20.452Z</time></trkpt><trkpt lat="45.3548363" lon="10.6700667"><ele>109.0</ele><time>2026-04-12T10:12:21.449Z</time></trkpt><trkpt lat="45.3548494" lon="10.6698814"><ele>109.0</ele><time>2026-04-12T10:12:22.446Z</time></trkpt><trkpt lat="45.3548623" lon="10.6696862"><ele>109.0</ele><time>2026-04-12T10:12:23.446Z</time></trkpt><trkpt lat="45.3548758" lon="10.6694842"><ele>109.0</ele><time>2026-04-12T10:12:24.443Z</time></trkpt><trkpt lat="45.354892" lon="10.6692792"><ele>108.75</ele><time>2026-04-12T10:12:25.448Z</time></trkpt><trkpt lat="45.3549087" lon="10.6690762"><ele>108.5</ele><time>2026-04-12T10:12:26.444Z</time></trkpt><trkpt lat="45.3549298" lon="10.6688759"><ele>108.25</ele><time>2026-04-12T10:12:27.441Z</time></trkpt><trkpt lat="45.3549588" lon="10.6686717"><ele>108.0</ele><time>2026-04-12T10:12:28.447Z</time></trkpt><trkpt lat="45.3549911" lon="10.6684703"><ele>108.0</ele><time>2026-04-12T10:12:29.439Z</time></trkpt><trkpt lat="45.3550257" lon="10.6682824"><ele>108.0</ele><time>2026-04-12T10:12:30.448Z</time></trkpt><trkpt lat="45.3550671" lon="10.668096"><ele>108.0</ele><time>2026-04-12T10:12:31.438Z</time></trkpt><trkpt lat="45.3551119" lon="10.6679119"><ele>108.0</ele><time>2026-04-12T10:12:32.45Z</time></trkpt><trkpt lat="45.3551599" lon="10.6677305"><ele>108.25</ele><time>2026-04-12T10:12:33.453Z</time></trkpt><trkpt lat="45.3552098" lon="10.6675483"><ele>108.5</ele><time>2026-04-12T10:12:34.441Z</time></trkpt><trkpt lat="45.3552598" lon="10.6673675"><ele>108.75</ele><time>2026-04-12T10:12:35.433Z</time></trkpt><trkpt lat="45.355309" lon="10.6671877"><ele>109.0</ele><time>2026-04-12T10:12:36.457Z</time></trkpt><trkpt lat="45.3553576" lon="10.6670082"><ele>108.5</ele><time>2026-04-12T10:12:37.444Z</time></trkpt><trkpt lat="45.3554062" lon="10.6668298"><ele>108.0</ele><time>2026-04-12T10:12:38.448Z</time></trkpt><trkpt lat="45.3554522" lon="10.6666523"><ele>107.5</ele><time>2026-04-12T10:12:39.452Z</time></trkpt><trkpt lat="45.3554966" lon="10.6664744"><ele>107.0</ele><time>2026-04-12T10:12:40.444Z</time></trkpt><trkpt lat="45.3555389" lon="10.6662964"><ele>108.25</ele><time>2026-04-12T10:12:41.445Z</time></trkpt><trkpt lat="45.3555767" lon="10.6661166"><ele>109.5</ele><time>2026-04-12T10:12:42.44Z</time></trkpt><trkpt lat="45.3556102" lon="10.6659344"><ele>110.75</ele><time>2026-04-12T10:12:43.437Z</time></trkpt><trkpt lat="45.3556402" lon="10.6657517"><ele>112.0</ele><time>2026-04-12T10:12:44.454Z</time></trkpt><trkpt lat="45.3556689" lon="10.6655686"><ele>112.0</ele><time>2026-04-12T10:12:45.449Z</time></trkpt><trkpt lat="45.3556963" lon="10.6653873"><ele>112.0</ele><time>2026-04-12T10:12:46.459Z</time></trkpt><trkpt lat="45.3557242" lon="10.6652051"><ele>112.0</ele><time>2026-04-12T10:12:47.444Z</time></trkpt><trkpt lat="45.3557512" lon="10.6650233"><ele>112.0</ele><time>2026-04-12T10:12:48.449Z</time></trkpt><trkpt lat="45.3557769" lon="10.6648401"><ele>111.5</ele><time>2026-04-12T10:12:49.45Z</time></trkpt><trkpt lat="45.355803" lon="10.6646582"><ele>111.0</ele><time>2026-04-12T10:12:50.442Z</time></trkpt><trkpt lat="45.3558293" lon="10.6644786"><ele>110.5</ele><time>2026-04-12T10:12:51.445Z</time></trkpt><trkpt lat="45.3558539" lon="10.6642986"><ele>110.0</ele><time>2026-04-12T10:12:52.448Z</time></trkpt><trkpt lat="45.3558788" lon="10.6641155"><ele>110.0</ele><time>2026-04-12T10:12:53.448Z</time></trkpt><trkpt lat="45.3559041" lon="10.6639298"><ele>110.0</ele><time>2026-04-12T10:12:54.451Z</time></trkpt><trkpt lat="45.3559303" lon="10.6637433"><ele>110.0</ele><time>2026-04-12T10:12:55.445Z</time></trkpt><trkpt lat="45.3559565" lon="10.6635563"><ele>110.0</ele><time>2026-04-12T10:12:56.445Z</time></trkpt><trkpt lat="45.3559815" lon="10.6633706"><ele>110.0</ele><time>2026-04-12T10:12:57.449Z</time></trkpt><trkpt lat="45.356006" lon="10.6631959"><ele>110.0</ele><time>2026-04-12T10:12:58.45Z</time></trkpt><trkpt lat="45.3560301" lon="10.6630339"><ele>110.0</ele><time>2026-04-12T10:12:59.443Z</time></trkpt><trkpt lat="45.356051" lon="10.6628855"><ele>110.0</ele><time>2026-04-12T10:13:00.446Z</time></trkpt><trkpt lat="45.3560684" lon="10.6627496"><ele>110.0</ele><time>2026-04-12T10:13:01.446Z</time></trkpt><trkpt lat="45.3560864" lon="10.6626213"><ele>109.83333333333333</ele><time>2026-04-12T10:13:02.435Z</time></trkpt><trkpt lat="45.3561054" lon="10.6625003"><ele>109.66666666666666</ele><time>2026-04-12T10:13:03.445Z</time></trkpt><trkpt lat="45.356122" lon="10.6623897"><ele>109.5</ele><time>2026-04-12T10:13:04.446Z</time></trkpt><trkpt lat="45.3561355" lon="10.6622908"><ele>109.33333333333334</ele><time>2026-04-12T10:13:05.439Z</time></trkpt><trkpt lat="45.3561647" lon="10.6621481"><ele>109.16666666666667</ele><time>2026-04-12T10:13:07.453Z</time></trkpt><trkpt lat="45.3562271" lon="10.6620846"><ele>109.0</ele><time>2026-04-12T10:13:09.438Z</time></trkpt><trkpt lat="45.3563443" lon="10.6621024"><ele>109.2</ele><time>2026-04-12T10:13:11.441Z</time></trkpt><trkpt lat="45.3564254" lon="10.6621324"><ele>109.4</ele><time>2026-04-12T10:13:12.451Z</time></trkpt><trkpt lat="45.3565218" lon="10.6621662"><ele>109.6</ele><time>2026-04-12T10:13:13.443Z</time></trkpt><trkpt lat="45.356628" lon="10.6621949"><ele>109.8</ele><time>2026-04-12T10:13:14.444Z</time></trkpt><trkpt lat="45.3567405" lon="10.6622142"><ele>110.0</ele><time>2026-04-12T10:13:15.442Z</time></trkpt><trkpt lat="45.3568557" lon="10.6622205"><ele>110.0</ele><time>2026-04-12T10:13:16.445Z</time></trkpt><trkpt lat="45.356971" lon="10.6622182"><ele>110.0</ele><time>2026-04-12T10:13:17.447Z</time></trkpt><trkpt lat="45.3570875" lon="10.6622162"><ele>110.0</ele><time>2026-04-12T10:13:18.451Z</time></trkpt><trkpt lat="45.3572064" lon="10.6622281"><ele>110.0</ele><time>2026-04-12T10:13:19.429Z</time></trkpt><trkpt lat="45.3573256" lon="10.6622527"><ele>110.75</ele><time>2026-04-12T10:13:20.446Z</time></trkpt><trkpt lat="45.357445" lon="10.6622733"><ele>111.5</ele><time>2026-04-12T10:13:21.445Z</time></trkpt><trkpt lat="45.357564" lon="10.6622791"><ele>112.25</ele><time>2026-04-12T10:13:22.44Z</time></trkpt><trkpt lat="45.3576849" lon="10.662274"><ele>113.0</ele><time>2026-04-12T10:13:23.442Z</time></trkpt><trkpt lat="45.3578071" lon="10.6622609"><ele>113.0</ele><time>2026-04-12T10:13:24.448Z</time></trkpt><trkpt lat="45.3579263" lon="10.6622429"><ele>113.00000000000001</ele><time>2026-04-12T10:13:25.435Z</time></trkpt><trkpt lat="45.3580321" lon="10.6622257"><ele>113.00000000000001</ele><time>2026-04-12T10:13:26.448Z</time></trkpt><trkpt lat="45.3581242" lon="10.6622101"><ele>113.0</ele><time>2026-04-12T10:13:27.443Z</time></trkpt><trkpt lat="45.3582163" lon="10.6621951"><ele>113.0</ele><time>2026-04-12T10:13:28.443Z</time></trkpt><trkpt lat="45.3582967" lon="10.6621714"><ele>113.49999999999999</ele><time>2026-04-12T10:13:29.443Z</time></trkpt><trkpt lat="45.3583733" lon="10.6621346"><ele>114.0</ele><time>2026-04-12T10:13:30.439Z</time></trkpt><trkpt lat="45.3584435" lon="10.6620751"><ele>114.5</ele><time>2026-04-12T10:13:31.438Z</time></trkpt><trkpt lat="45.3585086" lon="10.6619911"><ele>115.0</ele><time>2026-04-12T10:13:32.444Z</time></trkpt><trkpt lat="45.358566" lon="10.6619137"><ele>115.49999999999999</ele><time>2026-04-12T10:13:33.451Z</time></trkpt><trkpt lat="45.3586104" lon="10.6618233"><ele>116.0</ele><time>2026-04-12T10:13:34.449Z</time></trkpt><trkpt lat="45.3586668" lon="10.661732"><ele>115.99999999999999</ele><time>2026-04-12T10:13:35.445Z</time></trkpt><trkpt lat="45.3587229" lon="10.6616428"><ele>116.0</ele><time>2026-04-12T10:13:36.442Z</time></trkpt><trkpt lat="45.3587728" lon="10.6615647"><ele>116.0</ele><time>2026-04-12T10:13:37.44Z</time></trkpt><trkpt lat="45.3588105" lon="10.661483"><ele>116.0</ele><time>2026-04-12T10:13:38.44Z</time></trkpt><trkpt lat="45.3588205" lon="10.6613193"><ele>115.99999999999999</ele><time>2026-04-12T10:13:40.446Z</time></trkpt><trkpt lat="45.3587931" lon="10.6612295"><ele>116.0</ele><time>2026-04-12T10:13:41.444Z</time></trkpt><trkpt lat="45.3587471" lon="10.6610902"><ele>117.00000000000001</ele><time>2026-04-12T10:13:43.452Z</time></trkpt><trkpt lat="45.3587491" lon="10.6609819"><ele>118.0</ele><time>2026-04-12T10:13:46.434Z</time></trkpt><trkpt lat="45.3587798" lon="10.6608939"><ele>119.00000000000001</ele><time>2026-04-12T10:13:48.442Z</time></trkpt><trkpt lat="45.3587648" lon="10.6607971"><ele>120.00000000000001</ele><time>2026-04-12T10:13:54.445Z</time></trkpt><trkpt lat="45.3587547" lon="10.660685"><ele>121.0</ele><time>2026-04-12T10:14:56.437Z</time></trkpt><trkpt lat="45.3587301" lon="10.6605981"><ele>122.00000000000001</ele><time>2026-04-12T10:14:59.446Z</time></trkpt><trkpt lat="45.3587121" lon="10.6605008"><ele>123.00000000000001</ele><time>2026-04-12T10:15:13.44Z</time></trkpt><trkpt lat="45.358656" lon="10.6604549"><ele>123.0</ele><time>2026-04-12T10:15:17.44Z</time></trkpt><trkpt lat="45.3585988" lon="10.6603942"><ele>123.0</ele><time>2026-04-12T10:15:22.44Z</time></trkpt><trkpt lat="45.3585495" lon="10.6603173"><ele>123.0</ele><time>2026-04-12T10:15:27.435Z</time></trkpt><trkpt lat="45.3584978" lon="10.6602029"><ele>123.0</ele><time>2026-04-12T10:15:32.434Z</time></trkpt><trkpt lat="45.3584849" lon="10.660082"><ele>123.0</ele><time>2026-04-12T10:15:34.441Z</time></trkpt><trkpt lat="45.3584642" lon="10.6599815"><ele>123.0</ele><time>2026-04-12T10:15:36.44Z</time></trkpt><trkpt lat="45.3584032" lon="10.6598293"><ele>124.16666666666667</ele><time>2026-04-12T10:15:38.442Z</time></trkpt><trkpt lat="45.3583576" lon="10.6597279"><ele>125.33333333333334</ele><time>2026-04-12T10:15:39.437Z</time></trkpt><trkpt lat="45.358323" lon="10.659627"><ele>126.5</ele><time>2026-04-12T10:15:40.444Z</time></trkpt><trkpt lat="45.3583004" lon="10.6595278"><ele>127.66666666666667</ele><time>2026-04-12T10:15:41.441Z</time></trkpt><trkpt lat="45.3582908" lon="10.6594141"><ele>128.83333333333334</ele><time>2026-04-12T10:15:42.449Z</time></trkpt><trkpt lat="45.3582864" lon="10.6593018"><ele>130.0</ele><time>2026-04-12T10:15:43.436Z</time></trkpt><trkpt lat="45.3582751" lon="10.6591959"><ele>130.0</ele><time>2026-04-12T10:15:44.448Z</time></trkpt><trkpt lat="45.3582613" lon="10.6590969"><ele>130.0</ele><time>2026-04-12T10:15:45.444Z</time></trkpt><trkpt lat="45.3582482" lon="10.6590085"><ele>130.0</ele><time>2026-04-12T10:15:46.445Z</time></trkpt><trkpt lat="45.3582099" lon="10.6588823"><ele>130.0</ele><time>2026-04-12T10:15:48.443Z</time></trkpt><trkpt lat="45.3581629" lon="10.6587871"><ele>130.0</ele><time>2026-04-12T10:15:50.445Z</time></trkpt><trkpt lat="45.3581263" lon="10.6586352"><ele>130.0</ele><time>2026-04-12T10:15:52.442Z</time></trkpt><trkpt lat="45.358113" lon="10.6585416"><ele>130.16666666666669</ele><time>2026-04-12T10:15:53.438Z</time></trkpt><trkpt lat="45.3580942" lon="10.6584512"><ele>130.33333333333334</ele><time>2026-04-12T10:15:54.442Z</time></trkpt><trkpt lat="45.3580668" lon="10.6583469"><ele>130.5</ele><time>2026-04-12T10:15:55.438Z</time></trkpt><trkpt lat="45.3580487" lon="10.6582284"><ele>130.66666666666666</ele><time>2026-04-12T10:15:56.439Z</time></trkpt><trkpt lat="45.3580422" lon="10.6580998"><ele>130.83333333333331</ele><time>2026-04-12T10:15:57.444Z</time></trkpt><trkpt lat="45.3580429" lon="10.6579773"><ele>131.0</ele><time>2026-04-12T10:15:58.445Z</time></trkpt><trkpt lat="45.3580462" lon="10.6578711"><ele>131.16666666666666</ele><time>2026-04-12T10:15:59.447Z</time></trkpt><trkpt lat="45.3580585" lon="10.6577797"><ele>131.33333333333331</ele><time>2026-04-12T10:16:00.443Z</time></trkpt><trkpt lat="45.3580885" lon="10.6576993"><ele>131.5</ele><time>2026-04-12T10:16:01.433Z</time></trkpt><trkpt lat="45.3581394" lon="10.6576229"><ele>131.66666666666666</ele><time>2026-04-12T10:16:02.441Z</time></trkpt><trkpt lat="45.3582096" lon="10.6575403"><ele>131.83333333333334</ele><time>2026-04-12T10:16:03.442Z</time></trkpt><trkpt lat="45.3582825" lon="10.6574509"><ele>132.0</ele><time>2026-04-12T10:16:04.447Z</time></trkpt><trkpt lat="45.3583584" lon="10.6573601"><ele>132.0</ele><time>2026-04-12T10:16:05.45Z</time></trkpt><trkpt lat="45.3584313" lon="10.6572748"><ele>132.0</ele><time>2026-04-12T10:16:06.444Z</time></trkpt><trkpt lat="45.3585238" lon="10.6572195"><ele>132.0</ele><time>2026-04-12T10:16:07.44Z</time></trkpt><trkpt lat="45.3586142" lon="10.6571711"><ele>132.0</ele><time>2026-04-12T10:16:08.436Z</time></trkpt><trkpt lat="45.3586947" lon="10.6571264"><ele>132.0</ele><time>2026-04-12T10:16:09.44Z</time></trkpt><trkpt lat="45.3587575" lon="10.6570982"><ele>132.0</ele><time>2026-04-12T10:16:10.445Z</time></trkpt><trkpt lat="45.3588468" lon="10.6571269"><ele>132.66666666666666</ele><time>2026-04-12T10:16:12.441Z</time></trkpt><trkpt lat="45.3588898" lon="10.6572758"><ele>133.33333333333334</ele><time>2026-04-12T10:16:14.446Z</time></trkpt><trkpt lat="45.3589288" lon="10.6573522"><ele>134.0</ele><time>2026-04-12T10:16:16.439Z</time></trkpt><trkpt lat="45.3589922" lon="10.6573557"><ele>134.66666666666669</ele><time>2026-04-12T10:16:18.441Z</time></trkpt><trkpt lat="45.3590879" lon="10.6572716"><ele>135.33333333333334</ele><time>2026-04-12T10:16:20.443Z</time></trkpt><trkpt lat="45.359109" lon="10.6571607"><ele>136.0</ele><time>2026-04-12T10:16:22.441Z</time></trkpt><trkpt lat="45.3590613" lon="10.6569804"><ele>135.0</ele><time>2026-04-12T10:16:24.439Z</time></trkpt><trkpt lat="45.3590201" lon="10.6568655"><ele>134.0</ele><time>2026-04-12T10:16:25.449Z</time></trkpt><trkpt lat="45.3589732" lon="10.6567149"><ele>133.0</ele><time>2026-04-12T10:16:26.442Z</time></trkpt><trkpt lat="45.3589122" lon="10.6565191"><ele>132.0</ele><time>2026-04-12T10:16:27.444Z</time></trkpt><trkpt lat="45.3588538" lon="10.6563333"><ele>132.0</ele><time>2026-04-12T10:16:28.434Z</time></trkpt><trkpt lat="45.3587975" lon="10.6561569"><ele>132.0</ele><time>2026-04-12T10:16:29.442Z</time></trkpt><trkpt lat="45.3587444" lon="10.6559912"><ele>132.0</ele><time>2026-04-12T10:16:30.439Z</time></trkpt><trkpt lat="45.358695" lon="10.6558387"><ele>132.0</ele><time>2026-04-12T10:16:31.442Z</time></trkpt><trkpt lat="45.3586489" lon="10.6557146"><ele>132.0</ele><time>2026-04-12T10:16:32.439Z</time></trkpt><trkpt lat="45.3586113" lon="10.6556379"><ele>132.0</ele><time>2026-04-12T10:16:33.443Z</time></trkpt><trkpt lat="45.3585692" lon="10.6555223"><ele>132.0</ele><time>2026-04-12T10:16:35.442Z</time></trkpt><trkpt lat="45.3585569" lon="10.6554185"><ele>132.0</ele><time>2026-04-12T10:16:37.446Z</time></trkpt><trkpt lat="45.3584861" lon="10.6553216"><ele>132.0</ele><time>2026-04-12T10:16:40.441Z</time></trkpt><trkpt lat="45.3584038" lon="10.6552167"><ele>132.0</ele><time>2026-04-12T10:16:42.444Z</time></trkpt><trkpt lat="45.3583563" lon="10.6550816"><ele>131.66666666666666</ele><time>2026-04-12T10:16:44.441Z</time></trkpt><trkpt lat="45.3582822" lon="10.65498"><ele>131.33333333333334</ele><time>2026-04-12T10:16:46.454Z</time></trkpt><trkpt lat="45.3582017" lon="10.654911"><ele>131.0</ele><time>2026-04-12T10:16:48.442Z</time></trkpt><trkpt lat="45.3581485" lon="10.6548389"><ele>130.66666666666669</ele><time>2026-04-12T10:16:50.445Z</time></trkpt><trkpt lat="45.3581021" lon="10.6547713"><ele>130.33333333333334</ele><time>2026-04-12T10:16:52.451Z</time></trkpt><trkpt lat="45.3580667" lon="10.654673"><ele>130.0</ele><time>2026-04-12T10:16:54.443Z</time></trkpt><trkpt lat="45.3580385" lon="10.654568"><ele>127.16666666666667</ele><time>2026-04-12T10:16:56.454Z</time></trkpt><trkpt lat="45.3580076" lon="10.6544441"><ele>124.33333333333334</ele><time>2026-04-12T10:16:58.442Z</time></trkpt><trkpt lat="45.3579872" lon="10.6543088"><ele>121.5</ele><time>2026-04-12T10:17:00.446Z</time></trkpt><trkpt lat="45.3579578" lon="10.6542103"><ele>118.66666666666666</ele><time>2026-04-12T10:17:02.438Z</time></trkpt><trkpt lat="45.357913" lon="10.6541142"><ele>115.83333333333333</ele><time>2026-04-12T10:17:05.482Z</time></trkpt><trkpt lat="45.3578608" lon="10.6540602"><ele>113.0</ele><time>2026-04-12T10:17:07.44Z</time></trkpt><trkpt lat="45.3577896" lon="10.6540168"><ele>112.99999999999999</ele><time>2026-04-12T10:17:09.438Z</time></trkpt><trkpt lat="45.3577142" lon="10.6539669"><ele>113.0</ele><time>2026-04-12T10:17:11.438Z</time></trkpt><trkpt lat="45.3576531" lon="10.6538988"><ele>113.0</ele><time>2026-04-12T10:17:14.445Z</time></trkpt><trkpt lat="45.357627" lon="10.6538145"><ele>113.0</ele><time>2026-04-12T10:17:17.442Z</time></trkpt><trkpt lat="45.3576044" lon="10.6537179"><ele>112.99999999999999</ele><time>2026-04-12T10:17:19.439Z</time></trkpt><trkpt lat="45.357622" lon="10.6535868"><ele>113.0</ele><time>2026-04-12T10:17:22.438Z</time></trkpt><trkpt lat="45.3576393" lon="10.6534205"><ele>112.33333333333333</ele><time>2026-04-12T10:17:24.43Z</time></trkpt><trkpt lat="45.3576319" lon="10.6533009"><ele>111.66666666666666</ele><time>2026-04-12T10:17:25.436Z</time></trkpt><trkpt lat="45.3576263" lon="10.6531803"><ele>111.0</ele><time>2026-04-12T10:17:26.442Z</time></trkpt><trkpt lat="45.3576203" lon="10.6530748"><ele>110.33333333333334</ele><time>2026-04-12T10:17:27.444Z</time></trkpt><trkpt lat="45.3576233" lon="10.652979"><ele>109.66666666666667</ele><time>2026-04-12T10:17:28.439Z</time></trkpt><trkpt lat="45.3576493" lon="10.6528078"><ele>109.0</ele><time>2026-04-12T10:17:30.447Z</time></trkpt><trkpt lat="45.3576664" lon="10.6527173"><ele>109.00000000000001</ele><time>2026-04-12T10:17:31.443Z</time></trkpt><trkpt lat="45.3577025" lon="10.6525629"><ele>109.0</ele><time>2026-04-12T10:17:33.447Z</time></trkpt><trkpt lat="45.3577265" lon="10.6524799"><ele>109.0</ele><time>2026-04-12T10:17:35.443Z</time></trkpt><trkpt lat="45.357746" lon="10.6523935"><ele>109.0</ele><time>2026-04-12T10:17:37.439Z</time></trkpt><trkpt lat="45.3577597" lon="10.6522405"><ele>109.00000000000001</ele><time>2026-04-12T10:17:39.446Z</time></trkpt><trkpt lat="45.3577369" lon="10.6521227"><ele>109.0</ele><time>2026-04-12T10:17:41.445Z</time></trkpt><trkpt lat="45.3576732" lon="10.6520017"><ele>110.0</ele><time>2026-04-12T10:17:44.444Z</time></trkpt><trkpt lat="45.357612" lon="10.6519263"><ele>111.0</ele><time>2026-04-12T10:17:46.446Z</time></trkpt><trkpt lat="45.3576121" lon="10.6518272"><ele>112.0</ele><time>2026-04-12T10:17:48.439Z</time></trkpt><trkpt lat="45.3576008" lon="10.6516991"><ele>113.0</ele><time>2026-04-12T10:17:51.444Z</time></trkpt><trkpt lat="45.3575858" lon="10.6515341"><ele>114.0</ele><time>2026-04-12T10:17:53.444Z</time></trkpt><trkpt lat="45.3575686" lon="10.6513743"><ele>114.0</ele><time>2026-04-12T10:17:55.445Z</time></trkpt><trkpt lat="45.3575386" lon="10.6512315"><ele>114.0</ele><time>2026-04-12T10:17:57.441Z</time></trkpt><trkpt lat="45.3575124" lon="10.6511068"><ele>114.0</ele><time>2026-04-12T10:17:59.432Z</time></trkpt><trkpt lat="45.3574784" lon="10.650991"><ele>114.0</ele><time>2026-04-12T10:18:01.435Z</time></trkpt><trkpt lat="45.3574467" lon="10.6508991"><ele>114.0</ele><time>2026-04-12T10:18:03.447Z</time></trkpt><trkpt lat="45.357415" lon="10.650811"><ele>114.0</ele><time>2026-04-12T10:18:06.44Z</time></trkpt><trkpt lat="45.3573717" lon="10.6507026"><ele>114.33333333333333</ele><time>2026-04-12T10:18:13.442Z</time></trkpt><trkpt lat="45.3573469" lon="10.6506191"><ele>114.66666666666666</ele><time>2026-04-12T10:18:16.442Z</time></trkpt><trkpt lat="45.357327" lon="10.6504598"><ele>115.0</ele><time>2026-04-12T10:18:19.432Z</time></trkpt><trkpt lat="45.3573066" lon="10.650336"><ele>115.33333333333333</ele><time>2026-04-12T10:18:21.446Z</time></trkpt><trkpt lat="45.3572621" lon="10.6502373"><ele>115.66666666666666</ele><time>2026-04-12T10:18:24.437Z</time></trkpt><trkpt lat="45.3572192" lon="10.6501454"><ele>116.0</ele><time>2026-04-12T10:18:27.446Z</time></trkpt><trkpt lat="45.3571787" lon="10.6500386"><ele>115.99999999999999</ele><time>2026-04-12T10:18:30.444Z</time></trkpt><trkpt lat="45.3571336" lon="10.6499628"><ele>116.0</ele><time>2026-04-12T10:18:33.44Z</time></trkpt><trkpt lat="45.357082" lon="10.6499003"><ele>116.0</ele><time>2026-04-12T10:18:36.454Z</time></trkpt><trkpt lat="45.3570384" lon="10.6497985"><ele>116.0</ele><time>2026-04-12T10:18:39.446Z</time></trkpt><trkpt lat="45.3570543" lon="10.6496837"><ele>115.99999999999999</ele><time>2026-04-12T10:18:43.439Z</time></trkpt><trkpt lat="45.3570396" lon="10.6495396"><ele>116.0</ele><time>2026-04-12T10:19:52.439Z</time></trkpt><trkpt lat="45.3570575" lon="10.6493538"><ele>115.4</ele><time>2026-04-12T10:19:54.446Z</time></trkpt><trkpt lat="45.3570772" lon="10.6492307"><ele>114.8</ele><time>2026-04-12T10:19:55.44Z</time></trkpt><trkpt lat="45.3570959" lon="10.6490957"><ele>114.20000000000002</ele><time>2026-04-12T10:19:56.438Z</time></trkpt><trkpt lat="45.3571178" lon="10.6489509"><ele>113.60000000000001</ele><time>2026-04-12T10:19:57.443Z</time></trkpt><trkpt lat="45.3571372" lon="10.6487906"><ele>113.0</ele><time>2026-04-12T10:19:58.433Z</time></trkpt><trkpt lat="45.3571574" lon="10.6486266"><ele>113.25</ele><time>2026-04-12T10:19:59.444Z</time></trkpt><trkpt lat="45.3571811" lon="10.648452"><ele>113.5</ele><time>2026-04-12T10:20:00.438Z</time></trkpt><trkpt lat="45.3572041" lon="10.6482674"><ele>113.75</ele><time>2026-04-12T10:20:01.436Z</time></trkpt><trkpt lat="45.3572272" lon="10.6480812"><ele>114.0</ele><time>2026-04-12T10:20:02.447Z</time></trkpt><trkpt lat="45.35725" lon="10.6479019"><ele>114.0</ele><time>2026-04-12T10:20:03.436Z</time></trkpt><trkpt lat="45.3572744" lon="10.6477268"><ele>114.0</ele><time>2026-04-12T10:20:04.441Z</time></trkpt><trkpt lat="45.3572981" lon="10.6475499"><ele>114.0</ele><time>2026-04-12T10:20:05.449Z</time></trkpt><trkpt lat="45.3573212" lon="10.6473712"><ele>114.0</ele><time>2026-04-12T10:20:06.449Z</time></trkpt><trkpt lat="45.357343" lon="10.6471928"><ele>114.0</ele><time>2026-04-12T10:20:07.433Z</time></trkpt><trkpt lat="45.357365" lon="10.6470213"><ele>114.0</ele><time>2026-04-12T10:20:08.441Z</time></trkpt><trkpt lat="45.357387" lon="10.6468535"><ele>114.0</ele><time>2026-04-12T10:20:09.439Z</time></trkpt><trkpt lat="45.3574099" lon="10.6466831"><ele>114.0</ele><time>2026-04-12T10:20:10.441Z</time></trkpt><trkpt lat="45.3574325" lon="10.6465068"><ele>114.0</ele><time>2026-04-12T10:20:11.438Z</time></trkpt><trkpt lat="45.3574541" lon="10.6463265"><ele>114.0</ele><time>2026-04-12T10:20:12.446Z</time></trkpt><trkpt lat="45.3574769" lon="10.6461408"><ele>114.0</ele><time>2026-04-12T10:20:13.441Z</time></trkpt><trkpt lat="45.3575019" lon="10.6459498"><ele>114.0</ele><time>2026-04-12T10:20:14.439Z</time></trkpt><trkpt lat="45.3575283" lon="10.6457529"><ele>114.25</ele><time>2026-04-12T10:20:15.443Z</time></trkpt><trkpt lat="45.3575543" lon="10.6455542"><ele>114.5</ele><time>2026-04-12T10:20:16.437Z</time></trkpt><trkpt lat="45.3575815" lon="10.6453592"><ele>114.75</ele><time>2026-04-12T10:20:17.449Z</time></trkpt><trkpt lat="45.3576088" lon="10.6451659"><ele>115.0</ele><time>2026-04-12T10:20:18.444Z</time></trkpt><trkpt lat="45.3576376" lon="10.6449715"><ele>115.5</ele><time>2026-04-12T10:20:19.442Z</time></trkpt><trkpt lat="45.3576683" lon="10.644774"><ele>116.0</ele><time>2026-04-12T10:20:20.436Z</time></trkpt><trkpt lat="45.3576968" lon="10.6445699"><ele>116.5</ele><time>2026-04-12T10:20:21.448Z</time></trkpt><trkpt lat="45.3577225" lon="10.6443617"><ele>117.0</ele><time>2026-04-12T10:20:22.444Z</time></trkpt><trkpt lat="45.3577486" lon="10.6441524"><ele>118.0</ele><time>2026-04-12T10:20:23.44Z</time></trkpt><trkpt lat="45.3577769" lon="10.6439396"><ele>119.0</ele><time>2026-04-12T10:20:24.446Z</time></trkpt><trkpt lat="45.3578042" lon="10.6437247"><ele>120.0</ele><time>2026-04-12T10:20:25.442Z</time></trkpt><trkpt lat="45.357827" lon="10.6435084"><ele>120.33333333333334</ele><time>2026-04-12T10:20:26.442Z</time></trkpt><trkpt lat="45.3578507" lon="10.6432897"><ele>120.66666666666667</ele><time>2026-04-12T10:20:27.438Z</time></trkpt><trkpt lat="45.3578746" lon="10.6430736"><ele>121.0</ele><time>2026-04-12T10:20:28.437Z</time></trkpt><trkpt lat="45.3578985" lon="10.6428728"><ele>121.5</ele><time>2026-04-12T10:20:29.441Z</time></trkpt><trkpt lat="45.3579244" lon="10.6426866"><ele>122.0</ele><time>2026-04-12T10:20:30.452Z</time></trkpt><trkpt lat="45.357943" lon="10.6424755"><ele>122.5</ele><time>2026-04-12T10:20:31.438Z</time></trkpt><trkpt lat="45.3579586" lon="10.642269"><ele>123.0</ele><time>2026-04-12T10:20:32.443Z</time></trkpt><trkpt lat="45.3579759" lon="10.642057"><ele>123.33333333333334</ele><time>2026-04-12T10:20:33.446Z</time></trkpt><trkpt lat="45.3579962" lon="10.6418354"><ele>123.66666666666667</ele><time>2026-04-12T10:20:34.44Z</time></trkpt><trkpt lat="45.3580185" lon="10.6416162"><ele>124.0</ele><time>2026-04-12T10:20:35.448Z</time></trkpt><trkpt lat="45.3580409" lon="10.6414068"><ele>126.25</ele><time>2026-04-12T10:20:36.44Z</time></trkpt><trkpt lat="45.3580628" lon="10.6411975"><ele>128.5</ele><time>2026-04-12T10:20:37.445Z</time></trkpt><trkpt lat="45.3580828" lon="10.6409823"><ele>130.75</ele><time>2026-04-12T10:20:38.444Z</time></trkpt><trkpt lat="45.3580998" lon="10.6407846"><ele>133.0</ele><time>2026-04-12T10:20:39.444Z</time></trkpt><trkpt lat="45.3581128" lon="10.6405876"><ele>133.0</ele><time>2026-04-12T10:20:40.436Z</time></trkpt><trkpt lat="45.358134" lon="10.6403879"><ele>133.0</ele><time>2026-04-12T10:20:41.442Z</time></trkpt><trkpt lat="45.3581549" lon="10.6401934"><ele>133.0</ele><time>2026-04-12T10:20:42.443Z</time></trkpt><trkpt lat="45.3581752" lon="10.6399922"><ele>133.0</ele><time>2026-04-12T10:20:43.442Z</time></trkpt><trkpt lat="45.3581927" lon="10.639781"><ele>131.66666666666669</ele><time>2026-04-12T10:20:44.45Z</time></trkpt><trkpt lat="45.3582078" lon="10.6395668"><ele>130.33333333333334</ele><time>2026-04-12T10:20:45.439Z</time></trkpt><trkpt lat="45.3582257" lon="10.639356"><ele>129.0</ele><time>2026-04-12T10:20:46.446Z</time></trkpt><trkpt lat="45.3582471" lon="10.6391446"><ele>128.66666666666666</ele><time>2026-04-12T10:20:47.441Z</time></trkpt><trkpt lat="45.3582651" lon="10.6389318"><ele>128.33333333333331</ele><time>2026-04-12T10:20:48.444Z</time></trkpt><trkpt lat="45.3582821" lon="10.6387181"><ele>128.0</ele><time>2026-04-12T10:20:49.451Z</time></trkpt><trkpt lat="45.3583001" lon="10.6385065"><ele>128.0</ele><time>2026-04-12T10:20:50.45Z</time></trkpt><trkpt lat="45.3583212" lon="10.6382917"><ele>128.0</ele><time>2026-04-12T10:20:51.44Z</time></trkpt><trkpt lat="45.3583405" lon="10.6380825"><ele>128.0</ele><time>2026-04-12T10:20:52.444Z</time></trkpt><trkpt lat="45.3583591" lon="10.6378635"><ele>128.5</ele><time>2026-04-12T10:20:53.449Z</time></trkpt><trkpt lat="45.3583787" lon="10.6376405"><ele>129.0</ele><time>2026-04-12T10:20:54.44Z</time></trkpt><trkpt lat="45.3583965" lon="10.6374327"><ele>129.5</ele><time>2026-04-12T10:20:55.443Z</time></trkpt><trkpt lat="45.3584132" lon="10.6372355"><ele>130.0</ele><time>2026-04-12T10:20:56.438Z</time></trkpt><trkpt lat="45.3584328" lon="10.6370375"><ele>130.5</ele><time>2026-04-12T10:20:57.434Z</time></trkpt><trkpt lat="45.3584511" lon="10.6368309"><ele>131.0</ele><time>2026-04-12T10:20:58.44Z</time></trkpt><trkpt lat="45.3584686" lon="10.636618"><ele>131.5</ele><time>2026-04-12T10:20:59.442Z</time></trkpt><trkpt lat="45.3584886" lon="10.6364053"><ele>132.0</ele><time>2026-04-12T10:21:00.442Z</time></trkpt><trkpt lat="45.3585087" lon="10.6361901"><ele>132.0</ele><time>2026-04-12T10:21:01.449Z</time></trkpt><trkpt lat="45.3585257" lon="10.6359713"><ele>132.0</ele><time>2026-04-12T10:21:02.443Z</time></trkpt><trkpt lat="45.3585449" lon="10.6357538"><ele>132.0</ele><time>2026-04-12T10:21:03.449Z</time></trkpt><trkpt lat="45.3585643" lon="10.6355393"><ele>132.0</ele><time>2026-04-12T10:21:04.438Z</time></trkpt><trkpt lat="45.3585835" lon="10.6353248"><ele>132.0</ele><time>2026-04-12T10:21:05.441Z</time></trkpt><trkpt lat="45.3586018" lon="10.6351144"><ele>132.0</ele><time>2026-04-12T10:21:06.443Z</time></trkpt><trkpt lat="45.3586149" lon="10.6349014"><ele>131.5</ele><time>2026-04-12T10:21:07.437Z</time></trkpt><trkpt lat="45.3586351" lon="10.6346899"><ele>131.0</ele><time>2026-04-12T10:21:08.43Z</time></trkpt><trkpt lat="45.3586541" lon="10.6344776"><ele>130.5</ele><time>2026-04-12T10:21:09.443Z</time></trkpt><trkpt lat="45.3586696" lon="10.6342666"><ele>130.0</ele><time>2026-04-12T10:21:10.438Z</time></trkpt><trkpt lat="45.3586877" lon="10.6340566"><ele>129.75</ele><time>2026-04-12T10:21:11.43Z</time></trkpt><trkpt lat="45.3587073" lon="10.6338451"><ele>129.5</ele><time>2026-04-12T10:21:12.437Z</time></trkpt><trkpt lat="45.3587229" lon="10.6336337"><ele>129.25</ele><time>2026-04-12T10:21:13.439Z</time></trkpt><trkpt lat="45.3587405" lon="10.6334301"><ele>129.0</ele><time>2026-04-12T10:21:14.44Z</time></trkpt><trkpt lat="45.3587634" lon="10.6332379"><ele>130.0</ele><time>2026-04-12T10:21:15.43Z</time></trkpt><trkpt lat="45.3587796" lon="10.6330489"><ele>131.0</ele><time>2026-04-12T10:21:16.441Z</time></trkpt><trkpt lat="45.3587969" lon="10.6328603"><ele>132.0</ele><time>2026-04-12T10:21:17.445Z</time></trkpt><trkpt lat="45.3588119" lon="10.6326686"><ele>133.0</ele><time>2026-04-12T10:21:18.448Z</time></trkpt><trkpt lat="45.3588293" lon="10.6324635"><ele>133.25</ele><time>2026-04-12T10:21:19.444Z</time></trkpt><trkpt lat="45.3588455" lon="10.6322607"><ele>133.5</ele><time>2026-04-12T10:21:20.44Z</time></trkpt><trkpt lat="45.3588623" lon="10.6320585"><ele>133.75</ele><time>2026-04-12T10:21:21.443Z</time></trkpt><trkpt lat="45.3588788" lon="10.6318513"><ele>134.0</ele><time>2026-04-12T10:21:22.444Z</time></trkpt><trkpt lat="45.3588985" lon="10.6316445"><ele>134.25</ele><time>2026-04-12T10:21:23.443Z</time></trkpt><trkpt lat="45.3589218" lon="10.631438"><ele>134.5</ele><time>2026-04-12T10:21:24.445Z</time></trkpt><trkpt lat="45.3589464" lon="10.6312277"><ele>134.75</ele><time>2026-04-12T10:21:25.44Z</time></trkpt><trkpt lat="45.3589709" lon="10.6310235"><ele>135.0</ele><time>2026-04-12T10:21:26.452Z</time></trkpt><trkpt lat="45.3589921" lon="10.6308294"><ele>135.0</ele><time>2026-04-12T10:21:27.439Z</time></trkpt><trkpt lat="45.359013" lon="10.6306362"><ele>135.0</ele><time>2026-04-12T10:21:28.441Z</time></trkpt><trkpt lat="45.3590331" lon="10.6304491"><ele>135.0</ele><time>2026-04-12T10:21:29.443Z</time></trkpt><trkpt lat="45.3590557" lon="10.6302593"><ele>135.0</ele><time>2026-04-12T10:21:30.441Z</time></trkpt><trkpt lat="45.3590818" lon="10.6300648"><ele>136.0</ele><time>2026-04-12T10:21:31.442Z</time></trkpt><trkpt lat="45.3591043" lon="10.6298657"><ele>137.0</ele><time>2026-04-12T10:21:32.44Z</time></trkpt><trkpt lat="45.3591214" lon="10.629664"><ele>138.0</ele><time>2026-04-12T10:21:33.447Z</time></trkpt><trkpt lat="45.3591427" lon="10.6294529"><ele>139.0</ele><time>2026-04-12T10:21:34.44Z</time></trkpt><trkpt lat="45.3591717" lon="10.6292352"><ele>139.33333333333334</ele><time>2026-04-12T10:21:35.436Z</time></trkpt><trkpt lat="45.3592004" lon="10.629018"><ele>139.66666666666666</ele><time>2026-04-12T10:21:36.449Z</time></trkpt><trkpt lat="45.359226" lon="10.6287989"><ele>140.0</ele><time>2026-04-12T10:21:37.439Z</time></trkpt><trkpt lat="45.3592519" lon="10.6285695"><ele>140.66666666666666</ele><time>2026-04-12T10:21:38.437Z</time></trkpt><trkpt lat="45.3592788" lon="10.628324"><ele>141.33333333333334</ele><time>2026-04-12T10:21:39.449Z</time></trkpt><trkpt lat="45.3593045" lon="10.6280655"><ele>142.0</ele><time>2026-04-12T10:21:40.44Z</time></trkpt><trkpt lat="45.3593243" lon="10.6278185"><ele>142.66666666666669</ele><time>2026-04-12T10:21:41.44Z</time></trkpt><trkpt lat="45.3593406" lon="10.6275883"><ele>143.33333333333334</ele><time>2026-04-12T10:21:42.439Z</time></trkpt><trkpt lat="45.3593531" lon="10.627375"><ele>144.0</ele><time>2026-04-12T10:21:43.445Z</time></trkpt><trkpt lat="45.3593666" lon="10.6271752"><ele>144.0</ele><time>2026-04-12T10:21:44.446Z</time></trkpt><trkpt lat="45.3593802" lon="10.6269851"><ele>144.0</ele><time>2026-04-12T10:21:45.452Z</time></trkpt><trkpt lat="45.3593905" lon="10.6267837"><ele>144.0</ele><time>2026-04-12T10:21:46.444Z</time></trkpt><trkpt lat="45.3594017" lon="10.6265699"><ele>144.0</ele><time>2026-04-12T10:21:47.445Z</time></trkpt><trkpt lat="45.3594169" lon="10.6263434"><ele>145.33333333333334</ele><time>2026-04-12T10:21:48.438Z</time></trkpt><trkpt lat="45.3594308" lon="10.6261123"><ele>146.66666666666669</ele><time>2026-04-12T10:21:49.448Z</time></trkpt><trkpt lat="45.3594413" lon="10.6258878"><ele>148.0</ele><time>2026-04-12T10:21:50.435Z</time></trkpt><trkpt lat="45.3594535" lon="10.6256721"><ele>148.0</ele><time>2026-04-12T10:21:51.437Z</time></trkpt><trkpt lat="45.3594682" lon="10.6254594"><ele>148.0</ele><time>2026-04-12T10:21:52.429Z</time></trkpt><trkpt lat="45.3594812" lon="10.6252474"><ele>148.0</ele><time>2026-04-12T10:21:53.441Z</time></trkpt><trkpt lat="45.359491" lon="10.6250322"><ele>149.33333333333334</ele><time>2026-04-12T10:21:54.45Z</time></trkpt><trkpt lat="45.3595032" lon="10.6248168"><ele>150.66666666666666</ele><time>2026-04-12T10:21:55.45Z</time></trkpt><trkpt lat="45.3595129" lon="10.6246015"><ele>152.0</ele><time>2026-04-12T10:21:56.439Z</time></trkpt><trkpt lat="45.3595249" lon="10.6243899"><ele>152.25</ele><time>2026-04-12T10:21:57.443Z</time></trkpt><trkpt lat="45.3595373" lon="10.6241845"><ele>152.5</ele><time>2026-04-12T10:21:58.443Z</time></trkpt><trkpt lat="45.3595472" lon="10.623984"><ele>152.75</ele><time>2026-04-12T10:21:59.439Z</time></trkpt><trkpt lat="45.3595548" lon="10.6237868"><ele>153.0</ele><time>2026-04-12T10:22:00.445Z</time></trkpt><trkpt lat="45.3595645" lon="10.6235873"><ele>152.33333333333334</ele><time>2026-04-12T10:22:01.449Z</time></trkpt><trkpt lat="45.3595831" lon="10.6233824"><ele>151.66666666666669</ele><time>2026-04-12T10:22:02.446Z</time></trkpt><trkpt lat="45.3595959" lon="10.6231647"><ele>151.0</ele><time>2026-04-12T10:22:03.44Z</time></trkpt><trkpt lat="45.3596068" lon="10.6229444"><ele>149.0</ele><time>2026-04-12T10:22:04.445Z</time></trkpt><trkpt lat="45.3596147" lon="10.6227336"><ele>147.0</ele><time>2026-04-12T10:22:05.437Z</time></trkpt><trkpt lat="45.3596233" lon="10.6225346"><ele>145.0</ele><time>2026-04-12T10:22:06.437Z</time></trkpt><trkpt lat="45.3596337" lon="10.6223478"><ele>143.0</ele><time>2026-04-12T10:22:07.448Z</time></trkpt><trkpt lat="45.3596458" lon="10.6221748"><ele>143.0</ele><time>2026-04-12T10:22:08.441Z</time></trkpt><trkpt lat="45.3596561" lon="10.6220204"><ele>143.0</ele><time>2026-04-12T10:22:09.444Z</time></trkpt><trkpt lat="45.3596633" lon="10.6218757"><ele>143.0</ele><time>2026-04-12T10:22:10.44Z</time></trkpt><trkpt lat="45.3596723" lon="10.6217355"><ele>143.0</ele><time>2026-04-12T10:22:11.437Z</time></trkpt><trkpt lat="45.3596798" lon="10.6215875"><ele>143.0</ele><time>2026-04-12T10:22:12.439Z</time></trkpt><trkpt lat="45.3596873" lon="10.6214274"><ele>143.25</ele><time>2026-04-12T10:22:13.437Z</time></trkpt><trkpt lat="45.3596942" lon="10.6212567"><ele>143.5</ele><time>2026-04-12T10:22:14.442Z</time></trkpt><trkpt lat="45.3597059" lon="10.6210759"><ele>143.75</ele><time>2026-04-12T10:22:15.431Z</time></trkpt><trkpt lat="45.3597151" lon="10.6208863"><ele>144.0</ele><time>2026-04-12T10:22:16.446Z</time></trkpt><trkpt lat="45.3597262" lon="10.6206925"><ele>144.0</ele><time>2026-04-12T10:22:17.438Z</time></trkpt><trkpt lat="45.3597381" lon="10.6204953"><ele>144.0</ele><time>2026-04-12T10:22:18.443Z</time></trkpt><trkpt lat="45.3597475" lon="10.6202951"><ele>144.0</ele><time>2026-04-12T10:22:19.439Z</time></trkpt><trkpt lat="45.3597577" lon="10.6200895"><ele>144.0</ele><time>2026-04-12T10:22:20.441Z</time></trkpt><trkpt lat="45.3597706" lon="10.6198834"><ele>143.75</ele><time>2026-04-12T10:22:21.445Z</time></trkpt><trkpt lat="45.3597833" lon="10.6196766"><ele>143.5</ele><time>2026-04-12T10:22:22.435Z</time></trkpt><trkpt lat="45.3597981" lon="10.6194695"><ele>143.25</ele><time>2026-04-12T10:22:23.441Z</time></trkpt><trkpt lat="45.3598198" lon="10.6192655"><ele>143.0</ele><time>2026-04-12T10:22:24.438Z</time></trkpt><trkpt lat="45.3598439" lon="10.6190645"><ele>143.0</ele><time>2026-04-12T10:22:25.442Z</time></trkpt><trkpt lat="45.3598693" lon="10.6188661"><ele>143.0</ele><time>2026-04-12T10:22:26.441Z</time></trkpt><trkpt lat="45.3599006" lon="10.6186676"><ele>143.0</ele><time>2026-04-12T10:22:27.442Z</time></trkpt><trkpt lat="45.359936" lon="10.6184683"><ele>143.0</ele><time>2026-04-12T10:22:28.443Z</time></trkpt><trkpt lat="45.359972" lon="10.6182693"><ele>142.25</ele><time>2026-04-12T10:22:29.443Z</time></trkpt><trkpt lat="45.3600066" lon="10.6180727"><ele>141.5</ele><time>2026-04-12T10:22:30.447Z</time></trkpt><trkpt lat="45.3600427" lon="10.6178785"><ele>140.75</ele><time>2026-04-12T10:22:31.448Z</time></trkpt><trkpt lat="45.3600774" lon="10.6176929"><ele>140.0</ele><time>2026-04-12T10:22:32.447Z</time></trkpt><trkpt lat="45.3601072" lon="10.6175159"><ele>140.0</ele><time>2026-04-12T10:22:33.446Z</time></trkpt><trkpt lat="45.3601374" lon="10.6173484"><ele>140.0</ele><time>2026-04-12T10:22:34.441Z</time></trkpt><trkpt lat="45.3601677" lon="10.617189"><ele>140.0</ele><time>2026-04-12T10:22:35.444Z</time></trkpt><trkpt lat="45.360199" lon="10.6170294"><ele>140.0</ele><time>2026-04-12T10:22:36.442Z</time></trkpt><trkpt lat="45.3602241" lon="10.6168688"><ele>139.5</ele><time>2026-04-12T10:22:37.438Z</time></trkpt><trkpt lat="45.3602471" lon="10.6167017"><ele>139.0</ele><time>2026-04-12T10:22:38.441Z</time></trkpt><trkpt lat="45.3602832" lon="10.6165249"><ele>138.5</ele><time>2026-04-12T10:22:39.438Z</time></trkpt><trkpt lat="45.3603219" lon="10.6163424"><ele>138.0</ele><time>2026-04-12T10:22:40.446Z</time></trkpt><trkpt lat="45.360357" lon="10.6161507"><ele>137.5</ele><time>2026-04-12T10:22:41.438Z</time></trkpt><trkpt lat="45.360394" lon="10.6159568"><ele>137.0</ele><time>2026-04-12T10:22:42.446Z</time></trkpt><trkpt lat="45.3604363" lon="10.6157687"><ele>136.5</ele><time>2026-04-12T10:22:43.443Z</time></trkpt><trkpt lat="45.3604789" lon="10.6155898"><ele>136.0</ele><time>2026-04-12T10:22:44.441Z</time></trkpt><trkpt lat="45.3605244" lon="10.6154228"><ele>136.4</ele><time>2026-04-12T10:22:45.439Z</time></trkpt><trkpt lat="45.3605737" lon="10.6152719"><ele>136.8</ele><time>2026-04-12T10:22:46.447Z</time></trkpt><trkpt lat="45.3606222" lon="10.6151372"><ele>137.20000000000002</ele><time>2026-04-12T10:22:47.443Z</time></trkpt><trkpt lat="45.3606691" lon="10.6150162"><ele>137.6</ele><time>2026-04-12T10:22:48.439Z</time></trkpt><trkpt lat="45.3607117" lon="10.6149153"><ele>138.0</ele><time>2026-04-12T10:22:49.449Z</time></trkpt><trkpt lat="45.3607472" lon="10.6148357"><ele>138.0</ele><time>2026-04-12T10:22:50.448Z</time></trkpt><trkpt lat="45.3608001" lon="10.6147132"><ele>138.0</ele><time>2026-04-12T10:22:52.447Z</time></trkpt><trkpt lat="45.3608858" lon="10.6146946"><ele>138.0</ele><time>2026-04-12T10:23:16.441Z</time></trkpt><trkpt lat="45.3609538" lon="10.6147582"><ele>138.0</ele><time>2026-04-12T10:23:18.437Z</time></trkpt><trkpt lat="45.3610819" lon="10.6148512"><ele>138.0</ele><time>2026-04-12T10:23:20.44Z</time></trkpt><trkpt lat="45.3611729" lon="10.6149133"><ele>138.0</ele><time>2026-04-12T10:23:21.445Z</time></trkpt><trkpt lat="45.3612743" lon="10.614981"><ele>138.0</ele><time>2026-04-12T10:23:22.443Z</time></trkpt><trkpt lat="45.3613799" lon="10.6150662"><ele>138.0</ele><time>2026-04-12T10:23:23.443Z</time></trkpt><trkpt lat="45.3614807" lon="10.6151545"><ele>138.0</ele><time>2026-04-12T10:23:24.437Z</time></trkpt><trkpt lat="45.3615754" lon="10.6152445"><ele>140.20000000000002</ele><time>2026-04-12T10:23:25.441Z</time></trkpt><trkpt lat="45.3616655" lon="10.6153215"><ele>142.4</ele><time>2026-04-12T10:23:26.433Z</time></trkpt><trkpt lat="45.3617549" lon="10.6153752"><ele>144.60000000000002</ele><time>2026-04-12T10:23:27.438Z</time></trkpt><trkpt lat="45.3618443" lon="10.6154266"><ele>146.8</ele><time>2026-04-12T10:23:28.442Z</time></trkpt><trkpt lat="45.3619091" lon="10.6154635"><ele>149.0</ele><time>2026-04-12T10:23:29.44Z</time></trkpt><trkpt lat="45.3619858" lon="10.6155394"><ele>149.0</ele><time>2026-04-12T10:23:31.454Z</time></trkpt><trkpt lat="45.3620361" lon="10.6156832"><ele>149.0</ele><time>2026-04-12T10:23:33.451Z</time></trkpt><trkpt lat="45.3620762" lon="10.6157691"><ele>149.0</ele><time>2026-04-12T10:23:34.441Z</time></trkpt><trkpt lat="45.362136" lon="10.6158504"><ele>149.0</ele><time>2026-04-12T10:23:35.445Z</time></trkpt><trkpt lat="45.3622024" lon="10.6159319"><ele>149.0</ele><time>2026-04-12T10:23:36.438Z</time></trkpt><trkpt lat="45.3622989" lon="10.6160077"><ele>150.66666666666666</ele><time>2026-04-12T10:23:37.436Z</time></trkpt><trkpt lat="45.3623789" lon="10.6160814"><ele>152.33333333333331</ele><time>2026-04-12T10:23:38.443Z</time></trkpt><trkpt lat="45.3624528" lon="10.6161633"><ele>154.0</ele><time>2026-04-12T10:23:39.447Z</time></trkpt><trkpt lat="45.3625042" lon="10.6162251"><ele>155.66666666666666</ele><time>2026-04-12T10:23:40.444Z</time></trkpt><trkpt lat="45.3625885" lon="10.6162927"><ele>157.33333333333334</ele><time>2026-04-12T10:23:42.449Z</time></trkpt><trkpt lat="45.3626736" lon="10.6163163"><ele>159.0</ele><time>2026-04-12T10:23:45.442Z</time></trkpt><trkpt lat="45.3627461" lon="10.6163709"><ele>159.0</ele><time>2026-04-12T10:23:46.439Z</time></trkpt><trkpt lat="45.3628143" lon="10.6164287"><ele>159.0</ele><time>2026-04-12T10:23:47.44Z</time></trkpt><trkpt lat="45.3628823" lon="10.6164943"><ele>159.0</ele><time>2026-04-12T10:23:48.443Z</time></trkpt><trkpt lat="45.3629494" lon="10.6165604"><ele>159.0</ele><time>2026-04-12T10:23:49.44Z</time></trkpt><trkpt lat="45.3630182" lon="10.616619"><ele>159.0</ele><time>2026-04-12T10:23:50.448Z</time></trkpt><trkpt lat="45.3630759" lon="10.6166689"><ele>159.0</ele><time>2026-04-12T10:23:51.442Z</time></trkpt><trkpt lat="45.3631675" lon="10.6166963"><ele>158.5</ele><time>2026-04-12T10:23:53.447Z</time></trkpt><trkpt lat="45.363256" lon="10.616629"><ele>158.0</ele><time>2026-04-12T10:23:55.449Z</time></trkpt><trkpt lat="45.3633095" lon="10.6165648"><ele>157.5</ele><time>2026-04-12T10:23:56.444Z</time></trkpt><trkpt lat="45.3633658" lon="10.6165009"><ele>157.0</ele><time>2026-04-12T10:23:57.438Z</time></trkpt><trkpt lat="45.3634205" lon="10.6164276"><ele>156.5</ele><time>2026-04-12T10:23:58.441Z</time></trkpt><trkpt lat="45.3634737" lon="10.6163534"><ele>156.0</ele><time>2026-04-12T10:23:59.454Z</time></trkpt><trkpt lat="45.3635333" lon="10.6162796"><ele>156.0</ele><time>2026-04-12T10:24:00.437Z</time></trkpt><trkpt lat="45.3635991" lon="10.6162108"><ele>156.0</ele><time>2026-04-12T10:24:01.444Z</time></trkpt><trkpt lat="45.3636617" lon="10.6161522"><ele>156.0</ele><time>2026-04-12T10:24:02.434Z</time></trkpt><trkpt lat="45.3637272" lon="10.6160855"><ele>156.0</ele><time>2026-04-12T10:24:03.436Z</time></trkpt><trkpt lat="45.3637918" lon="10.6160302"><ele>156.0</ele><time>2026-04-12T10:24:04.451Z</time></trkpt><trkpt lat="45.3638644" lon="10.6159771"><ele>156.0</ele><time>2026-04-12T10:24:05.438Z</time></trkpt><trkpt lat="45.363935" lon="10.615914"><ele>155.0</ele><time>2026-04-12T10:24:06.443Z</time></trkpt><trkpt lat="45.3640133" lon="10.6158633"><ele>154.0</ele><time>2026-04-12T10:24:07.45Z</time></trkpt><trkpt lat="45.364082" lon="10.6158156"><ele>153.0</ele><time>2026-04-12T10:24:08.44Z</time></trkpt><trkpt lat="45.3641623" lon="10.6157153"><ele>152.0</ele><time>2026-04-12T10:24:10.438Z</time></trkpt><trkpt lat="45.3642061" lon="10.6155738"><ele>151.0</ele><time>2026-04-12T10:24:12.441Z</time></trkpt><trkpt lat="45.3642099" lon="10.6154085"><ele>151.0</ele><time>2026-04-12T10:24:14.438Z</time></trkpt><trkpt lat="45.36426" lon="10.6153333"><ele>151.0</ele><time>2026-04-12T10:24:17.436Z</time></trkpt><trkpt lat="45.364306" lon="10.6154168"><ele>151.0</ele><time>2026-04-12T10:24:19.449Z</time></trkpt><trkpt lat="45.3643368" lon="10.6155935"><ele>151.0</ele><time>2026-04-12T10:24:21.437Z</time></trkpt><trkpt lat="45.3643531" lon="10.615693"><ele>151.0</ele><time>2026-04-12T10:24:22.431Z</time></trkpt><trkpt lat="45.3643726" lon="10.6157895"><ele>151.0</ele><time>2026-04-12T10:24:23.435Z</time></trkpt><trkpt lat="45.3644191" lon="10.6159262"><ele>151.0</ele><time>2026-04-12T10:24:25.442Z</time></trkpt><trkpt lat="45.3645486" lon="10.6159644"><ele>151.0</ele><time>2026-04-12T10:24:27.44Z</time></trkpt><trkpt lat="45.3646278" lon="10.615977"><ele>151.0</ele><time>2026-04-12T10:24:28.442Z</time></trkpt><trkpt lat="45.3647073" lon="10.6159801"><ele>151.0</ele><time>2026-04-12T10:24:29.437Z</time></trkpt><trkpt lat="45.3647821" lon="10.6159839"><ele>151.0</ele><time>2026-04-12T10:24:30.442Z</time></trkpt><trkpt lat="45.3648555" lon="10.6159775"><ele>151.0</ele><time>2026-04-12T10:24:31.455Z</time></trkpt><trkpt lat="45.3649245" lon="10.615964"><ele>148.83333333333334</ele><time>2026-04-12T10:24:32.446Z</time></trkpt><trkpt lat="45.3649908" lon="10.6159423"><ele>146.66666666666669</ele><time>2026-04-12T10:24:33.447Z</time></trkpt><trkpt lat="45.365076" lon="10.6158919"><ele>144.5</ele><time>2026-04-12T10:24:35.434Z</time></trkpt><trkpt lat="45.3651056" lon="10.6157962"><ele>142.33333333333334</ele><time>2026-04-12T10:24:37.442Z</time></trkpt><trkpt lat="45.3651066" lon="10.6156968"><ele>140.16666666666666</ele><time>2026-04-12T10:24:38.452Z</time></trkpt><trkpt lat="45.3650965" lon="10.6155675"><ele>138.0</ele><time>2026-04-12T10:24:39.443Z</time></trkpt><trkpt lat="45.3650825" lon="10.6154359"><ele>138.25</ele><time>2026-04-12T10:24:40.448Z</time></trkpt><trkpt lat="45.3650647" lon="10.6152858"><ele>138.5</ele><time>2026-04-12T10:24:41.44Z</time></trkpt><trkpt lat="45.3650559" lon="10.615123"><ele>138.75</ele><time>2026-04-12T10:24:42.44Z</time></trkpt><trkpt lat="45.3650529" lon="10.6149478"><ele>139.0</ele><time>2026-04-12T10:24:43.446Z</time></trkpt><trkpt lat="45.3650526" lon="10.6147933"><ele>139.0</ele><time>2026-04-12T10:24:44.436Z</time></trkpt><trkpt lat="45.3650513" lon="10.6146491"><ele>139.0</ele><time>2026-04-12T10:24:45.437Z</time></trkpt><trkpt lat="45.3650496" lon="10.6144996"><ele>139.0</ele><time>2026-04-12T10:24:46.441Z</time></trkpt><trkpt lat="45.3650386" lon="10.6143516"><ele>139.0</ele><time>2026-04-12T10:24:47.447Z</time></trkpt><trkpt lat="45.3650297" lon="10.6142041"><ele>139.0</ele><time>2026-04-12T10:24:48.44Z</time></trkpt><trkpt lat="45.365027" lon="10.6140714"><ele>138.83333333333334</ele><time>2026-04-12T10:24:49.439Z</time></trkpt><trkpt lat="45.3650249" lon="10.6139449"><ele>138.66666666666669</ele><time>2026-04-12T10:24:50.452Z</time></trkpt><trkpt lat="45.3650321" lon="10.6138285"><ele>138.5</ele><time>2026-04-12T10:24:51.437Z</time></trkpt><trkpt lat="45.3650416" lon="10.6137156"><ele>138.33333333333334</ele><time>2026-04-12T10:24:52.442Z</time></trkpt><trkpt lat="45.3650607" lon="10.6135991"><ele>138.16666666666666</ele><time>2026-04-12T10:24:53.439Z</time></trkpt><trkpt lat="45.3650744" lon="10.6134801"><ele>138.0</ele><time>2026-04-12T10:24:54.433Z</time></trkpt><trkpt lat="45.3650786" lon="10.6133592"><ele>138.4</ele><time>2026-04-12T10:24:55.429Z</time></trkpt><trkpt lat="45.3650739" lon="10.6132329"><ele>138.8</ele><time>2026-04-12T10:24:56.45Z</time></trkpt><trkpt lat="45.3650507" lon="10.6131033"><ele>139.2</ele><time>2026-04-12T10:24:57.439Z</time></trkpt><trkpt lat="45.3650132" lon="10.6129718"><ele>139.6</ele><time>2026-04-12T10:24:58.442Z</time></trkpt><trkpt lat="45.3649717" lon="10.6128463"><ele>140.0</ele><time>2026-04-12T10:24:59.444Z</time></trkpt><trkpt lat="45.3649278" lon="10.6127267"><ele>140.0</ele><time>2026-04-12T10:25:00.44Z</time></trkpt><trkpt lat="45.3648837" lon="10.6126089"><ele>140.0</ele><time>2026-04-12T10:25:01.438Z</time></trkpt><trkpt lat="45.3648332" lon="10.6125018"><ele>140.0</ele><time>2026-04-12T10:25:02.447Z</time></trkpt><trkpt lat="45.3647818" lon="10.6123928"><ele>140.0</ele><time>2026-04-12T10:25:03.441Z</time></trkpt><trkpt lat="45.3647333" lon="10.6122835"><ele>140.0</ele><time>2026-04-12T10:25:04.447Z</time></trkpt><trkpt lat="45.3646894" lon="10.6121776"><ele>140.8</ele><time>2026-04-12T10:25:05.446Z</time></trkpt><trkpt lat="45.3646611" lon="10.6120728"><ele>141.6</ele><time>2026-04-12T10:25:06.447Z</time></trkpt><trkpt lat="45.3646491" lon="10.6119602"><ele>142.4</ele><time>2026-04-12T10:25:07.438Z</time></trkpt><trkpt lat="45.3646358" lon="10.6118348"><ele>143.2</ele><time>2026-04-12T10:25:08.449Z</time></trkpt><trkpt lat="45.3646136" lon="10.6116726"><ele>144.0</ele><time>2026-04-12T10:25:09.438Z</time></trkpt><trkpt lat="45.3645904" lon="10.611496"><ele>144.0</ele><time>2026-04-12T10:25:10.432Z</time></trkpt><trkpt lat="45.3645673" lon="10.6113118"><ele>144.0</ele><time>2026-04-12T10:25:11.445Z</time></trkpt><trkpt lat="45.3645432" lon="10.6111386"><ele>144.0</ele><time>2026-04-12T10:25:12.445Z</time></trkpt><trkpt lat="45.3645149" lon="10.6109845"><ele>144.0</ele><time>2026-04-12T10:25:13.44Z</time></trkpt><trkpt lat="45.3644934" lon="10.6108505"><ele>142.8</ele><time>2026-04-12T10:25:14.442Z</time></trkpt><trkpt lat="45.3644781" lon="10.6107376"><ele>141.60000000000002</ele><time>2026-04-12T10:25:15.452Z</time></trkpt><trkpt lat="45.3644764" lon="10.6105942"><ele>140.4</ele><time>2026-04-12T10:25:17.439Z</time></trkpt><trkpt lat="45.3645898" lon="10.6105612"><ele>139.20000000000002</ele><time>2026-04-12T10:25:20.441Z</time></trkpt><trkpt lat="45.3646701" lon="10.6105967"><ele>138.0</ele><time>2026-04-12T10:25:21.444Z</time></trkpt><trkpt lat="45.3647713" lon="10.6106281"><ele>137.25</ele><time>2026-04-12T10:25:22.439Z</time></trkpt><trkpt lat="45.3648846" lon="10.610651"><ele>136.5</ele><time>2026-04-12T10:25:23.45Z</time></trkpt><trkpt lat="45.3650056" lon="10.6106767"><ele>135.75</ele><time>2026-04-12T10:25:24.432Z</time></trkpt><trkpt lat="45.3651351" lon="10.6107013"><ele>135.0</ele><time>2026-04-12T10:25:25.44Z</time></trkpt><trkpt lat="45.3652722" lon="10.6107275"><ele>135.0</ele><time>2026-04-12T10:25:26.439Z</time></trkpt><trkpt lat="45.3654113" lon="10.6107526"><ele>135.0</ele><time>2026-04-12T10:25:27.444Z</time></trkpt><trkpt lat="45.3655538" lon="10.6107752"><ele>135.0</ele><time>2026-04-12T10:25:28.439Z</time></trkpt><trkpt lat="45.3656966" lon="10.6108012"><ele>135.0</ele><time>2026-04-12T10:25:29.44Z</time></trkpt><trkpt lat="45.3658357" lon="10.6108266"><ele>136.0</ele><time>2026-04-12T10:25:30.441Z</time></trkpt><trkpt lat="45.3659664" lon="10.6108369"><ele>137.0</ele><time>2026-04-12T10:25:31.441Z</time></trkpt><trkpt lat="45.3660899" lon="10.6108465"><ele>138.0</ele><time>2026-04-12T10:25:32.433Z</time></trkpt><trkpt lat="45.3662049" lon="10.6108509"><ele>139.0</ele><time>2026-04-12T10:25:33.441Z</time></trkpt><trkpt lat="45.3663103" lon="10.6108516"><ele>139.16666666666669</ele><time>2026-04-12T10:25:34.442Z</time></trkpt><trkpt lat="45.3664105" lon="10.6108567"><ele>139.33333333333334</ele><time>2026-04-12T10:25:35.44Z</time></trkpt><trkpt lat="45.3665105" lon="10.6108676"><ele>139.5</ele><time>2026-04-12T10:25:36.446Z</time></trkpt><trkpt lat="45.3666038" lon="10.6108674"><ele>139.66666666666666</ele><time>2026-04-12T10:25:37.444Z</time></trkpt><trkpt lat="45.3666833" lon="10.6108383"><ele>139.83333333333331</ele><time>2026-04-12T10:25:38.46Z</time></trkpt><trkpt lat="45.3667471" lon="10.6107925"><ele>140.0</ele><time>2026-04-12T10:25:39.443Z</time></trkpt><trkpt lat="45.3668007" lon="10.6107437"><ele>140.0</ele><time>2026-04-12T10:25:40.45Z</time></trkpt><trkpt lat="45.3668546" lon="10.6106935"><ele>140.0</ele><time>2026-04-12T10:25:41.441Z</time></trkpt><trkpt lat="45.3669002" lon="10.6105871"><ele>140.0</ele><time>2026-04-12T10:25:42.441Z</time></trkpt><trkpt lat="45.3669374" lon="10.6104532"><ele>140.0</ele><time>2026-04-12T10:25:43.444Z</time></trkpt><trkpt lat="45.3669762" lon="10.610303"><ele>140.0</ele><time>2026-04-12T10:25:44.436Z</time></trkpt><trkpt lat="45.3670153" lon="10.6101175"><ele>139.75</ele><time>2026-04-12T10:25:45.448Z</time></trkpt><trkpt lat="45.3670578" lon="10.6099265"><ele>139.5</ele><time>2026-04-12T10:25:46.438Z</time></trkpt><trkpt lat="45.3670957" lon="10.6097306"><ele>139.25</ele><time>2026-04-12T10:25:47.443Z</time></trkpt><trkpt lat="45.3671347" lon="10.6095383"><ele>139.0</ele><time>2026-04-12T10:25:48.448Z</time></trkpt><trkpt lat="45.3671759" lon="10.6093526"><ele>139.5</ele><time>2026-04-12T10:25:49.447Z</time></trkpt><trkpt lat="45.367209" lon="10.6091788"><ele>140.0</ele><time>2026-04-12T10:25:50.447Z</time></trkpt><trkpt lat="45.3672417" lon="10.6090045"><ele>140.5</ele><time>2026-04-12T10:25:51.439Z</time></trkpt><trkpt lat="45.3672775" lon="10.6088298"><ele>141.0</ele><time>2026-04-12T10:25:52.436Z</time></trkpt><trkpt lat="45.3673083" lon="10.6086584"><ele>141.2</ele><time>2026-04-12T10:25:53.444Z</time></trkpt><trkpt lat="45.3673318" lon="10.6084957"><ele>141.39999999999998</ele><time>2026-04-12T10:25:54.436Z</time></trkpt><trkpt lat="45.3673619" lon="10.6083382"><ele>141.6</ele><time>2026-04-12T10:25:55.442Z</time></trkpt><trkpt lat="45.3673933" lon="10.6081898"><ele>141.79999999999998</ele><time>2026-04-12T10:25:56.439Z</time></trkpt><trkpt lat="45.367413" lon="10.6080454"><ele>142.0</ele><time>2026-04-12T10:25:57.436Z</time></trkpt><trkpt lat="45.3674247" lon="10.6079117"><ele>141.83333333333334</ele><time>2026-04-12T10:25:58.433Z</time></trkpt><trkpt lat="45.3674347" lon="10.6077893"><ele>141.66666666666669</ele><time>2026-04-12T10:25:59.441Z</time></trkpt><trkpt lat="45.3674463" lon="10.6076741"><ele>141.5</ele><time>2026-04-12T10:26:00.441Z</time></trkpt><trkpt lat="45.3674587" lon="10.6075596"><ele>141.33333333333334</ele><time>2026-04-12T10:26:01.444Z</time></trkpt><trkpt lat="45.3674675" lon="10.607454"><ele>141.16666666666666</ele><time>2026-04-12T10:26:02.436Z</time></trkpt><trkpt lat="45.3674693" lon="10.6073629"><ele>141.0</ele><time>2026-04-12T10:26:03.441Z</time></trkpt><trkpt lat="45.3674441" lon="10.6072293"><ele>141.0</ele><time>2026-04-12T10:26:05.439Z</time></trkpt><trkpt lat="45.3673697" lon="10.607152"><ele>141.0</ele><time>2026-04-12T10:26:07.446Z</time></trkpt><trkpt lat="45.3672643" lon="10.6070556"><ele>141.0</ele><time>2026-04-12T10:26:09.445Z</time></trkpt><trkpt lat="45.3671857" lon="10.6069783"><ele>141.0</ele><time>2026-04-12T10:26:10.434Z</time></trkpt><trkpt lat="45.3670964" lon="10.6068938"><ele>141.0</ele><time>2026-04-12T10:26:11.445Z</time></trkpt><trkpt lat="45.3670016" lon="10.6068111"><ele>141.0</ele><time>2026-04-12T10:26:12.437Z</time></trkpt><trkpt lat="45.366908" lon="10.6067265"><ele>141.0</ele><time>2026-04-12T10:26:13.44Z</time></trkpt><trkpt lat="45.3668216" lon="10.6066405"><ele>141.0</ele><time>2026-04-12T10:26:14.435Z</time></trkpt><trkpt lat="45.3667418" lon="10.6065518"><ele>141.0</ele><time>2026-04-12T10:26:15.442Z</time></trkpt><trkpt lat="45.3666665" lon="10.6064566"><ele>141.0</ele><time>2026-04-12T10:26:16.443Z</time></trkpt><trkpt lat="45.3665915" lon="10.6063601"><ele>141.0</ele><time>2026-04-12T10:26:17.445Z</time></trkpt><trkpt lat="45.3665178" lon="10.6062601"><ele>141.0</ele><time>2026-04-12T10:26:18.443Z</time></trkpt><trkpt lat="45.3664472" lon="10.6061631"><ele>141.0</ele><time>2026-04-12T10:26:19.456Z</time></trkpt><trkpt lat="45.3663737" lon="10.6060638"><ele>141.0</ele><time>2026-04-12T10:26:20.439Z</time></trkpt><trkpt lat="45.3662958" lon="10.6059707"><ele>141.0</ele><time>2026-04-12T10:26:21.434Z</time></trkpt><trkpt lat="45.3662159" lon="10.6058804"><ele>140.0</ele><time>2026-04-12T10:26:22.447Z</time></trkpt><trkpt lat="45.3661423" lon="10.6057978"><ele>139.0</ele><time>2026-04-12T10:26:23.44Z</time></trkpt><trkpt lat="45.3660631" lon="10.6057196"><ele>138.0</ele><time>2026-04-12T10:26:24.441Z</time></trkpt><trkpt lat="45.3659842" lon="10.6056574"><ele>137.0</ele><time>2026-04-12T10:26:25.445Z</time></trkpt><trkpt lat="45.3659094" lon="10.6055973"><ele>136.0</ele><time>2026-04-12T10:26:26.441Z</time></trkpt><trkpt lat="45.365822" lon="10.6055426"><ele>136.0</ele><time>2026-04-12T10:26:27.445Z</time></trkpt><trkpt lat="45.3657338" lon="10.6054903"><ele>136.0</ele><time>2026-04-12T10:26:28.445Z</time></trkpt><trkpt lat="45.3656521" lon="10.6054402"><ele>136.0</ele><time>2026-04-12T10:26:29.437Z</time></trkpt><trkpt lat="45.3655713" lon="10.6054022"><ele>136.0</ele><time>2026-04-12T10:26:30.444Z</time></trkpt><trkpt lat="45.3654924" lon="10.6053741"><ele>136.0</ele><time>2026-04-12T10:26:31.444Z</time></trkpt><trkpt lat="45.3654105" lon="10.6053544"><ele>136.0</ele><time>2026-04-12T10:26:32.434Z</time></trkpt><trkpt lat="45.3653216" lon="10.6053415"><ele>135.6</ele><time>2026-04-12T10:26:33.436Z</time></trkpt><trkpt lat="45.365231" lon="10.6053259"><ele>135.2</ele><time>2026-04-12T10:26:34.448Z</time></trkpt><trkpt lat="45.3651422" lon="10.6053096"><ele>134.8</ele><time>2026-04-12T10:26:35.441Z</time></trkpt><trkpt lat="45.3650595" lon="10.6052657"><ele>134.4</ele><time>2026-04-12T10:26:36.441Z</time></trkpt><trkpt lat="45.3649869" lon="10.6051955"><ele>134.0</ele><time>2026-04-12T10:26:37.443Z</time></trkpt><trkpt lat="45.3649146" lon="10.6051063"><ele>134.0</ele><time>2026-04-12T10:26:38.44Z</time></trkpt><trkpt lat="45.3648412" lon="10.6050229"><ele>134.0</ele><time>2026-04-12T10:26:39.441Z</time></trkpt><trkpt lat="45.3647774" lon="10.604953"><ele>134.0</ele><time>2026-04-12T10:26:40.444Z</time></trkpt><trkpt lat="45.3647113" lon="10.6048884"><ele>134.0</ele><time>2026-04-12T10:26:41.439Z</time></trkpt><trkpt lat="45.3646465" lon="10.6048261"><ele>134.0</ele><time>2026-04-12T10:26:42.433Z</time></trkpt><trkpt lat="45.3645736" lon="10.6047602"><ele>134.0</ele><time>2026-04-12T10:26:43.439Z</time></trkpt><trkpt lat="45.3645041" lon="10.6047009"><ele>135.33333333333331</ele><time>2026-04-12T10:26:44.443Z</time></trkpt><trkpt lat="45.3644414" lon="10.6046482"><ele>136.66666666666666</ele><time>2026-04-12T10:26:45.44Z</time></trkpt><trkpt lat="45.3643915" lon="10.6045925"><ele>138.0</ele><time>2026-04-12T10:26:46.441Z</time></trkpt><trkpt lat="45.364348" lon="10.6044726"><ele>139.33333333333334</ele><time>2026-04-12T10:26:48.442Z</time></trkpt><trkpt lat="45.3644068" lon="10.6043806"><ele>140.66666666666669</ele><time>2026-04-12T10:26:50.438Z</time></trkpt><trkpt lat="45.3644572" lon="10.6043192"><ele>142.0</ele><time>2026-04-12T10:26:51.446Z</time></trkpt><trkpt lat="45.3645173" lon="10.6042384"><ele>141.83333333333334</ele><time>2026-04-12T10:26:52.439Z</time></trkpt><trkpt lat="45.3645767" lon="10.6041544"><ele>141.66666666666669</ele><time>2026-04-12T10:26:53.444Z</time></trkpt><trkpt lat="45.3646377" lon="10.6040755"><ele>141.5</ele><time>2026-04-12T10:26:54.439Z</time></trkpt><trkpt lat="45.3646985" lon="10.604005"><ele>141.33333333333334</ele><time>2026-04-12T10:26:55.442Z</time></trkpt><trkpt lat="45.3647666" lon="10.6039594"><ele>141.16666666666666</ele><time>2026-04-12T10:26:56.438Z</time></trkpt><trkpt lat="45.3648445" lon="10.6039263"><ele>141.0</ele><time>2026-04-12T10:26:57.443Z</time></trkpt><trkpt lat="45.3649226" lon="10.6038928"><ele>141.0</ele><time>2026-04-12T10:26:58.443Z</time></trkpt><trkpt lat="45.3650023" lon="10.603865"><ele>141.0</ele><time>2026-04-12T10:26:59.441Z</time></trkpt><trkpt lat="45.3650783" lon="10.6038374"><ele>141.0</ele><time>2026-04-12T10:27:00.438Z</time></trkpt><trkpt lat="45.3651543" lon="10.6037953"><ele>141.0</ele><time>2026-04-12T10:27:01.436Z</time></trkpt><trkpt lat="45.3652188" lon="10.6037379"><ele>141.0</ele><time>2026-04-12T10:27:02.437Z</time></trkpt><trkpt lat="45.3652907" lon="10.6036662"><ele>141.0</ele><time>2026-04-12T10:27:03.433Z</time></trkpt><trkpt lat="45.3653577" lon="10.6035898"><ele>140.16666666666666</ele><time>2026-04-12T10:27:04.43Z</time></trkpt><trkpt lat="45.365422" lon="10.6035084"><ele>139.33333333333334</ele><time>2026-04-12T10:27:05.443Z</time></trkpt><trkpt lat="45.3654818" lon="10.6034217"><ele>138.5</ele><time>2026-04-12T10:27:06.438Z</time></trkpt><trkpt lat="45.3655295" lon="10.603343"><ele>137.66666666666669</ele><time>2026-04-12T10:27:07.441Z</time></trkpt><trkpt lat="45.3655802" lon="10.6032538"><ele>136.83333333333334</ele><time>2026-04-12T10:27:08.449Z</time></trkpt><trkpt lat="45.3656283" lon="10.6031666"><ele>136.0</ele><time>2026-04-12T10:27:09.443Z</time></trkpt><trkpt lat="45.3656688" lon="10.6030792"><ele>136.0</ele><time>2026-04-12T10:27:10.435Z</time></trkpt><trkpt lat="45.365712" lon="10.6029908"><ele>136.0</ele><time>2026-04-12T10:27:11.439Z</time></trkpt><trkpt lat="45.3657584" lon="10.6028923"><ele>136.0</ele><time>2026-04-12T10:27:12.438Z</time></trkpt><trkpt lat="45.3658062" lon="10.6027879"><ele>136.0</ele><time>2026-04-12T10:27:13.437Z</time></trkpt><trkpt lat="45.3658554" lon="10.6026832"><ele>136.0</ele><time>2026-04-12T10:27:14.441Z</time></trkpt><trkpt lat="45.3658943" lon="10.6025868"><ele>136.0</ele><time>2026-04-12T10:27:15.44Z</time></trkpt><trkpt lat="45.3659397" lon="10.6024797"><ele>137.4</ele><time>2026-04-12T10:27:16.449Z</time></trkpt><trkpt lat="45.3659914" lon="10.6023692"><ele>138.8</ele><time>2026-04-12T10:27:17.445Z</time></trkpt><trkpt lat="45.3660448" lon="10.6022627"><ele>140.20000000000002</ele><time>2026-04-12T10:27:18.441Z</time></trkpt><trkpt lat="45.3661012" lon="10.602155"><ele>141.6</ele><time>2026-04-12T10:27:19.438Z</time></trkpt><trkpt lat="45.3661534" lon="10.6020519"><ele>143.0</ele><time>2026-04-12T10:27:20.444Z</time></trkpt><trkpt lat="45.3662032" lon="10.6019535"><ele>143.8</ele><time>2026-04-12T10:27:21.43Z</time></trkpt><trkpt lat="45.3662515" lon="10.6018524"><ele>144.60000000000002</ele><time>2026-04-12T10:27:22.445Z</time></trkpt><trkpt lat="45.3663018" lon="10.6017448"><ele>145.39999999999998</ele><time>2026-04-12T10:27:23.444Z</time></trkpt><trkpt lat="45.3663508" lon="10.60163"><ele>146.2</ele><time>2026-04-12T10:27:24.442Z</time></trkpt><trkpt lat="45.3664043" lon="10.6015111"><ele>147.0</ele><time>2026-04-12T10:27:25.445Z</time></trkpt><trkpt lat="45.3664574" lon="10.6013942"><ele>147.0</ele><time>2026-04-12T10:27:26.449Z</time></trkpt><trkpt lat="45.3665094" lon="10.6012791"><ele>147.0</ele><time>2026-04-12T10:27:27.44Z</time></trkpt><trkpt lat="45.3665597" lon="10.6011648"><ele>147.0</ele><time>2026-04-12T10:27:28.45Z</time></trkpt><trkpt lat="45.3666128" lon="10.6010528"><ele>147.0</ele><time>2026-04-12T10:27:29.449Z</time></trkpt><trkpt lat="45.3666675" lon="10.6009436"><ele>147.0</ele><time>2026-04-12T10:27:30.438Z</time></trkpt><trkpt lat="45.3667282" lon="10.6008361"><ele>147.0</ele><time>2026-04-12T10:27:31.438Z</time></trkpt><trkpt lat="45.3667904" lon="10.6007262"><ele>147.0</ele><time>2026-04-12T10:27:32.439Z</time></trkpt><trkpt lat="45.3668679" lon="10.6006295"><ele>147.0</ele><time>2026-04-12T10:27:33.437Z</time></trkpt><trkpt lat="45.3669515" lon="10.6005388"><ele>147.0</ele><time>2026-04-12T10:27:34.439Z</time></trkpt><trkpt lat="45.3670326" lon="10.6004488"><ele>147.0</ele><time>2026-04-12T10:27:35.444Z</time></trkpt><trkpt lat="45.3671049" lon="10.6003586"><ele>147.4</ele><time>2026-04-12T10:27:36.445Z</time></trkpt><trkpt lat="45.3671783" lon="10.6002579"><ele>147.79999999999998</ele><time>2026-04-12T10:27:37.431Z</time></trkpt><trkpt lat="45.3672556" lon="10.600158"><ele>148.2</ele><time>2026-04-12T10:27:38.452Z</time></trkpt><trkpt lat="45.3673309" lon="10.6000659"><ele>148.6</ele><time>2026-04-12T10:27:39.445Z</time></trkpt><trkpt lat="45.3674019" lon="10.5999898"><ele>149.0</ele><time>2026-04-12T10:27:40.437Z</time></trkpt><trkpt lat="45.3674742" lon="10.5999207"><ele>149.0</ele><time>2026-04-12T10:27:41.442Z</time></trkpt><trkpt lat="45.3675414" lon="10.59985"><ele>149.0</ele><time>2026-04-12T10:27:42.445Z</time></trkpt><trkpt lat="45.3676059" lon="10.5997811"><ele>149.0</ele><time>2026-04-12T10:27:43.446Z</time></trkpt><trkpt lat="45.3676627" lon="10.5997161"><ele>149.0</ele><time>2026-04-12T10:27:44.449Z</time></trkpt><trkpt lat="45.3677193" lon="10.5996515"><ele>149.0</ele><time>2026-04-12T10:27:45.433Z</time></trkpt><trkpt lat="45.367781" lon="10.5995836"><ele>149.0</ele><time>2026-04-12T10:27:46.444Z</time></trkpt><trkpt lat="45.3678497" lon="10.59951"><ele>148.16666666666666</ele><time>2026-04-12T10:27:47.445Z</time></trkpt><trkpt lat="45.3679129" lon="10.5994226"><ele>147.33333333333331</ele><time>2026-04-12T10:27:48.449Z</time></trkpt><trkpt lat="45.3679769" lon="10.5993463"><ele>146.5</ele><time>2026-04-12T10:27:49.444Z</time></trkpt><trkpt lat="45.3680348" lon="10.5992639"><ele>145.66666666666666</ele><time>2026-04-12T10:27:50.439Z</time></trkpt><trkpt lat="45.3680919" lon="10.5991838"><ele>144.83333333333334</ele><time>2026-04-12T10:27:51.442Z</time></trkpt><trkpt lat="45.3681489" lon="10.5991058"><ele>144.0</ele><time>2026-04-12T10:27:52.436Z</time></trkpt><trkpt lat="45.3682078" lon="10.5990311"><ele>144.0</ele><time>2026-04-12T10:27:53.438Z</time></trkpt><trkpt lat="45.3682632" lon="10.5989566"><ele>144.0</ele><time>2026-04-12T10:27:54.439Z</time></trkpt><trkpt lat="45.3683165" lon="10.5988811"><ele>144.0</ele><time>2026-04-12T10:27:55.439Z</time></trkpt><trkpt lat="45.3683767" lon="10.5988179"><ele>144.0</ele><time>2026-04-12T10:27:56.442Z</time></trkpt><trkpt lat="45.3684459" lon="10.5987495"><ele>144.0</ele><time>2026-04-12T10:27:57.441Z</time></trkpt><trkpt lat="45.3685038" lon="10.5986626"><ele>144.0</ele><time>2026-04-12T10:27:58.444Z</time></trkpt><trkpt lat="45.3685448" lon="10.5985882"><ele>145.16666666666666</ele><time>2026-04-12T10:27:59.433Z</time></trkpt><trkpt lat="45.3685809" lon="10.5985083"><ele>146.33333333333334</ele><time>2026-04-12T10:28:00.437Z</time></trkpt><trkpt lat="45.3686196" lon="10.5984252"><ele>147.5</ele><time>2026-04-12T10:28:01.446Z</time></trkpt><trkpt lat="45.3686634" lon="10.5983373"><ele>148.66666666666669</ele><time>2026-04-12T10:28:02.439Z</time></trkpt><trkpt lat="45.3687142" lon="10.5982081"><ele>149.83333333333334</ele><time>2026-04-12T10:28:04.44Z</time></trkpt><trkpt lat="45.3687327" lon="10.5980729"><ele>151.0</ele><time>2026-04-12T10:28:07.44Z</time></trkpt><trkpt lat="45.3687354" lon="10.5979558"><ele>151.00000000000003</ele><time>2026-04-12T10:28:21.434Z</time></trkpt><trkpt lat="45.3687233" lon="10.5978598"><ele>151.0</ele><time>2026-04-12T10:28:23.44Z</time></trkpt><trkpt lat="45.3687087" lon="10.5977674"><ele>151.0</ele><time>2026-04-12T10:28:24.441Z</time></trkpt><trkpt lat="45.3686919" lon="10.5976564"><ele>151.0</ele><time>2026-04-12T10:28:25.448Z</time></trkpt><trkpt lat="45.3686751" lon="10.5975663"><ele>151.0</ele><time>2026-04-12T10:28:26.442Z</time></trkpt><trkpt lat="45.368656" lon="10.5974617"><ele>151.00000000000003</ele><time>2026-04-12T10:28:27.445Z</time></trkpt><trkpt lat="45.3686376" lon="10.5973694"><ele>151.0</ele><time>2026-04-12T10:28:28.445Z</time></trkpt><trkpt lat="45.3686278" lon="10.5972753"><ele>149.8</ele><time>2026-04-12T10:28:29.434Z</time></trkpt><trkpt lat="45.3686311" lon="10.5971365"><ele>148.6</ele><time>2026-04-12T10:28:31.442Z</time></trkpt><trkpt lat="45.3687316" lon="10.5970103"><ele>147.4</ele><time>2026-04-12T10:28:33.439Z</time></trkpt><trkpt lat="45.3688044" lon="10.5969458"><ele>146.2</ele><time>2026-04-12T10:28:34.434Z</time></trkpt><trkpt lat="45.3688857" lon="10.5968616"><ele>145.0</ele><time>2026-04-12T10:28:35.437Z</time></trkpt><trkpt lat="45.3689693" lon="10.5967618"><ele>141.6</ele><time>2026-04-12T10:28:36.437Z</time></trkpt><trkpt lat="45.3690575" lon="10.596664"><ele>138.2</ele><time>2026-04-12T10:28:37.439Z</time></trkpt><trkpt lat="45.3691522" lon="10.5965874"><ele>134.8</ele><time>2026-04-12T10:28:38.444Z</time></trkpt><trkpt lat="45.3692534" lon="10.5965315"><ele>131.4</ele><time>2026-04-12T10:28:39.436Z</time></trkpt><trkpt lat="45.369353" lon="10.5964808"><ele>128.0</ele><time>2026-04-12T10:28:40.442Z</time></trkpt><trkpt lat="45.3694468" lon="10.5964347"><ele>127.99999999999999</ele><time>2026-04-12T10:28:41.446Z</time></trkpt><trkpt lat="45.3695347" lon="10.5963912"><ele>128.0</ele><time>2026-04-12T10:28:42.442Z</time></trkpt><trkpt lat="45.3696155" lon="10.5963507"><ele>128.0</ele><time>2026-04-12T10:28:43.437Z</time></trkpt><trkpt lat="45.3696899" lon="10.5963102"><ele>128.0</ele><time>2026-04-12T10:28:44.44Z</time></trkpt><trkpt lat="45.3697615" lon="10.5962744"><ele>127.99999999999999</ele><time>2026-04-12T10:28:45.442Z</time></trkpt><trkpt lat="45.3698387" lon="10.5962402"><ele>128.0</ele><time>2026-04-12T10:28:46.439Z</time></trkpt><trkpt lat="45.3699158" lon="10.5961958"><ele>126.66666666666666</ele><time>2026-04-12T10:28:47.439Z</time></trkpt><trkpt lat="45.3699845" lon="10.5961481"><ele>125.33333333333333</ele><time>2026-04-12T10:28:48.441Z</time></trkpt><trkpt lat="45.3700385" lon="10.5960986"><ele>124.0</ele><time>2026-04-12T10:28:49.446Z</time></trkpt><trkpt lat="45.370093" lon="10.5959908"><ele>122.66666666666666</ele><time>2026-04-12T10:28:51.438Z</time></trkpt><trkpt lat="45.3701163" lon="10.5958413"><ele>121.33333333333333</ele><time>2026-04-12T10:28:53.438Z</time></trkpt><trkpt lat="45.3701268" lon="10.5957391"><ele>120.0</ele><time>2026-04-12T10:28:54.442Z</time></trkpt><trkpt lat="45.3701435" lon="10.5955947"><ele>120.0</ele><time>2026-04-12T10:28:55.443Z</time></trkpt><trkpt lat="45.3701585" lon="10.5954166"><ele>120.0</ele><time>2026-04-12T10:28:56.438Z</time></trkpt><trkpt lat="45.3701719" lon="10.5952413"><ele>120.0</ele><time>2026-04-12T10:28:57.445Z</time></trkpt><trkpt lat="45.3701765" lon="10.5950657"><ele>120.0</ele><time>2026-04-12T10:28:58.441Z</time></trkpt><trkpt lat="45.3701754" lon="10.5948824"><ele>120.25</ele><time>2026-04-12T10:28:59.438Z</time></trkpt><trkpt lat="45.3701755" lon="10.5947004"><ele>120.5</ele><time>2026-04-12T10:29:00.435Z</time></trkpt><trkpt lat="45.3701644" lon="10.5945226"><ele>120.75</ele><time>2026-04-12T10:29:01.441Z</time></trkpt><trkpt lat="45.3701537" lon="10.5943516"><ele>121.0</ele><time>2026-04-12T10:29:02.446Z</time></trkpt><trkpt lat="45.370139" lon="10.5941774"><ele>121.4</ele><time>2026-04-12T10:29:03.445Z</time></trkpt><trkpt lat="45.3701254" lon="10.5940063"><ele>121.8</ele><time>2026-04-12T10:29:04.435Z</time></trkpt><trkpt lat="45.3701118" lon="10.5938464"><ele>122.20000000000002</ele><time>2026-04-12T10:29:05.444Z</time></trkpt><trkpt lat="45.3701023" lon="10.5936904"><ele>122.60000000000001</ele><time>2026-04-12T10:29:06.44Z</time></trkpt><trkpt lat="45.3700922" lon="10.5935443"><ele>123.0</ele><time>2026-04-12T10:29:07.435Z</time></trkpt><trkpt lat="45.3700952" lon="10.5933916"><ele>123.25</ele><time>2026-04-12T10:29:08.445Z</time></trkpt><trkpt lat="45.3701205" lon="10.5932486"><ele>123.5</ele><time>2026-04-12T10:29:09.442Z</time></trkpt><trkpt lat="45.3701783" lon="10.5930976"><ele>123.75</ele><time>2026-04-12T10:29:10.437Z</time></trkpt><trkpt lat="45.3702472" lon="10.5929249"><ele>124.0</ele><time>2026-04-12T10:29:11.441Z</time></trkpt><trkpt lat="45.3703202" lon="10.5927481"><ele>125.0</ele><time>2026-04-12T10:29:12.449Z</time></trkpt><trkpt lat="45.3703943" lon="10.5925952"><ele>126.0</ele><time>2026-04-12T10:29:13.448Z</time></trkpt><trkpt lat="45.3704556" lon="10.5924462"><ele>127.0</ele><time>2026-04-12T10:29:14.431Z</time></trkpt><trkpt lat="45.3705144" lon="10.5923005"><ele>128.0</ele><time>2026-04-12T10:29:15.441Z</time></trkpt><trkpt lat="45.3705686" lon="10.5921572"><ele>124.5</ele><time>2026-04-12T10:29:16.448Z</time></trkpt><trkpt lat="45.3706197" lon="10.59202"><ele>121.0</ele><time>2026-04-12T10:29:17.447Z</time></trkpt><trkpt lat="45.3706699" lon="10.5918848"><ele>117.5</ele><time>2026-04-12T10:29:18.438Z</time></trkpt><trkpt lat="45.3707049" lon="10.5917367"><ele>114.0</ele><time>2026-04-12T10:29:19.435Z</time></trkpt><trkpt lat="45.370738" lon="10.591559"><ele>114.0</ele><time>2026-04-12T10:29:20.435Z</time></trkpt><trkpt lat="45.370762" lon="10.5913848"><ele>114.0</ele><time>2026-04-12T10:29:21.434Z</time></trkpt><trkpt lat="45.3707755" lon="10.5912368"><ele>114.0</ele><time>2026-04-12T10:29:22.44Z</time></trkpt><trkpt lat="45.37078" lon="10.591102"><ele>114.0</ele><time>2026-04-12T10:29:23.447Z</time></trkpt><trkpt lat="45.370767" lon="10.5909811"><ele>114.0</ele><time>2026-04-12T10:29:24.447Z</time></trkpt><trkpt lat="45.370739" lon="10.5908696"><ele>113.6</ele><time>2026-04-12T10:29:25.444Z</time></trkpt><trkpt lat="45.3706992" lon="10.5907528"><ele>113.2</ele><time>2026-04-12T10:29:26.438Z</time></trkpt><trkpt lat="45.3706413" lon="10.5906248"><ele>112.79999999999998</ele><time>2026-04-12T10:29:27.445Z</time></trkpt><trkpt lat="45.3705675" lon="10.5904949"><ele>112.39999999999999</ele><time>2026-04-12T10:29:28.439Z</time></trkpt><trkpt lat="45.3704822" lon="10.5903711"><ele>112.0</ele><time>2026-04-12T10:29:29.449Z</time></trkpt><trkpt lat="45.3704047" lon="10.5902517"><ele>114.19999999999999</ele><time>2026-04-12T10:29:30.446Z</time></trkpt><trkpt lat="45.3703457" lon="10.590122"><ele>116.39999999999999</ele><time>2026-04-12T10:29:31.439Z</time></trkpt><trkpt lat="45.3703056" lon="10.5899799"><ele>118.60000000000001</ele><time>2026-04-12T10:29:32.447Z</time></trkpt><trkpt lat="45.3702707" lon="10.589855"><ele>120.80000000000001</ele><time>2026-04-12T10:29:33.428Z</time></trkpt><trkpt lat="45.3702416" lon="10.5897645"><ele>123.0</ele><time>2026-04-12T10:29:34.449Z</time></trkpt><trkpt lat="45.3701517" lon="10.5896405"><ele>123.0</ele><time>2026-04-12T10:29:36.445Z</time></trkpt><trkpt lat="45.3700795" lon="10.589579"><ele>123.00000000000001</ele><time>2026-04-12T10:29:37.447Z</time></trkpt><trkpt lat="45.3700035" lon="10.5895142"><ele>123.00000000000001</ele><time>2026-04-12T10:29:38.448Z</time></trkpt><trkpt lat="45.3699075" lon="10.5894523"><ele>123.0</ele><time>2026-04-12T10:29:39.437Z</time></trkpt><trkpt lat="45.3697944" lon="10.5893757"><ele>123.0</ele><time>2026-04-12T10:29:40.439Z</time></trkpt><trkpt lat="45.3696909" lon="10.5893041"><ele>123.2</ele><time>2026-04-12T10:29:41.434Z</time></trkpt><trkpt lat="45.3696049" lon="10.5892402"><ele>123.4</ele><time>2026-04-12T10:29:42.435Z</time></trkpt><trkpt lat="45.3695278" lon="10.5891504"><ele>123.60000000000001</ele><time>2026-04-12T10:29:43.433Z</time></trkpt><trkpt lat="45.3694533" lon="10.5890579"><ele>123.80000000000001</ele><time>2026-04-12T10:29:44.443Z</time></trkpt><trkpt lat="45.3693794" lon="10.5889314"><ele>124.0</ele><time>2026-04-12T10:29:45.429Z</time></trkpt><trkpt lat="45.3693018" lon="10.5887868"><ele>122.6</ele><time>2026-04-12T10:29:46.453Z</time></trkpt><trkpt lat="45.3692255" lon="10.588629"><ele>121.2</ele><time>2026-04-12T10:29:47.438Z</time></trkpt><trkpt lat="45.3691574" lon="10.5884849"><ele>119.79999999999998</ele><time>2026-04-12T10:29:48.44Z</time></trkpt><trkpt lat="45.3691006" lon="10.5883687"><ele>118.39999999999999</ele><time>2026-04-12T10:29:49.448Z</time></trkpt><trkpt lat="45.3690545" lon="10.5882874"><ele>117.0</ele><time>2026-04-12T10:29:50.44Z</time></trkpt><trkpt lat="45.368969" lon="10.5881848"><ele>117.0</ele><time>2026-04-12T10:29:52.443Z</time></trkpt><trkpt lat="45.3689087" lon="10.5881429"><ele>117.0</ele><time>2026-04-12T10:29:53.455Z</time></trkpt><trkpt lat="45.3688345" lon="10.5880912"><ele>117.0</ele><time>2026-04-12T10:29:54.434Z</time></trkpt><trkpt lat="45.3687508" lon="10.588025"><ele>117.0</ele><time>2026-04-12T10:29:55.446Z</time></trkpt><trkpt lat="45.3686669" lon="10.5879571"><ele>117.0</ele><time>2026-04-12T10:29:56.443Z</time></trkpt><trkpt lat="45.3685841" lon="10.5878866"><ele>117.0</ele><time>2026-04-12T10:29:57.439Z</time></trkpt><trkpt lat="45.3685147" lon="10.58779"><ele>118.16666666666667</ele><time>2026-04-12T10:29:58.433Z</time></trkpt><trkpt lat="45.3684485" lon="10.5876779"><ele>119.33333333333334</ele><time>2026-04-12T10:29:59.444Z</time></trkpt><trkpt lat="45.3683861" lon="10.5875695"><ele>120.5</ele><time>2026-04-12T10:30:00.438Z</time></trkpt><trkpt lat="45.3683471" lon="10.5874631"><ele>121.66666666666667</ele><time>2026-04-12T10:30:01.434Z</time></trkpt><trkpt lat="45.3683151" lon="10.5873606"><ele>122.83333333333334</ele><time>2026-04-12T10:30:02.436Z</time></trkpt><trkpt lat="45.368286" lon="10.5872694"><ele>124.0</ele><time>2026-04-12T10:30:03.449Z</time></trkpt><trkpt lat="45.3682085" lon="10.5871342"><ele>124.0</ele><time>2026-04-12T10:30:05.44Z</time></trkpt><trkpt lat="45.3681604" lon="10.5870528"><ele>124.0</ele><time>2026-04-12T10:30:06.438Z</time></trkpt><trkpt lat="45.3681009" lon="10.586944"><ele>124.0</ele><time>2026-04-12T10:30:07.44Z</time></trkpt><trkpt lat="45.3680419" lon="10.5868218"><ele>124.0</ele><time>2026-04-12T10:30:08.442Z</time></trkpt><trkpt lat="45.3679993" lon="10.5866975"><ele>124.0</ele><time>2026-04-12T10:30:09.438Z</time></trkpt><trkpt lat="45.3679484" lon="10.586582"><ele>123.25</ele><time>2026-04-12T10:30:10.451Z</time></trkpt><trkpt lat="45.3678824" lon="10.5864625"><ele>122.5</ele><time>2026-04-12T10:30:11.446Z</time></trkpt><trkpt lat="45.3678132" lon="10.58634"><ele>121.75</ele><time>2026-04-12T10:30:12.442Z</time></trkpt><trkpt lat="45.3677359" lon="10.5862103"><ele>121.0</ele><time>2026-04-12T10:30:13.439Z</time></trkpt><trkpt lat="45.3676608" lon="10.5860779"><ele>121.0</ele><time>2026-04-12T10:30:14.448Z</time></trkpt><trkpt lat="45.3675917" lon="10.5859506"><ele>121.0</ele><time>2026-04-12T10:30:15.453Z</time></trkpt><trkpt lat="45.3675231" lon="10.5858201"><ele>121.0</ele><time>2026-04-12T10:30:16.443Z</time></trkpt><trkpt lat="45.3674574" lon="10.5856876"><ele>121.0</ele><time>2026-04-12T10:30:17.446Z</time></trkpt><trkpt lat="45.3673925" lon="10.5855624"><ele>121.00000000000001</ele><time>2026-04-12T10:30:18.444Z</time></trkpt><trkpt lat="45.3673347" lon="10.5854544"><ele>121.0</ele><time>2026-04-12T10:30:19.446Z</time></trkpt><trkpt lat="45.3672863" lon="10.5853601"><ele>121.0</ele><time>2026-04-12T10:30:20.442Z</time></trkpt><trkpt lat="45.3672526" lon="10.5852741"><ele>121.0</ele><time>2026-04-12T10:30:21.44Z</time></trkpt><trkpt lat="45.3672401" lon="10.5851806"><ele>121.00000000000001</ele><time>2026-04-12T10:30:22.439Z</time></trkpt><trkpt lat="45.3672484" lon="10.5850746"><ele>121.0</ele><time>2026-04-12T10:30:23.44Z</time></trkpt><trkpt lat="45.3672605" lon="10.5849517"><ele>121.25</ele><time>2026-04-12T10:30:24.44Z</time></trkpt><trkpt lat="45.367305" lon="10.5848157"><ele>121.5</ele><time>2026-04-12T10:30:25.43Z</time></trkpt><trkpt lat="45.3673691" lon="10.5846725"><ele>121.75</ele><time>2026-04-12T10:30:26.44Z</time></trkpt><trkpt lat="45.3674353" lon="10.584538"><ele>122.0</ele><time>2026-04-12T10:30:27.449Z</time></trkpt><trkpt lat="45.3675027" lon="10.584411"><ele>123.0</ele><time>2026-04-12T10:30:28.441Z</time></trkpt><trkpt lat="45.3675652" lon="10.5842894"><ele>123.99999999999999</ele><time>2026-04-12T10:30:29.441Z</time></trkpt><trkpt lat="45.367621" lon="10.584166"><ele>124.99999999999999</ele><time>2026-04-12T10:30:30.444Z</time></trkpt><trkpt lat="45.3676792" lon="10.5840377"><ele>126.0</ele><time>2026-04-12T10:30:31.438Z</time></trkpt><trkpt lat="45.3677377" lon="10.5839076"><ele>127.0</ele><time>2026-04-12T10:30:32.445Z</time></trkpt><trkpt lat="45.3677914" lon="10.5837699"><ele>127.6</ele><time>2026-04-12T10:30:33.442Z</time></trkpt><trkpt lat="45.3678405" lon="10.5836281"><ele>128.2</ele><time>2026-04-12T10:30:34.441Z</time></trkpt><trkpt lat="45.3678869" lon="10.5834929"><ele>128.8</ele><time>2026-04-12T10:30:35.435Z</time></trkpt><trkpt lat="45.3679171" lon="10.5833392"><ele>129.4</ele><time>2026-04-12T10:30:36.437Z</time></trkpt><trkpt lat="45.3679357" lon="10.5831703"><ele>130.0</ele><time>2026-04-12T10:30:37.44Z</time></trkpt><trkpt lat="45.3679545" lon="10.5829988"><ele>129.75</ele><time>2026-04-12T10:30:38.445Z</time></trkpt><trkpt lat="45.3679743" lon="10.5828279"><ele>129.5</ele><time>2026-04-12T10:30:39.441Z</time></trkpt><trkpt lat="45.3680074" lon="10.5826509"><ele>129.25</ele><time>2026-04-12T10:30:40.44Z</time></trkpt><trkpt lat="45.3680389" lon="10.5824855"><ele>129.0</ele><time>2026-04-12T10:30:41.443Z</time></trkpt><trkpt lat="45.3680753" lon="10.5823462"><ele>126.16666666666667</ele><time>2026-04-12T10:30:42.44Z</time></trkpt><trkpt lat="45.3681115" lon="10.5822188"><ele>123.33333333333334</ele><time>2026-04-12T10:30:43.443Z</time></trkpt><trkpt lat="45.3681493" lon="10.5821065"><ele>120.5</ele><time>2026-04-12T10:30:44.442Z</time></trkpt><trkpt lat="45.3681829" lon="10.5820224"><ele>117.66666666666667</ele><time>2026-04-12T10:30:45.439Z</time></trkpt><trkpt lat="45.3682305" lon="10.5819601"><ele>114.83333333333334</ele><time>2026-04-12T10:30:46.443Z</time></trkpt><trkpt lat="45.3683554" lon="10.581899"><ele>112.0</ele><time>2026-04-12T10:30:48.431Z</time></trkpt><trkpt lat="45.3684369" lon="10.5818869"><ele>112.0</ele><time>2026-04-12T10:30:49.445Z</time></trkpt><trkpt lat="45.3685342" lon="10.5818563"><ele>112.0</ele><time>2026-04-12T10:30:50.427Z</time></trkpt><trkpt lat="45.3686454" lon="10.5818225"><ele>112.0</ele><time>2026-04-12T10:30:51.435Z</time></trkpt><trkpt lat="45.3687758" lon="10.581757"><ele>112.0</ele><time>2026-04-12T10:30:52.446Z</time></trkpt><trkpt lat="45.3689073" lon="10.5816896"><ele>111.8</ele><time>2026-04-12T10:30:53.444Z</time></trkpt><trkpt lat="45.3690283" lon="10.5816209"><ele>111.6</ele><time>2026-04-12T10:30:54.44Z</time></trkpt><trkpt lat="45.3691386" lon="10.5815563"><ele>111.39999999999999</ele><time>2026-04-12T10:30:55.442Z</time></trkpt><trkpt lat="45.3692368" lon="10.581498"><ele>111.19999999999999</ele><time>2026-04-12T10:30:56.451Z</time></trkpt><trkpt lat="45.3693115" lon="10.5814434"><ele>111.0</ele><time>2026-04-12T10:30:57.449Z</time></trkpt><trkpt lat="45.3693965" lon="10.5813564"><ele>111.0</ele><time>2026-04-12T10:30:59.442Z</time></trkpt><trkpt lat="45.369395" lon="10.5812305"><ele>111.0</ele><time>2026-04-12T10:31:22.442Z</time></trkpt><trkpt lat="45.3693138" lon="10.5811862"><ele>111.0</ele><time>2026-04-12T10:31:24.452Z</time></trkpt><trkpt lat="45.3692468" lon="10.5812051"><ele>111.0</ele><time>2026-04-12T10:31:25.442Z</time></trkpt><trkpt lat="45.3691599" lon="10.581245"><ele>111.0</ele><time>2026-04-12T10:31:26.441Z</time></trkpt><trkpt lat="45.3690611" lon="10.5812856"><ele>111.0</ele><time>2026-04-12T10:31:27.442Z</time></trkpt><trkpt lat="45.368945" lon="10.5813301"><ele>111.25</ele><time>2026-04-12T10:31:28.443Z</time></trkpt><trkpt lat="45.3688271" lon="10.5813685"><ele>111.5</ele><time>2026-04-12T10:31:29.44Z</time></trkpt><trkpt lat="45.368709" lon="10.5814002"><ele>111.75</ele><time>2026-04-12T10:31:30.445Z</time></trkpt><trkpt lat="45.3685964" lon="10.5814282"><ele>112.0</ele><time>2026-04-12T10:31:31.446Z</time></trkpt><trkpt lat="45.3684843" lon="10.58145"><ele>112.0</ele><time>2026-04-12T10:31:32.446Z</time></trkpt><trkpt lat="45.3683681" lon="10.581465"><ele>112.0</ele><time>2026-04-12T10:31:33.442Z</time></trkpt><trkpt lat="45.3682541" lon="10.5814787"><ele>112.0</ele><time>2026-04-12T10:31:34.44Z</time></trkpt><trkpt lat="45.3681337" lon="10.5814908"><ele>112.0</ele><time>2026-04-12T10:31:35.441Z</time></trkpt><trkpt lat="45.368011" lon="10.5815001"><ele>115.0</ele><time>2026-04-12T10:31:36.444Z</time></trkpt><trkpt lat="45.3678865" lon="10.5815092"><ele>118.0</ele><time>2026-04-12T10:31:37.443Z</time></trkpt><trkpt lat="45.3677597" lon="10.5815213"><ele>121.0</ele><time>2026-04-12T10:31:38.442Z</time></trkpt><trkpt lat="45.3676312" lon="10.5815339"><ele>124.0</ele><time>2026-04-12T10:31:39.443Z</time></trkpt><trkpt lat="45.3675055" lon="10.581543"><ele>124.0</ele><time>2026-04-12T10:31:40.446Z</time></trkpt><trkpt lat="45.3673816" lon="10.581551"><ele>124.0</ele><time>2026-04-12T10:31:41.439Z</time></trkpt><trkpt lat="45.3672578" lon="10.5815606"><ele>124.0</ele><time>2026-04-12T10:31:42.439Z</time></trkpt><trkpt lat="45.3671358" lon="10.5815705"><ele>124.0</ele><time>2026-04-12T10:31:43.44Z</time></trkpt><trkpt lat="45.3670147" lon="10.5815818"><ele>125.25</ele><time>2026-04-12T10:31:44.446Z</time></trkpt><trkpt lat="45.3668949" lon="10.5815911"><ele>126.5</ele><time>2026-04-12T10:31:45.437Z</time></trkpt><trkpt lat="45.3667729" lon="10.5816021"><ele>127.75</ele><time>2026-04-12T10:31:46.441Z</time></trkpt><trkpt lat="45.3666491" lon="10.5816156"><ele>129.0</ele><time>2026-04-12T10:31:47.443Z</time></trkpt><trkpt lat="45.366527" lon="10.581626"><ele>129.0</ele><time>2026-04-12T10:31:48.44Z</time></trkpt><trkpt lat="45.3664072" lon="10.5816335"><ele>129.0</ele><time>2026-04-12T10:31:49.446Z</time></trkpt><trkpt lat="45.3662909" lon="10.5816353"><ele>129.0</ele><time>2026-04-12T10:31:50.443Z</time></trkpt><trkpt lat="45.3661782" lon="10.5816353"><ele>129.0</ele><time>2026-04-12T10:31:51.437Z</time></trkpt><trkpt lat="45.3660717" lon="10.5816004"><ele>129.75</ele><time>2026-04-12T10:31:52.434Z</time></trkpt><trkpt lat="45.3659638" lon="10.5815528"><ele>130.5</ele><time>2026-04-12T10:31:53.447Z</time></trkpt><trkpt lat="45.3658532" lon="10.5815168"><ele>131.25</ele><time>2026-04-12T10:31:54.444Z</time></trkpt><trkpt lat="45.3657454" lon="10.5814826"><ele>132.0</ele><time>2026-04-12T10:31:55.444Z</time></trkpt><trkpt lat="45.3656295" lon="10.5815004"><ele>133.25</ele><time>2026-04-12T10:31:56.444Z</time></trkpt><trkpt lat="45.3655115" lon="10.5815479"><ele>134.5</ele><time>2026-04-12T10:31:57.45Z</time></trkpt><trkpt lat="45.3653984" lon="10.5816065"><ele>135.75</ele><time>2026-04-12T10:31:58.446Z</time></trkpt><trkpt lat="45.3652881" lon="10.581654"><ele>137.0</ele><time>2026-04-12T10:31:59.448Z</time></trkpt><trkpt lat="45.36517" lon="10.5816851"><ele>137.0</ele><time>2026-04-12T10:32:00.443Z</time></trkpt><trkpt lat="45.3650467" lon="10.5817099"><ele>137.0</ele><time>2026-04-12T10:32:01.434Z</time></trkpt><trkpt lat="45.3649177" lon="10.5817285"><ele>137.0</ele><time>2026-04-12T10:32:02.443Z</time></trkpt><trkpt lat="45.3647874" lon="10.58174"><ele>137.0</ele><time>2026-04-12T10:32:03.438Z</time></trkpt><trkpt lat="45.3646607" lon="10.5817491"><ele>138.25</ele><time>2026-04-12T10:32:04.443Z</time></trkpt><trkpt lat="45.364535" lon="10.5817596"><ele>139.5</ele><time>2026-04-12T10:32:05.44Z</time></trkpt><trkpt lat="45.3644143" lon="10.5817675"><ele>140.75</ele><time>2026-04-12T10:32:06.46Z</time></trkpt><trkpt lat="45.3642997" lon="10.5817759"><ele>142.0</ele><time>2026-04-12T10:32:07.449Z</time></trkpt><trkpt lat="45.3641851" lon="10.5817828"><ele>142.0</ele><time>2026-04-12T10:32:08.449Z</time></trkpt><trkpt lat="45.3640698" lon="10.5817863"><ele>142.0</ele><time>2026-04-12T10:32:09.442Z</time></trkpt><trkpt lat="45.3639507" lon="10.5817816"><ele>142.0</ele><time>2026-04-12T10:32:10.439Z</time></trkpt><trkpt lat="45.3638299" lon="10.5817683"><ele>142.0</ele><time>2026-04-12T10:32:11.445Z</time></trkpt><trkpt lat="45.3637082" lon="10.5817465"><ele>142.5</ele><time>2026-04-12T10:32:12.45Z</time></trkpt><trkpt lat="45.363587" lon="10.581717"><ele>143.0</ele><time>2026-04-12T10:32:13.435Z</time></trkpt><trkpt lat="45.363466" lon="10.5816822"><ele>143.5</ele><time>2026-04-12T10:32:14.44Z</time></trkpt><trkpt lat="45.3633474" lon="10.581639"><ele>144.0</ele><time>2026-04-12T10:32:15.454Z</time></trkpt><trkpt lat="45.3632297" lon="10.5815952"><ele>144.0</ele><time>2026-04-12T10:32:16.441Z</time></trkpt><trkpt lat="45.363115" lon="10.5815517"><ele>144.0</ele><time>2026-04-12T10:32:17.447Z</time></trkpt><trkpt lat="45.3630071" lon="10.5814998"><ele>144.0</ele><time>2026-04-12T10:32:18.444Z</time></trkpt><trkpt lat="45.362899" lon="10.581445"><ele>144.0</ele><time>2026-04-12T10:32:19.436Z</time></trkpt><trkpt lat="45.3627864" lon="10.5813817"><ele>144.5</ele><time>2026-04-12T10:32:20.442Z</time></trkpt><trkpt lat="45.362661" lon="10.5813121"><ele>145.0</ele><time>2026-04-12T10:32:21.438Z</time></trkpt><trkpt lat="45.3625324" lon="10.5812367"><ele>145.5</ele><time>2026-04-12T10:32:22.438Z</time></trkpt><trkpt lat="45.362402" lon="10.5811545"><ele>146.0</ele><time>2026-04-12T10:32:23.442Z</time></trkpt><trkpt lat="45.3622783" lon="10.5810639"><ele>147.5</ele><time>2026-04-12T10:32:24.437Z</time></trkpt><trkpt lat="45.3621577" lon="10.5809619"><ele>149.0</ele><time>2026-04-12T10:32:25.442Z</time></trkpt><trkpt lat="45.3620442" lon="10.5808574"><ele>150.5</ele><time>2026-04-12T10:32:26.438Z</time></trkpt><trkpt lat="45.3619325" lon="10.5807537"><ele>152.0</ele><time>2026-04-12T10:32:27.44Z</time></trkpt><trkpt lat="45.3618179" lon="10.5806534"><ele>152.0</ele><time>2026-04-12T10:32:28.434Z</time></trkpt><trkpt lat="45.3617084" lon="10.5805508"><ele>152.0</ele><time>2026-04-12T10:32:29.447Z</time></trkpt><trkpt lat="45.3616008" lon="10.5804519"><ele>152.0</ele><time>2026-04-12T10:32:30.442Z</time></trkpt><trkpt lat="45.3614991" lon="10.5803595"><ele>152.0</ele><time>2026-04-12T10:32:31.444Z</time></trkpt><trkpt lat="45.361402" lon="10.5802657"><ele>151.0</ele><time>2026-04-12T10:32:32.442Z</time></trkpt><trkpt lat="45.3613093" lon="10.580159"><ele>150.0</ele><time>2026-04-12T10:32:33.435Z</time></trkpt><trkpt lat="45.3612212" lon="10.5800369"><ele>149.0</ele><time>2026-04-12T10:32:34.441Z</time></trkpt><trkpt lat="45.361139" lon="10.5798913"><ele>148.0</ele><time>2026-04-12T10:32:35.447Z</time></trkpt><trkpt lat="45.3610617" lon="10.5797245"><ele>148.0</ele><time>2026-04-12T10:32:36.442Z</time></trkpt><trkpt lat="45.360988" lon="10.579553"><ele>148.0</ele><time>2026-04-12T10:32:37.436Z</time></trkpt><trkpt lat="45.360915" lon="10.579393"><ele>148.0</ele><time>2026-04-12T10:32:38.441Z</time></trkpt><trkpt lat="45.3608482" lon="10.5792408"><ele>148.0</ele><time>2026-04-12T10:32:39.44Z</time></trkpt><trkpt lat="45.3607942" lon="10.5790801"><ele>148.0</ele><time>2026-04-12T10:32:40.44Z</time></trkpt><trkpt lat="45.3607599" lon="10.5789098"><ele>148.0</ele><time>2026-04-12T10:32:41.438Z</time></trkpt><trkpt lat="45.3607473" lon="10.5787325"><ele>148.0</ele><time>2026-04-12T10:32:42.442Z</time></trkpt><trkpt lat="45.3607343" lon="10.5785539"><ele>148.0</ele><time>2026-04-12T10:32:43.433Z</time></trkpt><trkpt lat="45.3607576" lon="10.5783652"><ele>147.75</ele><time>2026-04-12T10:32:44.434Z</time></trkpt><trkpt lat="45.3607787" lon="10.5781817"><ele>147.5</ele><time>2026-04-12T10:32:45.448Z</time></trkpt><trkpt lat="45.3607922" lon="10.5780021"><ele>147.25</ele><time>2026-04-12T10:32:46.443Z</time></trkpt><trkpt lat="45.3607875" lon="10.5778298"><ele>147.0</ele><time>2026-04-12T10:32:47.438Z</time></trkpt><trkpt lat="45.3607539" lon="10.5776605"><ele>146.5</ele><time>2026-04-12T10:32:48.442Z</time></trkpt><trkpt lat="45.3606944" lon="10.5774986"><ele>146.0</ele><time>2026-04-12T10:32:49.449Z</time></trkpt><trkpt lat="45.3606111" lon="10.5773502"><ele>145.5</ele><time>2026-04-12T10:32:50.438Z</time></trkpt><trkpt lat="45.3605116" lon="10.5772155"><ele>145.0</ele><time>2026-04-12T10:32:51.446Z</time></trkpt><trkpt lat="45.3604074" lon="10.5770794"><ele>144.0</ele><time>2026-04-12T10:32:52.443Z</time></trkpt><trkpt lat="45.3603068" lon="10.5769201"><ele>143.0</ele><time>2026-04-12T10:32:53.446Z</time></trkpt><trkpt lat="45.3602109" lon="10.5767502"><ele>142.0</ele><time>2026-04-12T10:32:54.442Z</time></trkpt><trkpt lat="45.3601161" lon="10.5765772"><ele>142.0</ele><time>2026-04-12T10:32:55.438Z</time></trkpt><trkpt lat="45.3600195" lon="10.5764212"><ele>142.0</ele><time>2026-04-12T10:32:56.443Z</time></trkpt><trkpt lat="45.3599236" lon="10.5762672"><ele>142.0</ele><time>2026-04-12T10:32:57.441Z</time></trkpt><trkpt lat="45.3598153" lon="10.5761343"><ele>142.0</ele><time>2026-04-12T10:32:58.45Z</time></trkpt><trkpt lat="45.3596995" lon="10.5760148"><ele>141.75</ele><time>2026-04-12T10:32:59.439Z</time></trkpt><trkpt lat="45.3595846" lon="10.5759013"><ele>141.5</ele><time>2026-04-12T10:33:00.446Z</time></trkpt><trkpt lat="45.3594682" lon="10.5757924"><ele>141.25</ele><time>2026-04-12T10:33:01.443Z</time></trkpt><trkpt lat="45.3593544" lon="10.5756846"><ele>141.0</ele><time>2026-04-12T10:33:02.446Z</time></trkpt><trkpt lat="45.3592372" lon="10.57557"><ele>141.0</ele><time>2026-04-12T10:33:03.44Z</time></trkpt><trkpt lat="45.3591241" lon="10.5754356"><ele>141.0</ele><time>2026-04-12T10:33:04.445Z</time></trkpt><trkpt lat="45.359006" lon="10.575298"><ele>141.0</ele><time>2026-04-12T10:33:05.445Z</time></trkpt><trkpt lat="45.3588853" lon="10.5751623"><ele>140.5</ele><time>2026-04-12T10:33:06.444Z</time></trkpt><trkpt lat="45.358764" lon="10.5750305"><ele>140.0</ele><time>2026-04-12T10:33:07.442Z</time></trkpt><trkpt lat="45.3586483" lon="10.5749137"><ele>139.5</ele><time>2026-04-12T10:33:08.443Z</time></trkpt><trkpt lat="45.3585319" lon="10.5748093"><ele>139.0</ele><time>2026-04-12T10:33:09.443Z</time></trkpt><trkpt lat="45.3584046" lon="10.5747075"><ele>139.0</ele><time>2026-04-12T10:33:10.437Z</time></trkpt><trkpt lat="45.3582795" lon="10.5746167"><ele>139.0</ele><time>2026-04-12T10:33:11.445Z</time></trkpt><trkpt lat="45.3581596" lon="10.574527"><ele>139.0</ele><time>2026-04-12T10:33:12.439Z</time></trkpt><trkpt lat="45.3580498" lon="10.5744337"><ele>139.0</ele><time>2026-04-12T10:33:13.44Z</time></trkpt><trkpt lat="45.3579361" lon="10.5743521"><ele>137.25</ele><time>2026-04-12T10:33:14.448Z</time></trkpt><trkpt lat="45.3578142" lon="10.5742816"><ele>135.5</ele><time>2026-04-12T10:33:15.452Z</time></trkpt><trkpt lat="45.3576747" lon="10.5742198"><ele>133.75</ele><time>2026-04-12T10:33:16.44Z</time></trkpt><trkpt lat="45.3575303" lon="10.5741748"><ele>132.0</ele><time>2026-04-12T10:33:17.451Z</time></trkpt><trkpt lat="45.3573592" lon="10.5741552"><ele>132.0</ele><time>2026-04-12T10:33:18.445Z</time></trkpt><trkpt lat="45.3572034" lon="10.574131"><ele>132.0</ele><time>2026-04-12T10:33:19.429Z</time></trkpt><trkpt lat="45.3570547" lon="10.5740854"><ele>132.0</ele><time>2026-04-12T10:33:20.445Z</time></trkpt><trkpt lat="45.3569014" lon="10.5740455"><ele>129.75</ele><time>2026-04-12T10:33:21.441Z</time></trkpt><trkpt lat="45.3567636" lon="10.5739916"><ele>127.5</ele><time>2026-04-12T10:33:22.453Z</time></trkpt><trkpt lat="45.3566288" lon="10.5739403"><ele>125.25</ele><time>2026-04-12T10:33:23.44Z</time></trkpt><trkpt lat="45.3565044" lon="10.5738912"><ele>123.0</ele><time>2026-04-12T10:33:24.441Z</time></trkpt><trkpt lat="45.3563795" lon="10.573837"><ele>121.60000000000001</ele><time>2026-04-12T10:33:25.44Z</time></trkpt><trkpt lat="45.356267" lon="10.5737879"><ele>120.20000000000002</ele><time>2026-04-12T10:33:26.452Z</time></trkpt><trkpt lat="45.3561655" lon="10.573744"><ele>118.8</ele><time>2026-04-12T10:33:27.44Z</time></trkpt><trkpt lat="45.3560811" lon="10.5737058"><ele>117.4</ele><time>2026-04-12T10:33:28.445Z</time></trkpt><trkpt lat="45.3560142" lon="10.5736738"><ele>116.0</ele><time>2026-04-12T10:33:29.445Z</time></trkpt><trkpt lat="45.3559246" lon="10.5736302"><ele>115.8</ele><time>2026-04-12T10:33:31.445Z</time></trkpt><trkpt lat="45.3558516" lon="10.573526"><ele>115.6</ele><time>2026-04-12T10:33:34.44Z</time></trkpt><trkpt lat="45.355856" lon="10.5733478"><ele>115.4</ele><time>2026-04-12T10:33:36.434Z</time></trkpt><trkpt lat="45.355866" lon="10.5732329"><ele>115.2</ele><time>2026-04-12T10:33:37.439Z</time></trkpt><trkpt lat="45.3558759" lon="10.5731197"><ele>115.0</ele><time>2026-04-12T10:33:38.45Z</time></trkpt><trkpt lat="45.355888" lon="10.5730154"><ele>115.0</ele><time>2026-04-12T10:33:39.446Z</time></trkpt><trkpt lat="45.3559026" lon="10.5729116"><ele>115.0</ele><time>2026-04-12T10:33:40.444Z</time></trkpt><trkpt lat="45.3559153" lon="10.5727994"><ele>115.0</ele><time>2026-04-12T10:33:41.445Z</time></trkpt><trkpt lat="45.3559296" lon="10.5726707"><ele>115.0</ele><time>2026-04-12T10:33:42.439Z</time></trkpt><trkpt lat="45.3559502" lon="10.5725152"><ele>115.0</ele><time>2026-04-12T10:33:43.443Z</time></trkpt><trkpt lat="45.3559857" lon="10.5723518"><ele>115.0</ele><time>2026-04-12T10:33:44.445Z</time></trkpt><trkpt lat="45.3560434" lon="10.5721921"><ele>115.0</ele><time>2026-04-12T10:33:45.446Z</time></trkpt><trkpt lat="45.3561254" lon="10.5720465"><ele>115.0</ele><time>2026-04-12T10:33:46.443Z</time></trkpt><trkpt lat="45.3562217" lon="10.5719152"><ele>115.0</ele><time>2026-04-12T10:33:47.442Z</time></trkpt><trkpt lat="45.3563286" lon="10.5717904"><ele>115.0</ele><time>2026-04-12T10:33:48.45Z</time></trkpt><trkpt lat="45.356442" lon="10.5716747"><ele>115.0</ele><time>2026-04-12T10:33:49.444Z</time></trkpt><trkpt lat="45.3565546" lon="10.5715656"><ele>115.0</ele><time>2026-04-12T10:33:50.435Z</time></trkpt><trkpt lat="45.3566681" lon="10.5714631"><ele>115.0</ele><time>2026-04-12T10:33:51.44Z</time></trkpt><trkpt lat="45.356783" lon="10.5713648"><ele>115.0</ele><time>2026-04-12T10:33:52.44Z</time></trkpt><trkpt lat="45.3568967" lon="10.5712649"><ele>115.0</ele><time>2026-04-12T10:33:53.44Z</time></trkpt><trkpt lat="45.3570094" lon="10.5711617"><ele>115.0</ele><time>2026-04-12T10:33:54.45Z</time></trkpt><trkpt lat="45.3571219" lon="10.5710602"><ele>115.0</ele><time>2026-04-12T10:33:55.443Z</time></trkpt><trkpt lat="45.357232" lon="10.570964"><ele>115.25</ele><time>2026-04-12T10:33:56.441Z</time></trkpt><trkpt lat="45.3573396" lon="10.5708678"><ele>115.5</ele><time>2026-04-12T10:33:57.446Z</time></trkpt><trkpt lat="45.3574456" lon="10.5707766"><ele>115.75</ele><time>2026-04-12T10:33:58.44Z</time></trkpt><trkpt lat="45.3575494" lon="10.5706887"><ele>116.0</ele><time>2026-04-12T10:33:59.447Z</time></trkpt><trkpt lat="45.3576466" lon="10.5705982"><ele>116.0</ele><time>2026-04-12T10:34:00.445Z</time></trkpt><trkpt lat="45.3577362" lon="10.5705098"><ele>116.0</ele><time>2026-04-12T10:34:01.441Z</time></trkpt><trkpt lat="45.3578163" lon="10.5703884"><ele>116.0</ele><time>2026-04-12T10:34:02.44Z</time></trkpt><trkpt lat="45.3578849" lon="10.5702374"><ele>116.0</ele><time>2026-04-12T10:34:03.442Z</time></trkpt><trkpt lat="45.3579682" lon="10.5701017"><ele>116.0</ele><time>2026-04-12T10:34:04.446Z</time></trkpt><trkpt lat="45.3580475" lon="10.5699943"><ele>116.0</ele><time>2026-04-12T10:34:05.442Z</time></trkpt><trkpt lat="45.3581179" lon="10.569886"><ele>116.0</ele><time>2026-04-12T10:34:06.452Z</time></trkpt><trkpt lat="45.3581809" lon="10.5697606"><ele>116.0</ele><time>2026-04-12T10:34:07.448Z</time></trkpt><trkpt lat="45.3582432" lon="10.5696258"><ele>116.0</ele><time>2026-04-12T10:34:08.442Z</time></trkpt><trkpt lat="45.3583017" lon="10.5695053"><ele>116.0</ele><time>2026-04-12T10:34:09.44Z</time></trkpt><trkpt lat="45.3583556" lon="10.5693714"><ele>116.0</ele><time>2026-04-12T10:34:10.452Z</time></trkpt><trkpt lat="45.3584009" lon="10.569225"><ele>116.0</ele><time>2026-04-12T10:34:11.443Z</time></trkpt><trkpt lat="45.3584403" lon="10.5690803"><ele>116.0</ele><time>2026-04-12T10:34:12.443Z</time></trkpt><trkpt lat="45.3584688" lon="10.5688881"><ele>116.0</ele><time>2026-04-12T10:34:13.443Z</time></trkpt><trkpt lat="45.3584976" lon="10.5687027"><ele>116.0</ele><time>2026-04-12T10:34:14.436Z</time></trkpt><trkpt lat="45.358527" lon="10.5685236"><ele>116.0</ele><time>2026-04-12T10:34:15.433Z</time></trkpt><trkpt lat="45.3585565" lon="10.5683615"><ele>116.0</ele><time>2026-04-12T10:34:16.44Z</time></trkpt><trkpt lat="45.3585872" lon="10.5682161"><ele>115.33333333333333</ele><time>2026-04-12T10:34:17.445Z</time></trkpt><trkpt lat="45.3586122" lon="10.5681022"><ele>114.66666666666666</ele><time>2026-04-12T10:34:18.442Z</time></trkpt><trkpt lat="45.3586279" lon="10.568003"><ele>114.0</ele><time>2026-04-12T10:34:19.438Z</time></trkpt><trkpt lat="45.3586036" lon="10.5678533"><ele>113.33333333333334</ele><time>2026-04-12T10:34:21.449Z</time></trkpt><trkpt lat="45.3585601" lon="10.5677821"><ele>112.66666666666667</ele><time>2026-04-12T10:34:22.433Z</time></trkpt><trkpt lat="45.3584926" lon="10.567712"><ele>112.0</ele><time>2026-04-12T10:34:23.446Z</time></trkpt><trkpt lat="45.3583986" lon="10.5676327"><ele>111.5</ele><time>2026-04-12T10:34:24.444Z</time></trkpt><trkpt lat="45.3582895" lon="10.567536"><ele>111.0</ele><time>2026-04-12T10:34:25.443Z</time></trkpt><trkpt lat="45.3581635" lon="10.5674284"><ele>110.5</ele><time>2026-04-12T10:34:26.45Z</time></trkpt><trkpt lat="45.3580254" lon="10.5673122"><ele>110.0</ele><time>2026-04-12T10:34:27.444Z</time></trkpt><trkpt lat="45.3578837" lon="10.5671836"><ele>108.66666666666666</ele><time>2026-04-12T10:34:28.438Z</time></trkpt><trkpt lat="45.3577491" lon="10.567059"><ele>107.33333333333334</ele><time>2026-04-12T10:34:29.444Z</time></trkpt><trkpt lat="45.3576111" lon="10.5669376"><ele>106.0</ele><time>2026-04-12T10:34:30.444Z</time></trkpt><trkpt lat="45.3574702" lon="10.5668181"><ele>106.0</ele><time>2026-04-12T10:34:31.448Z</time></trkpt><trkpt lat="45.357337" lon="10.5666976"><ele>106.0</ele><time>2026-04-12T10:34:32.443Z</time></trkpt><trkpt lat="45.3572032" lon="10.566582"><ele>106.0</ele><time>2026-04-12T10:34:33.444Z</time></trkpt><trkpt lat="45.3570805" lon="10.5664793"><ele>106.0</ele><time>2026-04-12T10:34:34.438Z</time></trkpt><trkpt lat="45.3569614" lon="10.5663716"><ele>106.0</ele><time>2026-04-12T10:34:35.445Z</time></trkpt><trkpt lat="45.3568522" lon="10.5662738"><ele>106.0</ele><time>2026-04-12T10:34:36.444Z</time></trkpt><trkpt lat="45.3567549" lon="10.5661744"><ele>106.0</ele><time>2026-04-12T10:34:37.446Z</time></trkpt><trkpt lat="45.3566717" lon="10.5660691"><ele>106.0</ele><time>2026-04-12T10:34:38.44Z</time></trkpt><trkpt lat="45.3566125" lon="10.5659546"><ele>106.0</ele><time>2026-04-12T10:34:39.441Z</time></trkpt><trkpt lat="45.3565799" lon="10.5658297"><ele>106.0</ele><time>2026-04-12T10:34:40.437Z</time></trkpt><trkpt lat="45.3565669" lon="10.5656841"><ele>106.0</ele><time>2026-04-12T10:34:41.446Z</time></trkpt><trkpt lat="45.3565717" lon="10.565511"><ele>106.0</ele><time>2026-04-12T10:34:42.439Z</time></trkpt><trkpt lat="45.3565936" lon="10.5653247"><ele>105.8</ele><time>2026-04-12T10:34:43.439Z</time></trkpt><trkpt lat="45.3566089" lon="10.5651454"><ele>105.6</ele><time>2026-04-12T10:34:44.44Z</time></trkpt><trkpt lat="45.3566097" lon="10.5649848"><ele>105.4</ele><time>2026-04-12T10:34:45.452Z</time></trkpt><trkpt lat="45.3565991" lon="10.5648677"><ele>105.2</ele><time>2026-04-12T10:34:46.437Z</time></trkpt><trkpt lat="45.3565544" lon="10.5647314"><ele>105.0</ele><time>2026-04-12T10:34:48.444Z</time></trkpt><trkpt lat="45.3564476" lon="10.5646337"><ele>105.0</ele><time>2026-04-12T10:34:50.443Z</time></trkpt><trkpt lat="45.3563844" lon="10.564543"><ele>105.0</ele><time>2026-04-12T10:34:52.443Z</time></trkpt><trkpt lat="45.3564161" lon="10.564401"><ele>105.0</ele><time>2026-04-12T10:34:54.441Z</time></trkpt><trkpt lat="45.356453" lon="10.5642985"><ele>105.0</ele><time>2026-04-12T10:34:55.442Z</time></trkpt><trkpt lat="45.3565094" lon="10.5641647"><ele>105.0</ele><time>2026-04-12T10:34:56.447Z</time></trkpt><trkpt lat="45.3565678" lon="10.5640021"><ele>104.0</ele><time>2026-04-12T10:34:57.444Z</time></trkpt><trkpt lat="45.3566284" lon="10.5638249"><ele>103.0</ele><time>2026-04-12T10:34:58.445Z</time></trkpt><trkpt lat="45.3566899" lon="10.5636177"><ele>102.0</ele><time>2026-04-12T10:34:59.443Z</time></trkpt><trkpt lat="45.3567434" lon="10.5633888"><ele>102.0</ele><time>2026-04-12T10:35:00.444Z</time></trkpt><trkpt lat="45.3567845" lon="10.5631442"><ele>102.0</ele><time>2026-04-12T10:35:01.442Z</time></trkpt><trkpt lat="45.3568209" lon="10.5628922"><ele>102.0</ele><time>2026-04-12T10:35:02.447Z</time></trkpt><trkpt lat="45.3568542" lon="10.5626422"><ele>102.33333333333334</ele><time>2026-04-12T10:35:03.438Z</time></trkpt><trkpt lat="45.3568943" lon="10.562395"><ele>102.66666666666667</ele><time>2026-04-12T10:35:04.439Z</time></trkpt><trkpt lat="45.3569403" lon="10.5621581"><ele>103.0</ele><time>2026-04-12T10:35:05.44Z</time></trkpt><trkpt lat="45.3569958" lon="10.5619272"><ele>103.0</ele><time>2026-04-12T10:35:06.442Z</time></trkpt><trkpt lat="45.3570561" lon="10.5616864"><ele>103.0</ele><time>2026-04-12T10:35:07.438Z</time></trkpt><trkpt lat="45.3571103" lon="10.5614343"><ele>103.0</ele><time>2026-04-12T10:35:08.445Z</time></trkpt><trkpt lat="45.3571583" lon="10.5611924"><ele>102.66666666666667</ele><time>2026-04-12T10:35:09.442Z</time></trkpt><trkpt lat="45.3572013" lon="10.560966"><ele>102.33333333333334</ele><time>2026-04-12T10:35:10.44Z</time></trkpt><trkpt lat="45.3572397" lon="10.5607513"><ele>102.0</ele><time>2026-04-12T10:35:11.441Z</time></trkpt><trkpt lat="45.3572738" lon="10.5605349"><ele>102.66666666666666</ele><time>2026-04-12T10:35:12.441Z</time></trkpt><trkpt lat="45.3573067" lon="10.5603044"><ele>103.33333333333333</ele><time>2026-04-12T10:35:13.446Z</time></trkpt><trkpt lat="45.3573395" lon="10.5600721"><ele>104.0</ele><time>2026-04-12T10:35:14.444Z</time></trkpt><trkpt lat="45.3573706" lon="10.5598468"><ele>104.0</ele><time>2026-04-12T10:35:15.445Z</time></trkpt><trkpt lat="45.3573951" lon="10.5596443"><ele>104.0</ele><time>2026-04-12T10:35:16.432Z</time></trkpt><trkpt lat="45.3574177" lon="10.5594559"><ele>104.0</ele><time>2026-04-12T10:35:17.446Z</time></trkpt><trkpt lat="45.3574376" lon="10.5592849"><ele>104.0</ele><time>2026-04-12T10:35:18.447Z</time></trkpt><trkpt lat="45.3574563" lon="10.5591328"><ele>103.2</ele><time>2026-04-12T10:35:19.448Z</time></trkpt><trkpt lat="45.3574787" lon="10.5589884"><ele>102.4</ele><time>2026-04-12T10:35:20.442Z</time></trkpt><trkpt lat="45.3575065" lon="10.5588465"><ele>101.6</ele><time>2026-04-12T10:35:21.438Z</time></trkpt><trkpt lat="45.357532" lon="10.5586966"><ele>100.8</ele><time>2026-04-12T10:35:22.449Z</time></trkpt><trkpt lat="45.3575494" lon="10.5585308"><ele>100.0</ele><time>2026-04-12T10:35:23.444Z</time></trkpt><trkpt lat="45.3575541" lon="10.5583568"><ele>99.5</ele><time>2026-04-12T10:35:24.451Z</time></trkpt><trkpt lat="45.357548" lon="10.5581755"><ele>99.0</ele><time>2026-04-12T10:35:25.451Z</time></trkpt><trkpt lat="45.3575376" lon="10.5579994"><ele>98.5</ele><time>2026-04-12T10:35:26.448Z</time></trkpt><trkpt lat="45.357527" lon="10.5578311"><ele>98.0</ele><time>2026-04-12T10:35:27.448Z</time></trkpt><trkpt lat="45.3575117" lon="10.5576727"><ele>98.0</ele><time>2026-04-12T10:35:28.437Z</time></trkpt><trkpt lat="45.3574961" lon="10.5575157"><ele>98.0</ele><time>2026-04-12T10:35:29.446Z</time></trkpt><trkpt lat="45.3574985" lon="10.5573672"><ele>98.0</ele><time>2026-04-12T10:35:30.441Z</time></trkpt><trkpt lat="45.3575108" lon="10.5572302"><ele>98.0</ele><time>2026-04-12T10:35:31.451Z</time></trkpt><trkpt lat="45.3575386" lon="10.5571111"><ele>98.0</ele><time>2026-04-12T10:35:32.44Z</time></trkpt><trkpt lat="45.3575746" lon="10.5570233"><ele>98.0</ele><time>2026-04-12T10:35:33.448Z</time></trkpt><trkpt lat="45.3576317" lon="10.5569101"><ele>98.0</ele><time>2026-04-12T10:35:35.441Z</time></trkpt><trkpt lat="45.3577181" lon="10.5568619"><ele>98.0</ele><time>2026-04-12T10:37:08.443Z</time></trkpt><trkpt lat="45.357853" lon="10.556941"><ele>98.0</ele><time>2026-04-12T10:37:10.445Z</time></trkpt><trkpt lat="45.3579403" lon="10.5570013"><ele>98.0</ele><time>2026-04-12T10:37:11.441Z</time></trkpt><trkpt lat="45.358047" lon="10.5570764"><ele>98.0</ele><time>2026-04-12T10:37:12.447Z</time></trkpt><trkpt lat="45.3581612" lon="10.5571573"><ele>98.0</ele><time>2026-04-12T10:37:13.444Z</time></trkpt><trkpt lat="45.3582775" lon="10.5572407"><ele>98.0</ele><time>2026-04-12T10:37:14.447Z</time></trkpt><trkpt lat="45.3584003" lon="10.557323"><ele>98.0</ele><time>2026-04-12T10:37:15.443Z</time></trkpt><trkpt lat="45.3585263" lon="10.5574182"><ele>98.0</ele><time>2026-04-12T10:37:16.45Z</time></trkpt><trkpt lat="45.3586477" lon="10.5575181"><ele>98.0</ele><time>2026-04-12T10:37:17.449Z</time></trkpt><trkpt lat="45.3587647" lon="10.5576182"><ele>98.0</ele><time>2026-04-12T10:37:18.448Z</time></trkpt><trkpt lat="45.3588718" lon="10.5577068"><ele>98.0</ele><time>2026-04-12T10:37:19.449Z</time></trkpt><trkpt lat="45.3589683" lon="10.5577898"><ele>98.16666666666666</ele><time>2026-04-12T10:37:20.441Z</time></trkpt><trkpt lat="45.359052" lon="10.5578604"><ele>98.33333333333333</ele><time>2026-04-12T10:37:21.438Z</time></trkpt><trkpt lat="45.3591215" lon="10.5579164"><ele>98.5</ele><time>2026-04-12T10:37:22.443Z</time></trkpt><trkpt lat="45.359222" lon="10.557969"><ele>98.66666666666666</ele><time>2026-04-12T10:37:24.44Z</time></trkpt><trkpt lat="45.3592815" lon="10.5579177"><ele>98.83333333333333</ele><time>2026-04-12T10:37:26.448Z</time></trkpt><trkpt lat="45.3593115" lon="10.5578314"><ele>99.0</ele><time>2026-04-12T10:37:28.449Z</time></trkpt><trkpt lat="45.3593531" lon="10.5576735"><ele>99.0</ele><time>2026-04-12T10:37:30.455Z</time></trkpt><trkpt lat="45.3593907" lon="10.5575607"><ele>99.0</ele><time>2026-04-12T10:37:31.449Z</time></trkpt><trkpt lat="45.3594455" lon="10.5574159"><ele>99.0</ele><time>2026-04-12T10:37:32.441Z</time></trkpt><trkpt lat="45.3595065" lon="10.5572481"><ele>99.0</ele><time>2026-04-12T10:37:33.441Z</time></trkpt><trkpt lat="45.3595715" lon="10.5570745"><ele>98.75</ele><time>2026-04-12T10:37:34.443Z</time></trkpt><trkpt lat="45.3596314" lon="10.5569112"><ele>98.5</ele><time>2026-04-12T10:37:35.442Z</time></trkpt><trkpt lat="45.359684" lon="10.5567472"><ele>98.25</ele><time>2026-04-12T10:37:36.441Z</time></trkpt><trkpt lat="45.3597232" lon="10.5565777"><ele>98.0</ele><time>2026-04-12T10:37:37.446Z</time></trkpt><trkpt lat="45.359746" lon="10.5564"><ele>98.25</ele><time>2026-04-12T10:37:38.443Z</time></trkpt><trkpt lat="45.359752" lon="10.5562102"><ele>98.5</ele><time>2026-04-12T10:37:39.443Z</time></trkpt><trkpt lat="45.3597442" lon="10.5560011"><ele>98.75</ele><time>2026-04-12T10:37:40.436Z</time></trkpt><trkpt lat="45.359732" lon="10.555773"><ele>99.0</ele><time>2026-04-12T10:37:41.452Z</time></trkpt><trkpt lat="45.3597192" lon="10.5555293"><ele>99.33333333333334</ele><time>2026-04-12T10:37:42.449Z</time></trkpt><trkpt lat="45.3597066" lon="10.5552778"><ele>99.66666666666667</ele><time>2026-04-12T10:37:43.448Z</time></trkpt><trkpt lat="45.3596932" lon="10.5550242"><ele>100.0</ele><time>2026-04-12T10:37:44.444Z</time></trkpt><trkpt lat="45.3596807" lon="10.5547742"><ele>99.33333333333334</ele><time>2026-04-12T10:37:45.448Z</time></trkpt><trkpt lat="45.3596709" lon="10.5545321"><ele>98.66666666666666</ele><time>2026-04-12T10:37:46.45Z</time></trkpt><trkpt lat="45.3596633" lon="10.5542839"><ele>98.0</ele><time>2026-04-12T10:37:47.444Z</time></trkpt><trkpt lat="45.3596584" lon="10.5540578"><ele>98.0</ele><time>2026-04-12T10:37:48.44Z</time></trkpt><trkpt lat="45.359662" lon="10.5538522"><ele>98.0</ele><time>2026-04-12T10:37:49.449Z</time></trkpt><trkpt lat="45.3596819" lon="10.5536642"><ele>98.0</ele><time>2026-04-12T10:37:50.45Z</time></trkpt><trkpt lat="45.3597216" lon="10.5534885"><ele>98.0</ele><time>2026-04-12T10:37:51.443Z</time></trkpt><trkpt lat="45.3597841" lon="10.5533023"><ele>99.66666666666666</ele><time>2026-04-12T10:37:52.438Z</time></trkpt><trkpt lat="45.3598638" lon="10.5531047"><ele>101.33333333333334</ele><time>2026-04-12T10:37:53.445Z</time></trkpt><trkpt lat="45.3599465" lon="10.5529097"><ele>103.0</ele><time>2026-04-12T10:37:54.443Z</time></trkpt><trkpt lat="45.3600344" lon="10.5527071"><ele>103.0</ele><time>2026-04-12T10:37:55.443Z</time></trkpt><trkpt lat="45.3601239" lon="10.5524773"><ele>103.0</ele><time>2026-04-12T10:37:56.441Z</time></trkpt><trkpt lat="45.3602187" lon="10.5522404"><ele>103.0</ele><time>2026-04-12T10:37:57.443Z</time></trkpt><trkpt lat="45.3603161" lon="10.5520099"><ele>103.0</ele><time>2026-04-12T10:37:58.441Z</time></trkpt><trkpt lat="45.360412" lon="10.5517673"><ele>103.0</ele><time>2026-04-12T10:37:59.44Z</time></trkpt><trkpt lat="45.3605081" lon="10.5515257"><ele>103.0</ele><time>2026-04-12T10:38:00.452Z</time></trkpt><trkpt lat="45.3606038" lon="10.551292"><ele>102.33333333333334</ele><time>2026-04-12T10:38:01.445Z</time></trkpt><trkpt lat="45.3606999" lon="10.5510565"><ele>101.66666666666666</ele><time>2026-04-12T10:38:02.444Z</time></trkpt><trkpt lat="45.3607981" lon="10.5508186"><ele>101.0</ele><time>2026-04-12T10:38:03.445Z</time></trkpt><trkpt lat="45.3609002" lon="10.5505728"><ele>101.0</ele><time>2026-04-12T10:38:04.439Z</time></trkpt><trkpt lat="45.3609975" lon="10.550329"><ele>101.0</ele><time>2026-04-12T10:38:05.443Z</time></trkpt><trkpt lat="45.3610956" lon="10.5500891"><ele>101.0</ele><time>2026-04-12T10:38:06.441Z</time></trkpt><trkpt lat="45.3611846" lon="10.5498636"><ele>101.0</ele><time>2026-04-12T10:38:07.448Z</time></trkpt><trkpt lat="45.3612677" lon="10.5496629"><ele>101.0</ele><time>2026-04-12T10:38:08.446Z</time></trkpt><trkpt lat="45.3613404" lon="10.5494871"><ele>101.0</ele><time>2026-04-12T10:38:09.444Z</time></trkpt><trkpt lat="45.3614026" lon="10.5493441"><ele>101.0</ele><time>2026-04-12T10:38:10.442Z</time></trkpt><trkpt lat="45.3614498" lon="10.549228"><ele>100.8</ele><time>2026-04-12T10:38:11.442Z</time></trkpt><trkpt lat="45.3615029" lon="10.5491257"><ele>100.6</ele><time>2026-04-12T10:38:13.449Z</time></trkpt><trkpt lat="45.3616115" lon="10.5492189"><ele>100.4</ele><time>2026-04-12T10:38:17.437Z</time></trkpt><trkpt lat="45.3616804" lon="10.5492929"><ele>100.2</ele><time>2026-04-12T10:38:18.451Z</time></trkpt><trkpt lat="45.3617828" lon="10.549357"><ele>100.0</ele><time>2026-04-12T10:38:19.448Z</time></trkpt><trkpt lat="45.3618886" lon="10.5494235"><ele>100.0</ele><time>2026-04-12T10:38:20.436Z</time></trkpt><trkpt lat="45.3620052" lon="10.5495036"><ele>100.0</ele><time>2026-04-12T10:38:21.445Z</time></trkpt><trkpt lat="45.3621266" lon="10.5495883"><ele>100.0</ele><time>2026-04-12T10:38:22.448Z</time></trkpt><trkpt lat="45.3622505" lon="10.5496845"><ele>100.0</ele><time>2026-04-12T10:38:23.439Z</time></trkpt><trkpt lat="45.3623721" lon="10.549773"><ele>101.25</ele><time>2026-04-12T10:38:24.443Z</time></trkpt><trkpt lat="45.36249" lon="10.5498499"><ele>102.5</ele><time>2026-04-12T10:38:25.444Z</time></trkpt><trkpt lat="45.3626008" lon="10.5499196"><ele>103.75</ele><time>2026-04-12T10:38:26.444Z</time></trkpt><trkpt lat="45.3626995" lon="10.5499825"><ele>105.0</ele><time>2026-04-12T10:38:27.44Z</time></trkpt><trkpt lat="45.3627901" lon="10.5500375"><ele>105.0</ele><time>2026-04-12T10:38:28.454Z</time></trkpt><trkpt lat="45.3628677" lon="10.5500881"><ele>105.0</ele><time>2026-04-12T10:38:29.451Z</time></trkpt><trkpt lat="45.3629301" lon="10.5501309"><ele>105.0</ele><time>2026-04-12T10:38:30.446Z</time></trkpt><trkpt lat="45.3629869" lon="10.550246"><ele>105.0</ele><time>2026-04-12T10:38:32.442Z</time></trkpt><trkpt lat="45.3629585" lon="10.5504273"><ele>105.0</ele><time>2026-04-12T10:38:34.452Z</time></trkpt><trkpt lat="45.3629209" lon="10.5505247"><ele>104.83333333333333</ele><time>2026-04-12T10:38:35.453Z</time></trkpt><trkpt lat="45.3628838" lon="10.5506652"><ele>104.66666666666666</ele><time>2026-04-12T10:38:37.449Z</time></trkpt><trkpt lat="45.3629349" lon="10.5507677"><ele>104.5</ele><time>2026-04-12T10:38:39.448Z</time></trkpt><trkpt lat="45.3629957" lon="10.5508203"><ele>104.33333333333333</ele><time>2026-04-12T10:38:40.444Z</time></trkpt><trkpt lat="45.363074" lon="10.5508819"><ele>104.16666666666666</ele><time>2026-04-12T10:38:41.445Z</time></trkpt><trkpt lat="45.3631502" lon="10.5509582"><ele>104.0</ele><time>2026-04-12T10:38:42.448Z</time></trkpt><trkpt lat="45.3632305" lon="10.5510448"><ele>104.6</ele><time>2026-04-12T10:38:43.447Z</time></trkpt><trkpt lat="45.3633196" lon="10.551131"><ele>105.2</ele><time>2026-04-12T10:38:44.457Z</time></trkpt><trkpt lat="45.363416" lon="10.551213"><ele>105.79999999999998</ele><time>2026-04-12T10:38:45.445Z</time></trkpt><trkpt lat="45.3635123" lon="10.5512922"><ele>106.39999999999999</ele><time>2026-04-12T10:38:46.443Z</time></trkpt><trkpt lat="45.3636037" lon="10.5513675"><ele>107.0</ele><time>2026-04-12T10:38:47.439Z</time></trkpt><trkpt lat="45.363689" lon="10.5514365"><ele>107.16666666666666</ele><time>2026-04-12T10:38:48.449Z</time></trkpt><trkpt lat="45.3637676" lon="10.5515027"><ele>107.33333333333333</ele><time>2026-04-12T10:38:49.449Z</time></trkpt><trkpt lat="45.3638411" lon="10.5515662"><ele>107.5</ele><time>2026-04-12T10:38:50.447Z</time></trkpt><trkpt lat="45.3639094" lon="10.5516192"><ele>107.66666666666666</ele><time>2026-04-12T10:38:51.451Z</time></trkpt><trkpt lat="45.3639904" lon="10.5516655"><ele>107.83333333333333</ele><time>2026-04-12T10:38:53.452Z</time></trkpt><trkpt lat="45.364096" lon="10.5516417"><ele>108.0</ele><time>2026-04-12T10:38:56.445Z</time></trkpt><trkpt lat="45.3641771" lon="10.5516512"><ele>108.0</ele><time>2026-04-12T10:38:58.448Z</time></trkpt><trkpt lat="45.3642122" lon="10.5517304"><ele>108.0</ele><time>2026-04-12T10:39:00.447Z</time></trkpt><trkpt lat="45.3641904" lon="10.5518162"><ele>108.0</ele><time>2026-04-12T10:39:02.444Z</time></trkpt><trkpt lat="45.364165" lon="10.5518983"><ele>108.0</ele><time>2026-04-12T10:39:04.443Z</time></trkpt><trkpt lat="45.3641715" lon="10.5519975"><ele>108.0</ele><time>2026-04-12T10:39:14.455Z</time></trkpt><trkpt lat="45.364229" lon="10.5520563"><ele>108.0</ele><time>2026-04-12T10:39:16.438Z</time></trkpt><trkpt lat="45.3642852" lon="10.5521044"><ele>108.0</ele><time>2026-04-12T10:39:18.43Z</time></trkpt><trkpt lat="45.3643741" lon="10.552166"><ele>108.0</ele><time>2026-04-12T10:39:22.44Z</time></trkpt></trkseg></trk></gpx>